<?xml version="1.0" encoding="UTF-8" standalone="no" ?>
<gpx xmlns="http://www.topografix.com/GPX/1/1" xmlns:xsi="http://www.w3.org/2001/XMLSchema-instance" xsi:schemaLocation="http://www.topografix.com/GPX/1/1 http://www.topografix.com/GPX/1/1/gpx.xsd" version="1.1" creator="VisuGPX - https://www.visugpx.com">
  <metadata>
    <name>Parcours Quaregnon( Mons) 60km</name>
    <desc><![CDATA[
 Copié sur Denis]]></desc>
  </metadata>
  <trk>
    <name><![CDATA[Parcours Quaregnon( Mons) 60km_1]]></name>
    <trkseg>
      <trkpt lat="50.44637" lon="3.89422">
        <ele>103</ele>
        <time>2018-09-26T08:47:56.000Z</time>
      </trkpt>
      <trkpt lat="50.44637" lon="3.89422">
        <ele>103</ele>
        <time>2018-09-26T08:48:03.000Z</time>
      </trkpt>
      <trkpt lat="50.44641" lon="3.89403">
        <ele>83</ele>
        <time>2018-09-26T08:50:37.000Z</time>
      </trkpt>
      <trkpt lat="50.44646" lon="3.89391">
        <ele>87</ele>
        <time>2018-09-26T08:50:41.000Z</time>
      </trkpt>
      <trkpt lat="50.44653" lon="3.89375">
        <ele>87</ele>
        <time>2018-09-26T08:50:45.000Z</time>
      </trkpt>
      <trkpt lat="50.4466" lon="3.89352">
        <ele>87</ele>
        <time>2018-09-26T08:50:49.000Z</time>
      </trkpt>
      <trkpt lat="50.44664" lon="3.89337">
        <ele>87</ele>
        <time>2018-09-26T08:50:51.000Z</time>
      </trkpt>
      <trkpt lat="50.4467" lon="3.8932">
        <ele>86</ele>
        <time>2018-09-26T08:50:53.000Z</time>
      </trkpt>
      <trkpt lat="50.44676" lon="3.89303">
        <ele>88</ele>
        <time>2018-09-26T08:50:55.000Z</time>
      </trkpt>
      <trkpt lat="50.44681" lon="3.89285">
        <ele>88</ele>
        <time>2018-09-26T08:50:57.000Z</time>
      </trkpt>
      <trkpt lat="50.44687" lon="3.89268">
        <ele>89</ele>
        <time>2018-09-26T08:50:59.000Z</time>
      </trkpt>
      <trkpt lat="50.44691" lon="3.89253">
        <ele>91</ele>
        <time>2018-09-26T08:51:01.000Z</time>
      </trkpt>
      <trkpt lat="50.44697" lon="3.89245">
        <ele>92</ele>
        <time>2018-09-26T08:51:03.000Z</time>
      </trkpt>
      <trkpt lat="50.44701" lon="3.89237">
        <ele>93</ele>
        <time>2018-09-26T08:51:05.000Z</time>
      </trkpt>
      <trkpt lat="50.44698" lon="3.89228">
        <ele>90</ele>
        <time>2018-09-26T08:51:07.000Z</time>
      </trkpt>
      <trkpt lat="50.4469" lon="3.89224">
        <ele>90</ele>
        <time>2018-09-26T08:51:09.000Z</time>
      </trkpt>
      <trkpt lat="50.44683" lon="3.89221">
        <ele>91</ele>
        <time>2018-09-26T08:51:11.000Z</time>
      </trkpt>
      <trkpt lat="50.44675" lon="3.89217">
        <ele>91</ele>
        <time>2018-09-26T08:51:13.000Z</time>
      </trkpt>
      <trkpt lat="50.44667" lon="3.89213">
        <ele>91</ele>
        <time>2018-09-26T08:51:15.000Z</time>
      </trkpt>
      <trkpt lat="50.44661" lon="3.89209">
        <ele>92</ele>
        <time>2018-09-26T08:51:17.000Z</time>
      </trkpt>
      <trkpt lat="50.44654" lon="3.89204">
        <ele>93</ele>
        <time>2018-09-26T08:51:19.000Z</time>
      </trkpt>
      <trkpt lat="50.44647" lon="3.892">
        <ele>92</ele>
        <time>2018-09-26T08:51:21.000Z</time>
      </trkpt>
      <trkpt lat="50.44641" lon="3.89196">
        <ele>92</ele>
        <time>2018-09-26T08:51:23.000Z</time>
      </trkpt>
      <trkpt lat="50.44634" lon="3.89192">
        <ele>92</ele>
        <time>2018-09-26T08:51:25.000Z</time>
      </trkpt>
      <trkpt lat="50.44627" lon="3.89188">
        <ele>92</ele>
        <time>2018-09-26T08:51:27.000Z</time>
      </trkpt>
      <trkpt lat="50.4462" lon="3.89184">
        <ele>92</ele>
        <time>2018-09-26T08:51:29.000Z</time>
      </trkpt>
      <trkpt lat="50.44614" lon="3.8918">
        <ele>94</ele>
        <time>2018-09-26T08:51:31.000Z</time>
      </trkpt>
      <trkpt lat="50.44608" lon="3.89176">
        <ele>94</ele>
        <time>2018-09-26T08:51:33.000Z</time>
      </trkpt>
      <trkpt lat="50.44601" lon="3.89172">
        <ele>94</ele>
        <time>2018-09-26T08:51:35.000Z</time>
      </trkpt>
      <trkpt lat="50.44595" lon="3.89169">
        <ele>95</ele>
        <time>2018-09-26T08:51:37.000Z</time>
      </trkpt>
      <trkpt lat="50.44589" lon="3.89165">
        <ele>95</ele>
        <time>2018-09-26T08:51:39.000Z</time>
      </trkpt>
      <trkpt lat="50.44582" lon="3.89161">
        <ele>95</ele>
        <time>2018-09-26T08:51:41.000Z</time>
      </trkpt>
      <trkpt lat="50.44575" lon="3.89158">
        <ele>95</ele>
        <time>2018-09-26T08:51:43.000Z</time>
      </trkpt>
      <trkpt lat="50.44568" lon="3.89154">
        <ele>95</ele>
        <time>2018-09-26T08:51:45.000Z</time>
      </trkpt>
      <trkpt lat="50.44561" lon="3.8915">
        <ele>95</ele>
        <time>2018-09-26T08:51:47.000Z</time>
      </trkpt>
      <trkpt lat="50.44554" lon="3.89149">
        <ele>96</ele>
        <time>2018-09-26T08:51:49.000Z</time>
      </trkpt>
      <trkpt lat="50.44547" lon="3.89147">
        <ele>96</ele>
        <time>2018-09-26T08:51:51.000Z</time>
      </trkpt>
      <trkpt lat="50.44541" lon="3.89146">
        <ele>96</ele>
        <time>2018-09-26T08:51:53.000Z</time>
      </trkpt>
      <trkpt lat="50.44535" lon="3.89145">
        <ele>96</ele>
        <time>2018-09-26T08:51:55.000Z</time>
      </trkpt>
      <trkpt lat="50.44527" lon="3.89145">
        <ele>97</ele>
        <time>2018-09-26T08:51:57.000Z</time>
      </trkpt>
      <trkpt lat="50.4452" lon="3.89142">
        <ele>97</ele>
        <time>2018-09-26T08:51:59.000Z</time>
      </trkpt>
      <trkpt lat="50.44514" lon="3.89138">
        <ele>97</ele>
        <time>2018-09-26T08:52:01.000Z</time>
      </trkpt>
      <trkpt lat="50.44507" lon="3.89134">
        <ele>97</ele>
        <time>2018-09-26T08:52:03.000Z</time>
      </trkpt>
      <trkpt lat="50.445" lon="3.89131">
        <ele>97</ele>
        <time>2018-09-26T08:52:05.000Z</time>
      </trkpt>
      <trkpt lat="50.44492" lon="3.89127">
        <ele>96</ele>
        <time>2018-09-26T08:52:07.000Z</time>
      </trkpt>
      <trkpt lat="50.44485" lon="3.89123">
        <ele>96</ele>
        <time>2018-09-26T08:52:09.000Z</time>
      </trkpt>
      <trkpt lat="50.44477" lon="3.89119">
        <ele>96</ele>
        <time>2018-09-26T08:52:11.000Z</time>
      </trkpt>
      <trkpt lat="50.44471" lon="3.89115">
        <ele>96</ele>
        <time>2018-09-26T08:52:13.000Z</time>
      </trkpt>
      <trkpt lat="50.44463" lon="3.89112">
        <ele>96</ele>
        <time>2018-09-26T08:52:15.000Z</time>
      </trkpt>
      <trkpt lat="50.44456" lon="3.89109">
        <ele>96</ele>
        <time>2018-09-26T08:52:17.000Z</time>
      </trkpt>
      <trkpt lat="50.4445" lon="3.89106">
        <ele>97</ele>
        <time>2018-09-26T08:52:19.000Z</time>
      </trkpt>
      <trkpt lat="50.44444" lon="3.89103">
        <ele>98</ele>
        <time>2018-09-26T08:52:21.000Z</time>
      </trkpt>
      <trkpt lat="50.44438" lon="3.891">
        <ele>99</ele>
        <time>2018-09-26T08:52:23.000Z</time>
      </trkpt>
      <trkpt lat="50.44432" lon="3.89097">
        <ele>99</ele>
        <time>2018-09-26T08:52:25.000Z</time>
      </trkpt>
      <trkpt lat="50.44425" lon="3.89094">
        <ele>100</ele>
        <time>2018-09-26T08:52:27.000Z</time>
      </trkpt>
      <trkpt lat="50.44418" lon="3.89091">
        <ele>100</ele>
        <time>2018-09-26T08:52:29.000Z</time>
      </trkpt>
      <trkpt lat="50.44411" lon="3.89087">
        <ele>100</ele>
        <time>2018-09-26T08:52:31.000Z</time>
      </trkpt>
      <trkpt lat="50.44405" lon="3.89083">
        <ele>100</ele>
        <time>2018-09-26T08:52:33.000Z</time>
      </trkpt>
      <trkpt lat="50.44398" lon="3.89079">
        <ele>100</ele>
        <time>2018-09-26T08:52:35.000Z</time>
      </trkpt>
      <trkpt lat="50.44392" lon="3.89075">
        <ele>101</ele>
        <time>2018-09-26T08:52:37.000Z</time>
      </trkpt>
      <trkpt lat="50.44386" lon="3.89071">
        <ele>101</ele>
        <time>2018-09-26T08:52:39.000Z</time>
      </trkpt>
      <trkpt lat="50.44379" lon="3.89068">
        <ele>102</ele>
        <time>2018-09-26T08:52:41.000Z</time>
      </trkpt>
      <trkpt lat="50.44379" lon="3.89068">
        <ele>102</ele>
        <time>2018-09-26T08:52:43.000Z</time>
      </trkpt>
      <trkpt lat="50.44368" lon="3.89061">
        <ele>104</ele>
        <time>2018-09-26T08:52:45.000Z</time>
      </trkpt>
      <trkpt lat="50.44363" lon="3.89058">
        <ele>104</ele>
        <time>2018-09-26T08:52:47.000Z</time>
      </trkpt>
      <trkpt lat="50.44357" lon="3.89055">
        <ele>104</ele>
        <time>2018-09-26T08:52:49.000Z</time>
      </trkpt>
      <trkpt lat="50.4435" lon="3.89052">
        <ele>105</ele>
        <time>2018-09-26T08:52:51.000Z</time>
      </trkpt>
      <trkpt lat="50.4435" lon="3.89052">
        <ele>105</ele>
        <time>2018-09-26T08:52:53.000Z</time>
      </trkpt>
      <trkpt lat="50.4434" lon="3.89046">
        <ele>107</ele>
        <time>2018-09-26T08:52:55.000Z</time>
      </trkpt>
      <trkpt lat="50.44334" lon="3.89042">
        <ele>107</ele>
        <time>2018-09-26T08:52:57.000Z</time>
      </trkpt>
      <trkpt lat="50.44328" lon="3.89039">
        <ele>107</ele>
        <time>2018-09-26T08:52:59.000Z</time>
      </trkpt>
      <trkpt lat="50.44321" lon="3.89034">
        <ele>107</ele>
        <time>2018-09-26T08:53:01.000Z</time>
      </trkpt>
      <trkpt lat="50.44316" lon="3.8903">
        <ele>107</ele>
        <time>2018-09-26T08:53:03.000Z</time>
      </trkpt>
      <trkpt lat="50.4431" lon="3.89027">
        <ele>107</ele>
        <time>2018-09-26T08:53:05.000Z</time>
      </trkpt>
      <trkpt lat="50.44304" lon="3.89024">
        <ele>107</ele>
        <time>2018-09-26T08:53:07.000Z</time>
      </trkpt>
      <trkpt lat="50.44297" lon="3.89021">
        <ele>108</ele>
        <time>2018-09-26T08:53:09.000Z</time>
      </trkpt>
      <trkpt lat="50.44291" lon="3.89016">
        <ele>108</ele>
        <time>2018-09-26T08:53:11.000Z</time>
      </trkpt>
      <trkpt lat="50.44284" lon="3.89012">
        <ele>108</ele>
        <time>2018-09-26T08:53:13.000Z</time>
      </trkpt>
      <trkpt lat="50.44278" lon="3.89008">
        <ele>109</ele>
        <time>2018-09-26T08:53:15.000Z</time>
      </trkpt>
      <trkpt lat="50.44272" lon="3.89004">
        <ele>109</ele>
        <time>2018-09-26T08:53:17.000Z</time>
      </trkpt>
      <trkpt lat="50.44265" lon="3.89001">
        <ele>109</ele>
        <time>2018-09-26T08:53:19.000Z</time>
      </trkpt>
      <trkpt lat="50.44259" lon="3.88998">
        <ele>110</ele>
        <time>2018-09-26T08:53:21.000Z</time>
      </trkpt>
      <trkpt lat="50.44253" lon="3.88994">
        <ele>109</ele>
        <time>2018-09-26T08:53:23.000Z</time>
      </trkpt>
      <trkpt lat="50.44246" lon="3.88991">
        <ele>109</ele>
        <time>2018-09-26T08:53:25.000Z</time>
      </trkpt>
      <trkpt lat="50.4424" lon="3.88988">
        <ele>109</ele>
        <time>2018-09-26T08:53:27.000Z</time>
      </trkpt>
      <trkpt lat="50.44234" lon="3.88985">
        <ele>110</ele>
        <time>2018-09-26T08:53:29.000Z</time>
      </trkpt>
      <trkpt lat="50.44234" lon="3.88985">
        <ele>110</ele>
        <time>2018-09-26T08:53:31.000Z</time>
      </trkpt>
      <trkpt lat="50.44222" lon="3.88981">
        <ele>110</ele>
        <time>2018-09-26T08:53:33.000Z</time>
      </trkpt>
      <trkpt lat="50.44216" lon="3.8898">
        <ele>109</ele>
        <time>2018-09-26T08:53:35.000Z</time>
      </trkpt>
      <trkpt lat="50.44209" lon="3.88979">
        <ele>109</ele>
        <time>2018-09-26T08:53:37.000Z</time>
      </trkpt>
      <trkpt lat="50.44202" lon="3.88978">
        <ele>109</ele>
        <time>2018-09-26T08:53:39.000Z</time>
      </trkpt>
      <trkpt lat="50.44194" lon="3.88978">
        <ele>108</ele>
        <time>2018-09-26T08:53:41.000Z</time>
      </trkpt>
      <trkpt lat="50.44186" lon="3.88978">
        <ele>108</ele>
        <time>2018-09-26T08:53:43.000Z</time>
      </trkpt>
      <trkpt lat="50.44177" lon="3.88979">
        <ele>108</ele>
        <time>2018-09-26T08:53:45.000Z</time>
      </trkpt>
      <trkpt lat="50.44168" lon="3.88979">
        <ele>108</ele>
        <time>2018-09-26T08:53:47.000Z</time>
      </trkpt>
      <trkpt lat="50.4416" lon="3.8898">
        <ele>108</ele>
        <time>2018-09-26T08:53:49.000Z</time>
      </trkpt>
      <trkpt lat="50.44151" lon="3.88982">
        <ele>108</ele>
        <time>2018-09-26T08:53:51.000Z</time>
      </trkpt>
      <trkpt lat="50.44143" lon="3.88983">
        <ele>108</ele>
        <time>2018-09-26T08:53:53.000Z</time>
      </trkpt>
      <trkpt lat="50.44135" lon="3.88984">
        <ele>108</ele>
        <time>2018-09-26T08:53:55.000Z</time>
      </trkpt>
      <trkpt lat="50.44126" lon="3.88985">
        <ele>108</ele>
        <time>2018-09-26T08:53:57.000Z</time>
      </trkpt>
      <trkpt lat="50.44118" lon="3.88985">
        <ele>107</ele>
        <time>2018-09-26T08:53:59.000Z</time>
      </trkpt>
      <trkpt lat="50.44109" lon="3.88986">
        <ele>107</ele>
        <time>2018-09-26T08:54:01.000Z</time>
      </trkpt>
      <trkpt lat="50.44101" lon="3.88987">
        <ele>107</ele>
        <time>2018-09-26T08:54:03.000Z</time>
      </trkpt>
      <trkpt lat="50.44091" lon="3.88989">
        <ele>107</ele>
        <time>2018-09-26T08:54:05.000Z</time>
      </trkpt>
      <trkpt lat="50.44083" lon="3.8899">
        <ele>107</ele>
        <time>2018-09-26T08:54:07.000Z</time>
      </trkpt>
      <trkpt lat="50.44075" lon="3.88991">
        <ele>107</ele>
        <time>2018-09-26T08:54:09.000Z</time>
      </trkpt>
      <trkpt lat="50.44067" lon="3.88992">
        <ele>107</ele>
        <time>2018-09-26T08:54:11.000Z</time>
      </trkpt>
      <trkpt lat="50.44058" lon="3.88993">
        <ele>107</ele>
        <time>2018-09-26T08:54:13.000Z</time>
      </trkpt>
      <trkpt lat="50.44049" lon="3.88994">
        <ele>107</ele>
        <time>2018-09-26T08:54:15.000Z</time>
      </trkpt>
      <trkpt lat="50.44041" lon="3.88995">
        <ele>107</ele>
        <time>2018-09-26T08:54:17.000Z</time>
      </trkpt>
      <trkpt lat="50.44032" lon="3.88996">
        <ele>107</ele>
        <time>2018-09-26T08:54:19.000Z</time>
      </trkpt>
      <trkpt lat="50.44024" lon="3.88997">
        <ele>107</ele>
        <time>2018-09-26T08:54:21.000Z</time>
      </trkpt>
      <trkpt lat="50.44015" lon="3.88996">
        <ele>107</ele>
        <time>2018-09-26T08:54:23.000Z</time>
      </trkpt>
      <trkpt lat="50.44007" lon="3.88996">
        <ele>107</ele>
        <time>2018-09-26T08:54:25.000Z</time>
      </trkpt>
      <trkpt lat="50.43998" lon="3.88995">
        <ele>108</ele>
        <time>2018-09-26T08:54:27.000Z</time>
      </trkpt>
      <trkpt lat="50.4399" lon="3.88994">
        <ele>108</ele>
        <time>2018-09-26T08:54:29.000Z</time>
      </trkpt>
      <trkpt lat="50.43982" lon="3.88992">
        <ele>109</ele>
        <time>2018-09-26T08:54:31.000Z</time>
      </trkpt>
      <trkpt lat="50.43974" lon="3.88991">
        <ele>109</ele>
        <time>2018-09-26T08:54:33.000Z</time>
      </trkpt>
      <trkpt lat="50.43966" lon="3.88989">
        <ele>109</ele>
        <time>2018-09-26T08:54:35.000Z</time>
      </trkpt>
      <trkpt lat="50.43957" lon="3.88987">
        <ele>110</ele>
        <time>2018-09-26T08:54:37.000Z</time>
      </trkpt>
      <trkpt lat="50.43949" lon="3.88984">
        <ele>110</ele>
        <time>2018-09-26T08:54:39.000Z</time>
      </trkpt>
      <trkpt lat="50.4394" lon="3.88981">
        <ele>110</ele>
        <time>2018-09-26T08:54:41.000Z</time>
      </trkpt>
      <trkpt lat="50.43931" lon="3.8898">
        <ele>111</ele>
        <time>2018-09-26T08:54:43.000Z</time>
      </trkpt>
      <trkpt lat="50.43922" lon="3.88978">
        <ele>111</ele>
        <time>2018-09-26T08:54:45.000Z</time>
      </trkpt>
      <trkpt lat="50.43913" lon="3.88976">
        <ele>112</ele>
        <time>2018-09-26T08:54:47.000Z</time>
      </trkpt>
      <trkpt lat="50.43906" lon="3.88974">
        <ele>112</ele>
        <time>2018-09-26T08:54:49.000Z</time>
      </trkpt>
      <trkpt lat="50.439" lon="3.88973">
        <ele>113</ele>
        <time>2018-09-26T08:54:51.000Z</time>
      </trkpt>
      <trkpt lat="50.439" lon="3.88973">
        <ele>113</ele>
        <time>2018-09-26T08:54:53.000Z</time>
      </trkpt>
      <trkpt lat="50.43892" lon="3.88965">
        <ele>118</ele>
        <time>2018-09-26T08:54:55.000Z</time>
      </trkpt>
      <trkpt lat="50.43893" lon="3.88954">
        <ele>119</ele>
        <time>2018-09-26T08:54:57.000Z</time>
      </trkpt>
      <trkpt lat="50.43895" lon="3.88937">
        <ele>118</ele>
        <time>2018-09-26T08:54:59.000Z</time>
      </trkpt>
      <trkpt lat="50.43897" lon="3.88921">
        <ele>118</ele>
        <time>2018-09-26T08:55:01.000Z</time>
      </trkpt>
      <trkpt lat="50.439" lon="3.88904">
        <ele>119</ele>
        <time>2018-09-26T08:55:03.000Z</time>
      </trkpt>
      <trkpt lat="50.43903" lon="3.88885">
        <ele>118</ele>
        <time>2018-09-26T08:55:05.000Z</time>
      </trkpt>
      <trkpt lat="50.43905" lon="3.88867">
        <ele>117</ele>
        <time>2018-09-26T08:55:07.000Z</time>
      </trkpt>
      <trkpt lat="50.43908" lon="3.88848">
        <ele>118</ele>
        <time>2018-09-26T08:55:09.000Z</time>
      </trkpt>
      <trkpt lat="50.4391" lon="3.88828">
        <ele>118</ele>
        <time>2018-09-26T08:55:11.000Z</time>
      </trkpt>
      <trkpt lat="50.43912" lon="3.88809">
        <ele>118</ele>
        <time>2018-09-26T08:55:13.000Z</time>
      </trkpt>
      <trkpt lat="50.43913" lon="3.8879">
        <ele>118</ele>
        <time>2018-09-26T08:55:15.000Z</time>
      </trkpt>
      <trkpt lat="50.43915" lon="3.88771">
        <ele>118</ele>
        <time>2018-09-26T08:55:17.000Z</time>
      </trkpt>
      <trkpt lat="50.43916" lon="3.88752">
        <ele>118</ele>
        <time>2018-09-26T08:55:19.000Z</time>
      </trkpt>
      <trkpt lat="50.43918" lon="3.88734">
        <ele>117</ele>
        <time>2018-09-26T08:55:21.000Z</time>
      </trkpt>
      <trkpt lat="50.43919" lon="3.88719">
        <ele>118</ele>
        <time>2018-09-26T08:55:23.000Z</time>
      </trkpt>
      <trkpt lat="50.43921" lon="3.88705">
        <ele>117</ele>
        <time>2018-09-26T08:55:25.000Z</time>
      </trkpt>
      <trkpt lat="50.43924" lon="3.88693">
        <ele>117</ele>
        <time>2018-09-26T08:55:27.000Z</time>
      </trkpt>
      <trkpt lat="50.43926" lon="3.88681">
        <ele>117</ele>
        <time>2018-09-26T08:55:29.000Z</time>
      </trkpt>
      <trkpt lat="50.43928" lon="3.88668">
        <ele>117</ele>
        <time>2018-09-26T08:55:31.000Z</time>
      </trkpt>
      <trkpt lat="50.4393" lon="3.88656">
        <ele>118</ele>
        <time>2018-09-26T08:55:33.000Z</time>
      </trkpt>
      <trkpt lat="50.43932" lon="3.88643">
        <ele>117</ele>
        <time>2018-09-26T08:55:35.000Z</time>
      </trkpt>
      <trkpt lat="50.43933" lon="3.8863">
        <ele>117</ele>
        <time>2018-09-26T08:55:37.000Z</time>
      </trkpt>
      <trkpt lat="50.43936" lon="3.88618">
        <ele>117</ele>
        <time>2018-09-26T08:55:39.000Z</time>
      </trkpt>
      <trkpt lat="50.43939" lon="3.88607">
        <ele>117</ele>
        <time>2018-09-26T08:55:41.000Z</time>
      </trkpt>
      <trkpt lat="50.43941" lon="3.88596">
        <ele>117</ele>
        <time>2018-09-26T08:55:43.000Z</time>
      </trkpt>
      <trkpt lat="50.43944" lon="3.88585">
        <ele>117</ele>
        <time>2018-09-26T08:55:45.000Z</time>
      </trkpt>
      <trkpt lat="50.43946" lon="3.88573">
        <ele>117</ele>
        <time>2018-09-26T08:55:47.000Z</time>
      </trkpt>
      <trkpt lat="50.43949" lon="3.88562">
        <ele>116</ele>
        <time>2018-09-26T08:55:49.000Z</time>
      </trkpt>
      <trkpt lat="50.43952" lon="3.8855">
        <ele>116</ele>
        <time>2018-09-26T08:55:51.000Z</time>
      </trkpt>
      <trkpt lat="50.43954" lon="3.88538">
        <ele>116</ele>
        <time>2018-09-26T08:55:53.000Z</time>
      </trkpt>
      <trkpt lat="50.43956" lon="3.88527">
        <ele>116</ele>
        <time>2018-09-26T08:55:55.000Z</time>
      </trkpt>
      <trkpt lat="50.43958" lon="3.88514">
        <ele>116</ele>
        <time>2018-09-26T08:55:57.000Z</time>
      </trkpt>
      <trkpt lat="50.43961" lon="3.88501">
        <ele>117</ele>
        <time>2018-09-26T08:55:59.000Z</time>
      </trkpt>
      <trkpt lat="50.43964" lon="3.88488">
        <ele>116</ele>
        <time>2018-09-26T08:56:01.000Z</time>
      </trkpt>
      <trkpt lat="50.43967" lon="3.88475">
        <ele>116</ele>
        <time>2018-09-26T08:56:03.000Z</time>
      </trkpt>
      <trkpt lat="50.43969" lon="3.88461">
        <ele>116</ele>
        <time>2018-09-26T08:56:05.000Z</time>
      </trkpt>
      <trkpt lat="50.43972" lon="3.88446">
        <ele>116</ele>
        <time>2018-09-26T08:56:07.000Z</time>
      </trkpt>
      <trkpt lat="50.43975" lon="3.88433">
        <ele>116</ele>
        <time>2018-09-26T08:56:09.000Z</time>
      </trkpt>
      <trkpt lat="50.43979" lon="3.88419">
        <ele>116</ele>
        <time>2018-09-26T08:56:11.000Z</time>
      </trkpt>
      <trkpt lat="50.43982" lon="3.88405">
        <ele>116</ele>
        <time>2018-09-26T08:56:13.000Z</time>
      </trkpt>
      <trkpt lat="50.43985" lon="3.88391">
        <ele>116</ele>
        <time>2018-09-26T08:56:15.000Z</time>
      </trkpt>
      <trkpt lat="50.43989" lon="3.88376">
        <ele>116</ele>
        <time>2018-09-26T08:56:17.000Z</time>
      </trkpt>
      <trkpt lat="50.43993" lon="3.88361">
        <ele>116</ele>
        <time>2018-09-26T08:56:19.000Z</time>
      </trkpt>
      <trkpt lat="50.43996" lon="3.88344">
        <ele>117</ele>
        <time>2018-09-26T08:56:21.000Z</time>
      </trkpt>
      <trkpt lat="50.44001" lon="3.88327">
        <ele>117</ele>
        <time>2018-09-26T08:56:23.000Z</time>
      </trkpt>
      <trkpt lat="50.44006" lon="3.8831">
        <ele>117</ele>
        <time>2018-09-26T08:56:25.000Z</time>
      </trkpt>
      <trkpt lat="50.4401" lon="3.88291">
        <ele>116</ele>
        <time>2018-09-26T08:56:27.000Z</time>
      </trkpt>
      <trkpt lat="50.44015" lon="3.88273">
        <ele>116</ele>
        <time>2018-09-26T08:56:29.000Z</time>
      </trkpt>
      <trkpt lat="50.4402" lon="3.88253">
        <ele>116</ele>
        <time>2018-09-26T08:56:31.000Z</time>
      </trkpt>
      <trkpt lat="50.44025" lon="3.88234">
        <ele>116</ele>
        <time>2018-09-26T08:56:33.000Z</time>
      </trkpt>
      <trkpt lat="50.4403" lon="3.88216">
        <ele>116</ele>
        <time>2018-09-26T08:56:35.000Z</time>
      </trkpt>
      <trkpt lat="50.44035" lon="3.88197">
        <ele>116</ele>
        <time>2018-09-26T08:56:37.000Z</time>
      </trkpt>
      <trkpt lat="50.44039" lon="3.8818">
        <ele>116</ele>
        <time>2018-09-26T08:56:39.000Z</time>
      </trkpt>
      <trkpt lat="50.44044" lon="3.88162">
        <ele>115</ele>
        <time>2018-09-26T08:56:41.000Z</time>
      </trkpt>
      <trkpt lat="50.44049" lon="3.88144">
        <ele>115</ele>
        <time>2018-09-26T08:56:43.000Z</time>
      </trkpt>
      <trkpt lat="50.44054" lon="3.88126">
        <ele>114</ele>
        <time>2018-09-26T08:56:45.000Z</time>
      </trkpt>
      <trkpt lat="50.44058" lon="3.88108">
        <ele>114</ele>
        <time>2018-09-26T08:56:47.000Z</time>
      </trkpt>
      <trkpt lat="50.44062" lon="3.8809">
        <ele>114</ele>
        <time>2018-09-26T08:56:49.000Z</time>
      </trkpt>
      <trkpt lat="50.44066" lon="3.88071">
        <ele>113</ele>
        <time>2018-09-26T08:56:51.000Z</time>
      </trkpt>
      <trkpt lat="50.44071" lon="3.88051">
        <ele>112</ele>
        <time>2018-09-26T08:56:53.000Z</time>
      </trkpt>
      <trkpt lat="50.44075" lon="3.88031">
        <ele>112</ele>
        <time>2018-09-26T08:56:55.000Z</time>
      </trkpt>
      <trkpt lat="50.4408" lon="3.8801">
        <ele>111</ele>
        <time>2018-09-26T08:56:57.000Z</time>
      </trkpt>
      <trkpt lat="50.44083" lon="3.87989">
        <ele>110</ele>
        <time>2018-09-26T08:56:59.000Z</time>
      </trkpt>
      <trkpt lat="50.44088" lon="3.87966">
        <ele>110</ele>
        <time>2018-09-26T08:57:01.000Z</time>
      </trkpt>
      <trkpt lat="50.44092" lon="3.87942">
        <ele>109</ele>
        <time>2018-09-26T08:57:03.000Z</time>
      </trkpt>
      <trkpt lat="50.44096" lon="3.87917">
        <ele>108</ele>
        <time>2018-09-26T08:57:05.000Z</time>
      </trkpt>
      <trkpt lat="50.44101" lon="3.87891">
        <ele>108</ele>
        <time>2018-09-26T08:57:07.000Z</time>
      </trkpt>
      <trkpt lat="50.44105" lon="3.87865">
        <ele>107</ele>
        <time>2018-09-26T08:57:09.000Z</time>
      </trkpt>
      <trkpt lat="50.44109" lon="3.8784">
        <ele>106</ele>
        <time>2018-09-26T08:57:11.000Z</time>
      </trkpt>
      <trkpt lat="50.44114" lon="3.87818">
        <ele>106</ele>
        <time>2018-09-26T08:57:13.000Z</time>
      </trkpt>
      <trkpt lat="50.44118" lon="3.87795">
        <ele>104</ele>
        <time>2018-09-26T08:57:15.000Z</time>
      </trkpt>
      <trkpt lat="50.44122" lon="3.87771">
        <ele>104</ele>
        <time>2018-09-26T08:57:17.000Z</time>
      </trkpt>
      <trkpt lat="50.44126" lon="3.87745">
        <ele>104</ele>
        <time>2018-09-26T08:57:19.000Z</time>
      </trkpt>
      <trkpt lat="50.44129" lon="3.87717">
        <ele>103</ele>
        <time>2018-09-26T08:57:21.000Z</time>
      </trkpt>
      <trkpt lat="50.44131" lon="3.87687">
        <ele>103</ele>
        <time>2018-09-26T08:57:23.000Z</time>
      </trkpt>
      <trkpt lat="50.44131" lon="3.87656">
        <ele>102</ele>
        <time>2018-09-26T08:57:25.000Z</time>
      </trkpt>
      <trkpt lat="50.4413" lon="3.87624">
        <ele>101</ele>
        <time>2018-09-26T08:57:27.000Z</time>
      </trkpt>
      <trkpt lat="50.44129" lon="3.87591">
        <ele>99</ele>
        <time>2018-09-26T08:57:29.000Z</time>
      </trkpt>
      <trkpt lat="50.44128" lon="3.87557">
        <ele>98</ele>
        <time>2018-09-26T08:57:31.000Z</time>
      </trkpt>
      <trkpt lat="50.44126" lon="3.87523">
        <ele>96</ele>
        <time>2018-09-26T08:57:33.000Z</time>
      </trkpt>
      <trkpt lat="50.44124" lon="3.8749">
        <ele>95</ele>
        <time>2018-09-26T08:57:35.000Z</time>
      </trkpt>
      <trkpt lat="50.44122" lon="3.87456">
        <ele>94</ele>
        <time>2018-09-26T08:57:37.000Z</time>
      </trkpt>
      <trkpt lat="50.44122" lon="3.87423">
        <ele>92</ele>
        <time>2018-09-26T08:57:39.000Z</time>
      </trkpt>
      <trkpt lat="50.44121" lon="3.8739">
        <ele>90</ele>
        <time>2018-09-26T08:57:41.000Z</time>
      </trkpt>
      <trkpt lat="50.44119" lon="3.87357">
        <ele>89</ele>
        <time>2018-09-26T08:57:43.000Z</time>
      </trkpt>
      <trkpt lat="50.44118" lon="3.87325">
        <ele>88</ele>
        <time>2018-09-26T08:57:45.000Z</time>
      </trkpt>
      <trkpt lat="50.44118" lon="3.87295">
        <ele>86</ele>
        <time>2018-09-26T08:57:47.000Z</time>
      </trkpt>
      <trkpt lat="50.44117" lon="3.87267">
        <ele>86</ele>
        <time>2018-09-26T08:57:49.000Z</time>
      </trkpt>
      <trkpt lat="50.44116" lon="3.87241">
        <ele>86</ele>
        <time>2018-09-26T08:57:51.000Z</time>
      </trkpt>
      <trkpt lat="50.44115" lon="3.87215">
        <ele>86</ele>
        <time>2018-09-26T08:57:53.000Z</time>
      </trkpt>
      <trkpt lat="50.44115" lon="3.87193">
        <ele>87</ele>
        <time>2018-09-26T08:57:55.000Z</time>
      </trkpt>
      <trkpt lat="50.44114" lon="3.87172">
        <ele>88</ele>
        <time>2018-09-26T08:57:57.000Z</time>
      </trkpt>
      <trkpt lat="50.44112" lon="3.87154">
        <ele>87</ele>
        <time>2018-09-26T08:57:59.000Z</time>
      </trkpt>
      <trkpt lat="50.44112" lon="3.87134">
        <ele>87</ele>
        <time>2018-09-26T08:58:01.000Z</time>
      </trkpt>
      <trkpt lat="50.4411" lon="3.87114">
        <ele>87</ele>
        <time>2018-09-26T08:58:03.000Z</time>
      </trkpt>
      <trkpt lat="50.44108" lon="3.87094">
        <ele>87</ele>
        <time>2018-09-26T08:58:05.000Z</time>
      </trkpt>
      <trkpt lat="50.44107" lon="3.87073">
        <ele>87</ele>
        <time>2018-09-26T08:58:07.000Z</time>
      </trkpt>
      <trkpt lat="50.44106" lon="3.87054">
        <ele>87</ele>
        <time>2018-09-26T08:58:09.000Z</time>
      </trkpt>
      <trkpt lat="50.44104" lon="3.87038">
        <ele>86</ele>
        <time>2018-09-26T08:58:11.000Z</time>
      </trkpt>
      <trkpt lat="50.44101" lon="3.8702">
        <ele>85</ele>
        <time>2018-09-26T08:58:13.000Z</time>
      </trkpt>
      <trkpt lat="50.44099" lon="3.87001">
        <ele>85</ele>
        <time>2018-09-26T08:58:15.000Z</time>
      </trkpt>
      <trkpt lat="50.44098" lon="3.86982">
        <ele>85</ele>
        <time>2018-09-26T08:58:17.000Z</time>
      </trkpt>
      <trkpt lat="50.44096" lon="3.86963">
        <ele>85</ele>
        <time>2018-09-26T08:58:19.000Z</time>
      </trkpt>
      <trkpt lat="50.44094" lon="3.86944">
        <ele>84</ele>
        <time>2018-09-26T08:58:21.000Z</time>
      </trkpt>
      <trkpt lat="50.44093" lon="3.86928">
        <ele>85</ele>
        <time>2018-09-26T08:58:23.000Z</time>
      </trkpt>
      <trkpt lat="50.44088" lon="3.86922">
        <ele>90</ele>
        <time>2018-09-26T08:58:26.000Z</time>
      </trkpt>
      <trkpt lat="50.4408" lon="3.86925">
        <ele>92</ele>
        <time>2018-09-26T08:58:28.000Z</time>
      </trkpt>
      <trkpt lat="50.4407" lon="3.86925">
        <ele>93</ele>
        <time>2018-09-26T08:58:30.000Z</time>
      </trkpt>
      <trkpt lat="50.44058" lon="3.86924">
        <ele>94</ele>
        <time>2018-09-26T08:58:32.000Z</time>
      </trkpt>
      <trkpt lat="50.44047" lon="3.86922">
        <ele>95</ele>
        <time>2018-09-26T08:58:34.000Z</time>
      </trkpt>
      <trkpt lat="50.44036" lon="3.8692">
        <ele>95</ele>
        <time>2018-09-26T08:58:36.000Z</time>
      </trkpt>
      <trkpt lat="50.44025" lon="3.86919">
        <ele>95</ele>
        <time>2018-09-26T08:58:38.000Z</time>
      </trkpt>
      <trkpt lat="50.44015" lon="3.86918">
        <ele>96</ele>
        <time>2018-09-26T08:58:40.000Z</time>
      </trkpt>
      <trkpt lat="50.44004" lon="3.86917">
        <ele>96</ele>
        <time>2018-09-26T08:58:42.000Z</time>
      </trkpt>
      <trkpt lat="50.43993" lon="3.86917">
        <ele>96</ele>
        <time>2018-09-26T08:58:44.000Z</time>
      </trkpt>
      <trkpt lat="50.43983" lon="3.86915">
        <ele>97</ele>
        <time>2018-09-26T08:58:46.000Z</time>
      </trkpt>
      <trkpt lat="50.43972" lon="3.86914">
        <ele>97</ele>
        <time>2018-09-26T08:58:48.000Z</time>
      </trkpt>
      <trkpt lat="50.43961" lon="3.86912">
        <ele>97</ele>
        <time>2018-09-26T08:58:50.000Z</time>
      </trkpt>
      <trkpt lat="50.4395" lon="3.86909">
        <ele>97</ele>
        <time>2018-09-26T08:58:52.000Z</time>
      </trkpt>
      <trkpt lat="50.43938" lon="3.86907">
        <ele>96</ele>
        <time>2018-09-26T08:58:54.000Z</time>
      </trkpt>
      <trkpt lat="50.43927" lon="3.86905">
        <ele>94</ele>
        <time>2018-09-26T08:58:56.000Z</time>
      </trkpt>
      <trkpt lat="50.43916" lon="3.86902">
        <ele>94</ele>
        <time>2018-09-26T08:58:58.000Z</time>
      </trkpt>
      <trkpt lat="50.43904" lon="3.86903">
        <ele>94</ele>
        <time>2018-09-26T08:59:00.000Z</time>
      </trkpt>
      <trkpt lat="50.43893" lon="3.86905">
        <ele>95</ele>
        <time>2018-09-26T08:59:02.000Z</time>
      </trkpt>
      <trkpt lat="50.43881" lon="3.86905">
        <ele>93</ele>
        <time>2018-09-26T08:59:04.000Z</time>
      </trkpt>
      <trkpt lat="50.4387" lon="3.86906">
        <ele>93</ele>
        <time>2018-09-26T08:59:06.000Z</time>
      </trkpt>
      <trkpt lat="50.43859" lon="3.86906">
        <ele>93</ele>
        <time>2018-09-26T08:59:08.000Z</time>
      </trkpt>
      <trkpt lat="50.43848" lon="3.86908">
        <ele>93</ele>
        <time>2018-09-26T08:59:10.000Z</time>
      </trkpt>
      <trkpt lat="50.43838" lon="3.8691">
        <ele>93</ele>
        <time>2018-09-26T08:59:12.000Z</time>
      </trkpt>
      <trkpt lat="50.43827" lon="3.86913">
        <ele>92</ele>
        <time>2018-09-26T08:59:14.000Z</time>
      </trkpt>
      <trkpt lat="50.43815" lon="3.86915">
        <ele>92</ele>
        <time>2018-09-26T08:59:16.000Z</time>
      </trkpt>
      <trkpt lat="50.43803" lon="3.86918">
        <ele>92</ele>
        <time>2018-09-26T08:59:18.000Z</time>
      </trkpt>
      <trkpt lat="50.43792" lon="3.86921">
        <ele>92</ele>
        <time>2018-09-26T08:59:20.000Z</time>
      </trkpt>
      <trkpt lat="50.43781" lon="3.86924">
        <ele>92</ele>
        <time>2018-09-26T08:59:22.000Z</time>
      </trkpt>
      <trkpt lat="50.43769" lon="3.86927">
        <ele>92</ele>
        <time>2018-09-26T08:59:24.000Z</time>
      </trkpt>
      <trkpt lat="50.43757" lon="3.86931">
        <ele>92</ele>
        <time>2018-09-26T08:59:26.000Z</time>
      </trkpt>
      <trkpt lat="50.43747" lon="3.86933">
        <ele>92</ele>
        <time>2018-09-26T08:59:28.000Z</time>
      </trkpt>
      <trkpt lat="50.43737" lon="3.86935">
        <ele>91</ele>
        <time>2018-09-26T08:59:30.000Z</time>
      </trkpt>
      <trkpt lat="50.43726" lon="3.86938">
        <ele>91</ele>
        <time>2018-09-26T08:59:32.000Z</time>
      </trkpt>
      <trkpt lat="50.43716" lon="3.86941">
        <ele>92</ele>
        <time>2018-09-26T08:59:34.000Z</time>
      </trkpt>
      <trkpt lat="50.43706" lon="3.86944">
        <ele>92</ele>
        <time>2018-09-26T08:59:36.000Z</time>
      </trkpt>
      <trkpt lat="50.43695" lon="3.86949">
        <ele>92</ele>
        <time>2018-09-26T08:59:38.000Z</time>
      </trkpt>
      <trkpt lat="50.43684" lon="3.86951">
        <ele>92</ele>
        <time>2018-09-26T08:59:40.000Z</time>
      </trkpt>
      <trkpt lat="50.43673" lon="3.86954">
        <ele>92</ele>
        <time>2018-09-26T08:59:42.000Z</time>
      </trkpt>
      <trkpt lat="50.4366" lon="3.86957">
        <ele>91</ele>
        <time>2018-09-26T08:59:44.000Z</time>
      </trkpt>
      <trkpt lat="50.43649" lon="3.8696">
        <ele>90</ele>
        <time>2018-09-26T08:59:46.000Z</time>
      </trkpt>
      <trkpt lat="50.43637" lon="3.86963">
        <ele>90</ele>
        <time>2018-09-26T08:59:48.000Z</time>
      </trkpt>
      <trkpt lat="50.43625" lon="3.86967">
        <ele>89</ele>
        <time>2018-09-26T08:59:50.000Z</time>
      </trkpt>
      <trkpt lat="50.43613" lon="3.8697">
        <ele>89</ele>
        <time>2018-09-26T08:59:52.000Z</time>
      </trkpt>
      <trkpt lat="50.436" lon="3.86974">
        <ele>89</ele>
        <time>2018-09-26T08:59:54.000Z</time>
      </trkpt>
      <trkpt lat="50.43588" lon="3.86978">
        <ele>88</ele>
        <time>2018-09-26T08:59:56.000Z</time>
      </trkpt>
      <trkpt lat="50.43575" lon="3.8698">
        <ele>88</ele>
        <time>2018-09-26T08:59:58.000Z</time>
      </trkpt>
      <trkpt lat="50.43562" lon="3.86981">
        <ele>88</ele>
        <time>2018-09-26T09:00:00.000Z</time>
      </trkpt>
      <trkpt lat="50.43549" lon="3.86981">
        <ele>88</ele>
        <time>2018-09-26T09:00:02.000Z</time>
      </trkpt>
      <trkpt lat="50.43536" lon="3.86977">
        <ele>88</ele>
        <time>2018-09-26T09:00:04.000Z</time>
      </trkpt>
      <trkpt lat="50.43523" lon="3.86973">
        <ele>88</ele>
        <time>2018-09-26T09:00:06.000Z</time>
      </trkpt>
      <trkpt lat="50.43511" lon="3.86966">
        <ele>88</ele>
        <time>2018-09-26T09:00:08.000Z</time>
      </trkpt>
      <trkpt lat="50.43498" lon="3.8696">
        <ele>87</ele>
        <time>2018-09-26T09:00:10.000Z</time>
      </trkpt>
      <trkpt lat="50.43485" lon="3.86955">
        <ele>87</ele>
        <time>2018-09-26T09:00:12.000Z</time>
      </trkpt>
      <trkpt lat="50.43472" lon="3.8695">
        <ele>87</ele>
        <time>2018-09-26T09:00:14.000Z</time>
      </trkpt>
      <trkpt lat="50.43458" lon="3.86945">
        <ele>86</ele>
        <time>2018-09-26T09:00:16.000Z</time>
      </trkpt>
      <trkpt lat="50.43445" lon="3.8694">
        <ele>87</ele>
        <time>2018-09-26T09:00:18.000Z</time>
      </trkpt>
      <trkpt lat="50.43431" lon="3.86934">
        <ele>87</ele>
        <time>2018-09-26T09:00:20.000Z</time>
      </trkpt>
      <trkpt lat="50.43419" lon="3.86929">
        <ele>87</ele>
        <time>2018-09-26T09:00:22.000Z</time>
      </trkpt>
      <trkpt lat="50.43405" lon="3.86927">
        <ele>87</ele>
        <time>2018-09-26T09:00:24.000Z</time>
      </trkpt>
      <trkpt lat="50.43392" lon="3.86926">
        <ele>87</ele>
        <time>2018-09-26T09:00:26.000Z</time>
      </trkpt>
      <trkpt lat="50.43379" lon="3.86927">
        <ele>86</ele>
        <time>2018-09-26T09:00:28.000Z</time>
      </trkpt>
      <trkpt lat="50.43366" lon="3.86931">
        <ele>86</ele>
        <time>2018-09-26T09:00:30.000Z</time>
      </trkpt>
      <trkpt lat="50.43354" lon="3.86935">
        <ele>87</ele>
        <time>2018-09-26T09:00:32.000Z</time>
      </trkpt>
      <trkpt lat="50.43342" lon="3.86938">
        <ele>87</ele>
        <time>2018-09-26T09:00:34.000Z</time>
      </trkpt>
      <trkpt lat="50.4333" lon="3.8694">
        <ele>87</ele>
        <time>2018-09-26T09:00:36.000Z</time>
      </trkpt>
      <trkpt lat="50.43319" lon="3.86942">
        <ele>87</ele>
        <time>2018-09-26T09:00:38.000Z</time>
      </trkpt>
      <trkpt lat="50.43307" lon="3.86942">
        <ele>87</ele>
        <time>2018-09-26T09:00:40.000Z</time>
      </trkpt>
      <trkpt lat="50.43296" lon="3.86942">
        <ele>87</ele>
        <time>2018-09-26T09:00:42.000Z</time>
      </trkpt>
      <trkpt lat="50.43284" lon="3.86938">
        <ele>87</ele>
        <time>2018-09-26T09:00:44.000Z</time>
      </trkpt>
      <trkpt lat="50.43272" lon="3.86932">
        <ele>88</ele>
        <time>2018-09-26T09:00:46.000Z</time>
      </trkpt>
      <trkpt lat="50.43261" lon="3.86927">
        <ele>88</ele>
        <time>2018-09-26T09:00:48.000Z</time>
      </trkpt>
      <trkpt lat="50.43249" lon="3.8692">
        <ele>88</ele>
        <time>2018-09-26T09:00:50.000Z</time>
      </trkpt>
      <trkpt lat="50.43237" lon="3.86913">
        <ele>88</ele>
        <time>2018-09-26T09:00:52.000Z</time>
      </trkpt>
      <trkpt lat="50.43225" lon="3.86906">
        <ele>88</ele>
        <time>2018-09-26T09:00:54.000Z</time>
      </trkpt>
      <trkpt lat="50.43213" lon="3.86899">
        <ele>88</ele>
        <time>2018-09-26T09:00:56.000Z</time>
      </trkpt>
      <trkpt lat="50.43201" lon="3.86893">
        <ele>88</ele>
        <time>2018-09-26T09:00:58.000Z</time>
      </trkpt>
      <trkpt lat="50.4319" lon="3.86887">
        <ele>88</ele>
        <time>2018-09-26T09:01:00.000Z</time>
      </trkpt>
      <trkpt lat="50.43179" lon="3.86881">
        <ele>89</ele>
        <time>2018-09-26T09:01:02.000Z</time>
      </trkpt>
      <trkpt lat="50.43168" lon="3.86873">
        <ele>89</ele>
        <time>2018-09-26T09:01:04.000Z</time>
      </trkpt>
      <trkpt lat="50.43157" lon="3.86868">
        <ele>90</ele>
        <time>2018-09-26T09:01:06.000Z</time>
      </trkpt>
      <trkpt lat="50.43145" lon="3.86861">
        <ele>90</ele>
        <time>2018-09-26T09:01:08.000Z</time>
      </trkpt>
      <trkpt lat="50.43134" lon="3.86856">
        <ele>90</ele>
        <time>2018-09-26T09:01:10.000Z</time>
      </trkpt>
      <trkpt lat="50.43122" lon="3.86852">
        <ele>90</ele>
        <time>2018-09-26T09:01:12.000Z</time>
      </trkpt>
      <trkpt lat="50.4311" lon="3.86851">
        <ele>90</ele>
        <time>2018-09-26T09:01:14.000Z</time>
      </trkpt>
      <trkpt lat="50.43098" lon="3.86848">
        <ele>90</ele>
        <time>2018-09-26T09:01:16.000Z</time>
      </trkpt>
      <trkpt lat="50.43086" lon="3.86847">
        <ele>90</ele>
        <time>2018-09-26T09:01:18.000Z</time>
      </trkpt>
      <trkpt lat="50.43074" lon="3.86844">
        <ele>91</ele>
        <time>2018-09-26T09:01:20.000Z</time>
      </trkpt>
      <trkpt lat="50.43063" lon="3.86842">
        <ele>91</ele>
        <time>2018-09-26T09:01:22.000Z</time>
      </trkpt>
      <trkpt lat="50.43052" lon="3.86839">
        <ele>92</ele>
        <time>2018-09-26T09:01:24.000Z</time>
      </trkpt>
      <trkpt lat="50.43041" lon="3.86836">
        <ele>92</ele>
        <time>2018-09-26T09:01:26.000Z</time>
      </trkpt>
      <trkpt lat="50.4303" lon="3.86832">
        <ele>93</ele>
        <time>2018-09-26T09:01:28.000Z</time>
      </trkpt>
      <trkpt lat="50.4302" lon="3.86828">
        <ele>93</ele>
        <time>2018-09-26T09:01:30.000Z</time>
      </trkpt>
      <trkpt lat="50.4301" lon="3.86824">
        <ele>93</ele>
        <time>2018-09-26T09:01:32.000Z</time>
      </trkpt>
      <trkpt lat="50.43" lon="3.86819">
        <ele>94</ele>
        <time>2018-09-26T09:01:34.000Z</time>
      </trkpt>
      <trkpt lat="50.4299" lon="3.86816">
        <ele>94</ele>
        <time>2018-09-26T09:01:36.000Z</time>
      </trkpt>
      <trkpt lat="50.4298" lon="3.86812">
        <ele>94</ele>
        <time>2018-09-26T09:01:38.000Z</time>
      </trkpt>
      <trkpt lat="50.4297" lon="3.86808">
        <ele>95</ele>
        <time>2018-09-26T09:01:40.000Z</time>
      </trkpt>
      <trkpt lat="50.42961" lon="3.86804">
        <ele>97</ele>
        <time>2018-09-26T09:01:42.000Z</time>
      </trkpt>
      <trkpt lat="50.42951" lon="3.86801">
        <ele>97</ele>
        <time>2018-09-26T09:01:44.000Z</time>
      </trkpt>
      <trkpt lat="50.42941" lon="3.86798">
        <ele>98</ele>
        <time>2018-09-26T09:01:46.000Z</time>
      </trkpt>
      <trkpt lat="50.42932" lon="3.86794">
        <ele>98</ele>
        <time>2018-09-26T09:01:48.000Z</time>
      </trkpt>
      <trkpt lat="50.42922" lon="3.86791">
        <ele>98</ele>
        <time>2018-09-26T09:01:50.000Z</time>
      </trkpt>
      <trkpt lat="50.42912" lon="3.86787">
        <ele>99</ele>
        <time>2018-09-26T09:01:52.000Z</time>
      </trkpt>
      <trkpt lat="50.42903" lon="3.86783">
        <ele>99</ele>
        <time>2018-09-26T09:01:54.000Z</time>
      </trkpt>
      <trkpt lat="50.42892" lon="3.8678">
        <ele>99</ele>
        <time>2018-09-26T09:01:56.000Z</time>
      </trkpt>
      <trkpt lat="50.42883" lon="3.86777">
        <ele>100</ele>
        <time>2018-09-26T09:01:58.000Z</time>
      </trkpt>
      <trkpt lat="50.42871" lon="3.86773">
        <ele>100</ele>
        <time>2018-09-26T09:02:00.000Z</time>
      </trkpt>
      <trkpt lat="50.4286" lon="3.86769">
        <ele>100</ele>
        <time>2018-09-26T09:02:02.000Z</time>
      </trkpt>
      <trkpt lat="50.42849" lon="3.86765">
        <ele>99</ele>
        <time>2018-09-26T09:02:04.000Z</time>
      </trkpt>
      <trkpt lat="50.42838" lon="3.8676">
        <ele>99</ele>
        <time>2018-09-26T09:02:06.000Z</time>
      </trkpt>
      <trkpt lat="50.42828" lon="3.86756">
        <ele>99</ele>
        <time>2018-09-26T09:02:08.000Z</time>
      </trkpt>
      <trkpt lat="50.42817" lon="3.86751">
        <ele>99</ele>
        <time>2018-09-26T09:02:10.000Z</time>
      </trkpt>
      <trkpt lat="50.42806" lon="3.86747">
        <ele>98</ele>
        <time>2018-09-26T09:02:12.000Z</time>
      </trkpt>
      <trkpt lat="50.42796" lon="3.86742">
        <ele>98</ele>
        <time>2018-09-26T09:02:14.000Z</time>
      </trkpt>
      <trkpt lat="50.42785" lon="3.86738">
        <ele>97</ele>
        <time>2018-09-26T09:02:16.000Z</time>
      </trkpt>
      <trkpt lat="50.42774" lon="3.86734">
        <ele>97</ele>
        <time>2018-09-26T09:02:18.000Z</time>
      </trkpt>
      <trkpt lat="50.42764" lon="3.86732">
        <ele>97</ele>
        <time>2018-09-26T09:02:20.000Z</time>
      </trkpt>
      <trkpt lat="50.42754" lon="3.8673">
        <ele>98</ele>
        <time>2018-09-26T09:02:22.000Z</time>
      </trkpt>
      <trkpt lat="50.42744" lon="3.86728">
        <ele>98</ele>
        <time>2018-09-26T09:02:24.000Z</time>
      </trkpt>
      <trkpt lat="50.42735" lon="3.86727">
        <ele>98</ele>
        <time>2018-09-26T09:02:26.000Z</time>
      </trkpt>
      <trkpt lat="50.42725" lon="3.86726">
        <ele>98</ele>
        <time>2018-09-26T09:02:28.000Z</time>
      </trkpt>
      <trkpt lat="50.42716" lon="3.86726">
        <ele>98</ele>
        <time>2018-09-26T09:02:30.000Z</time>
      </trkpt>
      <trkpt lat="50.42706" lon="3.86726">
        <ele>98</ele>
        <time>2018-09-26T09:02:32.000Z</time>
      </trkpt>
      <trkpt lat="50.42696" lon="3.86727">
        <ele>98</ele>
        <time>2018-09-26T09:02:34.000Z</time>
      </trkpt>
      <trkpt lat="50.42685" lon="3.86728">
        <ele>98</ele>
        <time>2018-09-26T09:02:36.000Z</time>
      </trkpt>
      <trkpt lat="50.42674" lon="3.86728">
        <ele>98</ele>
        <time>2018-09-26T09:02:38.000Z</time>
      </trkpt>
      <trkpt lat="50.42664" lon="3.86728">
        <ele>98</ele>
        <time>2018-09-26T09:02:40.000Z</time>
      </trkpt>
      <trkpt lat="50.42654" lon="3.86727">
        <ele>99</ele>
        <time>2018-09-26T09:02:42.000Z</time>
      </trkpt>
      <trkpt lat="50.42645" lon="3.86726">
        <ele>100</ele>
        <time>2018-09-26T09:02:44.000Z</time>
      </trkpt>
      <trkpt lat="50.42633" lon="3.86727">
        <ele>100</ele>
        <time>2018-09-26T09:02:46.000Z</time>
      </trkpt>
      <trkpt lat="50.42623" lon="3.86727">
        <ele>100</ele>
        <time>2018-09-26T09:02:48.000Z</time>
      </trkpt>
      <trkpt lat="50.42614" lon="3.86727">
        <ele>100</ele>
        <time>2018-09-26T09:02:50.000Z</time>
      </trkpt>
      <trkpt lat="50.42604" lon="3.86726">
        <ele>100</ele>
        <time>2018-09-26T09:02:52.000Z</time>
      </trkpt>
      <trkpt lat="50.42593" lon="3.86726">
        <ele>100</ele>
        <time>2018-09-26T09:02:54.000Z</time>
      </trkpt>
      <trkpt lat="50.42583" lon="3.86725">
        <ele>101</ele>
        <time>2018-09-26T09:02:56.000Z</time>
      </trkpt>
      <trkpt lat="50.42574" lon="3.86725">
        <ele>101</ele>
        <time>2018-09-26T09:02:58.000Z</time>
      </trkpt>
      <trkpt lat="50.42565" lon="3.86725">
        <ele>101</ele>
        <time>2018-09-26T09:03:00.000Z</time>
      </trkpt>
      <trkpt lat="50.42556" lon="3.86724">
        <ele>101</ele>
        <time>2018-09-26T09:03:02.000Z</time>
      </trkpt>
      <trkpt lat="50.42547" lon="3.86724">
        <ele>101</ele>
        <time>2018-09-26T09:03:04.000Z</time>
      </trkpt>
      <trkpt lat="50.42538" lon="3.86726">
        <ele>100</ele>
        <time>2018-09-26T09:03:06.000Z</time>
      </trkpt>
      <trkpt lat="50.42529" lon="3.86731">
        <ele>100</ele>
        <time>2018-09-26T09:03:08.000Z</time>
      </trkpt>
      <trkpt lat="50.4252" lon="3.86738">
        <ele>100</ele>
        <time>2018-09-26T09:03:10.000Z</time>
      </trkpt>
      <trkpt lat="50.42513" lon="3.86747">
        <ele>100</ele>
        <time>2018-09-26T09:03:12.000Z</time>
      </trkpt>
      <trkpt lat="50.42506" lon="3.86756">
        <ele>100</ele>
        <time>2018-09-26T09:03:14.000Z</time>
      </trkpt>
      <trkpt lat="50.42499" lon="3.86765">
        <ele>101</ele>
        <time>2018-09-26T09:03:16.000Z</time>
      </trkpt>
      <trkpt lat="50.42493" lon="3.86774">
        <ele>101</ele>
        <time>2018-09-26T09:03:18.000Z</time>
      </trkpt>
      <trkpt lat="50.42487" lon="3.86782">
        <ele>101</ele>
        <time>2018-09-26T09:03:20.000Z</time>
      </trkpt>
      <trkpt lat="50.42481" lon="3.86788">
        <ele>102</ele>
        <time>2018-09-26T09:03:22.000Z</time>
      </trkpt>
      <trkpt lat="50.42476" lon="3.86795">
        <ele>102</ele>
        <time>2018-09-26T09:03:24.000Z</time>
      </trkpt>
      <trkpt lat="50.42469" lon="3.86801">
        <ele>103</ele>
        <time>2018-09-26T09:03:26.000Z</time>
      </trkpt>
      <trkpt lat="50.42463" lon="3.86807">
        <ele>103</ele>
        <time>2018-09-26T09:03:28.000Z</time>
      </trkpt>
      <trkpt lat="50.42458" lon="3.86812">
        <ele>104</ele>
        <time>2018-09-26T09:03:30.000Z</time>
      </trkpt>
      <trkpt lat="50.42453" lon="3.86817">
        <ele>105</ele>
        <time>2018-09-26T09:03:32.000Z</time>
      </trkpt>
      <trkpt lat="50.42447" lon="3.86823">
        <ele>106</ele>
        <time>2018-09-26T09:03:34.000Z</time>
      </trkpt>
      <trkpt lat="50.42442" lon="3.86829">
        <ele>107</ele>
        <time>2018-09-26T09:03:36.000Z</time>
      </trkpt>
      <trkpt lat="50.42437" lon="3.86834">
        <ele>108</ele>
        <time>2018-09-26T09:03:38.000Z</time>
      </trkpt>
      <trkpt lat="50.42431" lon="3.8684">
        <ele>108</ele>
        <time>2018-09-26T09:03:40.000Z</time>
      </trkpt>
      <trkpt lat="50.42425" lon="3.86843">
        <ele>109</ele>
        <time>2018-09-26T09:03:42.000Z</time>
      </trkpt>
      <trkpt lat="50.4242" lon="3.8685">
        <ele>110</ele>
        <time>2018-09-26T09:03:44.000Z</time>
      </trkpt>
      <trkpt lat="50.4242" lon="3.8685">
        <ele>110</ele>
        <time>2018-09-26T09:03:46.000Z</time>
      </trkpt>
      <trkpt lat="50.42411" lon="3.86859">
        <ele>112</ele>
        <time>2018-09-26T09:03:48.000Z</time>
      </trkpt>
      <trkpt lat="50.42406" lon="3.86865">
        <ele>111</ele>
        <time>2018-09-26T09:03:50.000Z</time>
      </trkpt>
      <trkpt lat="50.42399" lon="3.86871">
        <ele>112</ele>
        <time>2018-09-26T09:03:52.000Z</time>
      </trkpt>
      <trkpt lat="50.42392" lon="3.86876">
        <ele>111</ele>
        <time>2018-09-26T09:03:54.000Z</time>
      </trkpt>
      <trkpt lat="50.42384" lon="3.86883">
        <ele>111</ele>
        <time>2018-09-26T09:03:56.000Z</time>
      </trkpt>
      <trkpt lat="50.42378" lon="3.86889">
        <ele>111</ele>
        <time>2018-09-26T09:03:58.000Z</time>
      </trkpt>
      <trkpt lat="50.42371" lon="3.86894">
        <ele>112</ele>
        <time>2018-09-26T09:04:00.000Z</time>
      </trkpt>
      <trkpt lat="50.42363" lon="3.869">
        <ele>112</ele>
        <time>2018-09-26T09:04:02.000Z</time>
      </trkpt>
      <trkpt lat="50.42357" lon="3.86907">
        <ele>112</ele>
        <time>2018-09-26T09:04:04.000Z</time>
      </trkpt>
      <trkpt lat="50.42351" lon="3.86914">
        <ele>113</ele>
        <time>2018-09-26T09:04:06.000Z</time>
      </trkpt>
      <trkpt lat="50.42345" lon="3.8692">
        <ele>113</ele>
        <time>2018-09-26T09:04:08.000Z</time>
      </trkpt>
      <trkpt lat="50.42338" lon="3.86924">
        <ele>113</ele>
        <time>2018-09-26T09:04:10.000Z</time>
      </trkpt>
      <trkpt lat="50.42331" lon="3.8693">
        <ele>113</ele>
        <time>2018-09-26T09:04:12.000Z</time>
      </trkpt>
      <trkpt lat="50.42323" lon="3.86934">
        <ele>114</ele>
        <time>2018-09-26T09:04:14.000Z</time>
      </trkpt>
      <trkpt lat="50.42317" lon="3.86939">
        <ele>115</ele>
        <time>2018-09-26T09:04:16.000Z</time>
      </trkpt>
      <trkpt lat="50.42311" lon="3.86945">
        <ele>115</ele>
        <time>2018-09-26T09:04:18.000Z</time>
      </trkpt>
      <trkpt lat="50.42304" lon="3.86948">
        <ele>116</ele>
        <time>2018-09-26T09:04:20.000Z</time>
      </trkpt>
      <trkpt lat="50.42297" lon="3.86952">
        <ele>116</ele>
        <time>2018-09-26T09:04:22.000Z</time>
      </trkpt>
      <trkpt lat="50.4229" lon="3.86956">
        <ele>116</ele>
        <time>2018-09-26T09:04:24.000Z</time>
      </trkpt>
      <trkpt lat="50.42284" lon="3.8696">
        <ele>118</ele>
        <time>2018-09-26T09:04:26.000Z</time>
      </trkpt>
      <trkpt lat="50.42279" lon="3.86963">
        <ele>118</ele>
        <time>2018-09-26T09:04:28.000Z</time>
      </trkpt>
      <trkpt lat="50.42272" lon="3.86966">
        <ele>117</ele>
        <time>2018-09-26T09:04:30.000Z</time>
      </trkpt>
      <trkpt lat="50.42265" lon="3.8697">
        <ele>118</ele>
        <time>2018-09-26T09:04:32.000Z</time>
      </trkpt>
      <trkpt lat="50.42257" lon="3.86973">
        <ele>118</ele>
        <time>2018-09-26T09:04:34.000Z</time>
      </trkpt>
      <trkpt lat="50.42248" lon="3.86974">
        <ele>118</ele>
        <time>2018-09-26T09:04:36.000Z</time>
      </trkpt>
      <trkpt lat="50.42238" lon="3.86976">
        <ele>119</ele>
        <time>2018-09-26T09:04:38.000Z</time>
      </trkpt>
      <trkpt lat="50.42228" lon="3.86977">
        <ele>118</ele>
        <time>2018-09-26T09:04:40.000Z</time>
      </trkpt>
      <trkpt lat="50.42219" lon="3.86977">
        <ele>118</ele>
        <time>2018-09-26T09:04:42.000Z</time>
      </trkpt>
      <trkpt lat="50.42208" lon="3.86978">
        <ele>118</ele>
        <time>2018-09-26T09:04:44.000Z</time>
      </trkpt>
      <trkpt lat="50.42199" lon="3.8698">
        <ele>119</ele>
        <time>2018-09-26T09:04:46.000Z</time>
      </trkpt>
      <trkpt lat="50.42189" lon="3.86982">
        <ele>119</ele>
        <time>2018-09-26T09:04:48.000Z</time>
      </trkpt>
      <trkpt lat="50.42179" lon="3.86985">
        <ele>119</ele>
        <time>2018-09-26T09:04:50.000Z</time>
      </trkpt>
      <trkpt lat="50.42171" lon="3.86988">
        <ele>120</ele>
        <time>2018-09-26T09:04:52.000Z</time>
      </trkpt>
      <trkpt lat="50.42162" lon="3.8699">
        <ele>120</ele>
        <time>2018-09-26T09:04:54.000Z</time>
      </trkpt>
      <trkpt lat="50.42153" lon="3.8699">
        <ele>121</ele>
        <time>2018-09-26T09:04:56.000Z</time>
      </trkpt>
      <trkpt lat="50.42144" lon="3.86989">
        <ele>121</ele>
        <time>2018-09-26T09:04:58.000Z</time>
      </trkpt>
      <trkpt lat="50.42134" lon="3.86988">
        <ele>121</ele>
        <time>2018-09-26T09:05:00.000Z</time>
      </trkpt>
      <trkpt lat="50.42126" lon="3.86987">
        <ele>121</ele>
        <time>2018-09-26T09:05:02.000Z</time>
      </trkpt>
      <trkpt lat="50.42117" lon="3.86984">
        <ele>121</ele>
        <time>2018-09-26T09:05:04.000Z</time>
      </trkpt>
      <trkpt lat="50.4211" lon="3.86984">
        <ele>121</ele>
        <time>2018-09-26T09:05:06.000Z</time>
      </trkpt>
      <trkpt lat="50.42101" lon="3.86985">
        <ele>123</ele>
        <time>2018-09-26T09:05:08.000Z</time>
      </trkpt>
      <trkpt lat="50.42094" lon="3.86995">
        <ele>126</ele>
        <time>2018-09-26T09:05:10.000Z</time>
      </trkpt>
      <trkpt lat="50.42091" lon="3.87005">
        <ele>128</ele>
        <time>2018-09-26T09:05:12.000Z</time>
      </trkpt>
      <trkpt lat="50.42083" lon="3.87013">
        <ele>127</ele>
        <time>2018-09-26T09:05:14.000Z</time>
      </trkpt>
      <trkpt lat="50.42075" lon="3.87022">
        <ele>127</ele>
        <time>2018-09-26T09:05:16.000Z</time>
      </trkpt>
      <trkpt lat="50.42068" lon="3.87032">
        <ele>127</ele>
        <time>2018-09-26T09:05:18.000Z</time>
      </trkpt>
      <trkpt lat="50.42061" lon="3.8704">
        <ele>129</ele>
        <time>2018-09-26T09:05:21.000Z</time>
      </trkpt>
      <trkpt lat="50.42053" lon="3.87047">
        <ele>128</ele>
        <time>2018-09-26T09:05:23.000Z</time>
      </trkpt>
      <trkpt lat="50.42046" lon="3.87054">
        <ele>128</ele>
        <time>2018-09-26T09:05:25.000Z</time>
      </trkpt>
      <trkpt lat="50.42039" lon="3.87059">
        <ele>128</ele>
        <time>2018-09-26T09:05:27.000Z</time>
      </trkpt>
      <trkpt lat="50.42032" lon="3.87061">
        <ele>128</ele>
        <time>2018-09-26T09:05:29.000Z</time>
      </trkpt>
      <trkpt lat="50.42024" lon="3.87062">
        <ele>128</ele>
        <time>2018-09-26T09:05:31.000Z</time>
      </trkpt>
      <trkpt lat="50.42016" lon="3.87062">
        <ele>128</ele>
        <time>2018-09-26T09:05:33.000Z</time>
      </trkpt>
      <trkpt lat="50.42008" lon="3.87062">
        <ele>127</ele>
        <time>2018-09-26T09:05:35.000Z</time>
      </trkpt>
      <trkpt lat="50.41999" lon="3.87063">
        <ele>127</ele>
        <time>2018-09-26T09:05:37.000Z</time>
      </trkpt>
      <trkpt lat="50.4199" lon="3.87063">
        <ele>127</ele>
        <time>2018-09-26T09:05:39.000Z</time>
      </trkpt>
      <trkpt lat="50.41981" lon="3.87064">
        <ele>127</ele>
        <time>2018-09-26T09:05:41.000Z</time>
      </trkpt>
      <trkpt lat="50.41973" lon="3.87065">
        <ele>127</ele>
        <time>2018-09-26T09:05:43.000Z</time>
      </trkpt>
      <trkpt lat="50.41964" lon="3.87065">
        <ele>127</ele>
        <time>2018-09-26T09:05:45.000Z</time>
      </trkpt>
      <trkpt lat="50.41955" lon="3.87066">
        <ele>127</ele>
        <time>2018-09-26T09:05:47.000Z</time>
      </trkpt>
      <trkpt lat="50.41945" lon="3.87066">
        <ele>127</ele>
        <time>2018-09-26T09:05:49.000Z</time>
      </trkpt>
      <trkpt lat="50.41936" lon="3.87068">
        <ele>127</ele>
        <time>2018-09-26T09:05:51.000Z</time>
      </trkpt>
      <trkpt lat="50.41928" lon="3.87069">
        <ele>127</ele>
        <time>2018-09-26T09:05:53.000Z</time>
      </trkpt>
      <trkpt lat="50.41919" lon="3.8707">
        <ele>127</ele>
        <time>2018-09-26T09:05:55.000Z</time>
      </trkpt>
      <trkpt lat="50.41911" lon="3.87072">
        <ele>127</ele>
        <time>2018-09-26T09:05:57.000Z</time>
      </trkpt>
      <trkpt lat="50.41902" lon="3.87072">
        <ele>127</ele>
        <time>2018-09-26T09:05:59.000Z</time>
      </trkpt>
      <trkpt lat="50.41893" lon="3.87073">
        <ele>127</ele>
        <time>2018-09-26T09:06:01.000Z</time>
      </trkpt>
      <trkpt lat="50.41885" lon="3.87075">
        <ele>127</ele>
        <time>2018-09-26T09:06:03.000Z</time>
      </trkpt>
      <trkpt lat="50.41876" lon="3.87076">
        <ele>127</ele>
        <time>2018-09-26T09:06:05.000Z</time>
      </trkpt>
      <trkpt lat="50.41868" lon="3.87078">
        <ele>127</ele>
        <time>2018-09-26T09:06:07.000Z</time>
      </trkpt>
      <trkpt lat="50.41859" lon="3.87079">
        <ele>127</ele>
        <time>2018-09-26T09:06:09.000Z</time>
      </trkpt>
      <trkpt lat="50.4185" lon="3.87081">
        <ele>127</ele>
        <time>2018-09-26T09:06:11.000Z</time>
      </trkpt>
      <trkpt lat="50.41841" lon="3.87082">
        <ele>127</ele>
        <time>2018-09-26T09:06:13.000Z</time>
      </trkpt>
      <trkpt lat="50.41832" lon="3.87084">
        <ele>127</ele>
        <time>2018-09-26T09:06:15.000Z</time>
      </trkpt>
      <trkpt lat="50.41824" lon="3.87085">
        <ele>127</ele>
        <time>2018-09-26T09:06:17.000Z</time>
      </trkpt>
      <trkpt lat="50.41815" lon="3.87085">
        <ele>128</ele>
        <time>2018-09-26T09:06:19.000Z</time>
      </trkpt>
      <trkpt lat="50.41806" lon="3.87085">
        <ele>128</ele>
        <time>2018-09-26T09:06:21.000Z</time>
      </trkpt>
      <trkpt lat="50.41798" lon="3.87084">
        <ele>128</ele>
        <time>2018-09-26T09:06:23.000Z</time>
      </trkpt>
      <trkpt lat="50.4179" lon="3.87082">
        <ele>129</ele>
        <time>2018-09-26T09:06:25.000Z</time>
      </trkpt>
      <trkpt lat="50.41781" lon="3.87078">
        <ele>130</ele>
        <time>2018-09-26T09:06:27.000Z</time>
      </trkpt>
      <trkpt lat="50.41772" lon="3.87077">
        <ele>130</ele>
        <time>2018-09-26T09:06:29.000Z</time>
      </trkpt>
      <trkpt lat="50.41763" lon="3.87075">
        <ele>130</ele>
        <time>2018-09-26T09:06:31.000Z</time>
      </trkpt>
      <trkpt lat="50.41755" lon="3.87073">
        <ele>129</ele>
        <time>2018-09-26T09:06:33.000Z</time>
      </trkpt>
      <trkpt lat="50.41746" lon="3.87072">
        <ele>129</ele>
        <time>2018-09-26T09:06:35.000Z</time>
      </trkpt>
      <trkpt lat="50.41736" lon="3.87071">
        <ele>130</ele>
        <time>2018-09-26T09:06:37.000Z</time>
      </trkpt>
      <trkpt lat="50.41727" lon="3.87069">
        <ele>130</ele>
        <time>2018-09-26T09:06:39.000Z</time>
      </trkpt>
      <trkpt lat="50.41718" lon="3.87068">
        <ele>131</ele>
        <time>2018-09-26T09:06:41.000Z</time>
      </trkpt>
      <trkpt lat="50.41708" lon="3.87065">
        <ele>131</ele>
        <time>2018-09-26T09:06:43.000Z</time>
      </trkpt>
      <trkpt lat="50.41698" lon="3.87063">
        <ele>131</ele>
        <time>2018-09-26T09:06:45.000Z</time>
      </trkpt>
      <trkpt lat="50.41687" lon="3.87061">
        <ele>131</ele>
        <time>2018-09-26T09:06:47.000Z</time>
      </trkpt>
      <trkpt lat="50.41676" lon="3.8706">
        <ele>131</ele>
        <time>2018-09-26T09:06:49.000Z</time>
      </trkpt>
      <trkpt lat="50.41666" lon="3.87061">
        <ele>131</ele>
        <time>2018-09-26T09:06:51.000Z</time>
      </trkpt>
      <trkpt lat="50.41656" lon="3.87064">
        <ele>131</ele>
        <time>2018-09-26T09:06:53.000Z</time>
      </trkpt>
      <trkpt lat="50.41646" lon="3.87066">
        <ele>132</ele>
        <time>2018-09-26T09:06:54.000Z</time>
      </trkpt>
      <trkpt lat="50.41636" lon="3.87069">
        <ele>133</ele>
        <time>2018-09-26T09:06:56.000Z</time>
      </trkpt>
      <trkpt lat="50.41625" lon="3.87069">
        <ele>135</ele>
        <time>2018-09-26T09:06:58.000Z</time>
      </trkpt>
      <trkpt lat="50.41615" lon="3.87067">
        <ele>135</ele>
        <time>2018-09-26T09:07:00.000Z</time>
      </trkpt>
      <trkpt lat="50.41606" lon="3.87064">
        <ele>136</ele>
        <time>2018-09-26T09:07:02.000Z</time>
      </trkpt>
      <trkpt lat="50.41596" lon="3.87062">
        <ele>136</ele>
        <time>2018-09-26T09:07:04.000Z</time>
      </trkpt>
      <trkpt lat="50.41587" lon="3.87062">
        <ele>139</ele>
        <time>2018-09-26T09:07:06.000Z</time>
      </trkpt>
      <trkpt lat="50.41578" lon="3.87063">
        <ele>138</ele>
        <time>2018-09-26T09:07:08.000Z</time>
      </trkpt>
      <trkpt lat="50.4157" lon="3.87063">
        <ele>140</ele>
        <time>2018-09-26T09:07:10.000Z</time>
      </trkpt>
      <trkpt lat="50.4156" lon="3.87061">
        <ele>139</ele>
        <time>2018-09-26T09:07:12.000Z</time>
      </trkpt>
      <trkpt lat="50.4155" lon="3.8706">
        <ele>139</ele>
        <time>2018-09-26T09:07:14.000Z</time>
      </trkpt>
      <trkpt lat="50.41539" lon="3.87059">
        <ele>139</ele>
        <time>2018-09-26T09:07:16.000Z</time>
      </trkpt>
      <trkpt lat="50.41525" lon="3.87057">
        <ele>139</ele>
        <time>2018-09-26T09:07:18.000Z</time>
      </trkpt>
      <trkpt lat="50.41512" lon="3.87052">
        <ele>138</ele>
        <time>2018-09-26T09:07:20.000Z</time>
      </trkpt>
      <trkpt lat="50.41499" lon="3.87048">
        <ele>137</ele>
        <time>2018-09-26T09:07:22.000Z</time>
      </trkpt>
      <trkpt lat="50.41488" lon="3.87045">
        <ele>138</ele>
        <time>2018-09-26T09:07:24.000Z</time>
      </trkpt>
      <trkpt lat="50.41476" lon="3.87042">
        <ele>138</ele>
        <time>2018-09-26T09:07:26.000Z</time>
      </trkpt>
      <trkpt lat="50.41463" lon="3.87038">
        <ele>136</ele>
        <time>2018-09-26T09:07:28.000Z</time>
      </trkpt>
      <trkpt lat="50.41451" lon="3.87034">
        <ele>135</ele>
        <time>2018-09-26T09:07:30.000Z</time>
      </trkpt>
      <trkpt lat="50.4144" lon="3.87032">
        <ele>135</ele>
        <time>2018-09-26T09:07:32.000Z</time>
      </trkpt>
      <trkpt lat="50.41428" lon="3.87028">
        <ele>135</ele>
        <time>2018-09-26T09:07:34.000Z</time>
      </trkpt>
      <trkpt lat="50.41417" lon="3.87025">
        <ele>135</ele>
        <time>2018-09-26T09:07:36.000Z</time>
      </trkpt>
      <trkpt lat="50.41405" lon="3.87021">
        <ele>135</ele>
        <time>2018-09-26T09:07:38.000Z</time>
      </trkpt>
      <trkpt lat="50.41394" lon="3.87016">
        <ele>135</ele>
        <time>2018-09-26T09:07:40.000Z</time>
      </trkpt>
      <trkpt lat="50.41383" lon="3.87012">
        <ele>135</ele>
        <time>2018-09-26T09:07:42.000Z</time>
      </trkpt>
      <trkpt lat="50.41373" lon="3.87009">
        <ele>136</ele>
        <time>2018-09-26T09:07:44.000Z</time>
      </trkpt>
      <trkpt lat="50.41362" lon="3.87006">
        <ele>137</ele>
        <time>2018-09-26T09:07:46.000Z</time>
      </trkpt>
      <trkpt lat="50.41352" lon="3.87002">
        <ele>136</ele>
        <time>2018-09-26T09:07:48.000Z</time>
      </trkpt>
      <trkpt lat="50.41341" lon="3.86999">
        <ele>136</ele>
        <time>2018-09-26T09:07:50.000Z</time>
      </trkpt>
      <trkpt lat="50.41331" lon="3.86998">
        <ele>137</ele>
        <time>2018-09-26T09:07:52.000Z</time>
      </trkpt>
      <trkpt lat="50.41322" lon="3.86997">
        <ele>137</ele>
        <time>2018-09-26T09:07:54.000Z</time>
      </trkpt>
      <trkpt lat="50.41312" lon="3.86994">
        <ele>137</ele>
        <time>2018-09-26T09:07:56.000Z</time>
      </trkpt>
      <trkpt lat="50.41302" lon="3.86993">
        <ele>137</ele>
        <time>2018-09-26T09:07:58.000Z</time>
      </trkpt>
      <trkpt lat="50.41293" lon="3.8699">
        <ele>137</ele>
        <time>2018-09-26T09:08:00.000Z</time>
      </trkpt>
      <trkpt lat="50.41283" lon="3.86988">
        <ele>137</ele>
        <time>2018-09-26T09:08:02.000Z</time>
      </trkpt>
      <trkpt lat="50.41273" lon="3.86985">
        <ele>138</ele>
        <time>2018-09-26T09:08:04.000Z</time>
      </trkpt>
      <trkpt lat="50.41265" lon="3.8698">
        <ele>138</ele>
        <time>2018-09-26T09:08:06.000Z</time>
      </trkpt>
      <trkpt lat="50.41256" lon="3.86976">
        <ele>138</ele>
        <time>2018-09-26T09:08:08.000Z</time>
      </trkpt>
      <trkpt lat="50.41248" lon="3.86971">
        <ele>138</ele>
        <time>2018-09-26T09:08:10.000Z</time>
      </trkpt>
      <trkpt lat="50.41238" lon="3.86966">
        <ele>138</ele>
        <time>2018-09-26T09:08:12.000Z</time>
      </trkpt>
      <trkpt lat="50.41229" lon="3.86962">
        <ele>138</ele>
        <time>2018-09-26T09:08:14.000Z</time>
      </trkpt>
      <trkpt lat="50.41219" lon="3.86957">
        <ele>137</ele>
        <time>2018-09-26T09:08:16.000Z</time>
      </trkpt>
      <trkpt lat="50.4121" lon="3.86953">
        <ele>138</ele>
        <time>2018-09-26T09:08:18.000Z</time>
      </trkpt>
      <trkpt lat="50.412" lon="3.8695">
        <ele>138</ele>
        <time>2018-09-26T09:08:20.000Z</time>
      </trkpt>
      <trkpt lat="50.4119" lon="3.86947">
        <ele>138</ele>
        <time>2018-09-26T09:08:22.000Z</time>
      </trkpt>
      <trkpt lat="50.41181" lon="3.86944">
        <ele>138</ele>
        <time>2018-09-26T09:08:24.000Z</time>
      </trkpt>
      <trkpt lat="50.41171" lon="3.86941">
        <ele>138</ele>
        <time>2018-09-26T09:08:26.000Z</time>
      </trkpt>
      <trkpt lat="50.41161" lon="3.86937">
        <ele>139</ele>
        <time>2018-09-26T09:08:28.000Z</time>
      </trkpt>
      <trkpt lat="50.41153" lon="3.86935">
        <ele>140</ele>
        <time>2018-09-26T09:08:30.000Z</time>
      </trkpt>
      <trkpt lat="50.41146" lon="3.86934">
        <ele>142</ele>
        <time>2018-09-26T09:08:32.000Z</time>
      </trkpt>
      <trkpt lat="50.41146" lon="3.86934">
        <ele>142</ele>
        <time>2018-09-26T09:08:34.000Z</time>
      </trkpt>
      <trkpt lat="50.41139" lon="3.86936">
        <ele>142</ele>
        <time>2018-09-26T09:08:36.000Z</time>
      </trkpt>
      <trkpt lat="50.41139" lon="3.86936">
        <ele>142</ele>
        <time>2018-09-26T09:08:38.000Z</time>
      </trkpt>
      <trkpt lat="50.41135" lon="3.86944">
        <ele>145</ele>
        <time>2018-09-26T09:08:40.000Z</time>
      </trkpt>
      <trkpt lat="50.41132" lon="3.86955">
        <ele>146</ele>
        <time>2018-09-26T09:08:42.000Z</time>
      </trkpt>
      <trkpt lat="50.41129" lon="3.86971">
        <ele>145</ele>
        <time>2018-09-26T09:08:44.000Z</time>
      </trkpt>
      <trkpt lat="50.41127" lon="3.86988">
        <ele>145</ele>
        <time>2018-09-26T09:08:46.000Z</time>
      </trkpt>
      <trkpt lat="50.41125" lon="3.87006">
        <ele>144</ele>
        <time>2018-09-26T09:08:48.000Z</time>
      </trkpt>
      <trkpt lat="50.41122" lon="3.87024">
        <ele>144</ele>
        <time>2018-09-26T09:08:50.000Z</time>
      </trkpt>
      <trkpt lat="50.41119" lon="3.87042">
        <ele>144</ele>
        <time>2018-09-26T09:08:52.000Z</time>
      </trkpt>
      <trkpt lat="50.41115" lon="3.8706">
        <ele>144</ele>
        <time>2018-09-26T09:08:54.000Z</time>
      </trkpt>
      <trkpt lat="50.41112" lon="3.87077">
        <ele>144</ele>
        <time>2018-09-26T09:08:56.000Z</time>
      </trkpt>
      <trkpt lat="50.41108" lon="3.87094">
        <ele>144</ele>
        <time>2018-09-26T09:08:58.000Z</time>
      </trkpt>
      <trkpt lat="50.41105" lon="3.87112">
        <ele>143</ele>
        <time>2018-09-26T09:09:00.000Z</time>
      </trkpt>
      <trkpt lat="50.41102" lon="3.87129">
        <ele>143</ele>
        <time>2018-09-26T09:09:02.000Z</time>
      </trkpt>
      <trkpt lat="50.41099" lon="3.87146">
        <ele>143</ele>
        <time>2018-09-26T09:09:04.000Z</time>
      </trkpt>
      <trkpt lat="50.41095" lon="3.87162">
        <ele>143</ele>
        <time>2018-09-26T09:09:06.000Z</time>
      </trkpt>
      <trkpt lat="50.41092" lon="3.87179">
        <ele>143</ele>
        <time>2018-09-26T09:09:08.000Z</time>
      </trkpt>
      <trkpt lat="50.41089" lon="3.87196">
        <ele>143</ele>
        <time>2018-09-26T09:09:10.000Z</time>
      </trkpt>
      <trkpt lat="50.41086" lon="3.87213">
        <ele>143</ele>
        <time>2018-09-26T09:09:12.000Z</time>
      </trkpt>
      <trkpt lat="50.41082" lon="3.87229">
        <ele>143</ele>
        <time>2018-09-26T09:09:14.000Z</time>
      </trkpt>
      <trkpt lat="50.41079" lon="3.87245">
        <ele>143</ele>
        <time>2018-09-26T09:09:16.000Z</time>
      </trkpt>
      <trkpt lat="50.41076" lon="3.87261">
        <ele>143</ele>
        <time>2018-09-26T09:09:18.000Z</time>
      </trkpt>
      <trkpt lat="50.41074" lon="3.87277">
        <ele>143</ele>
        <time>2018-09-26T09:09:20.000Z</time>
      </trkpt>
      <trkpt lat="50.41071" lon="3.87294">
        <ele>144</ele>
        <time>2018-09-26T09:09:22.000Z</time>
      </trkpt>
      <trkpt lat="50.41068" lon="3.87311">
        <ele>144</ele>
        <time>2018-09-26T09:09:24.000Z</time>
      </trkpt>
      <trkpt lat="50.41066" lon="3.87328">
        <ele>144</ele>
        <time>2018-09-26T09:09:26.000Z</time>
      </trkpt>
      <trkpt lat="50.41063" lon="3.87345">
        <ele>144</ele>
        <time>2018-09-26T09:09:28.000Z</time>
      </trkpt>
      <trkpt lat="50.41061" lon="3.87362">
        <ele>144</ele>
        <time>2018-09-26T09:09:30.000Z</time>
      </trkpt>
      <trkpt lat="50.41058" lon="3.8738">
        <ele>144</ele>
        <time>2018-09-26T09:09:32.000Z</time>
      </trkpt>
      <trkpt lat="50.41055" lon="3.87397">
        <ele>144</ele>
        <time>2018-09-26T09:09:34.000Z</time>
      </trkpt>
      <trkpt lat="50.41052" lon="3.87415">
        <ele>145</ele>
        <time>2018-09-26T09:09:36.000Z</time>
      </trkpt>
      <trkpt lat="50.41048" lon="3.87432">
        <ele>145</ele>
        <time>2018-09-26T09:09:38.000Z</time>
      </trkpt>
      <trkpt lat="50.41045" lon="3.87448">
        <ele>145</ele>
        <time>2018-09-26T09:09:40.000Z</time>
      </trkpt>
      <trkpt lat="50.41042" lon="3.87465">
        <ele>145</ele>
        <time>2018-09-26T09:09:42.000Z</time>
      </trkpt>
      <trkpt lat="50.41038" lon="3.87482">
        <ele>145</ele>
        <time>2018-09-26T09:09:44.000Z</time>
      </trkpt>
      <trkpt lat="50.41035" lon="3.87499">
        <ele>145</ele>
        <time>2018-09-26T09:09:46.000Z</time>
      </trkpt>
      <trkpt lat="50.41031" lon="3.87516">
        <ele>145</ele>
        <time>2018-09-26T09:09:48.000Z</time>
      </trkpt>
      <trkpt lat="50.41027" lon="3.87533">
        <ele>145</ele>
        <time>2018-09-26T09:09:50.000Z</time>
      </trkpt>
      <trkpt lat="50.41024" lon="3.87551">
        <ele>146</ele>
        <time>2018-09-26T09:09:52.000Z</time>
      </trkpt>
      <trkpt lat="50.41021" lon="3.87569">
        <ele>146</ele>
        <time>2018-09-26T09:09:54.000Z</time>
      </trkpt>
      <trkpt lat="50.41018" lon="3.87586">
        <ele>147</ele>
        <time>2018-09-26T09:09:56.000Z</time>
      </trkpt>
      <trkpt lat="50.41014" lon="3.87604">
        <ele>147</ele>
        <time>2018-09-26T09:09:58.000Z</time>
      </trkpt>
      <trkpt lat="50.41011" lon="3.87623">
        <ele>147</ele>
        <time>2018-09-26T09:10:00.000Z</time>
      </trkpt>
      <trkpt lat="50.41008" lon="3.8764">
        <ele>147</ele>
        <time>2018-09-26T09:10:02.000Z</time>
      </trkpt>
      <trkpt lat="50.41004" lon="3.87657">
        <ele>147</ele>
        <time>2018-09-26T09:10:04.000Z</time>
      </trkpt>
      <trkpt lat="50.41002" lon="3.87674">
        <ele>147</ele>
        <time>2018-09-26T09:10:06.000Z</time>
      </trkpt>
      <trkpt lat="50.40998" lon="3.87691">
        <ele>147</ele>
        <time>2018-09-26T09:10:08.000Z</time>
      </trkpt>
      <trkpt lat="50.40995" lon="3.87708">
        <ele>147</ele>
        <time>2018-09-26T09:10:10.000Z</time>
      </trkpt>
      <trkpt lat="50.40992" lon="3.87725">
        <ele>147</ele>
        <time>2018-09-26T09:10:12.000Z</time>
      </trkpt>
      <trkpt lat="50.40989" lon="3.87742">
        <ele>147</ele>
        <time>2018-09-26T09:10:14.000Z</time>
      </trkpt>
      <trkpt lat="50.40985" lon="3.87759">
        <ele>148</ele>
        <time>2018-09-26T09:10:16.000Z</time>
      </trkpt>
      <trkpt lat="50.40982" lon="3.87775">
        <ele>148</ele>
        <time>2018-09-26T09:10:18.000Z</time>
      </trkpt>
      <trkpt lat="50.40979" lon="3.87791">
        <ele>148</ele>
        <time>2018-09-26T09:10:20.000Z</time>
      </trkpt>
      <trkpt lat="50.40975" lon="3.87808">
        <ele>148</ele>
        <time>2018-09-26T09:10:22.000Z</time>
      </trkpt>
      <trkpt lat="50.40972" lon="3.87824">
        <ele>149</ele>
        <time>2018-09-26T09:10:24.000Z</time>
      </trkpt>
      <trkpt lat="50.40969" lon="3.87841">
        <ele>149</ele>
        <time>2018-09-26T09:10:26.000Z</time>
      </trkpt>
      <trkpt lat="50.40966" lon="3.87858">
        <ele>149</ele>
        <time>2018-09-26T09:10:28.000Z</time>
      </trkpt>
      <trkpt lat="50.40963" lon="3.87874">
        <ele>149</ele>
        <time>2018-09-26T09:10:30.000Z</time>
      </trkpt>
      <trkpt lat="50.40958" lon="3.8789">
        <ele>149</ele>
        <time>2018-09-26T09:10:32.000Z</time>
      </trkpt>
      <trkpt lat="50.40955" lon="3.87906">
        <ele>150</ele>
        <time>2018-09-26T09:10:34.000Z</time>
      </trkpt>
      <trkpt lat="50.40952" lon="3.87922">
        <ele>150</ele>
        <time>2018-09-26T09:10:36.000Z</time>
      </trkpt>
      <trkpt lat="50.4095" lon="3.87939">
        <ele>150</ele>
        <time>2018-09-26T09:10:38.000Z</time>
      </trkpt>
      <trkpt lat="50.40947" lon="3.87956">
        <ele>150</ele>
        <time>2018-09-26T09:10:40.000Z</time>
      </trkpt>
      <trkpt lat="50.40944" lon="3.87974">
        <ele>150</ele>
        <time>2018-09-26T09:10:42.000Z</time>
      </trkpt>
      <trkpt lat="50.40942" lon="3.87991">
        <ele>150</ele>
        <time>2018-09-26T09:10:44.000Z</time>
      </trkpt>
      <trkpt lat="50.40939" lon="3.88008">
        <ele>150</ele>
        <time>2018-09-26T09:10:46.000Z</time>
      </trkpt>
      <trkpt lat="50.40936" lon="3.88026">
        <ele>150</ele>
        <time>2018-09-26T09:10:48.000Z</time>
      </trkpt>
      <trkpt lat="50.40932" lon="3.88044">
        <ele>151</ele>
        <time>2018-09-26T09:10:50.000Z</time>
      </trkpt>
      <trkpt lat="50.40929" lon="3.88062">
        <ele>151</ele>
        <time>2018-09-26T09:10:52.000Z</time>
      </trkpt>
      <trkpt lat="50.40926" lon="3.8808">
        <ele>151</ele>
        <time>2018-09-26T09:10:54.000Z</time>
      </trkpt>
      <trkpt lat="50.40923" lon="3.88098">
        <ele>151</ele>
        <time>2018-09-26T09:10:56.000Z</time>
      </trkpt>
      <trkpt lat="50.4092" lon="3.88115">
        <ele>152</ele>
        <time>2018-09-26T09:10:58.000Z</time>
      </trkpt>
      <trkpt lat="50.40917" lon="3.88134">
        <ele>152</ele>
        <time>2018-09-26T09:11:00.000Z</time>
      </trkpt>
      <trkpt lat="50.40913" lon="3.88152">
        <ele>153</ele>
        <time>2018-09-26T09:11:02.000Z</time>
      </trkpt>
      <trkpt lat="50.40911" lon="3.8817">
        <ele>153</ele>
        <time>2018-09-26T09:11:04.000Z</time>
      </trkpt>
      <trkpt lat="50.40907" lon="3.88188">
        <ele>153</ele>
        <time>2018-09-26T09:11:06.000Z</time>
      </trkpt>
      <trkpt lat="50.40904" lon="3.88205">
        <ele>153</ele>
        <time>2018-09-26T09:11:08.000Z</time>
      </trkpt>
      <trkpt lat="50.40901" lon="3.88223">
        <ele>154</ele>
        <time>2018-09-26T09:11:10.000Z</time>
      </trkpt>
      <trkpt lat="50.40898" lon="3.8824">
        <ele>154</ele>
        <time>2018-09-26T09:11:12.000Z</time>
      </trkpt>
      <trkpt lat="50.40895" lon="3.88258">
        <ele>154</ele>
        <time>2018-09-26T09:11:14.000Z</time>
      </trkpt>
      <trkpt lat="50.40891" lon="3.88276">
        <ele>155</ele>
        <time>2018-09-26T09:11:16.000Z</time>
      </trkpt>
      <trkpt lat="50.40887" lon="3.88293">
        <ele>155</ele>
        <time>2018-09-26T09:11:18.000Z</time>
      </trkpt>
      <trkpt lat="50.40884" lon="3.8831">
        <ele>155</ele>
        <time>2018-09-26T09:11:20.000Z</time>
      </trkpt>
      <trkpt lat="50.40881" lon="3.88328">
        <ele>155</ele>
        <time>2018-09-26T09:11:22.000Z</time>
      </trkpt>
      <trkpt lat="50.40878" lon="3.88347">
        <ele>156</ele>
        <time>2018-09-26T09:11:24.000Z</time>
      </trkpt>
      <trkpt lat="50.40874" lon="3.88364">
        <ele>156</ele>
        <time>2018-09-26T09:11:26.000Z</time>
      </trkpt>
      <trkpt lat="50.4087" lon="3.88381">
        <ele>156</ele>
        <time>2018-09-26T09:11:28.000Z</time>
      </trkpt>
      <trkpt lat="50.40866" lon="3.88399">
        <ele>157</ele>
        <time>2018-09-26T09:11:30.000Z</time>
      </trkpt>
      <trkpt lat="50.40862" lon="3.88418">
        <ele>157</ele>
        <time>2018-09-26T09:11:32.000Z</time>
      </trkpt>
      <trkpt lat="50.40858" lon="3.88436">
        <ele>157</ele>
        <time>2018-09-26T09:11:34.000Z</time>
      </trkpt>
      <trkpt lat="50.40854" lon="3.88454">
        <ele>157</ele>
        <time>2018-09-26T09:11:36.000Z</time>
      </trkpt>
      <trkpt lat="50.40851" lon="3.88473">
        <ele>157</ele>
        <time>2018-09-26T09:11:38.000Z</time>
      </trkpt>
      <trkpt lat="50.40847" lon="3.88491">
        <ele>157</ele>
        <time>2018-09-26T09:11:40.000Z</time>
      </trkpt>
      <trkpt lat="50.40844" lon="3.88509">
        <ele>158</ele>
        <time>2018-09-26T09:11:42.000Z</time>
      </trkpt>
      <trkpt lat="50.4084" lon="3.88527">
        <ele>158</ele>
        <time>2018-09-26T09:11:44.000Z</time>
      </trkpt>
      <trkpt lat="50.40837" lon="3.88545">
        <ele>158</ele>
        <time>2018-09-26T09:11:46.000Z</time>
      </trkpt>
      <trkpt lat="50.40834" lon="3.88562">
        <ele>158</ele>
        <time>2018-09-26T09:11:48.000Z</time>
      </trkpt>
      <trkpt lat="50.4083" lon="3.88579">
        <ele>159</ele>
        <time>2018-09-26T09:11:50.000Z</time>
      </trkpt>
      <trkpt lat="50.40827" lon="3.88597">
        <ele>159</ele>
        <time>2018-09-26T09:11:52.000Z</time>
      </trkpt>
      <trkpt lat="50.40823" lon="3.88615">
        <ele>160</ele>
        <time>2018-09-26T09:11:54.000Z</time>
      </trkpt>
      <trkpt lat="50.4082" lon="3.88633">
        <ele>160</ele>
        <time>2018-09-26T09:11:56.000Z</time>
      </trkpt>
      <trkpt lat="50.40817" lon="3.88651">
        <ele>160</ele>
        <time>2018-09-26T09:11:58.000Z</time>
      </trkpt>
      <trkpt lat="50.40813" lon="3.8867">
        <ele>161</ele>
        <time>2018-09-26T09:12:00.000Z</time>
      </trkpt>
      <trkpt lat="50.4081" lon="3.88687">
        <ele>161</ele>
        <time>2018-09-26T09:12:02.000Z</time>
      </trkpt>
      <trkpt lat="50.40806" lon="3.88705">
        <ele>161</ele>
        <time>2018-09-26T09:12:04.000Z</time>
      </trkpt>
      <trkpt lat="50.40802" lon="3.88723">
        <ele>161</ele>
        <time>2018-09-26T09:12:06.000Z</time>
      </trkpt>
      <trkpt lat="50.40799" lon="3.88741">
        <ele>161</ele>
        <time>2018-09-26T09:12:08.000Z</time>
      </trkpt>
      <trkpt lat="50.40796" lon="3.8876">
        <ele>161</ele>
        <time>2018-09-26T09:12:10.000Z</time>
      </trkpt>
      <trkpt lat="50.40794" lon="3.88778">
        <ele>161</ele>
        <time>2018-09-26T09:12:12.000Z</time>
      </trkpt>
      <trkpt lat="50.40791" lon="3.88797">
        <ele>161</ele>
        <time>2018-09-26T09:12:14.000Z</time>
      </trkpt>
      <trkpt lat="50.40788" lon="3.88816">
        <ele>161</ele>
        <time>2018-09-26T09:12:16.000Z</time>
      </trkpt>
      <trkpt lat="50.40785" lon="3.88836">
        <ele>161</ele>
        <time>2018-09-26T09:12:18.000Z</time>
      </trkpt>
      <trkpt lat="50.40782" lon="3.88854">
        <ele>160</ele>
        <time>2018-09-26T09:12:20.000Z</time>
      </trkpt>
      <trkpt lat="50.40779" lon="3.88873">
        <ele>160</ele>
        <time>2018-09-26T09:12:22.000Z</time>
      </trkpt>
      <trkpt lat="50.40777" lon="3.88892">
        <ele>161</ele>
        <time>2018-09-26T09:12:24.000Z</time>
      </trkpt>
      <trkpt lat="50.40775" lon="3.8891">
        <ele>161</ele>
        <time>2018-09-26T09:12:26.000Z</time>
      </trkpt>
      <trkpt lat="50.40772" lon="3.88928">
        <ele>161</ele>
        <time>2018-09-26T09:12:28.000Z</time>
      </trkpt>
      <trkpt lat="50.40769" lon="3.88946">
        <ele>161</ele>
        <time>2018-09-26T09:12:30.000Z</time>
      </trkpt>
      <trkpt lat="50.40767" lon="3.88964">
        <ele>162</ele>
        <time>2018-09-26T09:12:32.000Z</time>
      </trkpt>
      <trkpt lat="50.40763" lon="3.88982">
        <ele>162</ele>
        <time>2018-09-26T09:12:34.000Z</time>
      </trkpt>
      <trkpt lat="50.40761" lon="3.89001">
        <ele>162</ele>
        <time>2018-09-26T09:12:36.000Z</time>
      </trkpt>
      <trkpt lat="50.40758" lon="3.8902">
        <ele>162</ele>
        <time>2018-09-26T09:12:38.000Z</time>
      </trkpt>
      <trkpt lat="50.40755" lon="3.89038">
        <ele>162</ele>
        <time>2018-09-26T09:12:40.000Z</time>
      </trkpt>
      <trkpt lat="50.40752" lon="3.89057">
        <ele>163</ele>
        <time>2018-09-26T09:12:42.000Z</time>
      </trkpt>
      <trkpt lat="50.40749" lon="3.89076">
        <ele>162</ele>
        <time>2018-09-26T09:12:44.000Z</time>
      </trkpt>
      <trkpt lat="50.40746" lon="3.89096">
        <ele>162</ele>
        <time>2018-09-26T09:12:46.000Z</time>
      </trkpt>
      <trkpt lat="50.40742" lon="3.89116">
        <ele>163</ele>
        <time>2018-09-26T09:12:48.000Z</time>
      </trkpt>
      <trkpt lat="50.40739" lon="3.89136">
        <ele>162</ele>
        <time>2018-09-26T09:12:50.000Z</time>
      </trkpt>
      <trkpt lat="50.40736" lon="3.89157">
        <ele>162</ele>
        <time>2018-09-26T09:12:52.000Z</time>
      </trkpt>
      <trkpt lat="50.40734" lon="3.89177">
        <ele>163</ele>
        <time>2018-09-26T09:12:54.000Z</time>
      </trkpt>
      <trkpt lat="50.40731" lon="3.89198">
        <ele>162</ele>
        <time>2018-09-26T09:12:56.000Z</time>
      </trkpt>
      <trkpt lat="50.40728" lon="3.89219">
        <ele>162</ele>
        <time>2018-09-26T09:12:58.000Z</time>
      </trkpt>
      <trkpt lat="50.40725" lon="3.89238">
        <ele>163</ele>
        <time>2018-09-26T09:13:00.000Z</time>
      </trkpt>
      <trkpt lat="50.40722" lon="3.89257">
        <ele>163</ele>
        <time>2018-09-26T09:13:02.000Z</time>
      </trkpt>
      <trkpt lat="50.40719" lon="3.89275">
        <ele>163</ele>
        <time>2018-09-26T09:13:04.000Z</time>
      </trkpt>
      <trkpt lat="50.40716" lon="3.89295">
        <ele>163</ele>
        <time>2018-09-26T09:13:06.000Z</time>
      </trkpt>
      <trkpt lat="50.40713" lon="3.89313">
        <ele>163</ele>
        <time>2018-09-26T09:13:08.000Z</time>
      </trkpt>
      <trkpt lat="50.40705" lon="3.89327">
        <ele>163</ele>
        <time>2018-09-26T09:13:10.000Z</time>
      </trkpt>
      <trkpt lat="50.40698" lon="3.8934">
        <ele>163</ele>
        <time>2018-09-26T09:13:12.000Z</time>
      </trkpt>
      <trkpt lat="50.40696" lon="3.89352">
        <ele>163</ele>
        <time>2018-09-26T09:13:14.000Z</time>
      </trkpt>
      <trkpt lat="50.40694" lon="3.89362">
        <ele>164</ele>
        <time>2018-09-26T09:13:16.000Z</time>
      </trkpt>
      <trkpt lat="50.40689" lon="3.89375">
        <ele>163</ele>
        <time>2018-09-26T09:13:18.000Z</time>
      </trkpt>
      <trkpt lat="50.40683" lon="3.8939">
        <ele>163</ele>
        <time>2018-09-26T09:13:20.000Z</time>
      </trkpt>
      <trkpt lat="50.40676" lon="3.89406">
        <ele>162</ele>
        <time>2018-09-26T09:13:22.000Z</time>
      </trkpt>
      <trkpt lat="50.4067" lon="3.89423">
        <ele>162</ele>
        <time>2018-09-26T09:13:24.000Z</time>
      </trkpt>
      <trkpt lat="50.40664" lon="3.8944">
        <ele>162</ele>
        <time>2018-09-26T09:13:26.000Z</time>
      </trkpt>
      <trkpt lat="50.40657" lon="3.89459">
        <ele>161</ele>
        <time>2018-09-26T09:13:28.000Z</time>
      </trkpt>
      <trkpt lat="50.4065" lon="3.89478">
        <ele>161</ele>
        <time>2018-09-26T09:13:30.000Z</time>
      </trkpt>
      <trkpt lat="50.40643" lon="3.89497">
        <ele>161</ele>
        <time>2018-09-26T09:13:32.000Z</time>
      </trkpt>
      <trkpt lat="50.40635" lon="3.89517">
        <ele>160</ele>
        <time>2018-09-26T09:13:34.000Z</time>
      </trkpt>
      <trkpt lat="50.40628" lon="3.89538">
        <ele>161</ele>
        <time>2018-09-26T09:13:36.000Z</time>
      </trkpt>
      <trkpt lat="50.4062" lon="3.89558">
        <ele>160</ele>
        <time>2018-09-26T09:13:38.000Z</time>
      </trkpt>
      <trkpt lat="50.40612" lon="3.8958">
        <ele>159</ele>
        <time>2018-09-26T09:13:40.000Z</time>
      </trkpt>
      <trkpt lat="50.40603" lon="3.89602">
        <ele>159</ele>
        <time>2018-09-26T09:13:42.000Z</time>
      </trkpt>
      <trkpt lat="50.40593" lon="3.89623">
        <ele>159</ele>
        <time>2018-09-26T09:13:44.000Z</time>
      </trkpt>
      <trkpt lat="50.40585" lon="3.89647">
        <ele>158</ele>
        <time>2018-09-26T09:13:46.000Z</time>
      </trkpt>
      <trkpt lat="50.40578" lon="3.89672">
        <ele>156</ele>
        <time>2018-09-26T09:13:48.000Z</time>
      </trkpt>
      <trkpt lat="50.40573" lon="3.89699">
        <ele>156</ele>
        <time>2018-09-26T09:13:50.000Z</time>
      </trkpt>
      <trkpt lat="50.4057" lon="3.89727">
        <ele>155</ele>
        <time>2018-09-26T09:13:52.000Z</time>
      </trkpt>
      <trkpt lat="50.40567" lon="3.89755">
        <ele>154</ele>
        <time>2018-09-26T09:13:54.000Z</time>
      </trkpt>
      <trkpt lat="50.40563" lon="3.89785">
        <ele>153</ele>
        <time>2018-09-26T09:13:56.000Z</time>
      </trkpt>
      <trkpt lat="50.4056" lon="3.89814">
        <ele>152</ele>
        <time>2018-09-26T09:13:58.000Z</time>
      </trkpt>
      <trkpt lat="50.40556" lon="3.89843">
        <ele>152</ele>
        <time>2018-09-26T09:14:00.000Z</time>
      </trkpt>
      <trkpt lat="50.40553" lon="3.89873">
        <ele>151</ele>
        <time>2018-09-26T09:14:02.000Z</time>
      </trkpt>
      <trkpt lat="50.40549" lon="3.89903">
        <ele>150</ele>
        <time>2018-09-26T09:14:04.000Z</time>
      </trkpt>
      <trkpt lat="50.40546" lon="3.89933">
        <ele>150</ele>
        <time>2018-09-26T09:14:06.000Z</time>
      </trkpt>
      <trkpt lat="50.40543" lon="3.89962">
        <ele>149</ele>
        <time>2018-09-26T09:14:08.000Z</time>
      </trkpt>
      <trkpt lat="50.40539" lon="3.89991">
        <ele>148</ele>
        <time>2018-09-26T09:14:10.000Z</time>
      </trkpt>
      <trkpt lat="50.40536" lon="3.9002">
        <ele>147</ele>
        <time>2018-09-26T09:14:12.000Z</time>
      </trkpt>
      <trkpt lat="50.40533" lon="3.90048">
        <ele>146</ele>
        <time>2018-09-26T09:14:14.000Z</time>
      </trkpt>
      <trkpt lat="50.40529" lon="3.90077">
        <ele>145</ele>
        <time>2018-09-26T09:14:16.000Z</time>
      </trkpt>
      <trkpt lat="50.40525" lon="3.90107">
        <ele>144</ele>
        <time>2018-09-26T09:14:18.000Z</time>
      </trkpt>
      <trkpt lat="50.40521" lon="3.90137">
        <ele>143</ele>
        <time>2018-09-26T09:14:20.000Z</time>
      </trkpt>
      <trkpt lat="50.40517" lon="3.90168">
        <ele>142</ele>
        <time>2018-09-26T09:14:22.000Z</time>
      </trkpt>
      <trkpt lat="50.40513" lon="3.90198">
        <ele>142</ele>
        <time>2018-09-26T09:14:24.000Z</time>
      </trkpt>
      <trkpt lat="50.40509" lon="3.90228">
        <ele>141</ele>
        <time>2018-09-26T09:14:26.000Z</time>
      </trkpt>
      <trkpt lat="50.40505" lon="3.90259">
        <ele>140</ele>
        <time>2018-09-26T09:14:28.000Z</time>
      </trkpt>
      <trkpt lat="50.40502" lon="3.90289">
        <ele>140</ele>
        <time>2018-09-26T09:14:30.000Z</time>
      </trkpt>
      <trkpt lat="50.40498" lon="3.90319">
        <ele>140</ele>
        <time>2018-09-26T09:14:32.000Z</time>
      </trkpt>
      <trkpt lat="50.40494" lon="3.90348">
        <ele>139</ele>
        <time>2018-09-26T09:14:34.000Z</time>
      </trkpt>
      <trkpt lat="50.4049" lon="3.90377">
        <ele>139</ele>
        <time>2018-09-26T09:14:36.000Z</time>
      </trkpt>
      <trkpt lat="50.40486" lon="3.90405">
        <ele>139</ele>
        <time>2018-09-26T09:14:38.000Z</time>
      </trkpt>
      <trkpt lat="50.40482" lon="3.90434">
        <ele>138</ele>
        <time>2018-09-26T09:14:40.000Z</time>
      </trkpt>
      <trkpt lat="50.40479" lon="3.90463">
        <ele>138</ele>
        <time>2018-09-26T09:14:42.000Z</time>
      </trkpt>
      <trkpt lat="50.40475" lon="3.90492">
        <ele>138</ele>
        <time>2018-09-26T09:14:44.000Z</time>
      </trkpt>
      <trkpt lat="50.40472" lon="3.90521">
        <ele>137</ele>
        <time>2018-09-26T09:14:46.000Z</time>
      </trkpt>
      <trkpt lat="50.40468" lon="3.9055">
        <ele>136</ele>
        <time>2018-09-26T09:14:48.000Z</time>
      </trkpt>
      <trkpt lat="50.40464" lon="3.9058">
        <ele>135</ele>
        <time>2018-09-26T09:14:50.000Z</time>
      </trkpt>
      <trkpt lat="50.40461" lon="3.9061">
        <ele>134</ele>
        <time>2018-09-26T09:14:52.000Z</time>
      </trkpt>
      <trkpt lat="50.40457" lon="3.9064">
        <ele>133</ele>
        <time>2018-09-26T09:14:54.000Z</time>
      </trkpt>
      <trkpt lat="50.40453" lon="3.90669">
        <ele>132</ele>
        <time>2018-09-26T09:14:56.000Z</time>
      </trkpt>
      <trkpt lat="50.40449" lon="3.90697">
        <ele>132</ele>
        <time>2018-09-26T09:14:58.000Z</time>
      </trkpt>
      <trkpt lat="50.40445" lon="3.90725">
        <ele>131</ele>
        <time>2018-09-26T09:15:00.000Z</time>
      </trkpt>
      <trkpt lat="50.40442" lon="3.90754">
        <ele>130</ele>
        <time>2018-09-26T09:15:02.000Z</time>
      </trkpt>
      <trkpt lat="50.40438" lon="3.90783">
        <ele>130</ele>
        <time>2018-09-26T09:15:04.000Z</time>
      </trkpt>
      <trkpt lat="50.40434" lon="3.90812">
        <ele>129</ele>
        <time>2018-09-26T09:15:06.000Z</time>
      </trkpt>
      <trkpt lat="50.4043" lon="3.90843">
        <ele>129</ele>
        <time>2018-09-26T09:15:08.000Z</time>
      </trkpt>
      <trkpt lat="50.40427" lon="3.90874">
        <ele>129</ele>
        <time>2018-09-26T09:15:10.000Z</time>
      </trkpt>
      <trkpt lat="50.40423" lon="3.90904">
        <ele>128</ele>
        <time>2018-09-26T09:15:12.000Z</time>
      </trkpt>
      <trkpt lat="50.40419" lon="3.90934">
        <ele>128</ele>
        <time>2018-09-26T09:15:14.000Z</time>
      </trkpt>
      <trkpt lat="50.40415" lon="3.90963">
        <ele>127</ele>
        <time>2018-09-26T09:15:16.000Z</time>
      </trkpt>
      <trkpt lat="50.40411" lon="3.90994">
        <ele>126</ele>
        <time>2018-09-26T09:15:18.000Z</time>
      </trkpt>
      <trkpt lat="50.40407" lon="3.91024">
        <ele>125</ele>
        <time>2018-09-26T09:15:20.000Z</time>
      </trkpt>
      <trkpt lat="50.40403" lon="3.91055">
        <ele>124</ele>
        <time>2018-09-26T09:15:22.000Z</time>
      </trkpt>
      <trkpt lat="50.404" lon="3.91084">
        <ele>123</ele>
        <time>2018-09-26T09:15:24.000Z</time>
      </trkpt>
      <trkpt lat="50.40396" lon="3.91114">
        <ele>123</ele>
        <time>2018-09-26T09:15:26.000Z</time>
      </trkpt>
      <trkpt lat="50.40392" lon="3.91144">
        <ele>123</ele>
        <time>2018-09-26T09:15:28.000Z</time>
      </trkpt>
      <trkpt lat="50.40388" lon="3.91175">
        <ele>122</ele>
        <time>2018-09-26T09:15:30.000Z</time>
      </trkpt>
      <trkpt lat="50.40384" lon="3.91206">
        <ele>122</ele>
        <time>2018-09-26T09:15:32.000Z</time>
      </trkpt>
      <trkpt lat="50.4038" lon="3.91237">
        <ele>121</ele>
        <time>2018-09-26T09:15:34.000Z</time>
      </trkpt>
      <trkpt lat="50.40376" lon="3.91269">
        <ele>120</ele>
        <time>2018-09-26T09:15:36.000Z</time>
      </trkpt>
      <trkpt lat="50.40372" lon="3.913">
        <ele>120</ele>
        <time>2018-09-26T09:15:38.000Z</time>
      </trkpt>
      <trkpt lat="50.40369" lon="3.91332">
        <ele>119</ele>
        <time>2018-09-26T09:15:40.000Z</time>
      </trkpt>
      <trkpt lat="50.40364" lon="3.91364">
        <ele>118</ele>
        <time>2018-09-26T09:15:42.000Z</time>
      </trkpt>
      <trkpt lat="50.4036" lon="3.91396">
        <ele>117</ele>
        <time>2018-09-26T09:15:44.000Z</time>
      </trkpt>
      <trkpt lat="50.40356" lon="3.9143">
        <ele>116</ele>
        <time>2018-09-26T09:15:46.000Z</time>
      </trkpt>
      <trkpt lat="50.40352" lon="3.91463">
        <ele>116</ele>
        <time>2018-09-26T09:15:48.000Z</time>
      </trkpt>
      <trkpt lat="50.40348" lon="3.91495">
        <ele>115</ele>
        <time>2018-09-26T09:15:50.000Z</time>
      </trkpt>
      <trkpt lat="50.40343" lon="3.91526">
        <ele>114</ele>
        <time>2018-09-26T09:15:52.000Z</time>
      </trkpt>
      <trkpt lat="50.4034" lon="3.91556">
        <ele>113</ele>
        <time>2018-09-26T09:15:54.000Z</time>
      </trkpt>
      <trkpt lat="50.40336" lon="3.91586">
        <ele>112</ele>
        <time>2018-09-26T09:15:56.000Z</time>
      </trkpt>
      <trkpt lat="50.40332" lon="3.91616">
        <ele>111</ele>
        <time>2018-09-26T09:15:58.000Z</time>
      </trkpt>
      <trkpt lat="50.40328" lon="3.91646">
        <ele>111</ele>
        <time>2018-09-26T09:16:00.000Z</time>
      </trkpt>
      <trkpt lat="50.40324" lon="3.91677">
        <ele>110</ele>
        <time>2018-09-26T09:16:02.000Z</time>
      </trkpt>
      <trkpt lat="50.4032" lon="3.91708">
        <ele>109</ele>
        <time>2018-09-26T09:16:04.000Z</time>
      </trkpt>
      <trkpt lat="50.40317" lon="3.91738">
        <ele>109</ele>
        <time>2018-09-26T09:16:06.000Z</time>
      </trkpt>
      <trkpt lat="50.40313" lon="3.91765">
        <ele>109</ele>
        <time>2018-09-26T09:16:08.000Z</time>
      </trkpt>
      <trkpt lat="50.4031" lon="3.91787">
        <ele>109</ele>
        <time>2018-09-26T09:16:10.000Z</time>
      </trkpt>
      <trkpt lat="50.40307" lon="3.91804">
        <ele>109</ele>
        <time>2018-09-26T09:16:12.000Z</time>
      </trkpt>
      <trkpt lat="50.40306" lon="3.91814">
        <ele>107</ele>
        <time>2018-09-26T09:16:15.000Z</time>
      </trkpt>
      <trkpt lat="50.40301" lon="3.91834">
        <ele>106</ele>
        <time>2018-09-26T09:16:45.000Z</time>
      </trkpt>
      <trkpt lat="50.40298" lon="3.91853">
        <ele>106</ele>
        <time>2018-09-26T09:16:48.000Z</time>
      </trkpt>
      <trkpt lat="50.40296" lon="3.91869">
        <ele>107</ele>
        <time>2018-09-26T09:16:50.000Z</time>
      </trkpt>
      <trkpt lat="50.40295" lon="3.91887">
        <ele>107</ele>
        <time>2018-09-26T09:16:52.000Z</time>
      </trkpt>
      <trkpt lat="50.40293" lon="3.91907">
        <ele>107</ele>
        <time>2018-09-26T09:16:54.000Z</time>
      </trkpt>
      <trkpt lat="50.40291" lon="3.91928">
        <ele>107</ele>
        <time>2018-09-26T09:16:56.000Z</time>
      </trkpt>
      <trkpt lat="50.40289" lon="3.91949">
        <ele>108</ele>
        <time>2018-09-26T09:16:58.000Z</time>
      </trkpt>
      <trkpt lat="50.40286" lon="3.91971">
        <ele>108</ele>
        <time>2018-09-26T09:17:00.000Z</time>
      </trkpt>
      <trkpt lat="50.40284" lon="3.91992">
        <ele>108</ele>
        <time>2018-09-26T09:17:02.000Z</time>
      </trkpt>
      <trkpt lat="50.40281" lon="3.92013">
        <ele>108</ele>
        <time>2018-09-26T09:17:04.000Z</time>
      </trkpt>
      <trkpt lat="50.40278" lon="3.92035">
        <ele>107</ele>
        <time>2018-09-26T09:17:06.000Z</time>
      </trkpt>
      <trkpt lat="50.40275" lon="3.92056">
        <ele>107</ele>
        <time>2018-09-26T09:17:08.000Z</time>
      </trkpt>
      <trkpt lat="50.40272" lon="3.92078">
        <ele>107</ele>
        <time>2018-09-26T09:17:10.000Z</time>
      </trkpt>
      <trkpt lat="50.40269" lon="3.92099">
        <ele>107</ele>
        <time>2018-09-26T09:17:12.000Z</time>
      </trkpt>
      <trkpt lat="50.40266" lon="3.9212">
        <ele>107</ele>
        <time>2018-09-26T09:17:14.000Z</time>
      </trkpt>
      <trkpt lat="50.40263" lon="3.9214">
        <ele>107</ele>
        <time>2018-09-26T09:17:16.000Z</time>
      </trkpt>
      <trkpt lat="50.40261" lon="3.92161">
        <ele>107</ele>
        <time>2018-09-26T09:17:18.000Z</time>
      </trkpt>
      <trkpt lat="50.40258" lon="3.9218">
        <ele>107</ele>
        <time>2018-09-26T09:17:20.000Z</time>
      </trkpt>
      <trkpt lat="50.40257" lon="3.922">
        <ele>107</ele>
        <time>2018-09-26T09:17:22.000Z</time>
      </trkpt>
      <trkpt lat="50.40254" lon="3.92219">
        <ele>107</ele>
        <time>2018-09-26T09:17:24.000Z</time>
      </trkpt>
      <trkpt lat="50.40251" lon="3.92237">
        <ele>107</ele>
        <time>2018-09-26T09:17:26.000Z</time>
      </trkpt>
      <trkpt lat="50.40248" lon="3.92256">
        <ele>107</ele>
        <time>2018-09-26T09:17:28.000Z</time>
      </trkpt>
      <trkpt lat="50.40246" lon="3.92274">
        <ele>108</ele>
        <time>2018-09-26T09:17:30.000Z</time>
      </trkpt>
      <trkpt lat="50.40244" lon="3.92292">
        <ele>108</ele>
        <time>2018-09-26T09:17:32.000Z</time>
      </trkpt>
      <trkpt lat="50.40242" lon="3.92309">
        <ele>108</ele>
        <time>2018-09-26T09:17:34.000Z</time>
      </trkpt>
      <trkpt lat="50.4024" lon="3.92326">
        <ele>108</ele>
        <time>2018-09-26T09:17:36.000Z</time>
      </trkpt>
      <trkpt lat="50.40238" lon="3.92341">
        <ele>109</ele>
        <time>2018-09-26T09:17:38.000Z</time>
      </trkpt>
      <trkpt lat="50.40236" lon="3.92358">
        <ele>109</ele>
        <time>2018-09-26T09:17:40.000Z</time>
      </trkpt>
      <trkpt lat="50.40234" lon="3.92375">
        <ele>109</ele>
        <time>2018-09-26T09:17:42.000Z</time>
      </trkpt>
      <trkpt lat="50.40233" lon="3.92392">
        <ele>109</ele>
        <time>2018-09-26T09:17:44.000Z</time>
      </trkpt>
      <trkpt lat="50.40231" lon="3.9241">
        <ele>109</ele>
        <time>2018-09-26T09:17:46.000Z</time>
      </trkpt>
      <trkpt lat="50.4023" lon="3.92427">
        <ele>108</ele>
        <time>2018-09-26T09:17:48.000Z</time>
      </trkpt>
      <trkpt lat="50.40228" lon="3.92444">
        <ele>108</ele>
        <time>2018-09-26T09:17:50.000Z</time>
      </trkpt>
      <trkpt lat="50.40226" lon="3.92461">
        <ele>109</ele>
        <time>2018-09-26T09:17:52.000Z</time>
      </trkpt>
      <trkpt lat="50.40224" lon="3.92477">
        <ele>109</ele>
        <time>2018-09-26T09:17:54.000Z</time>
      </trkpt>
      <trkpt lat="50.40221" lon="3.92492">
        <ele>110</ele>
        <time>2018-09-26T09:17:56.000Z</time>
      </trkpt>
      <trkpt lat="50.40218" lon="3.92508">
        <ele>110</ele>
        <time>2018-09-26T09:17:58.000Z</time>
      </trkpt>
      <trkpt lat="50.40215" lon="3.92524">
        <ele>110</ele>
        <time>2018-09-26T09:18:00.000Z</time>
      </trkpt>
      <trkpt lat="50.40213" lon="3.9254">
        <ele>111</ele>
        <time>2018-09-26T09:18:02.000Z</time>
      </trkpt>
      <trkpt lat="50.40209" lon="3.92556">
        <ele>111</ele>
        <time>2018-09-26T09:18:04.000Z</time>
      </trkpt>
      <trkpt lat="50.40205" lon="3.92573">
        <ele>111</ele>
        <time>2018-09-26T09:18:06.000Z</time>
      </trkpt>
      <trkpt lat="50.40202" lon="3.9259">
        <ele>111</ele>
        <time>2018-09-26T09:18:08.000Z</time>
      </trkpt>
      <trkpt lat="50.40197" lon="3.92607">
        <ele>111</ele>
        <time>2018-09-26T09:18:10.000Z</time>
      </trkpt>
      <trkpt lat="50.40193" lon="3.92625">
        <ele>111</ele>
        <time>2018-09-26T09:18:12.000Z</time>
      </trkpt>
      <trkpt lat="50.40188" lon="3.92643">
        <ele>111</ele>
        <time>2018-09-26T09:18:14.000Z</time>
      </trkpt>
      <trkpt lat="50.40183" lon="3.92663">
        <ele>111</ele>
        <time>2018-09-26T09:18:16.000Z</time>
      </trkpt>
      <trkpt lat="50.40177" lon="3.92682">
        <ele>111</ele>
        <time>2018-09-26T09:18:18.000Z</time>
      </trkpt>
      <trkpt lat="50.40172" lon="3.92699">
        <ele>111</ele>
        <time>2018-09-26T09:18:20.000Z</time>
      </trkpt>
      <trkpt lat="50.40167" lon="3.92709">
        <ele>112</ele>
        <time>2018-09-26T09:18:22.000Z</time>
      </trkpt>
      <trkpt lat="50.40159" lon="3.92705">
        <ele>113</ele>
        <time>2018-09-26T09:18:24.000Z</time>
      </trkpt>
      <trkpt lat="50.40153" lon="3.92695">
        <ele>113</ele>
        <time>2018-09-26T09:18:26.000Z</time>
      </trkpt>
      <trkpt lat="50.40146" lon="3.92684">
        <ele>113</ele>
        <time>2018-09-26T09:18:28.000Z</time>
      </trkpt>
      <trkpt lat="50.40138" lon="3.92674">
        <ele>114</ele>
        <time>2018-09-26T09:18:30.000Z</time>
      </trkpt>
      <trkpt lat="50.4013" lon="3.92664">
        <ele>115</ele>
        <time>2018-09-26T09:18:32.000Z</time>
      </trkpt>
      <trkpt lat="50.40122" lon="3.92655">
        <ele>115</ele>
        <time>2018-09-26T09:18:34.000Z</time>
      </trkpt>
      <trkpt lat="50.40114" lon="3.92645">
        <ele>116</ele>
        <time>2018-09-26T09:18:36.000Z</time>
      </trkpt>
      <trkpt lat="50.40105" lon="3.92635">
        <ele>116</ele>
        <time>2018-09-26T09:18:38.000Z</time>
      </trkpt>
      <trkpt lat="50.40097" lon="3.92625">
        <ele>116</ele>
        <time>2018-09-26T09:18:40.000Z</time>
      </trkpt>
      <trkpt lat="50.40089" lon="3.92614">
        <ele>116</ele>
        <time>2018-09-26T09:18:42.000Z</time>
      </trkpt>
      <trkpt lat="50.40081" lon="3.92604">
        <ele>116</ele>
        <time>2018-09-26T09:18:44.000Z</time>
      </trkpt>
      <trkpt lat="50.40073" lon="3.92594">
        <ele>116</ele>
        <time>2018-09-26T09:18:46.000Z</time>
      </trkpt>
      <trkpt lat="50.40065" lon="3.92585">
        <ele>116</ele>
        <time>2018-09-26T09:18:48.000Z</time>
      </trkpt>
      <trkpt lat="50.40057" lon="3.92575">
        <ele>116</ele>
        <time>2018-09-26T09:18:51.000Z</time>
      </trkpt>
      <trkpt lat="50.40049" lon="3.92565">
        <ele>117</ele>
        <time>2018-09-26T09:18:53.000Z</time>
      </trkpt>
      <trkpt lat="50.40041" lon="3.92555">
        <ele>117</ele>
        <time>2018-09-26T09:18:55.000Z</time>
      </trkpt>
      <trkpt lat="50.40033" lon="3.92545">
        <ele>117</ele>
        <time>2018-09-26T09:18:57.000Z</time>
      </trkpt>
      <trkpt lat="50.40025" lon="3.92534">
        <ele>117</ele>
        <time>2018-09-26T09:18:59.000Z</time>
      </trkpt>
      <trkpt lat="50.40017" lon="3.92524">
        <ele>117</ele>
        <time>2018-09-26T09:19:01.000Z</time>
      </trkpt>
      <trkpt lat="50.40009" lon="3.92513">
        <ele>117</ele>
        <time>2018-09-26T09:19:03.000Z</time>
      </trkpt>
      <trkpt lat="50.40001" lon="3.92502">
        <ele>117</ele>
        <time>2018-09-26T09:19:05.000Z</time>
      </trkpt>
      <trkpt lat="50.39992" lon="3.92492">
        <ele>117</ele>
        <time>2018-09-26T09:19:07.000Z</time>
      </trkpt>
      <trkpt lat="50.39984" lon="3.92482">
        <ele>117</ele>
        <time>2018-09-26T09:19:09.000Z</time>
      </trkpt>
      <trkpt lat="50.39977" lon="3.92472">
        <ele>118</ele>
        <time>2018-09-26T09:19:11.000Z</time>
      </trkpt>
      <trkpt lat="50.39968" lon="3.92462">
        <ele>118</ele>
        <time>2018-09-26T09:19:13.000Z</time>
      </trkpt>
      <trkpt lat="50.3996" lon="3.92452">
        <ele>118</ele>
        <time>2018-09-26T09:19:15.000Z</time>
      </trkpt>
      <trkpt lat="50.39952" lon="3.92441">
        <ele>118</ele>
        <time>2018-09-26T09:19:17.000Z</time>
      </trkpt>
      <trkpt lat="50.39944" lon="3.92431">
        <ele>118</ele>
        <time>2018-09-26T09:19:19.000Z</time>
      </trkpt>
      <trkpt lat="50.39936" lon="3.92422">
        <ele>118</ele>
        <time>2018-09-26T09:19:21.000Z</time>
      </trkpt>
      <trkpt lat="50.39928" lon="3.92411">
        <ele>118</ele>
        <time>2018-09-26T09:19:23.000Z</time>
      </trkpt>
      <trkpt lat="50.3992" lon="3.92401">
        <ele>118</ele>
        <time>2018-09-26T09:19:25.000Z</time>
      </trkpt>
      <trkpt lat="50.39911" lon="3.92391">
        <ele>118</ele>
        <time>2018-09-26T09:19:27.000Z</time>
      </trkpt>
      <trkpt lat="50.39903" lon="3.9238">
        <ele>118</ele>
        <time>2018-09-26T09:19:29.000Z</time>
      </trkpt>
      <trkpt lat="50.39894" lon="3.92369">
        <ele>118</ele>
        <time>2018-09-26T09:19:31.000Z</time>
      </trkpt>
      <trkpt lat="50.39886" lon="3.92359">
        <ele>118</ele>
        <time>2018-09-26T09:19:33.000Z</time>
      </trkpt>
      <trkpt lat="50.39877" lon="3.92348">
        <ele>118</ele>
        <time>2018-09-26T09:19:35.000Z</time>
      </trkpt>
      <trkpt lat="50.39869" lon="3.92338">
        <ele>118</ele>
        <time>2018-09-26T09:19:37.000Z</time>
      </trkpt>
      <trkpt lat="50.3986" lon="3.92327">
        <ele>118</ele>
        <time>2018-09-26T09:19:39.000Z</time>
      </trkpt>
      <trkpt lat="50.39851" lon="3.92316">
        <ele>118</ele>
        <time>2018-09-26T09:19:41.000Z</time>
      </trkpt>
      <trkpt lat="50.39842" lon="3.92305">
        <ele>118</ele>
        <time>2018-09-26T09:19:43.000Z</time>
      </trkpt>
      <trkpt lat="50.39834" lon="3.92295">
        <ele>118</ele>
        <time>2018-09-26T09:19:45.000Z</time>
      </trkpt>
      <trkpt lat="50.39825" lon="3.92285">
        <ele>118</ele>
        <time>2018-09-26T09:19:47.000Z</time>
      </trkpt>
      <trkpt lat="50.39817" lon="3.92274">
        <ele>118</ele>
        <time>2018-09-26T09:19:49.000Z</time>
      </trkpt>
      <trkpt lat="50.39809" lon="3.92264">
        <ele>118</ele>
        <time>2018-09-26T09:19:51.000Z</time>
      </trkpt>
      <trkpt lat="50.39801" lon="3.92254">
        <ele>118</ele>
        <time>2018-09-26T09:19:53.000Z</time>
      </trkpt>
      <trkpt lat="50.39793" lon="3.92244">
        <ele>118</ele>
        <time>2018-09-26T09:19:55.000Z</time>
      </trkpt>
      <trkpt lat="50.39784" lon="3.92234">
        <ele>118</ele>
        <time>2018-09-26T09:19:57.000Z</time>
      </trkpt>
      <trkpt lat="50.39776" lon="3.92224">
        <ele>118</ele>
        <time>2018-09-26T09:19:59.000Z</time>
      </trkpt>
      <trkpt lat="50.39768" lon="3.92214">
        <ele>118</ele>
        <time>2018-09-26T09:20:01.000Z</time>
      </trkpt>
      <trkpt lat="50.39759" lon="3.92203">
        <ele>118</ele>
        <time>2018-09-26T09:20:03.000Z</time>
      </trkpt>
      <trkpt lat="50.39751" lon="3.92193">
        <ele>119</ele>
        <time>2018-09-26T09:20:05.000Z</time>
      </trkpt>
      <trkpt lat="50.39743" lon="3.92182">
        <ele>119</ele>
        <time>2018-09-26T09:20:07.000Z</time>
      </trkpt>
      <trkpt lat="50.39735" lon="3.92171">
        <ele>119</ele>
        <time>2018-09-26T09:20:09.000Z</time>
      </trkpt>
      <trkpt lat="50.39727" lon="3.92161">
        <ele>119</ele>
        <time>2018-09-26T09:20:11.000Z</time>
      </trkpt>
      <trkpt lat="50.39719" lon="3.9215">
        <ele>119</ele>
        <time>2018-09-26T09:20:13.000Z</time>
      </trkpt>
      <trkpt lat="50.39711" lon="3.92139">
        <ele>119</ele>
        <time>2018-09-26T09:20:15.000Z</time>
      </trkpt>
      <trkpt lat="50.39702" lon="3.92128">
        <ele>119</ele>
        <time>2018-09-26T09:20:17.000Z</time>
      </trkpt>
      <trkpt lat="50.39693" lon="3.92117">
        <ele>119</ele>
        <time>2018-09-26T09:20:19.000Z</time>
      </trkpt>
      <trkpt lat="50.39685" lon="3.92105">
        <ele>119</ele>
        <time>2018-09-26T09:20:20.000Z</time>
      </trkpt>
      <trkpt lat="50.39676" lon="3.92094">
        <ele>119</ele>
        <time>2018-09-26T09:20:22.000Z</time>
      </trkpt>
      <trkpt lat="50.39667" lon="3.92082">
        <ele>120</ele>
        <time>2018-09-26T09:20:24.000Z</time>
      </trkpt>
      <trkpt lat="50.39658" lon="3.92071">
        <ele>119</ele>
        <time>2018-09-26T09:20:26.000Z</time>
      </trkpt>
      <trkpt lat="50.39649" lon="3.9206">
        <ele>119</ele>
        <time>2018-09-26T09:20:28.000Z</time>
      </trkpt>
      <trkpt lat="50.3964" lon="3.92048">
        <ele>119</ele>
        <time>2018-09-26T09:20:30.000Z</time>
      </trkpt>
      <trkpt lat="50.39632" lon="3.92037">
        <ele>119</ele>
        <time>2018-09-26T09:20:32.000Z</time>
      </trkpt>
      <trkpt lat="50.39623" lon="3.92025">
        <ele>119</ele>
        <time>2018-09-26T09:20:34.000Z</time>
      </trkpt>
      <trkpt lat="50.39615" lon="3.92014">
        <ele>120</ele>
        <time>2018-09-26T09:20:36.000Z</time>
      </trkpt>
      <trkpt lat="50.39607" lon="3.92004">
        <ele>120</ele>
        <time>2018-09-26T09:20:38.000Z</time>
      </trkpt>
      <trkpt lat="50.39599" lon="3.91993">
        <ele>120</ele>
        <time>2018-09-26T09:20:40.000Z</time>
      </trkpt>
      <trkpt lat="50.3959" lon="3.91982">
        <ele>120</ele>
        <time>2018-09-26T09:20:42.000Z</time>
      </trkpt>
      <trkpt lat="50.39581" lon="3.9197">
        <ele>120</ele>
        <time>2018-09-26T09:20:44.000Z</time>
      </trkpt>
      <trkpt lat="50.39572" lon="3.91959">
        <ele>120</ele>
        <time>2018-09-26T09:20:46.000Z</time>
      </trkpt>
      <trkpt lat="50.39564" lon="3.91947">
        <ele>121</ele>
        <time>2018-09-26T09:20:48.000Z</time>
      </trkpt>
      <trkpt lat="50.39556" lon="3.91934">
        <ele>121</ele>
        <time>2018-09-26T09:20:50.000Z</time>
      </trkpt>
      <trkpt lat="50.39548" lon="3.91922">
        <ele>121</ele>
        <time>2018-09-26T09:20:52.000Z</time>
      </trkpt>
      <trkpt lat="50.39539" lon="3.9191">
        <ele>121</ele>
        <time>2018-09-26T09:20:54.000Z</time>
      </trkpt>
      <trkpt lat="50.3953" lon="3.91898">
        <ele>121</ele>
        <time>2018-09-26T09:20:56.000Z</time>
      </trkpt>
      <trkpt lat="50.39522" lon="3.91887">
        <ele>122</ele>
        <time>2018-09-26T09:20:58.000Z</time>
      </trkpt>
      <trkpt lat="50.39513" lon="3.91876">
        <ele>122</ele>
        <time>2018-09-26T09:21:00.000Z</time>
      </trkpt>
      <trkpt lat="50.39504" lon="3.91865">
        <ele>122</ele>
        <time>2018-09-26T09:21:02.000Z</time>
      </trkpt>
      <trkpt lat="50.39495" lon="3.91854">
        <ele>122</ele>
        <time>2018-09-26T09:21:04.000Z</time>
      </trkpt>
      <trkpt lat="50.39486" lon="3.91843">
        <ele>122</ele>
        <time>2018-09-26T09:21:06.000Z</time>
      </trkpt>
      <trkpt lat="50.39476" lon="3.91832">
        <ele>123</ele>
        <time>2018-09-26T09:21:08.000Z</time>
      </trkpt>
      <trkpt lat="50.39467" lon="3.9182">
        <ele>122</ele>
        <time>2018-09-26T09:21:10.000Z</time>
      </trkpt>
      <trkpt lat="50.39458" lon="3.91807">
        <ele>123</ele>
        <time>2018-09-26T09:21:12.000Z</time>
      </trkpt>
      <trkpt lat="50.39449" lon="3.91795">
        <ele>123</ele>
        <time>2018-09-26T09:21:14.000Z</time>
      </trkpt>
      <trkpt lat="50.39437" lon="3.91782">
        <ele>123</ele>
        <time>2018-09-26T09:21:16.000Z</time>
      </trkpt>
      <trkpt lat="50.39425" lon="3.91768">
        <ele>124</ele>
        <time>2018-09-26T09:21:18.000Z</time>
      </trkpt>
      <trkpt lat="50.39413" lon="3.91754">
        <ele>124</ele>
        <time>2018-09-26T09:21:20.000Z</time>
      </trkpt>
      <trkpt lat="50.39402" lon="3.91739">
        <ele>125</ele>
        <time>2018-09-26T09:21:22.000Z</time>
      </trkpt>
      <trkpt lat="50.39391" lon="3.91727">
        <ele>125</ele>
        <time>2018-09-26T09:21:24.000Z</time>
      </trkpt>
      <trkpt lat="50.39381" lon="3.91714">
        <ele>125</ele>
        <time>2018-09-26T09:21:26.000Z</time>
      </trkpt>
      <trkpt lat="50.39371" lon="3.91701">
        <ele>125</ele>
        <time>2018-09-26T09:21:28.000Z</time>
      </trkpt>
      <trkpt lat="50.3936" lon="3.91694">
        <ele>125</ele>
        <time>2018-09-26T09:21:30.000Z</time>
      </trkpt>
      <trkpt lat="50.39347" lon="3.91701">
        <ele>125</ele>
        <time>2018-09-26T09:21:32.000Z</time>
      </trkpt>
      <trkpt lat="50.39337" lon="3.91719">
        <ele>124</ele>
        <time>2018-09-26T09:21:34.000Z</time>
      </trkpt>
      <trkpt lat="50.39325" lon="3.91742">
        <ele>123</ele>
        <time>2018-09-26T09:21:36.000Z</time>
      </trkpt>
      <trkpt lat="50.39315" lon="3.91765">
        <ele>123</ele>
        <time>2018-09-26T09:21:38.000Z</time>
      </trkpt>
      <trkpt lat="50.39304" lon="3.91785">
        <ele>123</ele>
        <time>2018-09-26T09:21:40.000Z</time>
      </trkpt>
      <trkpt lat="50.39295" lon="3.91804">
        <ele>124</ele>
        <time>2018-09-26T09:21:42.000Z</time>
      </trkpt>
      <trkpt lat="50.39288" lon="3.91815">
        <ele>126</ele>
        <time>2018-09-26T09:21:44.000Z</time>
      </trkpt>
      <trkpt lat="50.39278" lon="3.91816">
        <ele>127</ele>
        <time>2018-09-26T09:21:46.000Z</time>
      </trkpt>
      <trkpt lat="50.39266" lon="3.91814">
        <ele>127</ele>
        <time>2018-09-26T09:21:48.000Z</time>
      </trkpt>
      <trkpt lat="50.39256" lon="3.91817">
        <ele>128</ele>
        <time>2018-09-26T09:21:50.000Z</time>
      </trkpt>
      <trkpt lat="50.39248" lon="3.91821">
        <ele>128</ele>
        <time>2018-09-26T09:21:52.000Z</time>
      </trkpt>
      <trkpt lat="50.3924" lon="3.91829">
        <ele>128</ele>
        <time>2018-09-26T09:21:54.000Z</time>
      </trkpt>
      <trkpt lat="50.39233" lon="3.91838">
        <ele>129</ele>
        <time>2018-09-26T09:21:56.000Z</time>
      </trkpt>
      <trkpt lat="50.39229" lon="3.91852">
        <ele>129</ele>
        <time>2018-09-26T09:21:58.000Z</time>
      </trkpt>
      <trkpt lat="50.3923" lon="3.91867">
        <ele>129</ele>
        <time>2018-09-26T09:22:00.000Z</time>
      </trkpt>
      <trkpt lat="50.39231" lon="3.91883">
        <ele>129</ele>
        <time>2018-09-26T09:22:02.000Z</time>
      </trkpt>
      <trkpt lat="50.39229" lon="3.91899">
        <ele>129</ele>
        <time>2018-09-26T09:22:04.000Z</time>
      </trkpt>
      <trkpt lat="50.39224" lon="3.91913">
        <ele>130</ele>
        <time>2018-09-26T09:22:06.000Z</time>
      </trkpt>
      <trkpt lat="50.39218" lon="3.91926">
        <ele>130</ele>
        <time>2018-09-26T09:22:08.000Z</time>
      </trkpt>
      <trkpt lat="50.39211" lon="3.9194">
        <ele>131</ele>
        <time>2018-09-26T09:22:10.000Z</time>
      </trkpt>
      <trkpt lat="50.39203" lon="3.91954">
        <ele>131</ele>
        <time>2018-09-26T09:22:12.000Z</time>
      </trkpt>
      <trkpt lat="50.39195" lon="3.91969">
        <ele>131</ele>
        <time>2018-09-26T09:22:14.000Z</time>
      </trkpt>
      <trkpt lat="50.39186" lon="3.91985">
        <ele>131</ele>
        <time>2018-09-26T09:22:16.000Z</time>
      </trkpt>
      <trkpt lat="50.39177" lon="3.92">
        <ele>131</ele>
        <time>2018-09-26T09:22:18.000Z</time>
      </trkpt>
      <trkpt lat="50.39167" lon="3.92016">
        <ele>130</ele>
        <time>2018-09-26T09:22:20.000Z</time>
      </trkpt>
      <trkpt lat="50.39157" lon="3.92032">
        <ele>130</ele>
        <time>2018-09-26T09:22:22.000Z</time>
      </trkpt>
      <trkpt lat="50.39146" lon="3.92048">
        <ele>129</ele>
        <time>2018-09-26T09:22:24.000Z</time>
      </trkpt>
      <trkpt lat="50.39135" lon="3.92063">
        <ele>128</ele>
        <time>2018-09-26T09:22:26.000Z</time>
      </trkpt>
      <trkpt lat="50.39124" lon="3.92079">
        <ele>128</ele>
        <time>2018-09-26T09:22:28.000Z</time>
      </trkpt>
      <trkpt lat="50.39113" lon="3.92092">
        <ele>129</ele>
        <time>2018-09-26T09:22:30.000Z</time>
      </trkpt>
      <trkpt lat="50.39102" lon="3.92103">
        <ele>129</ele>
        <time>2018-09-26T09:22:32.000Z</time>
      </trkpt>
      <trkpt lat="50.39091" lon="3.92114">
        <ele>129</ele>
        <time>2018-09-26T09:22:34.000Z</time>
      </trkpt>
      <trkpt lat="50.39081" lon="3.92124">
        <ele>130</ele>
        <time>2018-09-26T09:22:36.000Z</time>
      </trkpt>
      <trkpt lat="50.39072" lon="3.92135">
        <ele>130</ele>
        <time>2018-09-26T09:22:38.000Z</time>
      </trkpt>
      <trkpt lat="50.39063" lon="3.92147">
        <ele>131</ele>
        <time>2018-09-26T09:22:40.000Z</time>
      </trkpt>
      <trkpt lat="50.39054" lon="3.92158">
        <ele>131</ele>
        <time>2018-09-26T09:22:42.000Z</time>
      </trkpt>
      <trkpt lat="50.39045" lon="3.92168">
        <ele>131</ele>
        <time>2018-09-26T09:22:44.000Z</time>
      </trkpt>
      <trkpt lat="50.39037" lon="3.92179">
        <ele>131</ele>
        <time>2018-09-26T09:22:46.000Z</time>
      </trkpt>
      <trkpt lat="50.39029" lon="3.92191">
        <ele>131</ele>
        <time>2018-09-26T09:22:48.000Z</time>
      </trkpt>
      <trkpt lat="50.39022" lon="3.92203">
        <ele>131</ele>
        <time>2018-09-26T09:22:50.000Z</time>
      </trkpt>
      <trkpt lat="50.39016" lon="3.92216">
        <ele>131</ele>
        <time>2018-09-26T09:22:52.000Z</time>
      </trkpt>
      <trkpt lat="50.39009" lon="3.9223">
        <ele>131</ele>
        <time>2018-09-26T09:22:54.000Z</time>
      </trkpt>
      <trkpt lat="50.39004" lon="3.92244">
        <ele>131</ele>
        <time>2018-09-26T09:22:56.000Z</time>
      </trkpt>
      <trkpt lat="50.38998" lon="3.92258">
        <ele>131</ele>
        <time>2018-09-26T09:22:58.000Z</time>
      </trkpt>
      <trkpt lat="50.38993" lon="3.92272">
        <ele>131</ele>
        <time>2018-09-26T09:23:00.000Z</time>
      </trkpt>
      <trkpt lat="50.38988" lon="3.92287">
        <ele>131</ele>
        <time>2018-09-26T09:23:02.000Z</time>
      </trkpt>
      <trkpt lat="50.38983" lon="3.92301">
        <ele>132</ele>
        <time>2018-09-26T09:23:04.000Z</time>
      </trkpt>
      <trkpt lat="50.38978" lon="3.92316">
        <ele>132</ele>
        <time>2018-09-26T09:23:06.000Z</time>
      </trkpt>
      <trkpt lat="50.38973" lon="3.92331">
        <ele>132</ele>
        <time>2018-09-26T09:23:08.000Z</time>
      </trkpt>
      <trkpt lat="50.38968" lon="3.92346">
        <ele>132</ele>
        <time>2018-09-26T09:23:10.000Z</time>
      </trkpt>
      <trkpt lat="50.38963" lon="3.92361">
        <ele>132</ele>
        <time>2018-09-26T09:23:12.000Z</time>
      </trkpt>
      <trkpt lat="50.38958" lon="3.92376">
        <ele>132</ele>
        <time>2018-09-26T09:23:14.000Z</time>
      </trkpt>
      <trkpt lat="50.38953" lon="3.9239">
        <ele>132</ele>
        <time>2018-09-26T09:23:16.000Z</time>
      </trkpt>
      <trkpt lat="50.38948" lon="3.92406">
        <ele>132</ele>
        <time>2018-09-26T09:23:18.000Z</time>
      </trkpt>
      <trkpt lat="50.38942" lon="3.92422">
        <ele>133</ele>
        <time>2018-09-26T09:23:20.000Z</time>
      </trkpt>
      <trkpt lat="50.38937" lon="3.92438">
        <ele>133</ele>
        <time>2018-09-26T09:23:22.000Z</time>
      </trkpt>
      <trkpt lat="50.38931" lon="3.92454">
        <ele>133</ele>
        <time>2018-09-26T09:23:24.000Z</time>
      </trkpt>
      <trkpt lat="50.38926" lon="3.92471">
        <ele>133</ele>
        <time>2018-09-26T09:23:26.000Z</time>
      </trkpt>
      <trkpt lat="50.3892" lon="3.92487">
        <ele>132</ele>
        <time>2018-09-26T09:23:28.000Z</time>
      </trkpt>
      <trkpt lat="50.38914" lon="3.92504">
        <ele>132</ele>
        <time>2018-09-26T09:23:30.000Z</time>
      </trkpt>
      <trkpt lat="50.38908" lon="3.92522">
        <ele>132</ele>
        <time>2018-09-26T09:23:32.000Z</time>
      </trkpt>
      <trkpt lat="50.38902" lon="3.92539">
        <ele>132</ele>
        <time>2018-09-26T09:23:34.000Z</time>
      </trkpt>
      <trkpt lat="50.38896" lon="3.92556">
        <ele>132</ele>
        <time>2018-09-26T09:23:36.000Z</time>
      </trkpt>
      <trkpt lat="50.3889" lon="3.92573">
        <ele>132</ele>
        <time>2018-09-26T09:23:38.000Z</time>
      </trkpt>
      <trkpt lat="50.38884" lon="3.92591">
        <ele>132</ele>
        <time>2018-09-26T09:23:40.000Z</time>
      </trkpt>
      <trkpt lat="50.38877" lon="3.92609">
        <ele>132</ele>
        <time>2018-09-26T09:23:42.000Z</time>
      </trkpt>
      <trkpt lat="50.38871" lon="3.92626">
        <ele>132</ele>
        <time>2018-09-26T09:23:44.000Z</time>
      </trkpt>
      <trkpt lat="50.38865" lon="3.92644">
        <ele>132</ele>
        <time>2018-09-26T09:23:46.000Z</time>
      </trkpt>
      <trkpt lat="50.3886" lon="3.92662">
        <ele>132</ele>
        <time>2018-09-26T09:23:48.000Z</time>
      </trkpt>
      <trkpt lat="50.38857" lon="3.92682">
        <ele>132</ele>
        <time>2018-09-26T09:23:50.000Z</time>
      </trkpt>
      <trkpt lat="50.38855" lon="3.92703">
        <ele>132</ele>
        <time>2018-09-26T09:23:52.000Z</time>
      </trkpt>
      <trkpt lat="50.38855" lon="3.92724">
        <ele>133</ele>
        <time>2018-09-26T09:23:54.000Z</time>
      </trkpt>
      <trkpt lat="50.38858" lon="3.92744">
        <ele>133</ele>
        <time>2018-09-26T09:23:56.000Z</time>
      </trkpt>
      <trkpt lat="50.38861" lon="3.92764">
        <ele>133</ele>
        <time>2018-09-26T09:23:58.000Z</time>
      </trkpt>
      <trkpt lat="50.38864" lon="3.92785">
        <ele>133</ele>
        <time>2018-09-26T09:24:00.000Z</time>
      </trkpt>
      <trkpt lat="50.38867" lon="3.92804">
        <ele>133</ele>
        <time>2018-09-26T09:24:02.000Z</time>
      </trkpt>
      <trkpt lat="50.3887" lon="3.92824">
        <ele>133</ele>
        <time>2018-09-26T09:24:04.000Z</time>
      </trkpt>
      <trkpt lat="50.38873" lon="3.92844">
        <ele>133</ele>
        <time>2018-09-26T09:24:06.000Z</time>
      </trkpt>
      <trkpt lat="50.38876" lon="3.92864">
        <ele>133</ele>
        <time>2018-09-26T09:24:08.000Z</time>
      </trkpt>
      <trkpt lat="50.38879" lon="3.92884">
        <ele>133</ele>
        <time>2018-09-26T09:24:10.000Z</time>
      </trkpt>
      <trkpt lat="50.38882" lon="3.92903">
        <ele>133</ele>
        <time>2018-09-26T09:24:12.000Z</time>
      </trkpt>
      <trkpt lat="50.38885" lon="3.92922">
        <ele>134</ele>
        <time>2018-09-26T09:24:14.000Z</time>
      </trkpt>
      <trkpt lat="50.38889" lon="3.92941">
        <ele>134</ele>
        <time>2018-09-26T09:24:16.000Z</time>
      </trkpt>
      <trkpt lat="50.38892" lon="3.9296">
        <ele>134</ele>
        <time>2018-09-26T09:24:18.000Z</time>
      </trkpt>
      <trkpt lat="50.38895" lon="3.92979">
        <ele>134</ele>
        <time>2018-09-26T09:24:20.000Z</time>
      </trkpt>
      <trkpt lat="50.38898" lon="3.92998">
        <ele>134</ele>
        <time>2018-09-26T09:24:22.000Z</time>
      </trkpt>
      <trkpt lat="50.389" lon="3.93017">
        <ele>134</ele>
        <time>2018-09-26T09:24:24.000Z</time>
      </trkpt>
      <trkpt lat="50.38903" lon="3.93035">
        <ele>134</ele>
        <time>2018-09-26T09:24:26.000Z</time>
      </trkpt>
      <trkpt lat="50.38905" lon="3.93055">
        <ele>134</ele>
        <time>2018-09-26T09:24:28.000Z</time>
      </trkpt>
      <trkpt lat="50.38907" lon="3.93074">
        <ele>134</ele>
        <time>2018-09-26T09:24:30.000Z</time>
      </trkpt>
      <trkpt lat="50.38907" lon="3.93093">
        <ele>134</ele>
        <time>2018-09-26T09:24:32.000Z</time>
      </trkpt>
      <trkpt lat="50.38906" lon="3.93112">
        <ele>134</ele>
        <time>2018-09-26T09:24:34.000Z</time>
      </trkpt>
      <trkpt lat="50.38905" lon="3.93132">
        <ele>134</ele>
        <time>2018-09-26T09:24:36.000Z</time>
      </trkpt>
      <trkpt lat="50.38904" lon="3.93152">
        <ele>134</ele>
        <time>2018-09-26T09:24:38.000Z</time>
      </trkpt>
      <trkpt lat="50.38902" lon="3.93173">
        <ele>134</ele>
        <time>2018-09-26T09:24:40.000Z</time>
      </trkpt>
      <trkpt lat="50.389" lon="3.93193">
        <ele>133</ele>
        <time>2018-09-26T09:24:42.000Z</time>
      </trkpt>
      <trkpt lat="50.38898" lon="3.93214">
        <ele>133</ele>
        <time>2018-09-26T09:24:44.000Z</time>
      </trkpt>
      <trkpt lat="50.38897" lon="3.93236">
        <ele>132</ele>
        <time>2018-09-26T09:24:46.000Z</time>
      </trkpt>
      <trkpt lat="50.38894" lon="3.93258">
        <ele>131</ele>
        <time>2018-09-26T09:24:48.000Z</time>
      </trkpt>
      <trkpt lat="50.38892" lon="3.93279">
        <ele>131</ele>
        <time>2018-09-26T09:24:50.000Z</time>
      </trkpt>
      <trkpt lat="50.38888" lon="3.93301">
        <ele>131</ele>
        <time>2018-09-26T09:24:52.000Z</time>
      </trkpt>
      <trkpt lat="50.38884" lon="3.93322">
        <ele>130</ele>
        <time>2018-09-26T09:24:54.000Z</time>
      </trkpt>
      <trkpt lat="50.38879" lon="3.93343">
        <ele>130</ele>
        <time>2018-09-26T09:24:56.000Z</time>
      </trkpt>
      <trkpt lat="50.38874" lon="3.93364">
        <ele>130</ele>
        <time>2018-09-26T09:24:58.000Z</time>
      </trkpt>
      <trkpt lat="50.38869" lon="3.93385">
        <ele>130</ele>
        <time>2018-09-26T09:25:00.000Z</time>
      </trkpt>
      <trkpt lat="50.38864" lon="3.93406">
        <ele>130</ele>
        <time>2018-09-26T09:25:02.000Z</time>
      </trkpt>
      <trkpt lat="50.3886" lon="3.93427">
        <ele>130</ele>
        <time>2018-09-26T09:25:04.000Z</time>
      </trkpt>
      <trkpt lat="50.38855" lon="3.93449">
        <ele>130</ele>
        <time>2018-09-26T09:25:06.000Z</time>
      </trkpt>
      <trkpt lat="50.3885" lon="3.9347">
        <ele>130</ele>
        <time>2018-09-26T09:25:08.000Z</time>
      </trkpt>
      <trkpt lat="50.38845" lon="3.93492">
        <ele>130</ele>
        <time>2018-09-26T09:25:10.000Z</time>
      </trkpt>
      <trkpt lat="50.3884" lon="3.93513">
        <ele>130</ele>
        <time>2018-09-26T09:25:12.000Z</time>
      </trkpt>
      <trkpt lat="50.38836" lon="3.93535">
        <ele>130</ele>
        <time>2018-09-26T09:25:14.000Z</time>
      </trkpt>
      <trkpt lat="50.38831" lon="3.93557">
        <ele>129</ele>
        <time>2018-09-26T09:25:16.000Z</time>
      </trkpt>
      <trkpt lat="50.38826" lon="3.93578">
        <ele>129</ele>
        <time>2018-09-26T09:25:18.000Z</time>
      </trkpt>
      <trkpt lat="50.3882" lon="3.93599">
        <ele>129</ele>
        <time>2018-09-26T09:25:20.000Z</time>
      </trkpt>
      <trkpt lat="50.38813" lon="3.93618">
        <ele>129</ele>
        <time>2018-09-26T09:25:22.000Z</time>
      </trkpt>
      <trkpt lat="50.38803" lon="3.93634">
        <ele>129</ele>
        <time>2018-09-26T09:25:24.000Z</time>
      </trkpt>
      <trkpt lat="50.38794" lon="3.93651">
        <ele>129</ele>
        <time>2018-09-26T09:25:26.000Z</time>
      </trkpt>
      <trkpt lat="50.38785" lon="3.93667">
        <ele>129</ele>
        <time>2018-09-26T09:25:28.000Z</time>
      </trkpt>
      <trkpt lat="50.38773" lon="3.9368">
        <ele>129</ele>
        <time>2018-09-26T09:25:30.000Z</time>
      </trkpt>
      <trkpt lat="50.38762" lon="3.93692">
        <ele>129</ele>
        <time>2018-09-26T09:25:32.000Z</time>
      </trkpt>
      <trkpt lat="50.38751" lon="3.93703">
        <ele>129</ele>
        <time>2018-09-26T09:25:34.000Z</time>
      </trkpt>
      <trkpt lat="50.38738" lon="3.9371">
        <ele>129</ele>
        <time>2018-09-26T09:25:36.000Z</time>
      </trkpt>
      <trkpt lat="50.38726" lon="3.93718">
        <ele>129</ele>
        <time>2018-09-26T09:25:38.000Z</time>
      </trkpt>
      <trkpt lat="50.38714" lon="3.93729">
        <ele>129</ele>
        <time>2018-09-26T09:25:40.000Z</time>
      </trkpt>
      <trkpt lat="50.38706" lon="3.93748">
        <ele>129</ele>
        <time>2018-09-26T09:25:42.000Z</time>
      </trkpt>
      <trkpt lat="50.38702" lon="3.93769">
        <ele>130</ele>
        <time>2018-09-26T09:25:44.000Z</time>
      </trkpt>
      <trkpt lat="50.38699" lon="3.93793">
        <ele>129</ele>
        <time>2018-09-26T09:25:46.000Z</time>
      </trkpt>
      <trkpt lat="50.38696" lon="3.93816">
        <ele>128</ele>
        <time>2018-09-26T09:25:48.000Z</time>
      </trkpt>
      <trkpt lat="50.38692" lon="3.9384">
        <ele>128</ele>
        <time>2018-09-26T09:25:50.000Z</time>
      </trkpt>
      <trkpt lat="50.38689" lon="3.93864">
        <ele>127</ele>
        <time>2018-09-26T09:25:52.000Z</time>
      </trkpt>
      <trkpt lat="50.38692" lon="3.9389">
        <ele>127</ele>
        <time>2018-09-26T09:25:54.000Z</time>
      </trkpt>
      <trkpt lat="50.38696" lon="3.93916">
        <ele>126</ele>
        <time>2018-09-26T09:25:56.000Z</time>
      </trkpt>
      <trkpt lat="50.38699" lon="3.93943">
        <ele>126</ele>
        <time>2018-09-26T09:25:58.000Z</time>
      </trkpt>
      <trkpt lat="50.38703" lon="3.93971">
        <ele>125</ele>
        <time>2018-09-26T09:26:00.000Z</time>
      </trkpt>
      <trkpt lat="50.3871" lon="3.93997">
        <ele>125</ele>
        <time>2018-09-26T09:26:02.000Z</time>
      </trkpt>
      <trkpt lat="50.38719" lon="3.94022">
        <ele>125</ele>
        <time>2018-09-26T09:26:04.000Z</time>
      </trkpt>
      <trkpt lat="50.3873" lon="3.94046">
        <ele>125</ele>
        <time>2018-09-26T09:26:06.000Z</time>
      </trkpt>
      <trkpt lat="50.38742" lon="3.94069">
        <ele>125</ele>
        <time>2018-09-26T09:26:08.000Z</time>
      </trkpt>
      <trkpt lat="50.38754" lon="3.94093">
        <ele>124</ele>
        <time>2018-09-26T09:26:10.000Z</time>
      </trkpt>
      <trkpt lat="50.38764" lon="3.94118">
        <ele>123</ele>
        <time>2018-09-26T09:26:12.000Z</time>
      </trkpt>
      <trkpt lat="50.38774" lon="3.94144">
        <ele>122</ele>
        <time>2018-09-26T09:26:14.000Z</time>
      </trkpt>
      <trkpt lat="50.38784" lon="3.94173">
        <ele>121</ele>
        <time>2018-09-26T09:26:16.000Z</time>
      </trkpt>
      <trkpt lat="50.38793" lon="3.94201">
        <ele>121</ele>
        <time>2018-09-26T09:26:18.000Z</time>
      </trkpt>
      <trkpt lat="50.38802" lon="3.94228">
        <ele>121</ele>
        <time>2018-09-26T09:26:20.000Z</time>
      </trkpt>
      <trkpt lat="50.3881" lon="3.94256">
        <ele>121</ele>
        <time>2018-09-26T09:26:22.000Z</time>
      </trkpt>
      <trkpt lat="50.38818" lon="3.94284">
        <ele>121</ele>
        <time>2018-09-26T09:26:24.000Z</time>
      </trkpt>
      <trkpt lat="50.38827" lon="3.9431">
        <ele>120</ele>
        <time>2018-09-26T09:26:26.000Z</time>
      </trkpt>
      <trkpt lat="50.38839" lon="3.94331">
        <ele>120</ele>
        <time>2018-09-26T09:26:28.000Z</time>
      </trkpt>
      <trkpt lat="50.38856" lon="3.94343">
        <ele>122</ele>
        <time>2018-09-26T09:26:30.000Z</time>
      </trkpt>
      <trkpt lat="50.38872" lon="3.9435">
        <ele>122</ele>
        <time>2018-09-26T09:26:32.000Z</time>
      </trkpt>
      <trkpt lat="50.38887" lon="3.94356">
        <ele>123</ele>
        <time>2018-09-26T09:26:34.000Z</time>
      </trkpt>
      <trkpt lat="50.38902" lon="3.9436">
        <ele>124</ele>
        <time>2018-09-26T09:26:36.000Z</time>
      </trkpt>
      <trkpt lat="50.38913" lon="3.94363">
        <ele>125</ele>
        <time>2018-09-26T09:26:38.000Z</time>
      </trkpt>
      <trkpt lat="50.38926" lon="3.94369">
        <ele>124</ele>
        <time>2018-09-26T09:26:40.000Z</time>
      </trkpt>
      <trkpt lat="50.3894" lon="3.94375">
        <ele>124</ele>
        <time>2018-09-26T09:26:42.000Z</time>
      </trkpt>
      <trkpt lat="50.38952" lon="3.94381">
        <ele>125</ele>
        <time>2018-09-26T09:26:44.000Z</time>
      </trkpt>
      <trkpt lat="50.38965" lon="3.94386">
        <ele>125</ele>
        <time>2018-09-26T09:26:46.000Z</time>
      </trkpt>
      <trkpt lat="50.38979" lon="3.94393">
        <ele>125</ele>
        <time>2018-09-26T09:26:48.000Z</time>
      </trkpt>
      <trkpt lat="50.38992" lon="3.94399">
        <ele>125</ele>
        <time>2018-09-26T09:26:50.000Z</time>
      </trkpt>
      <trkpt lat="50.39007" lon="3.94406">
        <ele>124</ele>
        <time>2018-09-26T09:26:52.000Z</time>
      </trkpt>
      <trkpt lat="50.39021" lon="3.94414">
        <ele>125</ele>
        <time>2018-09-26T09:26:54.000Z</time>
      </trkpt>
      <trkpt lat="50.39035" lon="3.94422">
        <ele>125</ele>
        <time>2018-09-26T09:26:56.000Z</time>
      </trkpt>
      <trkpt lat="50.39048" lon="3.94433">
        <ele>125</ele>
        <time>2018-09-26T09:26:58.000Z</time>
      </trkpt>
      <trkpt lat="50.39061" lon="3.94444">
        <ele>125</ele>
        <time>2018-09-26T09:27:00.000Z</time>
      </trkpt>
      <trkpt lat="50.39074" lon="3.94458">
        <ele>124</ele>
        <time>2018-09-26T09:27:02.000Z</time>
      </trkpt>
      <trkpt lat="50.39087" lon="3.94471">
        <ele>123</ele>
        <time>2018-09-26T09:27:04.000Z</time>
      </trkpt>
      <trkpt lat="50.39099" lon="3.94485">
        <ele>123</ele>
        <time>2018-09-26T09:27:06.000Z</time>
      </trkpt>
      <trkpt lat="50.39111" lon="3.94498">
        <ele>123</ele>
        <time>2018-09-26T09:27:08.000Z</time>
      </trkpt>
      <trkpt lat="50.39124" lon="3.94511">
        <ele>123</ele>
        <time>2018-09-26T09:27:10.000Z</time>
      </trkpt>
      <trkpt lat="50.39137" lon="3.94524">
        <ele>122</ele>
        <time>2018-09-26T09:27:12.000Z</time>
      </trkpt>
      <trkpt lat="50.39149" lon="3.94537">
        <ele>122</ele>
        <time>2018-09-26T09:27:14.000Z</time>
      </trkpt>
      <trkpt lat="50.39162" lon="3.9455">
        <ele>121</ele>
        <time>2018-09-26T09:27:16.000Z</time>
      </trkpt>
      <trkpt lat="50.39174" lon="3.94563">
        <ele>122</ele>
        <time>2018-09-26T09:27:18.000Z</time>
      </trkpt>
      <trkpt lat="50.39186" lon="3.94576">
        <ele>122</ele>
        <time>2018-09-26T09:27:20.000Z</time>
      </trkpt>
      <trkpt lat="50.39199" lon="3.94589">
        <ele>122</ele>
        <time>2018-09-26T09:27:22.000Z</time>
      </trkpt>
      <trkpt lat="50.39211" lon="3.94601">
        <ele>123</ele>
        <time>2018-09-26T09:27:24.000Z</time>
      </trkpt>
      <trkpt lat="50.39222" lon="3.94614">
        <ele>123</ele>
        <time>2018-09-26T09:27:26.000Z</time>
      </trkpt>
      <trkpt lat="50.39234" lon="3.94626">
        <ele>123</ele>
        <time>2018-09-26T09:27:28.000Z</time>
      </trkpt>
      <trkpt lat="50.39245" lon="3.94638">
        <ele>123</ele>
        <time>2018-09-26T09:27:30.000Z</time>
      </trkpt>
      <trkpt lat="50.39257" lon="3.94651">
        <ele>123</ele>
        <time>2018-09-26T09:27:32.000Z</time>
      </trkpt>
      <trkpt lat="50.39269" lon="3.94663">
        <ele>123</ele>
        <time>2018-09-26T09:27:34.000Z</time>
      </trkpt>
      <trkpt lat="50.39281" lon="3.94676">
        <ele>124</ele>
        <time>2018-09-26T09:27:36.000Z</time>
      </trkpt>
      <trkpt lat="50.39294" lon="3.94688">
        <ele>123</ele>
        <time>2018-09-26T09:27:38.000Z</time>
      </trkpt>
      <trkpt lat="50.39305" lon="3.94702">
        <ele>123</ele>
        <time>2018-09-26T09:27:40.000Z</time>
      </trkpt>
      <trkpt lat="50.39317" lon="3.94715">
        <ele>124</ele>
        <time>2018-09-26T09:27:42.000Z</time>
      </trkpt>
      <trkpt lat="50.3933" lon="3.94729">
        <ele>124</ele>
        <time>2018-09-26T09:27:44.000Z</time>
      </trkpt>
      <trkpt lat="50.39342" lon="3.94741">
        <ele>124</ele>
        <time>2018-09-26T09:27:46.000Z</time>
      </trkpt>
      <trkpt lat="50.39354" lon="3.94755">
        <ele>124</ele>
        <time>2018-09-26T09:27:48.000Z</time>
      </trkpt>
      <trkpt lat="50.39367" lon="3.94766">
        <ele>124</ele>
        <time>2018-09-26T09:27:50.000Z</time>
      </trkpt>
      <trkpt lat="50.3938" lon="3.94778">
        <ele>125</ele>
        <time>2018-09-26T09:27:52.000Z</time>
      </trkpt>
      <trkpt lat="50.39392" lon="3.94792">
        <ele>125</ele>
        <time>2018-09-26T09:27:54.000Z</time>
      </trkpt>
      <trkpt lat="50.39406" lon="3.94805">
        <ele>125</ele>
        <time>2018-09-26T09:27:56.000Z</time>
      </trkpt>
      <trkpt lat="50.39419" lon="3.94819">
        <ele>125</ele>
        <time>2018-09-26T09:27:58.000Z</time>
      </trkpt>
      <trkpt lat="50.39433" lon="3.94832">
        <ele>126</ele>
        <time>2018-09-26T09:28:00.000Z</time>
      </trkpt>
      <trkpt lat="50.39447" lon="3.94846">
        <ele>126</ele>
        <time>2018-09-26T09:28:02.000Z</time>
      </trkpt>
      <trkpt lat="50.39461" lon="3.9486">
        <ele>126</ele>
        <time>2018-09-26T09:28:04.000Z</time>
      </trkpt>
      <trkpt lat="50.39476" lon="3.94873">
        <ele>126</ele>
        <time>2018-09-26T09:28:06.000Z</time>
      </trkpt>
      <trkpt lat="50.39491" lon="3.94887">
        <ele>125</ele>
        <time>2018-09-26T09:28:08.000Z</time>
      </trkpt>
      <trkpt lat="50.39507" lon="3.94901">
        <ele>125</ele>
        <time>2018-09-26T09:28:10.000Z</time>
      </trkpt>
      <trkpt lat="50.39522" lon="3.94914">
        <ele>126</ele>
        <time>2018-09-26T09:28:12.000Z</time>
      </trkpt>
      <trkpt lat="50.39537" lon="3.94927">
        <ele>126</ele>
        <time>2018-09-26T09:28:14.000Z</time>
      </trkpt>
      <trkpt lat="50.39553" lon="3.94941">
        <ele>125</ele>
        <time>2018-09-26T09:28:16.000Z</time>
      </trkpt>
      <trkpt lat="50.39568" lon="3.94955">
        <ele>124</ele>
        <time>2018-09-26T09:28:18.000Z</time>
      </trkpt>
      <trkpt lat="50.39584" lon="3.94966">
        <ele>123</ele>
        <time>2018-09-26T09:28:20.000Z</time>
      </trkpt>
      <trkpt lat="50.39596" lon="3.94977">
        <ele>123</ele>
        <time>2018-09-26T09:28:23.000Z</time>
      </trkpt>
      <trkpt lat="50.39598" lon="3.94989">
        <ele>123</ele>
        <time>2018-09-26T09:28:25.000Z</time>
      </trkpt>
      <trkpt lat="50.39595" lon="3.95004">
        <ele>123</ele>
        <time>2018-09-26T09:28:27.000Z</time>
      </trkpt>
      <trkpt lat="50.39591" lon="3.95021">
        <ele>122</ele>
        <time>2018-09-26T09:28:29.000Z</time>
      </trkpt>
      <trkpt lat="50.39585" lon="3.95041">
        <ele>122</ele>
        <time>2018-09-26T09:28:31.000Z</time>
      </trkpt>
      <trkpt lat="50.3958" lon="3.95062">
        <ele>122</ele>
        <time>2018-09-26T09:28:33.000Z</time>
      </trkpt>
      <trkpt lat="50.39576" lon="3.95084">
        <ele>121</ele>
        <time>2018-09-26T09:28:35.000Z</time>
      </trkpt>
      <trkpt lat="50.39571" lon="3.95106">
        <ele>120</ele>
        <time>2018-09-26T09:28:37.000Z</time>
      </trkpt>
      <trkpt lat="50.39566" lon="3.9513">
        <ele>119</ele>
        <time>2018-09-26T09:28:39.000Z</time>
      </trkpt>
      <trkpt lat="50.3956" lon="3.95155">
        <ele>118</ele>
        <time>2018-09-26T09:28:40.000Z</time>
      </trkpt>
      <trkpt lat="50.39555" lon="3.9518">
        <ele>118</ele>
        <time>2018-09-26T09:28:42.000Z</time>
      </trkpt>
      <trkpt lat="50.39548" lon="3.95205">
        <ele>117</ele>
        <time>2018-09-26T09:28:44.000Z</time>
      </trkpt>
      <trkpt lat="50.39542" lon="3.95231">
        <ele>117</ele>
        <time>2018-09-26T09:28:46.000Z</time>
      </trkpt>
      <trkpt lat="50.39536" lon="3.95257">
        <ele>116</ele>
        <time>2018-09-26T09:28:48.000Z</time>
      </trkpt>
      <trkpt lat="50.39529" lon="3.95284">
        <ele>116</ele>
        <time>2018-09-26T09:28:50.000Z</time>
      </trkpt>
      <trkpt lat="50.39522" lon="3.95312">
        <ele>114</ele>
        <time>2018-09-26T09:28:52.000Z</time>
      </trkpt>
      <trkpt lat="50.39515" lon="3.95338">
        <ele>114</ele>
        <time>2018-09-26T09:28:56.000Z</time>
      </trkpt>
      <trkpt lat="50.39508" lon="3.95365">
        <ele>114</ele>
        <time>2018-09-26T09:28:58.000Z</time>
      </trkpt>
      <trkpt lat="50.39503" lon="3.9539">
        <ele>114</ele>
        <time>2018-09-26T09:29:00.000Z</time>
      </trkpt>
      <trkpt lat="50.39497" lon="3.95414">
        <ele>114</ele>
        <time>2018-09-26T09:29:02.000Z</time>
      </trkpt>
      <trkpt lat="50.39492" lon="3.95437">
        <ele>115</ele>
        <time>2018-09-26T09:29:04.000Z</time>
      </trkpt>
      <trkpt lat="50.39487" lon="3.9546">
        <ele>114</ele>
        <time>2018-09-26T09:29:06.000Z</time>
      </trkpt>
      <trkpt lat="50.39482" lon="3.95481">
        <ele>114</ele>
        <time>2018-09-26T09:29:08.000Z</time>
      </trkpt>
      <trkpt lat="50.39478" lon="3.95502">
        <ele>114</ele>
        <time>2018-09-26T09:29:10.000Z</time>
      </trkpt>
      <trkpt lat="50.39473" lon="3.95522">
        <ele>114</ele>
        <time>2018-09-26T09:29:12.000Z</time>
      </trkpt>
      <trkpt lat="50.39468" lon="3.95542">
        <ele>114</ele>
        <time>2018-09-26T09:29:14.000Z</time>
      </trkpt>
      <trkpt lat="50.39464" lon="3.95562">
        <ele>115</ele>
        <time>2018-09-26T09:29:15.000Z</time>
      </trkpt>
      <trkpt lat="50.39459" lon="3.95583">
        <ele>115</ele>
        <time>2018-09-26T09:29:17.000Z</time>
      </trkpt>
      <trkpt lat="50.39454" lon="3.95603">
        <ele>115</ele>
        <time>2018-09-26T09:29:19.000Z</time>
      </trkpt>
      <trkpt lat="50.3945" lon="3.95624">
        <ele>115</ele>
        <time>2018-09-26T09:29:21.000Z</time>
      </trkpt>
      <trkpt lat="50.39445" lon="3.95645">
        <ele>115</ele>
        <time>2018-09-26T09:29:23.000Z</time>
      </trkpt>
      <trkpt lat="50.39441" lon="3.95665">
        <ele>115</ele>
        <time>2018-09-26T09:29:25.000Z</time>
      </trkpt>
      <trkpt lat="50.39436" lon="3.95687">
        <ele>115</ele>
        <time>2018-09-26T09:29:27.000Z</time>
      </trkpt>
      <trkpt lat="50.3943" lon="3.95707">
        <ele>115</ele>
        <time>2018-09-26T09:29:29.000Z</time>
      </trkpt>
      <trkpt lat="50.39425" lon="3.95728">
        <ele>115</ele>
        <time>2018-09-26T09:29:31.000Z</time>
      </trkpt>
      <trkpt lat="50.3942" lon="3.9575">
        <ele>114</ele>
        <time>2018-09-26T09:29:33.000Z</time>
      </trkpt>
      <trkpt lat="50.39415" lon="3.95771">
        <ele>115</ele>
        <time>2018-09-26T09:29:35.000Z</time>
      </trkpt>
      <trkpt lat="50.3941" lon="3.95791">
        <ele>115</ele>
        <time>2018-09-26T09:29:37.000Z</time>
      </trkpt>
      <trkpt lat="50.39405" lon="3.95812">
        <ele>116</ele>
        <time>2018-09-26T09:29:39.000Z</time>
      </trkpt>
      <trkpt lat="50.394" lon="3.95832">
        <ele>116</ele>
        <time>2018-09-26T09:29:41.000Z</time>
      </trkpt>
      <trkpt lat="50.39395" lon="3.95852">
        <ele>116</ele>
        <time>2018-09-26T09:29:43.000Z</time>
      </trkpt>
      <trkpt lat="50.39391" lon="3.95872">
        <ele>116</ele>
        <time>2018-09-26T09:29:45.000Z</time>
      </trkpt>
      <trkpt lat="50.39386" lon="3.95891">
        <ele>116</ele>
        <time>2018-09-26T09:29:47.000Z</time>
      </trkpt>
      <trkpt lat="50.39382" lon="3.9591">
        <ele>117</ele>
        <time>2018-09-26T09:29:49.000Z</time>
      </trkpt>
      <trkpt lat="50.39377" lon="3.95929">
        <ele>117</ele>
        <time>2018-09-26T09:29:51.000Z</time>
      </trkpt>
      <trkpt lat="50.39373" lon="3.95947">
        <ele>117</ele>
        <time>2018-09-26T09:29:53.000Z</time>
      </trkpt>
      <trkpt lat="50.39368" lon="3.95966">
        <ele>117</ele>
        <time>2018-09-26T09:29:55.000Z</time>
      </trkpt>
      <trkpt lat="50.39364" lon="3.95984">
        <ele>117</ele>
        <time>2018-09-26T09:29:57.000Z</time>
      </trkpt>
      <trkpt lat="50.3936" lon="3.96001">
        <ele>117</ele>
        <time>2018-09-26T09:29:59.000Z</time>
      </trkpt>
      <trkpt lat="50.39356" lon="3.96018">
        <ele>117</ele>
        <time>2018-09-26T09:30:02.000Z</time>
      </trkpt>
      <trkpt lat="50.39352" lon="3.96036">
        <ele>118</ele>
        <time>2018-09-26T09:30:04.000Z</time>
      </trkpt>
      <trkpt lat="50.39349" lon="3.96054">
        <ele>118</ele>
        <time>2018-09-26T09:30:06.000Z</time>
      </trkpt>
      <trkpt lat="50.39344" lon="3.96071">
        <ele>118</ele>
        <time>2018-09-26T09:30:07.000Z</time>
      </trkpt>
      <trkpt lat="50.3934" lon="3.96089">
        <ele>118</ele>
        <time>2018-09-26T09:30:09.000Z</time>
      </trkpt>
      <trkpt lat="50.39336" lon="3.96106">
        <ele>118</ele>
        <time>2018-09-26T09:30:11.000Z</time>
      </trkpt>
      <trkpt lat="50.39332" lon="3.96124">
        <ele>118</ele>
        <time>2018-09-26T09:30:13.000Z</time>
      </trkpt>
      <trkpt lat="50.39328" lon="3.96142">
        <ele>119</ele>
        <time>2018-09-26T09:30:15.000Z</time>
      </trkpt>
      <trkpt lat="50.39324" lon="3.9616">
        <ele>119</ele>
        <time>2018-09-26T09:30:17.000Z</time>
      </trkpt>
      <trkpt lat="50.39319" lon="3.96179">
        <ele>119</ele>
        <time>2018-09-26T09:30:19.000Z</time>
      </trkpt>
      <trkpt lat="50.39315" lon="3.96197">
        <ele>120</ele>
        <time>2018-09-26T09:30:21.000Z</time>
      </trkpt>
      <trkpt lat="50.39311" lon="3.96214">
        <ele>120</ele>
        <time>2018-09-26T09:30:23.000Z</time>
      </trkpt>
      <trkpt lat="50.39307" lon="3.96232">
        <ele>120</ele>
        <time>2018-09-26T09:30:25.000Z</time>
      </trkpt>
      <trkpt lat="50.39303" lon="3.9625">
        <ele>120</ele>
        <time>2018-09-26T09:30:27.000Z</time>
      </trkpt>
      <trkpt lat="50.39299" lon="3.96268">
        <ele>121</ele>
        <time>2018-09-26T09:30:29.000Z</time>
      </trkpt>
      <trkpt lat="50.39294" lon="3.96286">
        <ele>121</ele>
        <time>2018-09-26T09:30:31.000Z</time>
      </trkpt>
      <trkpt lat="50.39291" lon="3.96304">
        <ele>121</ele>
        <time>2018-09-26T09:30:33.000Z</time>
      </trkpt>
      <trkpt lat="50.39286" lon="3.96321">
        <ele>122</ele>
        <time>2018-09-26T09:30:35.000Z</time>
      </trkpt>
      <trkpt lat="50.39282" lon="3.96339">
        <ele>121</ele>
        <time>2018-09-26T09:30:37.000Z</time>
      </trkpt>
      <trkpt lat="50.39278" lon="3.96356">
        <ele>121</ele>
        <time>2018-09-26T09:30:39.000Z</time>
      </trkpt>
      <trkpt lat="50.39273" lon="3.96375">
        <ele>120</ele>
        <time>2018-09-26T09:30:41.000Z</time>
      </trkpt>
      <trkpt lat="50.39269" lon="3.96393">
        <ele>120</ele>
        <time>2018-09-26T09:30:43.000Z</time>
      </trkpt>
      <trkpt lat="50.39265" lon="3.9641">
        <ele>120</ele>
        <time>2018-09-26T09:30:45.000Z</time>
      </trkpt>
      <trkpt lat="50.3926" lon="3.96426">
        <ele>120</ele>
        <time>2018-09-26T09:30:48.000Z</time>
      </trkpt>
      <trkpt lat="50.39256" lon="3.96441">
        <ele>120</ele>
        <time>2018-09-26T09:30:50.000Z</time>
      </trkpt>
      <trkpt lat="50.39252" lon="3.96455">
        <ele>120</ele>
        <time>2018-09-26T09:30:52.000Z</time>
      </trkpt>
      <trkpt lat="50.39249" lon="3.96469">
        <ele>121</ele>
        <time>2018-09-26T09:30:54.000Z</time>
      </trkpt>
      <trkpt lat="50.39246" lon="3.96482">
        <ele>121</ele>
        <time>2018-09-26T09:30:56.000Z</time>
      </trkpt>
      <trkpt lat="50.39243" lon="3.96493">
        <ele>121</ele>
        <time>2018-09-26T09:30:58.000Z</time>
      </trkpt>
      <trkpt lat="50.3924" lon="3.96502">
        <ele>122</ele>
        <time>2018-09-26T09:30:59.000Z</time>
      </trkpt>
      <trkpt lat="50.3924" lon="3.96502">
        <ele>122</ele>
        <time>2018-09-26T09:31:01.000Z</time>
      </trkpt>
      <trkpt lat="50.39236" lon="3.9652">
        <ele>123</ele>
        <time>2018-09-26T09:31:03.000Z</time>
      </trkpt>
      <trkpt lat="50.39233" lon="3.96532">
        <ele>124</ele>
        <time>2018-09-26T09:31:05.000Z</time>
      </trkpt>
      <trkpt lat="50.39231" lon="3.96548">
        <ele>124</ele>
        <time>2018-09-26T09:31:07.000Z</time>
      </trkpt>
      <trkpt lat="50.39226" lon="3.96565">
        <ele>125</ele>
        <time>2018-09-26T09:31:09.000Z</time>
      </trkpt>
      <trkpt lat="50.39221" lon="3.96583">
        <ele>124</ele>
        <time>2018-09-26T09:31:11.000Z</time>
      </trkpt>
      <trkpt lat="50.39214" lon="3.96602">
        <ele>123</ele>
        <time>2018-09-26T09:31:13.000Z</time>
      </trkpt>
      <trkpt lat="50.39207" lon="3.96623">
        <ele>123</ele>
        <time>2018-09-26T09:31:15.000Z</time>
      </trkpt>
      <trkpt lat="50.39201" lon="3.96646">
        <ele>122</ele>
        <time>2018-09-26T09:31:17.000Z</time>
      </trkpt>
      <trkpt lat="50.39196" lon="3.96669">
        <ele>122</ele>
        <time>2018-09-26T09:31:19.000Z</time>
      </trkpt>
      <trkpt lat="50.3919" lon="3.96694">
        <ele>121</ele>
        <time>2018-09-26T09:31:21.000Z</time>
      </trkpt>
      <trkpt lat="50.39184" lon="3.96719">
        <ele>121</ele>
        <time>2018-09-26T09:31:23.000Z</time>
      </trkpt>
      <trkpt lat="50.39178" lon="3.96744">
        <ele>121</ele>
        <time>2018-09-26T09:31:25.000Z</time>
      </trkpt>
      <trkpt lat="50.39173" lon="3.9677">
        <ele>121</ele>
        <time>2018-09-26T09:31:27.000Z</time>
      </trkpt>
      <trkpt lat="50.39167" lon="3.96795">
        <ele>120</ele>
        <time>2018-09-26T09:31:29.000Z</time>
      </trkpt>
      <trkpt lat="50.39162" lon="3.9682">
        <ele>120</ele>
        <time>2018-09-26T09:31:31.000Z</time>
      </trkpt>
      <trkpt lat="50.39156" lon="3.96846">
        <ele>119</ele>
        <time>2018-09-26T09:31:33.000Z</time>
      </trkpt>
      <trkpt lat="50.39151" lon="3.96871">
        <ele>119</ele>
        <time>2018-09-26T09:31:35.000Z</time>
      </trkpt>
      <trkpt lat="50.39145" lon="3.96897">
        <ele>118</ele>
        <time>2018-09-26T09:31:37.000Z</time>
      </trkpt>
      <trkpt lat="50.39139" lon="3.96922">
        <ele>118</ele>
        <time>2018-09-26T09:31:39.000Z</time>
      </trkpt>
      <trkpt lat="50.39133" lon="3.96948">
        <ele>117</ele>
        <time>2018-09-26T09:31:41.000Z</time>
      </trkpt>
      <trkpt lat="50.39127" lon="3.96974">
        <ele>116</ele>
        <time>2018-09-26T09:31:43.000Z</time>
      </trkpt>
      <trkpt lat="50.3912" lon="3.97">
        <ele>116</ele>
        <time>2018-09-26T09:31:45.000Z</time>
      </trkpt>
      <trkpt lat="50.39114" lon="3.97027">
        <ele>116</ele>
        <time>2018-09-26T09:31:47.000Z</time>
      </trkpt>
      <trkpt lat="50.39108" lon="3.97054">
        <ele>115</ele>
        <time>2018-09-26T09:31:49.000Z</time>
      </trkpt>
      <trkpt lat="50.39101" lon="3.97082">
        <ele>115</ele>
        <time>2018-09-26T09:31:51.000Z</time>
      </trkpt>
      <trkpt lat="50.39095" lon="3.97109">
        <ele>114</ele>
        <time>2018-09-26T09:31:53.000Z</time>
      </trkpt>
      <trkpt lat="50.3909" lon="3.97136">
        <ele>114</ele>
        <time>2018-09-26T09:31:55.000Z</time>
      </trkpt>
      <trkpt lat="50.39083" lon="3.97162">
        <ele>113</ele>
        <time>2018-09-26T09:31:57.000Z</time>
      </trkpt>
      <trkpt lat="50.39077" lon="3.97187">
        <ele>113</ele>
        <time>2018-09-26T09:31:59.000Z</time>
      </trkpt>
      <trkpt lat="50.39072" lon="3.97212">
        <ele>113</ele>
        <time>2018-09-26T09:32:01.000Z</time>
      </trkpt>
      <trkpt lat="50.39066" lon="3.97237">
        <ele>113</ele>
        <time>2018-09-26T09:32:03.000Z</time>
      </trkpt>
      <trkpt lat="50.39061" lon="3.97262">
        <ele>113</ele>
        <time>2018-09-26T09:32:05.000Z</time>
      </trkpt>
      <trkpt lat="50.39056" lon="3.97285">
        <ele>112</ele>
        <time>2018-09-26T09:32:07.000Z</time>
      </trkpt>
      <trkpt lat="50.3905" lon="3.97308">
        <ele>112</ele>
        <time>2018-09-26T09:32:09.000Z</time>
      </trkpt>
      <trkpt lat="50.39045" lon="3.97331">
        <ele>112</ele>
        <time>2018-09-26T09:32:11.000Z</time>
      </trkpt>
      <trkpt lat="50.3904" lon="3.97354">
        <ele>112</ele>
        <time>2018-09-26T09:32:13.000Z</time>
      </trkpt>
      <trkpt lat="50.39034" lon="3.97376">
        <ele>112</ele>
        <time>2018-09-26T09:32:15.000Z</time>
      </trkpt>
      <trkpt lat="50.39029" lon="3.97398">
        <ele>112</ele>
        <time>2018-09-26T09:32:17.000Z</time>
      </trkpt>
      <trkpt lat="50.39024" lon="3.97421">
        <ele>112</ele>
        <time>2018-09-26T09:32:19.000Z</time>
      </trkpt>
      <trkpt lat="50.39018" lon="3.97444">
        <ele>112</ele>
        <time>2018-09-26T09:32:21.000Z</time>
      </trkpt>
      <trkpt lat="50.39013" lon="3.97467">
        <ele>112</ele>
        <time>2018-09-26T09:32:23.000Z</time>
      </trkpt>
      <trkpt lat="50.39008" lon="3.9749">
        <ele>112</ele>
        <time>2018-09-26T09:32:25.000Z</time>
      </trkpt>
      <trkpt lat="50.39003" lon="3.97512">
        <ele>112</ele>
        <time>2018-09-26T09:32:27.000Z</time>
      </trkpt>
      <trkpt lat="50.38997" lon="3.97535">
        <ele>112</ele>
        <time>2018-09-26T09:32:29.000Z</time>
      </trkpt>
      <trkpt lat="50.38992" lon="3.97558">
        <ele>112</ele>
        <time>2018-09-26T09:32:31.000Z</time>
      </trkpt>
      <trkpt lat="50.38986" lon="3.97581">
        <ele>111</ele>
        <time>2018-09-26T09:32:33.000Z</time>
      </trkpt>
      <trkpt lat="50.3898" lon="3.97604">
        <ele>111</ele>
        <time>2018-09-26T09:32:35.000Z</time>
      </trkpt>
      <trkpt lat="50.38975" lon="3.97628">
        <ele>111</ele>
        <time>2018-09-26T09:32:37.000Z</time>
      </trkpt>
      <trkpt lat="50.38969" lon="3.97652">
        <ele>110</ele>
        <time>2018-09-26T09:32:39.000Z</time>
      </trkpt>
      <trkpt lat="50.38963" lon="3.97677">
        <ele>110</ele>
        <time>2018-09-26T09:32:41.000Z</time>
      </trkpt>
      <trkpt lat="50.38957" lon="3.97702">
        <ele>109</ele>
        <time>2018-09-26T09:32:43.000Z</time>
      </trkpt>
      <trkpt lat="50.3895" lon="3.97728">
        <ele>108</ele>
        <time>2018-09-26T09:32:45.000Z</time>
      </trkpt>
      <trkpt lat="50.38943" lon="3.97754">
        <ele>108</ele>
        <time>2018-09-26T09:32:47.000Z</time>
      </trkpt>
      <trkpt lat="50.38937" lon="3.97781">
        <ele>107</ele>
        <time>2018-09-26T09:32:49.000Z</time>
      </trkpt>
      <trkpt lat="50.38931" lon="3.97808">
        <ele>106</ele>
        <time>2018-09-26T09:32:51.000Z</time>
      </trkpt>
      <trkpt lat="50.38924" lon="3.97835">
        <ele>105</ele>
        <time>2018-09-26T09:32:53.000Z</time>
      </trkpt>
      <trkpt lat="50.38919" lon="3.97863">
        <ele>104</ele>
        <time>2018-09-26T09:32:55.000Z</time>
      </trkpt>
      <trkpt lat="50.38913" lon="3.97888">
        <ele>103</ele>
        <time>2018-09-26T09:32:57.000Z</time>
      </trkpt>
      <trkpt lat="50.38909" lon="3.97908">
        <ele>103</ele>
        <time>2018-09-26T09:32:59.000Z</time>
      </trkpt>
      <trkpt lat="50.38909" lon="3.97925">
        <ele>103</ele>
        <time>2018-09-26T09:33:01.000Z</time>
      </trkpt>
      <trkpt lat="50.38919" lon="3.97936">
        <ele>103</ele>
        <time>2018-09-26T09:33:03.000Z</time>
      </trkpt>
      <trkpt lat="50.38929" lon="3.97947">
        <ele>103</ele>
        <time>2018-09-26T09:33:05.000Z</time>
      </trkpt>
      <trkpt lat="50.38939" lon="3.97958">
        <ele>103</ele>
        <time>2018-09-26T09:33:07.000Z</time>
      </trkpt>
      <trkpt lat="50.38949" lon="3.97968">
        <ele>104</ele>
        <time>2018-09-26T09:33:09.000Z</time>
      </trkpt>
      <trkpt lat="50.38959" lon="3.9798">
        <ele>104</ele>
        <time>2018-09-26T09:33:11.000Z</time>
      </trkpt>
      <trkpt lat="50.38969" lon="3.97991">
        <ele>104</ele>
        <time>2018-09-26T09:33:13.000Z</time>
      </trkpt>
      <trkpt lat="50.38979" lon="3.98002">
        <ele>104</ele>
        <time>2018-09-26T09:33:15.000Z</time>
      </trkpt>
      <trkpt lat="50.38989" lon="3.98013">
        <ele>104</ele>
        <time>2018-09-26T09:33:17.000Z</time>
      </trkpt>
      <trkpt lat="50.38999" lon="3.98024">
        <ele>104</ele>
        <time>2018-09-26T09:33:19.000Z</time>
      </trkpt>
      <trkpt lat="50.39009" lon="3.98036">
        <ele>105</ele>
        <time>2018-09-26T09:33:21.000Z</time>
      </trkpt>
      <trkpt lat="50.39019" lon="3.98046">
        <ele>105</ele>
        <time>2018-09-26T09:33:23.000Z</time>
      </trkpt>
      <trkpt lat="50.39029" lon="3.98056">
        <ele>105</ele>
        <time>2018-09-26T09:33:25.000Z</time>
      </trkpt>
      <trkpt lat="50.39039" lon="3.98067">
        <ele>105</ele>
        <time>2018-09-26T09:33:27.000Z</time>
      </trkpt>
      <trkpt lat="50.39049" lon="3.98079">
        <ele>106</ele>
        <time>2018-09-26T09:33:29.000Z</time>
      </trkpt>
      <trkpt lat="50.39059" lon="3.9809">
        <ele>106</ele>
        <time>2018-09-26T09:33:31.000Z</time>
      </trkpt>
      <trkpt lat="50.39069" lon="3.98101">
        <ele>106</ele>
        <time>2018-09-26T09:33:33.000Z</time>
      </trkpt>
      <trkpt lat="50.39079" lon="3.98112">
        <ele>106</ele>
        <time>2018-09-26T09:33:35.000Z</time>
      </trkpt>
      <trkpt lat="50.39088" lon="3.98124">
        <ele>106</ele>
        <time>2018-09-26T09:33:37.000Z</time>
      </trkpt>
      <trkpt lat="50.39098" lon="3.98134">
        <ele>107</ele>
        <time>2018-09-26T09:33:39.000Z</time>
      </trkpt>
      <trkpt lat="50.39108" lon="3.98146">
        <ele>108</ele>
        <time>2018-09-26T09:33:41.000Z</time>
      </trkpt>
      <trkpt lat="50.39118" lon="3.98157">
        <ele>108</ele>
        <time>2018-09-26T09:33:43.000Z</time>
      </trkpt>
      <trkpt lat="50.39128" lon="3.98169">
        <ele>108</ele>
        <time>2018-09-26T09:33:45.000Z</time>
      </trkpt>
      <trkpt lat="50.39138" lon="3.9818">
        <ele>109</ele>
        <time>2018-09-26T09:33:47.000Z</time>
      </trkpt>
      <trkpt lat="50.39148" lon="3.98192">
        <ele>109</ele>
        <time>2018-09-26T09:33:49.000Z</time>
      </trkpt>
      <trkpt lat="50.39158" lon="3.98203">
        <ele>110</ele>
        <time>2018-09-26T09:33:51.000Z</time>
      </trkpt>
      <trkpt lat="50.39168" lon="3.98214">
        <ele>110</ele>
        <time>2018-09-26T09:33:53.000Z</time>
      </trkpt>
      <trkpt lat="50.39178" lon="3.98226">
        <ele>110</ele>
        <time>2018-09-26T09:33:55.000Z</time>
      </trkpt>
      <trkpt lat="50.39188" lon="3.98238">
        <ele>110</ele>
        <time>2018-09-26T09:33:57.000Z</time>
      </trkpt>
      <trkpt lat="50.39198" lon="3.9825">
        <ele>111</ele>
        <time>2018-09-26T09:33:59.000Z</time>
      </trkpt>
      <trkpt lat="50.39208" lon="3.98261">
        <ele>111</ele>
        <time>2018-09-26T09:34:01.000Z</time>
      </trkpt>
      <trkpt lat="50.39219" lon="3.98273">
        <ele>112</ele>
        <time>2018-09-26T09:34:03.000Z</time>
      </trkpt>
      <trkpt lat="50.39228" lon="3.98288">
        <ele>112</ele>
        <time>2018-09-26T09:34:05.000Z</time>
      </trkpt>
      <trkpt lat="50.39239" lon="3.98302">
        <ele>112</ele>
        <time>2018-09-26T09:34:07.000Z</time>
      </trkpt>
      <trkpt lat="50.3925" lon="3.98317">
        <ele>112</ele>
        <time>2018-09-26T09:34:09.000Z</time>
      </trkpt>
      <trkpt lat="50.3926" lon="3.98331">
        <ele>112</ele>
        <time>2018-09-26T09:34:11.000Z</time>
      </trkpt>
      <trkpt lat="50.39272" lon="3.98345">
        <ele>111</ele>
        <time>2018-09-26T09:34:13.000Z</time>
      </trkpt>
      <trkpt lat="50.39283" lon="3.9836">
        <ele>110</ele>
        <time>2018-09-26T09:34:15.000Z</time>
      </trkpt>
      <trkpt lat="50.39294" lon="3.98376">
        <ele>109</ele>
        <time>2018-09-26T09:34:17.000Z</time>
      </trkpt>
      <trkpt lat="50.39306" lon="3.98391">
        <ele>109</ele>
        <time>2018-09-26T09:34:19.000Z</time>
      </trkpt>
      <trkpt lat="50.39317" lon="3.98406">
        <ele>109</ele>
        <time>2018-09-26T09:34:21.000Z</time>
      </trkpt>
      <trkpt lat="50.39329" lon="3.98422">
        <ele>109</ele>
        <time>2018-09-26T09:34:23.000Z</time>
      </trkpt>
      <trkpt lat="50.3934" lon="3.9844">
        <ele>108</ele>
        <time>2018-09-26T09:34:25.000Z</time>
      </trkpt>
      <trkpt lat="50.39351" lon="3.98458">
        <ele>108</ele>
        <time>2018-09-26T09:34:27.000Z</time>
      </trkpt>
      <trkpt lat="50.39362" lon="3.98476">
        <ele>108</ele>
        <time>2018-09-26T09:34:29.000Z</time>
      </trkpt>
      <trkpt lat="50.3937" lon="3.98494">
        <ele>108</ele>
        <time>2018-09-26T09:34:31.000Z</time>
      </trkpt>
      <trkpt lat="50.3938" lon="3.98511">
        <ele>107</ele>
        <time>2018-09-26T09:34:33.000Z</time>
      </trkpt>
      <trkpt lat="50.3939" lon="3.98526">
        <ele>107</ele>
        <time>2018-09-26T09:34:35.000Z</time>
      </trkpt>
      <trkpt lat="50.394" lon="3.98542">
        <ele>109</ele>
        <time>2018-09-26T09:34:37.000Z</time>
      </trkpt>
      <trkpt lat="50.39411" lon="3.98561">
        <ele>109</ele>
        <time>2018-09-26T09:34:39.000Z</time>
      </trkpt>
      <trkpt lat="50.39422" lon="3.98578">
        <ele>110</ele>
        <time>2018-09-26T09:34:41.000Z</time>
      </trkpt>
      <trkpt lat="50.39433" lon="3.98595">
        <ele>111</ele>
        <time>2018-09-26T09:34:43.000Z</time>
      </trkpt>
      <trkpt lat="50.39445" lon="3.98614">
        <ele>112</ele>
        <time>2018-09-26T09:34:45.000Z</time>
      </trkpt>
      <trkpt lat="50.39455" lon="3.98633">
        <ele>112</ele>
        <time>2018-09-26T09:34:47.000Z</time>
      </trkpt>
      <trkpt lat="50.39459" lon="3.98656">
        <ele>112</ele>
        <time>2018-09-26T09:34:49.000Z</time>
      </trkpt>
      <trkpt lat="50.39458" lon="3.98681">
        <ele>109</ele>
        <time>2018-09-26T09:34:51.000Z</time>
      </trkpt>
      <trkpt lat="50.39458" lon="3.98705">
        <ele>108</ele>
        <time>2018-09-26T09:34:53.000Z</time>
      </trkpt>
      <trkpt lat="50.39464" lon="3.98724">
        <ele>107</ele>
        <time>2018-09-26T09:34:55.000Z</time>
      </trkpt>
      <trkpt lat="50.39475" lon="3.98738">
        <ele>107</ele>
        <time>2018-09-26T09:34:57.000Z</time>
      </trkpt>
      <trkpt lat="50.39487" lon="3.9875">
        <ele>106</ele>
        <time>2018-09-26T09:34:59.000Z</time>
      </trkpt>
      <trkpt lat="50.395" lon="3.9876">
        <ele>105</ele>
        <time>2018-09-26T09:35:01.000Z</time>
      </trkpt>
      <trkpt lat="50.39513" lon="3.98771">
        <ele>104</ele>
        <time>2018-09-26T09:35:03.000Z</time>
      </trkpt>
      <trkpt lat="50.39525" lon="3.98785">
        <ele>104</ele>
        <time>2018-09-26T09:35:05.000Z</time>
      </trkpt>
      <trkpt lat="50.39532" lon="3.98804">
        <ele>102</ele>
        <time>2018-09-26T09:35:07.000Z</time>
      </trkpt>
      <trkpt lat="50.39534" lon="3.98826">
        <ele>101</ele>
        <time>2018-09-26T09:35:09.000Z</time>
      </trkpt>
      <trkpt lat="50.39534" lon="3.9885">
        <ele>100</ele>
        <time>2018-09-26T09:35:11.000Z</time>
      </trkpt>
      <trkpt lat="50.39536" lon="3.98874">
        <ele>100</ele>
        <time>2018-09-26T09:35:13.000Z</time>
      </trkpt>
      <trkpt lat="50.39537" lon="3.98899">
        <ele>100</ele>
        <time>2018-09-26T09:35:15.000Z</time>
      </trkpt>
      <trkpt lat="50.3954" lon="3.98922">
        <ele>100</ele>
        <time>2018-09-26T09:35:17.000Z</time>
      </trkpt>
      <trkpt lat="50.39544" lon="3.98945">
        <ele>100</ele>
        <time>2018-09-26T09:35:19.000Z</time>
      </trkpt>
      <trkpt lat="50.39547" lon="3.98969">
        <ele>99</ele>
        <time>2018-09-26T09:35:21.000Z</time>
      </trkpt>
      <trkpt lat="50.3955" lon="3.98992">
        <ele>99</ele>
        <time>2018-09-26T09:35:23.000Z</time>
      </trkpt>
      <trkpt lat="50.39554" lon="3.99015">
        <ele>99</ele>
        <time>2018-09-26T09:35:25.000Z</time>
      </trkpt>
      <trkpt lat="50.39558" lon="3.99037">
        <ele>99</ele>
        <time>2018-09-26T09:35:27.000Z</time>
      </trkpt>
      <trkpt lat="50.39561" lon="3.99059">
        <ele>98</ele>
        <time>2018-09-26T09:35:29.000Z</time>
      </trkpt>
      <trkpt lat="50.39565" lon="3.9908">
        <ele>97</ele>
        <time>2018-09-26T09:35:31.000Z</time>
      </trkpt>
      <trkpt lat="50.39568" lon="3.99103">
        <ele>96</ele>
        <time>2018-09-26T09:35:33.000Z</time>
      </trkpt>
      <trkpt lat="50.39572" lon="3.99126">
        <ele>96</ele>
        <time>2018-09-26T09:35:35.000Z</time>
      </trkpt>
      <trkpt lat="50.39576" lon="3.99148">
        <ele>96</ele>
        <time>2018-09-26T09:35:37.000Z</time>
      </trkpt>
      <trkpt lat="50.39581" lon="3.99169">
        <ele>97</ele>
        <time>2018-09-26T09:35:39.000Z</time>
      </trkpt>
      <trkpt lat="50.39587" lon="3.99188">
        <ele>97</ele>
        <time>2018-09-26T09:35:41.000Z</time>
      </trkpt>
      <trkpt lat="50.39597" lon="3.99204">
        <ele>97</ele>
        <time>2018-09-26T09:35:43.000Z</time>
      </trkpt>
      <trkpt lat="50.39607" lon="3.99219">
        <ele>97</ele>
        <time>2018-09-26T09:35:45.000Z</time>
      </trkpt>
      <trkpt lat="50.39618" lon="3.99234">
        <ele>98</ele>
        <time>2018-09-26T09:35:47.000Z</time>
      </trkpt>
      <trkpt lat="50.39627" lon="3.99249">
        <ele>98</ele>
        <time>2018-09-26T09:35:49.000Z</time>
      </trkpt>
      <trkpt lat="50.39636" lon="3.99264">
        <ele>98</ele>
        <time>2018-09-26T09:35:51.000Z</time>
      </trkpt>
      <trkpt lat="50.39644" lon="3.99279">
        <ele>98</ele>
        <time>2018-09-26T09:35:53.000Z</time>
      </trkpt>
      <trkpt lat="50.39652" lon="3.99294">
        <ele>98</ele>
        <time>2018-09-26T09:35:55.000Z</time>
      </trkpt>
      <trkpt lat="50.3966" lon="3.9931">
        <ele>98</ele>
        <time>2018-09-26T09:35:57.000Z</time>
      </trkpt>
      <trkpt lat="50.39668" lon="3.99325">
        <ele>98</ele>
        <time>2018-09-26T09:35:59.000Z</time>
      </trkpt>
      <trkpt lat="50.39676" lon="3.9934">
        <ele>98</ele>
        <time>2018-09-26T09:36:01.000Z</time>
      </trkpt>
      <trkpt lat="50.39684" lon="3.99356">
        <ele>98</ele>
        <time>2018-09-26T09:36:03.000Z</time>
      </trkpt>
      <trkpt lat="50.39691" lon="3.99371">
        <ele>98</ele>
        <time>2018-09-26T09:36:05.000Z</time>
      </trkpt>
      <trkpt lat="50.39699" lon="3.99387">
        <ele>98</ele>
        <time>2018-09-26T09:36:07.000Z</time>
      </trkpt>
      <trkpt lat="50.39708" lon="3.99403">
        <ele>98</ele>
        <time>2018-09-26T09:36:09.000Z</time>
      </trkpt>
      <trkpt lat="50.39715" lon="3.99419">
        <ele>98</ele>
        <time>2018-09-26T09:36:11.000Z</time>
      </trkpt>
      <trkpt lat="50.39723" lon="3.99434">
        <ele>98</ele>
        <time>2018-09-26T09:36:13.000Z</time>
      </trkpt>
      <trkpt lat="50.39731" lon="3.9945">
        <ele>98</ele>
        <time>2018-09-26T09:36:15.000Z</time>
      </trkpt>
      <trkpt lat="50.39739" lon="3.99465">
        <ele>98</ele>
        <time>2018-09-26T09:36:17.000Z</time>
      </trkpt>
      <trkpt lat="50.39747" lon="3.99481">
        <ele>98</ele>
        <time>2018-09-26T09:36:19.000Z</time>
      </trkpt>
      <trkpt lat="50.39755" lon="3.99496">
        <ele>99</ele>
        <time>2018-09-26T09:36:21.000Z</time>
      </trkpt>
      <trkpt lat="50.39763" lon="3.99511">
        <ele>99</ele>
        <time>2018-09-26T09:36:23.000Z</time>
      </trkpt>
      <trkpt lat="50.39772" lon="3.99526">
        <ele>99</ele>
        <time>2018-09-26T09:36:25.000Z</time>
      </trkpt>
      <trkpt lat="50.3978" lon="3.99541">
        <ele>99</ele>
        <time>2018-09-26T09:36:27.000Z</time>
      </trkpt>
      <trkpt lat="50.39788" lon="3.99557">
        <ele>100</ele>
        <time>2018-09-26T09:36:29.000Z</time>
      </trkpt>
      <trkpt lat="50.39796" lon="3.99572">
        <ele>100</ele>
        <time>2018-09-26T09:36:31.000Z</time>
      </trkpt>
      <trkpt lat="50.39804" lon="3.99588">
        <ele>101</ele>
        <time>2018-09-26T09:36:33.000Z</time>
      </trkpt>
      <trkpt lat="50.39811" lon="3.99604">
        <ele>100</ele>
        <time>2018-09-26T09:36:35.000Z</time>
      </trkpt>
      <trkpt lat="50.39819" lon="3.99619">
        <ele>99</ele>
        <time>2018-09-26T09:36:37.000Z</time>
      </trkpt>
      <trkpt lat="50.39827" lon="3.99634">
        <ele>99</ele>
        <time>2018-09-26T09:36:39.000Z</time>
      </trkpt>
      <trkpt lat="50.39835" lon="3.99649">
        <ele>99</ele>
        <time>2018-09-26T09:36:41.000Z</time>
      </trkpt>
      <trkpt lat="50.39843" lon="3.99664">
        <ele>99</ele>
        <time>2018-09-26T09:36:43.000Z</time>
      </trkpt>
      <trkpt lat="50.39851" lon="3.9968">
        <ele>99</ele>
        <time>2018-09-26T09:36:45.000Z</time>
      </trkpt>
      <trkpt lat="50.39859" lon="3.99695">
        <ele>99</ele>
        <time>2018-09-26T09:36:47.000Z</time>
      </trkpt>
      <trkpt lat="50.39867" lon="3.9971">
        <ele>99</ele>
        <time>2018-09-26T09:36:49.000Z</time>
      </trkpt>
      <trkpt lat="50.39874" lon="3.99725">
        <ele>100</ele>
        <time>2018-09-26T09:36:51.000Z</time>
      </trkpt>
      <trkpt lat="50.39882" lon="3.99741">
        <ele>101</ele>
        <time>2018-09-26T09:36:53.000Z</time>
      </trkpt>
      <trkpt lat="50.3989" lon="3.99756">
        <ele>101</ele>
        <time>2018-09-26T09:36:55.000Z</time>
      </trkpt>
      <trkpt lat="50.39898" lon="3.99771">
        <ele>101</ele>
        <time>2018-09-26T09:36:57.000Z</time>
      </trkpt>
      <trkpt lat="50.39906" lon="3.99786">
        <ele>101</ele>
        <time>2018-09-26T09:36:59.000Z</time>
      </trkpt>
      <trkpt lat="50.39914" lon="3.99802">
        <ele>101</ele>
        <time>2018-09-26T09:37:01.000Z</time>
      </trkpt>
      <trkpt lat="50.39922" lon="3.99817">
        <ele>101</ele>
        <time>2018-09-26T09:37:03.000Z</time>
      </trkpt>
      <trkpt lat="50.3993" lon="3.99832">
        <ele>100</ele>
        <time>2018-09-26T09:37:05.000Z</time>
      </trkpt>
      <trkpt lat="50.39938" lon="3.99847">
        <ele>100</ele>
        <time>2018-09-26T09:37:07.000Z</time>
      </trkpt>
      <trkpt lat="50.39946" lon="3.99862">
        <ele>100</ele>
        <time>2018-09-26T09:37:09.000Z</time>
      </trkpt>
      <trkpt lat="50.39954" lon="3.99877">
        <ele>101</ele>
        <time>2018-09-26T09:37:11.000Z</time>
      </trkpt>
      <trkpt lat="50.39962" lon="3.99892">
        <ele>101</ele>
        <time>2018-09-26T09:37:13.000Z</time>
      </trkpt>
      <trkpt lat="50.3997" lon="3.99906">
        <ele>101</ele>
        <time>2018-09-26T09:37:15.000Z</time>
      </trkpt>
      <trkpt lat="50.39978" lon="3.99921">
        <ele>102</ele>
        <time>2018-09-26T09:37:17.000Z</time>
      </trkpt>
      <trkpt lat="50.39986" lon="3.99936">
        <ele>103</ele>
        <time>2018-09-26T09:37:19.000Z</time>
      </trkpt>
      <trkpt lat="50.39994" lon="3.99951">
        <ele>103</ele>
        <time>2018-09-26T09:37:21.000Z</time>
      </trkpt>
      <trkpt lat="50.40002" lon="3.99967">
        <ele>103</ele>
        <time>2018-09-26T09:37:23.000Z</time>
      </trkpt>
      <trkpt lat="50.4001" lon="3.99983">
        <ele>103</ele>
        <time>2018-09-26T09:37:25.000Z</time>
      </trkpt>
      <trkpt lat="50.40018" lon="3.99998">
        <ele>104</ele>
        <time>2018-09-26T09:37:27.000Z</time>
      </trkpt>
      <trkpt lat="50.40026" lon="4.00014">
        <ele>104</ele>
        <time>2018-09-26T09:37:29.000Z</time>
      </trkpt>
      <trkpt lat="50.40034" lon="4.00029">
        <ele>104</ele>
        <time>2018-09-26T09:37:31.000Z</time>
      </trkpt>
      <trkpt lat="50.40043" lon="4.00044">
        <ele>104</ele>
        <time>2018-09-26T09:37:33.000Z</time>
      </trkpt>
      <trkpt lat="50.40051" lon="4.00059">
        <ele>105</ele>
        <time>2018-09-26T09:37:35.000Z</time>
      </trkpt>
      <trkpt lat="50.40058" lon="4.00074">
        <ele>105</ele>
        <time>2018-09-26T09:37:37.000Z</time>
      </trkpt>
      <trkpt lat="50.40066" lon="4.00089">
        <ele>105</ele>
        <time>2018-09-26T09:37:39.000Z</time>
      </trkpt>
      <trkpt lat="50.40073" lon="4.00104">
        <ele>105</ele>
        <time>2018-09-26T09:37:41.000Z</time>
      </trkpt>
      <trkpt lat="50.40081" lon="4.00119">
        <ele>105</ele>
        <time>2018-09-26T09:37:43.000Z</time>
      </trkpt>
      <trkpt lat="50.40089" lon="4.00133">
        <ele>105</ele>
        <time>2018-09-26T09:37:45.000Z</time>
      </trkpt>
      <trkpt lat="50.40097" lon="4.00148">
        <ele>105</ele>
        <time>2018-09-26T09:37:47.000Z</time>
      </trkpt>
      <trkpt lat="50.40105" lon="4.00164">
        <ele>105</ele>
        <time>2018-09-26T09:37:49.000Z</time>
      </trkpt>
      <trkpt lat="50.40113" lon="4.00179">
        <ele>105</ele>
        <time>2018-09-26T09:37:51.000Z</time>
      </trkpt>
      <trkpt lat="50.40121" lon="4.00195">
        <ele>106</ele>
        <time>2018-09-26T09:37:53.000Z</time>
      </trkpt>
      <trkpt lat="50.4013" lon="4.0021">
        <ele>107</ele>
        <time>2018-09-26T09:37:55.000Z</time>
      </trkpt>
      <trkpt lat="50.40139" lon="4.00227">
        <ele>107</ele>
        <time>2018-09-26T09:37:57.000Z</time>
      </trkpt>
      <trkpt lat="50.40147" lon="4.00244">
        <ele>107</ele>
        <time>2018-09-26T09:37:59.000Z</time>
      </trkpt>
      <trkpt lat="50.40156" lon="4.00261">
        <ele>107</ele>
        <time>2018-09-26T09:38:01.000Z</time>
      </trkpt>
      <trkpt lat="50.40165" lon="4.00279">
        <ele>107</ele>
        <time>2018-09-26T09:38:03.000Z</time>
      </trkpt>
      <trkpt lat="50.40174" lon="4.00296">
        <ele>107</ele>
        <time>2018-09-26T09:38:05.000Z</time>
      </trkpt>
      <trkpt lat="50.40183" lon="4.00313">
        <ele>107</ele>
        <time>2018-09-26T09:38:07.000Z</time>
      </trkpt>
      <trkpt lat="50.40192" lon="4.00331">
        <ele>107</ele>
        <time>2018-09-26T09:38:09.000Z</time>
      </trkpt>
      <trkpt lat="50.40202" lon="4.00348">
        <ele>106</ele>
        <time>2018-09-26T09:38:11.000Z</time>
      </trkpt>
      <trkpt lat="50.40211" lon="4.00366">
        <ele>106</ele>
        <time>2018-09-26T09:38:13.000Z</time>
      </trkpt>
      <trkpt lat="50.40221" lon="4.00384">
        <ele>106</ele>
        <time>2018-09-26T09:38:15.000Z</time>
      </trkpt>
      <trkpt lat="50.4023" lon="4.00403">
        <ele>106</ele>
        <time>2018-09-26T09:38:17.000Z</time>
      </trkpt>
      <trkpt lat="50.4024" lon="4.00421">
        <ele>106</ele>
        <time>2018-09-26T09:38:19.000Z</time>
      </trkpt>
      <trkpt lat="50.4025" lon="4.00439">
        <ele>105</ele>
        <time>2018-09-26T09:38:21.000Z</time>
      </trkpt>
      <trkpt lat="50.4026" lon="4.00458">
        <ele>105</ele>
        <time>2018-09-26T09:38:23.000Z</time>
      </trkpt>
      <trkpt lat="50.4027" lon="4.00477">
        <ele>105</ele>
        <time>2018-09-26T09:38:25.000Z</time>
      </trkpt>
      <trkpt lat="50.4028" lon="4.00497">
        <ele>104</ele>
        <time>2018-09-26T09:38:27.000Z</time>
      </trkpt>
      <trkpt lat="50.4029" lon="4.00516">
        <ele>104</ele>
        <time>2018-09-26T09:38:29.000Z</time>
      </trkpt>
      <trkpt lat="50.40301" lon="4.00535">
        <ele>103</ele>
        <time>2018-09-26T09:38:31.000Z</time>
      </trkpt>
      <trkpt lat="50.40311" lon="4.00554">
        <ele>103</ele>
        <time>2018-09-26T09:38:33.000Z</time>
      </trkpt>
      <trkpt lat="50.40321" lon="4.00574">
        <ele>103</ele>
        <time>2018-09-26T09:38:35.000Z</time>
      </trkpt>
      <trkpt lat="50.40332" lon="4.00594">
        <ele>103</ele>
        <time>2018-09-26T09:38:37.000Z</time>
      </trkpt>
      <trkpt lat="50.40342" lon="4.00615">
        <ele>102</ele>
        <time>2018-09-26T09:38:39.000Z</time>
      </trkpt>
      <trkpt lat="50.40353" lon="4.00637">
        <ele>102</ele>
        <time>2018-09-26T09:38:41.000Z</time>
      </trkpt>
      <trkpt lat="50.40365" lon="4.00659">
        <ele>101</ele>
        <time>2018-09-26T09:38:43.000Z</time>
      </trkpt>
      <trkpt lat="50.40376" lon="4.00681">
        <ele>100</ele>
        <time>2018-09-26T09:38:45.000Z</time>
      </trkpt>
      <trkpt lat="50.40387" lon="4.00702">
        <ele>99</ele>
        <time>2018-09-26T09:38:47.000Z</time>
      </trkpt>
      <trkpt lat="50.40398" lon="4.00724">
        <ele>99</ele>
        <time>2018-09-26T09:38:49.000Z</time>
      </trkpt>
      <trkpt lat="50.4041" lon="4.00747">
        <ele>98</ele>
        <time>2018-09-26T09:38:51.000Z</time>
      </trkpt>
      <trkpt lat="50.40422" lon="4.00769">
        <ele>97</ele>
        <time>2018-09-26T09:38:53.000Z</time>
      </trkpt>
      <trkpt lat="50.40434" lon="4.00791">
        <ele>97</ele>
        <time>2018-09-26T09:38:55.000Z</time>
      </trkpt>
      <trkpt lat="50.40446" lon="4.00812">
        <ele>97</ele>
        <time>2018-09-26T09:38:57.000Z</time>
      </trkpt>
      <trkpt lat="50.40458" lon="4.00835">
        <ele>97</ele>
        <time>2018-09-26T09:38:59.000Z</time>
      </trkpt>
      <trkpt lat="50.4047" lon="4.00857">
        <ele>97</ele>
        <time>2018-09-26T09:39:01.000Z</time>
      </trkpt>
      <trkpt lat="50.40482" lon="4.0088">
        <ele>96</ele>
        <time>2018-09-26T09:39:03.000Z</time>
      </trkpt>
      <trkpt lat="50.40495" lon="4.00903">
        <ele>96</ele>
        <time>2018-09-26T09:39:05.000Z</time>
      </trkpt>
      <trkpt lat="50.40507" lon="4.00926">
        <ele>95</ele>
        <time>2018-09-26T09:39:07.000Z</time>
      </trkpt>
      <trkpt lat="50.40519" lon="4.00949">
        <ele>94</ele>
        <time>2018-09-26T09:39:09.000Z</time>
      </trkpt>
      <trkpt lat="50.4053" lon="4.00971">
        <ele>94</ele>
        <time>2018-09-26T09:39:11.000Z</time>
      </trkpt>
      <trkpt lat="50.40542" lon="4.00993">
        <ele>93</ele>
        <time>2018-09-26T09:39:13.000Z</time>
      </trkpt>
      <trkpt lat="50.40553" lon="4.01015">
        <ele>93</ele>
        <time>2018-09-26T09:39:15.000Z</time>
      </trkpt>
      <trkpt lat="50.40565" lon="4.01037">
        <ele>92</ele>
        <time>2018-09-26T09:39:17.000Z</time>
      </trkpt>
      <trkpt lat="50.40576" lon="4.01058">
        <ele>92</ele>
        <time>2018-09-26T09:39:19.000Z</time>
      </trkpt>
      <trkpt lat="50.40587" lon="4.01079">
        <ele>92</ele>
        <time>2018-09-26T09:39:21.000Z</time>
      </trkpt>
      <trkpt lat="50.40598" lon="4.011">
        <ele>91</ele>
        <time>2018-09-26T09:39:23.000Z</time>
      </trkpt>
      <trkpt lat="50.40608" lon="4.0112">
        <ele>91</ele>
        <time>2018-09-26T09:39:25.000Z</time>
      </trkpt>
      <trkpt lat="50.40619" lon="4.01141">
        <ele>90</ele>
        <time>2018-09-26T09:39:27.000Z</time>
      </trkpt>
      <trkpt lat="50.4063" lon="4.01162">
        <ele>90</ele>
        <time>2018-09-26T09:39:29.000Z</time>
      </trkpt>
      <trkpt lat="50.40641" lon="4.01183">
        <ele>90</ele>
        <time>2018-09-26T09:39:31.000Z</time>
      </trkpt>
      <trkpt lat="50.40652" lon="4.01204">
        <ele>89</ele>
        <time>2018-09-26T09:39:33.000Z</time>
      </trkpt>
      <trkpt lat="50.40663" lon="4.01225">
        <ele>89</ele>
        <time>2018-09-26T09:39:35.000Z</time>
      </trkpt>
      <trkpt lat="50.40673" lon="4.01246">
        <ele>89</ele>
        <time>2018-09-26T09:39:37.000Z</time>
      </trkpt>
      <trkpt lat="50.40684" lon="4.01267">
        <ele>88</ele>
        <time>2018-09-26T09:39:39.000Z</time>
      </trkpt>
      <trkpt lat="50.40694" lon="4.01288">
        <ele>89</ele>
        <time>2018-09-26T09:39:41.000Z</time>
      </trkpt>
      <trkpt lat="50.40705" lon="4.01309">
        <ele>88</ele>
        <time>2018-09-26T09:39:43.000Z</time>
      </trkpt>
      <trkpt lat="50.40715" lon="4.01328">
        <ele>88</ele>
        <time>2018-09-26T09:39:45.000Z</time>
      </trkpt>
      <trkpt lat="50.40725" lon="4.01346">
        <ele>89</ele>
        <time>2018-09-26T09:39:47.000Z</time>
      </trkpt>
      <trkpt lat="50.40734" lon="4.01363">
        <ele>90</ele>
        <time>2018-09-26T09:39:49.000Z</time>
      </trkpt>
      <trkpt lat="50.40743" lon="4.01379">
        <ele>90</ele>
        <time>2018-09-26T09:39:51.000Z</time>
      </trkpt>
      <trkpt lat="50.40751" lon="4.01394">
        <ele>90</ele>
        <time>2018-09-26T09:39:53.000Z</time>
      </trkpt>
      <trkpt lat="50.40759" lon="4.01408">
        <ele>91</ele>
        <time>2018-09-26T09:39:55.000Z</time>
      </trkpt>
      <trkpt lat="50.40764" lon="4.01419">
        <ele>91</ele>
        <time>2018-09-26T09:39:57.000Z</time>
      </trkpt>
      <trkpt lat="50.40764" lon="4.01419">
        <ele>91</ele>
        <time>2018-09-26T09:39:59.000Z</time>
      </trkpt>
      <trkpt lat="50.40764" lon="4.01419">
        <ele>91</ele>
        <time>2018-09-26T09:40:01.000Z</time>
      </trkpt>
      <trkpt lat="50.40771" lon="4.01421">
        <ele>93</ele>
        <time>2018-09-26T09:40:03.000Z</time>
      </trkpt>
      <trkpt lat="50.40779" lon="4.0141">
        <ele>94</ele>
        <time>2018-09-26T09:40:07.000Z</time>
      </trkpt>
      <trkpt lat="50.40779" lon="4.0141">
        <ele>94</ele>
        <time>2018-09-26T09:40:09.000Z</time>
      </trkpt>
      <trkpt lat="50.40795" lon="4.01384">
        <ele>95</ele>
        <time>2018-09-26T09:41:24.000Z</time>
      </trkpt>
      <trkpt lat="50.40807" lon="4.01362">
        <ele>95</ele>
        <time>2018-09-26T09:41:28.000Z</time>
      </trkpt>
      <trkpt lat="50.40814" lon="4.01348">
        <ele>95</ele>
        <time>2018-09-26T09:41:30.000Z</time>
      </trkpt>
      <trkpt lat="50.40822" lon="4.01332">
        <ele>95</ele>
        <time>2018-09-26T09:41:32.000Z</time>
      </trkpt>
      <trkpt lat="50.40829" lon="4.01314">
        <ele>95</ele>
        <time>2018-09-26T09:41:34.000Z</time>
      </trkpt>
      <trkpt lat="50.40837" lon="4.01297">
        <ele>94</ele>
        <time>2018-09-26T09:41:36.000Z</time>
      </trkpt>
      <trkpt lat="50.40844" lon="4.01278">
        <ele>94</ele>
        <time>2018-09-26T09:41:38.000Z</time>
      </trkpt>
      <trkpt lat="50.40852" lon="4.01258">
        <ele>94</ele>
        <time>2018-09-26T09:41:40.000Z</time>
      </trkpt>
      <trkpt lat="50.4086" lon="4.01239">
        <ele>94</ele>
        <time>2018-09-26T09:41:42.000Z</time>
      </trkpt>
      <trkpt lat="50.40868" lon="4.0122">
        <ele>93</ele>
        <time>2018-09-26T09:41:44.000Z</time>
      </trkpt>
      <trkpt lat="50.40876" lon="4.012">
        <ele>93</ele>
        <time>2018-09-26T09:41:46.000Z</time>
      </trkpt>
      <trkpt lat="50.40884" lon="4.01181">
        <ele>93</ele>
        <time>2018-09-26T09:41:48.000Z</time>
      </trkpt>
      <trkpt lat="50.40892" lon="4.01161">
        <ele>92</ele>
        <time>2018-09-26T09:41:50.000Z</time>
      </trkpt>
      <trkpt lat="50.40901" lon="4.0114">
        <ele>91</ele>
        <time>2018-09-26T09:41:52.000Z</time>
      </trkpt>
      <trkpt lat="50.4091" lon="4.01122">
        <ele>91</ele>
        <time>2018-09-26T09:41:54.000Z</time>
      </trkpt>
      <trkpt lat="50.4092" lon="4.01105">
        <ele>91</ele>
        <time>2018-09-26T09:41:56.000Z</time>
      </trkpt>
      <trkpt lat="50.40932" lon="4.01093">
        <ele>91</ele>
        <time>2018-09-26T09:41:58.000Z</time>
      </trkpt>
      <trkpt lat="50.40944" lon="4.01084">
        <ele>93</ele>
        <time>2018-09-26T09:42:00.000Z</time>
      </trkpt>
      <trkpt lat="50.40955" lon="4.01084">
        <ele>94</ele>
        <time>2018-09-26T09:42:02.000Z</time>
      </trkpt>
      <trkpt lat="50.40966" lon="4.01079">
        <ele>95</ele>
        <time>2018-09-26T09:42:04.000Z</time>
      </trkpt>
      <trkpt lat="50.40972" lon="4.01063">
        <ele>93</ele>
        <time>2018-09-26T09:42:06.000Z</time>
      </trkpt>
      <trkpt lat="50.40973" lon="4.01044">
        <ele>93</ele>
        <time>2018-09-26T09:42:08.000Z</time>
      </trkpt>
      <trkpt lat="50.40978" lon="4.01027">
        <ele>91</ele>
        <time>2018-09-26T09:42:10.000Z</time>
      </trkpt>
      <trkpt lat="50.40989" lon="4.01014">
        <ele>90</ele>
        <time>2018-09-26T09:42:12.000Z</time>
      </trkpt>
      <trkpt lat="50.40999" lon="4.01001">
        <ele>89</ele>
        <time>2018-09-26T09:42:14.000Z</time>
      </trkpt>
      <trkpt lat="50.4101" lon="4.00988">
        <ele>89</ele>
        <time>2018-09-26T09:42:16.000Z</time>
      </trkpt>
      <trkpt lat="50.4102" lon="4.00974">
        <ele>88</ele>
        <time>2018-09-26T09:42:18.000Z</time>
      </trkpt>
      <trkpt lat="50.4103" lon="4.0096">
        <ele>88</ele>
        <time>2018-09-26T09:42:20.000Z</time>
      </trkpt>
      <trkpt lat="50.4104" lon="4.00947">
        <ele>88</ele>
        <time>2018-09-26T09:42:22.000Z</time>
      </trkpt>
      <trkpt lat="50.4105" lon="4.00933">
        <ele>88</ele>
        <time>2018-09-26T09:42:24.000Z</time>
      </trkpt>
      <trkpt lat="50.41059" lon="4.00919">
        <ele>87</ele>
        <time>2018-09-26T09:42:26.000Z</time>
      </trkpt>
      <trkpt lat="50.41069" lon="4.00905">
        <ele>87</ele>
        <time>2018-09-26T09:42:28.000Z</time>
      </trkpt>
      <trkpt lat="50.41079" lon="4.00892">
        <ele>88</ele>
        <time>2018-09-26T09:42:30.000Z</time>
      </trkpt>
      <trkpt lat="50.41088" lon="4.00879">
        <ele>88</ele>
        <time>2018-09-26T09:42:32.000Z</time>
      </trkpt>
      <trkpt lat="50.41098" lon="4.00867">
        <ele>89</ele>
        <time>2018-09-26T09:42:34.000Z</time>
      </trkpt>
      <trkpt lat="50.41106" lon="4.00855">
        <ele>89</ele>
        <time>2018-09-26T09:42:36.000Z</time>
      </trkpt>
      <trkpt lat="50.41114" lon="4.00842">
        <ele>90</ele>
        <time>2018-09-26T09:42:38.000Z</time>
      </trkpt>
      <trkpt lat="50.41122" lon="4.00831">
        <ele>91</ele>
        <time>2018-09-26T09:42:40.000Z</time>
      </trkpt>
      <trkpt lat="50.4113" lon="4.00819">
        <ele>91</ele>
        <time>2018-09-26T09:42:42.000Z</time>
      </trkpt>
      <trkpt lat="50.41138" lon="4.00808">
        <ele>92</ele>
        <time>2018-09-26T09:42:44.000Z</time>
      </trkpt>
      <trkpt lat="50.41146" lon="4.00798">
        <ele>92</ele>
        <time>2018-09-26T09:42:46.000Z</time>
      </trkpt>
      <trkpt lat="50.41154" lon="4.00788">
        <ele>94</ele>
        <time>2018-09-26T09:42:48.000Z</time>
      </trkpt>
      <trkpt lat="50.41161" lon="4.00778">
        <ele>94</ele>
        <time>2018-09-26T09:42:50.000Z</time>
      </trkpt>
      <trkpt lat="50.41168" lon="4.00769">
        <ele>96</ele>
        <time>2018-09-26T09:42:52.000Z</time>
      </trkpt>
      <trkpt lat="50.41175" lon="4.00759">
        <ele>97</ele>
        <time>2018-09-26T09:42:54.000Z</time>
      </trkpt>
      <trkpt lat="50.41182" lon="4.00751">
        <ele>99</ele>
        <time>2018-09-26T09:42:56.000Z</time>
      </trkpt>
      <trkpt lat="50.4119" lon="4.00742">
        <ele>98</ele>
        <time>2018-09-26T09:42:58.000Z</time>
      </trkpt>
      <trkpt lat="50.41197" lon="4.00733">
        <ele>100</ele>
        <time>2018-09-26T09:43:00.000Z</time>
      </trkpt>
      <trkpt lat="50.41204" lon="4.00725">
        <ele>100</ele>
        <time>2018-09-26T09:43:02.000Z</time>
      </trkpt>
      <trkpt lat="50.41212" lon="4.00714">
        <ele>100</ele>
        <time>2018-09-26T09:43:04.000Z</time>
      </trkpt>
      <trkpt lat="50.41218" lon="4.00705">
        <ele>101</ele>
        <time>2018-09-26T09:43:06.000Z</time>
      </trkpt>
      <trkpt lat="50.41225" lon="4.00696">
        <ele>102</ele>
        <time>2018-09-26T09:43:08.000Z</time>
      </trkpt>
      <trkpt lat="50.41232" lon="4.00686">
        <ele>102</ele>
        <time>2018-09-26T09:43:10.000Z</time>
      </trkpt>
      <trkpt lat="50.41239" lon="4.00679">
        <ele>102</ele>
        <time>2018-09-26T09:43:12.000Z</time>
      </trkpt>
      <trkpt lat="50.41246" lon="4.00672">
        <ele>103</ele>
        <time>2018-09-26T09:43:14.000Z</time>
      </trkpt>
      <trkpt lat="50.41253" lon="4.00664">
        <ele>103</ele>
        <time>2018-09-26T09:43:16.000Z</time>
      </trkpt>
      <trkpt lat="50.41259" lon="4.00655">
        <ele>103</ele>
        <time>2018-09-26T09:43:18.000Z</time>
      </trkpt>
      <trkpt lat="50.41265" lon="4.00647">
        <ele>102</ele>
        <time>2018-09-26T09:43:20.000Z</time>
      </trkpt>
      <trkpt lat="50.41273" lon="4.00639">
        <ele>102</ele>
        <time>2018-09-26T09:43:22.000Z</time>
      </trkpt>
      <trkpt lat="50.4128" lon="4.00633">
        <ele>102</ele>
        <time>2018-09-26T09:43:24.000Z</time>
      </trkpt>
      <trkpt lat="50.41287" lon="4.00628">
        <ele>102</ele>
        <time>2018-09-26T09:43:26.000Z</time>
      </trkpt>
      <trkpt lat="50.41294" lon="4.00623">
        <ele>102</ele>
        <time>2018-09-26T09:43:28.000Z</time>
      </trkpt>
      <trkpt lat="50.413" lon="4.00621">
        <ele>102</ele>
        <time>2018-09-26T09:43:30.000Z</time>
      </trkpt>
      <trkpt lat="50.41307" lon="4.00618">
        <ele>103</ele>
        <time>2018-09-26T09:43:32.000Z</time>
      </trkpt>
      <trkpt lat="50.41314" lon="4.00615">
        <ele>103</ele>
        <time>2018-09-26T09:43:34.000Z</time>
      </trkpt>
      <trkpt lat="50.4132" lon="4.0061">
        <ele>103</ele>
        <time>2018-09-26T09:43:36.000Z</time>
      </trkpt>
      <trkpt lat="50.41328" lon="4.00606">
        <ele>103</ele>
        <time>2018-09-26T09:43:38.000Z</time>
      </trkpt>
      <trkpt lat="50.41335" lon="4.00603">
        <ele>103</ele>
        <time>2018-09-26T09:43:40.000Z</time>
      </trkpt>
      <trkpt lat="50.41343" lon="4.006">
        <ele>103</ele>
        <time>2018-09-26T09:43:42.000Z</time>
      </trkpt>
      <trkpt lat="50.4135" lon="4.00599">
        <ele>103</ele>
        <time>2018-09-26T09:43:44.000Z</time>
      </trkpt>
      <trkpt lat="50.41357" lon="4.00598">
        <ele>103</ele>
        <time>2018-09-26T09:43:46.000Z</time>
      </trkpt>
      <trkpt lat="50.41365" lon="4.00598">
        <ele>103</ele>
        <time>2018-09-26T09:43:48.000Z</time>
      </trkpt>
      <trkpt lat="50.41373" lon="4.00597">
        <ele>103</ele>
        <time>2018-09-26T09:43:50.000Z</time>
      </trkpt>
      <trkpt lat="50.41381" lon="4.00595">
        <ele>104</ele>
        <time>2018-09-26T09:43:52.000Z</time>
      </trkpt>
      <trkpt lat="50.41389" lon="4.00593">
        <ele>104</ele>
        <time>2018-09-26T09:43:54.000Z</time>
      </trkpt>
      <trkpt lat="50.41398" lon="4.00592">
        <ele>104</ele>
        <time>2018-09-26T09:43:56.000Z</time>
      </trkpt>
      <trkpt lat="50.41406" lon="4.0059">
        <ele>104</ele>
        <time>2018-09-26T09:43:58.000Z</time>
      </trkpt>
      <trkpt lat="50.41414" lon="4.00588">
        <ele>105</ele>
        <time>2018-09-26T09:44:00.000Z</time>
      </trkpt>
      <trkpt lat="50.41423" lon="4.00586">
        <ele>105</ele>
        <time>2018-09-26T09:44:02.000Z</time>
      </trkpt>
      <trkpt lat="50.41432" lon="4.00585">
        <ele>106</ele>
        <time>2018-09-26T09:44:04.000Z</time>
      </trkpt>
      <trkpt lat="50.41441" lon="4.00584">
        <ele>106</ele>
        <time>2018-09-26T09:44:06.000Z</time>
      </trkpt>
      <trkpt lat="50.41449" lon="4.00583">
        <ele>106</ele>
        <time>2018-09-26T09:44:08.000Z</time>
      </trkpt>
      <trkpt lat="50.41458" lon="4.00582">
        <ele>107</ele>
        <time>2018-09-26T09:44:10.000Z</time>
      </trkpt>
      <trkpt lat="50.41468" lon="4.00581">
        <ele>108</ele>
        <time>2018-09-26T09:44:12.000Z</time>
      </trkpt>
      <trkpt lat="50.41476" lon="4.0058">
        <ele>108</ele>
        <time>2018-09-26T09:44:14.000Z</time>
      </trkpt>
      <trkpt lat="50.41486" lon="4.0058">
        <ele>109</ele>
        <time>2018-09-26T09:44:16.000Z</time>
      </trkpt>
      <trkpt lat="50.41494" lon="4.00579">
        <ele>109</ele>
        <time>2018-09-26T09:44:18.000Z</time>
      </trkpt>
      <trkpt lat="50.41503" lon="4.00578">
        <ele>110</ele>
        <time>2018-09-26T09:44:20.000Z</time>
      </trkpt>
      <trkpt lat="50.41511" lon="4.00576">
        <ele>110</ele>
        <time>2018-09-26T09:44:22.000Z</time>
      </trkpt>
      <trkpt lat="50.4152" lon="4.00575">
        <ele>111</ele>
        <time>2018-09-26T09:44:24.000Z</time>
      </trkpt>
      <trkpt lat="50.41528" lon="4.00574">
        <ele>111</ele>
        <time>2018-09-26T09:44:26.000Z</time>
      </trkpt>
      <trkpt lat="50.41536" lon="4.00572">
        <ele>111</ele>
        <time>2018-09-26T09:44:28.000Z</time>
      </trkpt>
      <trkpt lat="50.41545" lon="4.00571">
        <ele>112</ele>
        <time>2018-09-26T09:44:30.000Z</time>
      </trkpt>
      <trkpt lat="50.41553" lon="4.0057">
        <ele>113</ele>
        <time>2018-09-26T09:44:32.000Z</time>
      </trkpt>
      <trkpt lat="50.41562" lon="4.00569">
        <ele>113</ele>
        <time>2018-09-26T09:44:34.000Z</time>
      </trkpt>
      <trkpt lat="50.4157" lon="4.00567">
        <ele>114</ele>
        <time>2018-09-26T09:44:36.000Z</time>
      </trkpt>
      <trkpt lat="50.41579" lon="4.00566">
        <ele>114</ele>
        <time>2018-09-26T09:44:38.000Z</time>
      </trkpt>
      <trkpt lat="50.41587" lon="4.00565">
        <ele>114</ele>
        <time>2018-09-26T09:44:40.000Z</time>
      </trkpt>
      <trkpt lat="50.41597" lon="4.00564">
        <ele>114</ele>
        <time>2018-09-26T09:44:42.000Z</time>
      </trkpt>
      <trkpt lat="50.41606" lon="4.00563">
        <ele>115</ele>
        <time>2018-09-26T09:44:44.000Z</time>
      </trkpt>
      <trkpt lat="50.41615" lon="4.00562">
        <ele>115</ele>
        <time>2018-09-26T09:44:46.000Z</time>
      </trkpt>
      <trkpt lat="50.41624" lon="4.00561">
        <ele>115</ele>
        <time>2018-09-26T09:44:48.000Z</time>
      </trkpt>
      <trkpt lat="50.41633" lon="4.00559">
        <ele>115</ele>
        <time>2018-09-26T09:44:50.000Z</time>
      </trkpt>
      <trkpt lat="50.41642" lon="4.00558">
        <ele>116</ele>
        <time>2018-09-26T09:44:52.000Z</time>
      </trkpt>
      <trkpt lat="50.41651" lon="4.00557">
        <ele>116</ele>
        <time>2018-09-26T09:44:54.000Z</time>
      </trkpt>
      <trkpt lat="50.4166" lon="4.00556">
        <ele>117</ele>
        <time>2018-09-26T09:44:56.000Z</time>
      </trkpt>
      <trkpt lat="50.41668" lon="4.00555">
        <ele>117</ele>
        <time>2018-09-26T09:44:58.000Z</time>
      </trkpt>
      <trkpt lat="50.41677" lon="4.00553">
        <ele>118</ele>
        <time>2018-09-26T09:45:00.000Z</time>
      </trkpt>
      <trkpt lat="50.41685" lon="4.00552">
        <ele>118</ele>
        <time>2018-09-26T09:45:02.000Z</time>
      </trkpt>
      <trkpt lat="50.41694" lon="4.0055">
        <ele>118</ele>
        <time>2018-09-26T09:45:04.000Z</time>
      </trkpt>
      <trkpt lat="50.41703" lon="4.0055">
        <ele>118</ele>
        <time>2018-09-26T09:45:06.000Z</time>
      </trkpt>
      <trkpt lat="50.41712" lon="4.00548">
        <ele>119</ele>
        <time>2018-09-26T09:45:08.000Z</time>
      </trkpt>
      <trkpt lat="50.41722" lon="4.00547">
        <ele>119</ele>
        <time>2018-09-26T09:45:10.000Z</time>
      </trkpt>
      <trkpt lat="50.41731" lon="4.00545">
        <ele>119</ele>
        <time>2018-09-26T09:45:12.000Z</time>
      </trkpt>
      <trkpt lat="50.4174" lon="4.00543">
        <ele>120</ele>
        <time>2018-09-26T09:45:14.000Z</time>
      </trkpt>
      <trkpt lat="50.4175" lon="4.00541">
        <ele>121</ele>
        <time>2018-09-26T09:45:16.000Z</time>
      </trkpt>
      <trkpt lat="50.41759" lon="4.00538">
        <ele>121</ele>
        <time>2018-09-26T09:45:18.000Z</time>
      </trkpt>
      <trkpt lat="50.41768" lon="4.00535">
        <ele>122</ele>
        <time>2018-09-26T09:45:20.000Z</time>
      </trkpt>
      <trkpt lat="50.41777" lon="4.00532">
        <ele>123</ele>
        <time>2018-09-26T09:45:22.000Z</time>
      </trkpt>
      <trkpt lat="50.41787" lon="4.00529">
        <ele>123</ele>
        <time>2018-09-26T09:45:24.000Z</time>
      </trkpt>
      <trkpt lat="50.41796" lon="4.00526">
        <ele>123</ele>
        <time>2018-09-26T09:45:26.000Z</time>
      </trkpt>
      <trkpt lat="50.41807" lon="4.00522">
        <ele>123</ele>
        <time>2018-09-26T09:45:28.000Z</time>
      </trkpt>
      <trkpt lat="50.41817" lon="4.00518">
        <ele>124</ele>
        <time>2018-09-26T09:45:30.000Z</time>
      </trkpt>
      <trkpt lat="50.41828" lon="4.00513">
        <ele>124</ele>
        <time>2018-09-26T09:45:32.000Z</time>
      </trkpt>
      <trkpt lat="50.41838" lon="4.00508">
        <ele>124</ele>
        <time>2018-09-26T09:45:34.000Z</time>
      </trkpt>
      <trkpt lat="50.41849" lon="4.00503">
        <ele>124</ele>
        <time>2018-09-26T09:45:36.000Z</time>
      </trkpt>
      <trkpt lat="50.4186" lon="4.00496">
        <ele>124</ele>
        <time>2018-09-26T09:45:38.000Z</time>
      </trkpt>
      <trkpt lat="50.41871" lon="4.0049">
        <ele>124</ele>
        <time>2018-09-26T09:45:40.000Z</time>
      </trkpt>
      <trkpt lat="50.41883" lon="4.00482">
        <ele>125</ele>
        <time>2018-09-26T09:45:42.000Z</time>
      </trkpt>
      <trkpt lat="50.41895" lon="4.00474">
        <ele>124</ele>
        <time>2018-09-26T09:45:44.000Z</time>
      </trkpt>
      <trkpt lat="50.41908" lon="4.00465">
        <ele>124</ele>
        <time>2018-09-26T09:45:46.000Z</time>
      </trkpt>
      <trkpt lat="50.41921" lon="4.00454">
        <ele>124</ele>
        <time>2018-09-26T09:45:48.000Z</time>
      </trkpt>
      <trkpt lat="50.41934" lon="4.00443">
        <ele>124</ele>
        <time>2018-09-26T09:45:50.000Z</time>
      </trkpt>
      <trkpt lat="50.41948" lon="4.00432">
        <ele>124</ele>
        <time>2018-09-26T09:45:52.000Z</time>
      </trkpt>
      <trkpt lat="50.41962" lon="4.0042">
        <ele>124</ele>
        <time>2018-09-26T09:45:54.000Z</time>
      </trkpt>
      <trkpt lat="50.41977" lon="4.00408">
        <ele>124</ele>
        <time>2018-09-26T09:45:56.000Z</time>
      </trkpt>
      <trkpt lat="50.41991" lon="4.00397">
        <ele>124</ele>
        <time>2018-09-26T09:45:58.000Z</time>
      </trkpt>
      <trkpt lat="50.42006" lon="4.00384">
        <ele>123</ele>
        <time>2018-09-26T09:46:00.000Z</time>
      </trkpt>
      <trkpt lat="50.42022" lon="4.00372">
        <ele>123</ele>
        <time>2018-09-26T09:46:02.000Z</time>
      </trkpt>
      <trkpt lat="50.42038" lon="4.0036">
        <ele>122</ele>
        <time>2018-09-26T09:46:04.000Z</time>
      </trkpt>
      <trkpt lat="50.42054" lon="4.00347">
        <ele>121</ele>
        <time>2018-09-26T09:46:06.000Z</time>
      </trkpt>
      <trkpt lat="50.4207" lon="4.00334">
        <ele>120</ele>
        <time>2018-09-26T09:46:08.000Z</time>
      </trkpt>
      <trkpt lat="50.42086" lon="4.00322">
        <ele>120</ele>
        <time>2018-09-26T09:46:10.000Z</time>
      </trkpt>
      <trkpt lat="50.42102" lon="4.00309">
        <ele>119</ele>
        <time>2018-09-26T09:46:12.000Z</time>
      </trkpt>
      <trkpt lat="50.42119" lon="4.00297">
        <ele>118</ele>
        <time>2018-09-26T09:46:14.000Z</time>
      </trkpt>
      <trkpt lat="50.42136" lon="4.00284">
        <ele>118</ele>
        <time>2018-09-26T09:46:16.000Z</time>
      </trkpt>
      <trkpt lat="50.42153" lon="4.00271">
        <ele>117</ele>
        <time>2018-09-26T09:46:18.000Z</time>
      </trkpt>
      <trkpt lat="50.42171" lon="4.00257">
        <ele>117</ele>
        <time>2018-09-26T09:46:20.000Z</time>
      </trkpt>
      <trkpt lat="50.42188" lon="4.00244">
        <ele>117</ele>
        <time>2018-09-26T09:46:22.000Z</time>
      </trkpt>
      <trkpt lat="50.42206" lon="4.00231">
        <ele>116</ele>
        <time>2018-09-26T09:46:24.000Z</time>
      </trkpt>
      <trkpt lat="50.42224" lon="4.00218">
        <ele>115</ele>
        <time>2018-09-26T09:46:26.000Z</time>
      </trkpt>
      <trkpt lat="50.42242" lon="4.00204">
        <ele>115</ele>
        <time>2018-09-26T09:46:28.000Z</time>
      </trkpt>
      <trkpt lat="50.4226" lon="4.00191">
        <ele>114</ele>
        <time>2018-09-26T09:46:30.000Z</time>
      </trkpt>
      <trkpt lat="50.42279" lon="4.00177">
        <ele>113</ele>
        <time>2018-09-26T09:46:32.000Z</time>
      </trkpt>
      <trkpt lat="50.42297" lon="4.00164">
        <ele>113</ele>
        <time>2018-09-26T09:46:34.000Z</time>
      </trkpt>
      <trkpt lat="50.42315" lon="4.0015">
        <ele>112</ele>
        <time>2018-09-26T09:46:36.000Z</time>
      </trkpt>
      <trkpt lat="50.42333" lon="4.00137">
        <ele>111</ele>
        <time>2018-09-26T09:46:38.000Z</time>
      </trkpt>
      <trkpt lat="50.42352" lon="4.00123">
        <ele>110</ele>
        <time>2018-09-26T09:46:40.000Z</time>
      </trkpt>
      <trkpt lat="50.42371" lon="4.00109">
        <ele>108</ele>
        <time>2018-09-26T09:46:42.000Z</time>
      </trkpt>
      <trkpt lat="50.42389" lon="4.00094">
        <ele>108</ele>
        <time>2018-09-26T09:46:44.000Z</time>
      </trkpt>
      <trkpt lat="50.42408" lon="4.00079">
        <ele>108</ele>
        <time>2018-09-26T09:46:46.000Z</time>
      </trkpt>
      <trkpt lat="50.42426" lon="4.00065">
        <ele>107</ele>
        <time>2018-09-26T09:46:48.000Z</time>
      </trkpt>
      <trkpt lat="50.42445" lon="4.00051">
        <ele>105</ele>
        <time>2018-09-26T09:46:50.000Z</time>
      </trkpt>
      <trkpt lat="50.42464" lon="4.00037">
        <ele>104</ele>
        <time>2018-09-26T09:46:52.000Z</time>
      </trkpt>
      <trkpt lat="50.42483" lon="4.00023">
        <ele>104</ele>
        <time>2018-09-26T09:46:54.000Z</time>
      </trkpt>
      <trkpt lat="50.42501" lon="4.0001">
        <ele>104</ele>
        <time>2018-09-26T09:46:56.000Z</time>
      </trkpt>
      <trkpt lat="50.42519" lon="3.99996">
        <ele>104</ele>
        <time>2018-09-26T09:46:58.000Z</time>
      </trkpt>
      <trkpt lat="50.42538" lon="3.99981">
        <ele>103</ele>
        <time>2018-09-26T09:47:00.000Z</time>
      </trkpt>
      <trkpt lat="50.42557" lon="3.99968">
        <ele>103</ele>
        <time>2018-09-26T09:47:02.000Z</time>
      </trkpt>
      <trkpt lat="50.42576" lon="3.99954">
        <ele>103</ele>
        <time>2018-09-26T09:47:04.000Z</time>
      </trkpt>
      <trkpt lat="50.42595" lon="3.9994">
        <ele>102</ele>
        <time>2018-09-26T09:47:06.000Z</time>
      </trkpt>
      <trkpt lat="50.42614" lon="3.99925">
        <ele>101</ele>
        <time>2018-09-26T09:47:08.000Z</time>
      </trkpt>
      <trkpt lat="50.42632" lon="3.99911">
        <ele>100</ele>
        <time>2018-09-26T09:47:10.000Z</time>
      </trkpt>
      <trkpt lat="50.42651" lon="3.99896">
        <ele>99</ele>
        <time>2018-09-26T09:47:12.000Z</time>
      </trkpt>
      <trkpt lat="50.4267" lon="3.99881">
        <ele>97</ele>
        <time>2018-09-26T09:47:14.000Z</time>
      </trkpt>
      <trkpt lat="50.42689" lon="3.99867">
        <ele>96</ele>
        <time>2018-09-26T09:47:16.000Z</time>
      </trkpt>
      <trkpt lat="50.42707" lon="3.99854">
        <ele>95</ele>
        <time>2018-09-26T09:47:18.000Z</time>
      </trkpt>
      <trkpt lat="50.42725" lon="3.9984">
        <ele>94</ele>
        <time>2018-09-26T09:47:20.000Z</time>
      </trkpt>
      <trkpt lat="50.42743" lon="3.99826">
        <ele>93</ele>
        <time>2018-09-26T09:47:22.000Z</time>
      </trkpt>
      <trkpt lat="50.4276" lon="3.99813">
        <ele>94</ele>
        <time>2018-09-26T09:47:24.000Z</time>
      </trkpt>
      <trkpt lat="50.42778" lon="3.998">
        <ele>93</ele>
        <time>2018-09-26T09:47:26.000Z</time>
      </trkpt>
      <trkpt lat="50.42795" lon="3.99787">
        <ele>92</ele>
        <time>2018-09-26T09:47:28.000Z</time>
      </trkpt>
      <trkpt lat="50.42811" lon="3.99776">
        <ele>92</ele>
        <time>2018-09-26T09:47:30.000Z</time>
      </trkpt>
      <trkpt lat="50.42827" lon="3.99765">
        <ele>91</ele>
        <time>2018-09-26T09:47:32.000Z</time>
      </trkpt>
      <trkpt lat="50.42844" lon="3.99752">
        <ele>90</ele>
        <time>2018-09-26T09:47:34.000Z</time>
      </trkpt>
      <trkpt lat="50.42861" lon="3.99739">
        <ele>90</ele>
        <time>2018-09-26T09:47:36.000Z</time>
      </trkpt>
      <trkpt lat="50.42878" lon="3.99727">
        <ele>90</ele>
        <time>2018-09-26T09:47:38.000Z</time>
      </trkpt>
      <trkpt lat="50.42895" lon="3.99714">
        <ele>90</ele>
        <time>2018-09-26T09:47:40.000Z</time>
      </trkpt>
      <trkpt lat="50.42912" lon="3.99702">
        <ele>90</ele>
        <time>2018-09-26T09:47:42.000Z</time>
      </trkpt>
      <trkpt lat="50.42928" lon="3.99689">
        <ele>89</ele>
        <time>2018-09-26T09:47:44.000Z</time>
      </trkpt>
      <trkpt lat="50.42944" lon="3.99677">
        <ele>89</ele>
        <time>2018-09-26T09:47:46.000Z</time>
      </trkpt>
      <trkpt lat="50.4296" lon="3.99666">
        <ele>88</ele>
        <time>2018-09-26T09:47:48.000Z</time>
      </trkpt>
      <trkpt lat="50.42971" lon="3.99661">
        <ele>88</ele>
        <time>2018-09-26T09:47:50.000Z</time>
      </trkpt>
      <trkpt lat="50.42981" lon="3.9967">
        <ele>87</ele>
        <time>2018-09-26T09:47:52.000Z</time>
      </trkpt>
      <trkpt lat="50.42989" lon="3.99685">
        <ele>88</ele>
        <time>2018-09-26T09:47:54.000Z</time>
      </trkpt>
      <trkpt lat="50.42998" lon="3.99701">
        <ele>88</ele>
        <time>2018-09-26T09:47:56.000Z</time>
      </trkpt>
      <trkpt lat="50.43007" lon="3.99716">
        <ele>88</ele>
        <time>2018-09-26T09:47:58.000Z</time>
      </trkpt>
      <trkpt lat="50.43017" lon="3.9973">
        <ele>88</ele>
        <time>2018-09-26T09:48:00.000Z</time>
      </trkpt>
      <trkpt lat="50.43026" lon="3.99745">
        <ele>87</ele>
        <time>2018-09-26T09:48:02.000Z</time>
      </trkpt>
      <trkpt lat="50.43036" lon="3.9976">
        <ele>87</ele>
        <time>2018-09-26T09:48:04.000Z</time>
      </trkpt>
      <trkpt lat="50.43046" lon="3.99775">
        <ele>87</ele>
        <time>2018-09-26T09:48:06.000Z</time>
      </trkpt>
      <trkpt lat="50.43055" lon="3.9979">
        <ele>87</ele>
        <time>2018-09-26T09:48:08.000Z</time>
      </trkpt>
      <trkpt lat="50.43065" lon="3.99805">
        <ele>87</ele>
        <time>2018-09-26T09:48:10.000Z</time>
      </trkpt>
      <trkpt lat="50.43074" lon="3.9982">
        <ele>87</ele>
        <time>2018-09-26T09:48:12.000Z</time>
      </trkpt>
      <trkpt lat="50.43084" lon="3.99836">
        <ele>87</ele>
        <time>2018-09-26T09:48:14.000Z</time>
      </trkpt>
      <trkpt lat="50.43093" lon="3.99851">
        <ele>86</ele>
        <time>2018-09-26T09:48:16.000Z</time>
      </trkpt>
      <trkpt lat="50.43103" lon="3.99867">
        <ele>87</ele>
        <time>2018-09-26T09:48:18.000Z</time>
      </trkpt>
      <trkpt lat="50.43113" lon="3.99883">
        <ele>87</ele>
        <time>2018-09-26T09:48:20.000Z</time>
      </trkpt>
      <trkpt lat="50.43123" lon="3.99898">
        <ele>87</ele>
        <time>2018-09-26T09:48:22.000Z</time>
      </trkpt>
      <trkpt lat="50.43133" lon="3.99913">
        <ele>87</ele>
        <time>2018-09-26T09:48:24.000Z</time>
      </trkpt>
      <trkpt lat="50.43143" lon="3.99928">
        <ele>87</ele>
        <time>2018-09-26T09:48:26.000Z</time>
      </trkpt>
      <trkpt lat="50.43153" lon="3.99943">
        <ele>87</ele>
        <time>2018-09-26T09:48:28.000Z</time>
      </trkpt>
      <trkpt lat="50.43163" lon="3.99958">
        <ele>87</ele>
        <time>2018-09-26T09:48:30.000Z</time>
      </trkpt>
      <trkpt lat="50.43172" lon="3.99973">
        <ele>87</ele>
        <time>2018-09-26T09:48:32.000Z</time>
      </trkpt>
      <trkpt lat="50.43182" lon="3.99988">
        <ele>87</ele>
        <time>2018-09-26T09:48:34.000Z</time>
      </trkpt>
      <trkpt lat="50.43192" lon="4.00003">
        <ele>86</ele>
        <time>2018-09-26T09:48:36.000Z</time>
      </trkpt>
      <trkpt lat="50.43201" lon="4.00017">
        <ele>86</ele>
        <time>2018-09-26T09:48:38.000Z</time>
      </trkpt>
      <trkpt lat="50.43211" lon="4.00032">
        <ele>85</ele>
        <time>2018-09-26T09:48:40.000Z</time>
      </trkpt>
      <trkpt lat="50.43221" lon="4.00047">
        <ele>85</ele>
        <time>2018-09-26T09:48:42.000Z</time>
      </trkpt>
      <trkpt lat="50.4323" lon="4.00063">
        <ele>85</ele>
        <time>2018-09-26T09:48:44.000Z</time>
      </trkpt>
      <trkpt lat="50.4324" lon="4.00078">
        <ele>85</ele>
        <time>2018-09-26T09:48:46.000Z</time>
      </trkpt>
      <trkpt lat="50.4325" lon="4.00093">
        <ele>85</ele>
        <time>2018-09-26T09:48:48.000Z</time>
      </trkpt>
      <trkpt lat="50.43259" lon="4.00108">
        <ele>85</ele>
        <time>2018-09-26T09:48:50.000Z</time>
      </trkpt>
      <trkpt lat="50.43269" lon="4.00123">
        <ele>85</ele>
        <time>2018-09-26T09:48:52.000Z</time>
      </trkpt>
      <trkpt lat="50.43278" lon="4.00139">
        <ele>85</ele>
        <time>2018-09-26T09:48:54.000Z</time>
      </trkpt>
      <trkpt lat="50.43287" lon="4.00154">
        <ele>85</ele>
        <time>2018-09-26T09:48:56.000Z</time>
      </trkpt>
      <trkpt lat="50.43296" lon="4.0017">
        <ele>85</ele>
        <time>2018-09-26T09:48:58.000Z</time>
      </trkpt>
      <trkpt lat="50.43306" lon="4.00185">
        <ele>85</ele>
        <time>2018-09-26T09:49:00.000Z</time>
      </trkpt>
      <trkpt lat="50.43315" lon="4.002">
        <ele>85</ele>
        <time>2018-09-26T09:49:02.000Z</time>
      </trkpt>
      <trkpt lat="50.43325" lon="4.00215">
        <ele>85</ele>
        <time>2018-09-26T09:49:04.000Z</time>
      </trkpt>
      <trkpt lat="50.43335" lon="4.0023">
        <ele>85</ele>
        <time>2018-09-26T09:49:06.000Z</time>
      </trkpt>
      <trkpt lat="50.43344" lon="4.00245">
        <ele>85</ele>
        <time>2018-09-26T09:49:08.000Z</time>
      </trkpt>
      <trkpt lat="50.43354" lon="4.0026">
        <ele>86</ele>
        <time>2018-09-26T09:49:10.000Z</time>
      </trkpt>
      <trkpt lat="50.43364" lon="4.00275">
        <ele>87</ele>
        <time>2018-09-26T09:49:12.000Z</time>
      </trkpt>
      <trkpt lat="50.43373" lon="4.00291">
        <ele>86</ele>
        <time>2018-09-26T09:49:14.000Z</time>
      </trkpt>
      <trkpt lat="50.43383" lon="4.00307">
        <ele>87</ele>
        <time>2018-09-26T09:49:16.000Z</time>
      </trkpt>
      <trkpt lat="50.43394" lon="4.00323">
        <ele>87</ele>
        <time>2018-09-26T09:49:18.000Z</time>
      </trkpt>
      <trkpt lat="50.43404" lon="4.00339">
        <ele>87</ele>
        <time>2018-09-26T09:49:20.000Z</time>
      </trkpt>
      <trkpt lat="50.43414" lon="4.00355">
        <ele>87</ele>
        <time>2018-09-26T09:49:22.000Z</time>
      </trkpt>
      <trkpt lat="50.43423" lon="4.00371">
        <ele>86</ele>
        <time>2018-09-26T09:49:24.000Z</time>
      </trkpt>
      <trkpt lat="50.43432" lon="4.00388">
        <ele>87</ele>
        <time>2018-09-26T09:49:26.000Z</time>
      </trkpt>
      <trkpt lat="50.43441" lon="4.00406">
        <ele>86</ele>
        <time>2018-09-26T09:49:28.000Z</time>
      </trkpt>
      <trkpt lat="50.43449" lon="4.00424">
        <ele>86</ele>
        <time>2018-09-26T09:49:30.000Z</time>
      </trkpt>
      <trkpt lat="50.43458" lon="4.00442">
        <ele>86</ele>
        <time>2018-09-26T09:49:32.000Z</time>
      </trkpt>
      <trkpt lat="50.43465" lon="4.00459">
        <ele>86</ele>
        <time>2018-09-26T09:49:34.000Z</time>
      </trkpt>
      <trkpt lat="50.43472" lon="4.00477">
        <ele>86</ele>
        <time>2018-09-26T09:49:36.000Z</time>
      </trkpt>
      <trkpt lat="50.43477" lon="4.00495">
        <ele>86</ele>
        <time>2018-09-26T09:49:38.000Z</time>
      </trkpt>
      <trkpt lat="50.43484" lon="4.00514">
        <ele>87</ele>
        <time>2018-09-26T09:49:40.000Z</time>
      </trkpt>
      <trkpt lat="50.43489" lon="4.00533">
        <ele>87</ele>
        <time>2018-09-26T09:49:42.000Z</time>
      </trkpt>
      <trkpt lat="50.43494" lon="4.00554">
        <ele>88</ele>
        <time>2018-09-26T09:49:44.000Z</time>
      </trkpt>
      <trkpt lat="50.43498" lon="4.00575">
        <ele>87</ele>
        <time>2018-09-26T09:49:46.000Z</time>
      </trkpt>
      <trkpt lat="50.43502" lon="4.00596">
        <ele>88</ele>
        <time>2018-09-26T09:49:48.000Z</time>
      </trkpt>
      <trkpt lat="50.43507" lon="4.00616">
        <ele>88</ele>
        <time>2018-09-26T09:49:50.000Z</time>
      </trkpt>
      <trkpt lat="50.43511" lon="4.00637">
        <ele>88</ele>
        <time>2018-09-26T09:49:52.000Z</time>
      </trkpt>
      <trkpt lat="50.43514" lon="4.00657">
        <ele>88</ele>
        <time>2018-09-26T09:49:54.000Z</time>
      </trkpt>
      <trkpt lat="50.43518" lon="4.00678">
        <ele>89</ele>
        <time>2018-09-26T09:49:56.000Z</time>
      </trkpt>
      <trkpt lat="50.43521" lon="4.00699">
        <ele>88</ele>
        <time>2018-09-26T09:49:58.000Z</time>
      </trkpt>
      <trkpt lat="50.43525" lon="4.0072">
        <ele>88</ele>
        <time>2018-09-26T09:50:00.000Z</time>
      </trkpt>
      <trkpt lat="50.43528" lon="4.00741">
        <ele>88</ele>
        <time>2018-09-26T09:50:02.000Z</time>
      </trkpt>
      <trkpt lat="50.43532" lon="4.00762">
        <ele>88</ele>
        <time>2018-09-26T09:50:04.000Z</time>
      </trkpt>
      <trkpt lat="50.43535" lon="4.00784">
        <ele>88</ele>
        <time>2018-09-26T09:50:06.000Z</time>
      </trkpt>
      <trkpt lat="50.43539" lon="4.00805">
        <ele>88</ele>
        <time>2018-09-26T09:50:08.000Z</time>
      </trkpt>
      <trkpt lat="50.43543" lon="4.00827">
        <ele>87</ele>
        <time>2018-09-26T09:50:10.000Z</time>
      </trkpt>
      <trkpt lat="50.43547" lon="4.00848">
        <ele>88</ele>
        <time>2018-09-26T09:50:12.000Z</time>
      </trkpt>
      <trkpt lat="50.4355" lon="4.00869">
        <ele>88</ele>
        <time>2018-09-26T09:50:14.000Z</time>
      </trkpt>
      <trkpt lat="50.43554" lon="4.0089">
        <ele>89</ele>
        <time>2018-09-26T09:50:16.000Z</time>
      </trkpt>
      <trkpt lat="50.43557" lon="4.00911">
        <ele>90</ele>
        <time>2018-09-26T09:50:18.000Z</time>
      </trkpt>
      <trkpt lat="50.43561" lon="4.00933">
        <ele>89</ele>
        <time>2018-09-26T09:50:20.000Z</time>
      </trkpt>
      <trkpt lat="50.43565" lon="4.00954">
        <ele>89</ele>
        <time>2018-09-26T09:50:22.000Z</time>
      </trkpt>
      <trkpt lat="50.43569" lon="4.00975">
        <ele>89</ele>
        <time>2018-09-26T09:50:24.000Z</time>
      </trkpt>
      <trkpt lat="50.43573" lon="4.00996">
        <ele>88</ele>
        <time>2018-09-26T09:50:26.000Z</time>
      </trkpt>
      <trkpt lat="50.43576" lon="4.01017">
        <ele>88</ele>
        <time>2018-09-26T09:50:28.000Z</time>
      </trkpt>
      <trkpt lat="50.43579" lon="4.01038">
        <ele>88</ele>
        <time>2018-09-26T09:50:30.000Z</time>
      </trkpt>
      <trkpt lat="50.43583" lon="4.01058">
        <ele>89</ele>
        <time>2018-09-26T09:50:32.000Z</time>
      </trkpt>
      <trkpt lat="50.43586" lon="4.01079">
        <ele>89</ele>
        <time>2018-09-26T09:50:34.000Z</time>
      </trkpt>
      <trkpt lat="50.43591" lon="4.01099">
        <ele>88</ele>
        <time>2018-09-26T09:50:36.000Z</time>
      </trkpt>
      <trkpt lat="50.43598" lon="4.01117">
        <ele>87</ele>
        <time>2018-09-26T09:50:38.000Z</time>
      </trkpt>
      <trkpt lat="50.4361" lon="4.01128">
        <ele>88</ele>
        <time>2018-09-26T09:50:40.000Z</time>
      </trkpt>
      <trkpt lat="50.43624" lon="4.01134">
        <ele>87</ele>
        <time>2018-09-26T09:50:42.000Z</time>
      </trkpt>
      <trkpt lat="50.43639" lon="4.01138">
        <ele>88</ele>
        <time>2018-09-26T09:50:44.000Z</time>
      </trkpt>
      <trkpt lat="50.43654" lon="4.01142">
        <ele>87</ele>
        <time>2018-09-26T09:50:46.000Z</time>
      </trkpt>
      <trkpt lat="50.43668" lon="4.01147">
        <ele>87</ele>
        <time>2018-09-26T09:50:48.000Z</time>
      </trkpt>
      <trkpt lat="50.43683" lon="4.01151">
        <ele>87</ele>
        <time>2018-09-26T09:50:50.000Z</time>
      </trkpt>
      <trkpt lat="50.43698" lon="4.01156">
        <ele>87</ele>
        <time>2018-09-26T09:50:52.000Z</time>
      </trkpt>
      <trkpt lat="50.43712" lon="4.0116">
        <ele>86</ele>
        <time>2018-09-26T09:50:54.000Z</time>
      </trkpt>
      <trkpt lat="50.43727" lon="4.01165">
        <ele>85</ele>
        <time>2018-09-26T09:50:56.000Z</time>
      </trkpt>
      <trkpt lat="50.43734" lon="4.01167">
        <ele>85</ele>
        <time>2018-09-26T09:50:57.000Z</time>
      </trkpt>
      <trkpt lat="50.43748" lon="4.01172">
        <ele>84</ele>
        <time>2018-09-26T09:50:59.000Z</time>
      </trkpt>
      <trkpt lat="50.43761" lon="4.01178">
        <ele>85</ele>
        <time>2018-09-26T09:51:01.000Z</time>
      </trkpt>
      <trkpt lat="50.43769" lon="4.01189">
        <ele>85</ele>
        <time>2018-09-26T09:51:03.000Z</time>
      </trkpt>
      <trkpt lat="50.43774" lon="4.01198">
        <ele>85</ele>
        <time>2018-09-26T09:51:05.000Z</time>
      </trkpt>
      <trkpt lat="50.43774" lon="4.01198">
        <ele>85</ele>
        <time>2018-09-26T09:51:07.000Z</time>
      </trkpt>
      <trkpt lat="50.4378" lon="4.012">
        <ele>85</ele>
        <time>2018-09-26T09:51:09.000Z</time>
      </trkpt>
      <trkpt lat="50.43786" lon="4.01194">
        <ele>86</ele>
        <time>2018-09-26T09:51:11.000Z</time>
      </trkpt>
      <trkpt lat="50.43798" lon="4.01187">
        <ele>84</ele>
        <time>2018-09-26T09:51:13.000Z</time>
      </trkpt>
      <trkpt lat="50.43809" lon="4.01185">
        <ele>85</ele>
        <time>2018-09-26T09:51:15.000Z</time>
      </trkpt>
      <trkpt lat="50.43819" lon="4.01183">
        <ele>86</ele>
        <time>2018-09-26T09:51:17.000Z</time>
      </trkpt>
      <trkpt lat="50.4383" lon="4.0118">
        <ele>85</ele>
        <time>2018-09-26T09:51:19.000Z</time>
      </trkpt>
      <trkpt lat="50.43842" lon="4.01177">
        <ele>85</ele>
        <time>2018-09-26T09:51:21.000Z</time>
      </trkpt>
      <trkpt lat="50.43853" lon="4.01181">
        <ele>85</ele>
        <time>2018-09-26T09:51:23.000Z</time>
      </trkpt>
      <trkpt lat="50.4386" lon="4.0119">
        <ele>85</ele>
        <time>2018-09-26T09:51:25.000Z</time>
      </trkpt>
      <trkpt lat="50.43869" lon="4.0119">
        <ele>85</ele>
        <time>2018-09-26T09:51:27.000Z</time>
      </trkpt>
      <trkpt lat="50.43876" lon="4.01177">
        <ele>85</ele>
        <time>2018-09-26T09:51:29.000Z</time>
      </trkpt>
      <trkpt lat="50.43883" lon="4.0116">
        <ele>85</ele>
        <time>2018-09-26T09:51:31.000Z</time>
      </trkpt>
      <trkpt lat="50.43894" lon="4.01146">
        <ele>85</ele>
        <time>2018-09-26T09:51:33.000Z</time>
      </trkpt>
      <trkpt lat="50.43904" lon="4.01131">
        <ele>84</ele>
        <time>2018-09-26T09:51:35.000Z</time>
      </trkpt>
      <trkpt lat="50.43915" lon="4.01117">
        <ele>83</ele>
        <time>2018-09-26T09:51:37.000Z</time>
      </trkpt>
      <trkpt lat="50.43926" lon="4.01103">
        <ele>83</ele>
        <time>2018-09-26T09:51:39.000Z</time>
      </trkpt>
      <trkpt lat="50.43936" lon="4.0109">
        <ele>82</ele>
        <time>2018-09-26T09:51:41.000Z</time>
      </trkpt>
      <trkpt lat="50.43945" lon="4.01079">
        <ele>81</ele>
        <time>2018-09-26T09:51:43.000Z</time>
      </trkpt>
      <trkpt lat="50.43945" lon="4.01079">
        <ele>81</ele>
        <time>2018-09-26T09:51:47.000Z</time>
      </trkpt>
      <trkpt lat="50.43967" lon="4.01122">
        <ele>86</ele>
        <time>2018-09-26T09:51:52.000Z</time>
      </trkpt>
      <trkpt lat="50.43975" lon="4.01138">
        <ele>86</ele>
        <time>2018-09-26T09:51:54.000Z</time>
      </trkpt>
      <trkpt lat="50.43985" lon="4.01151">
        <ele>88</ele>
        <time>2018-09-26T09:51:56.000Z</time>
      </trkpt>
      <trkpt lat="50.43999" lon="4.01156">
        <ele>88</ele>
        <time>2018-09-26T09:51:58.000Z</time>
      </trkpt>
      <trkpt lat="50.44014" lon="4.01153">
        <ele>89</ele>
        <time>2018-09-26T09:52:00.000Z</time>
      </trkpt>
      <trkpt lat="50.44028" lon="4.01148">
        <ele>90</ele>
        <time>2018-09-26T09:52:02.000Z</time>
      </trkpt>
      <trkpt lat="50.44041" lon="4.01143">
        <ele>91</ele>
        <time>2018-09-26T09:52:04.000Z</time>
      </trkpt>
      <trkpt lat="50.44056" lon="4.01138">
        <ele>91</ele>
        <time>2018-09-26T09:52:06.000Z</time>
      </trkpt>
      <trkpt lat="50.44069" lon="4.01133">
        <ele>91</ele>
        <time>2018-09-26T09:52:08.000Z</time>
      </trkpt>
      <trkpt lat="50.44084" lon="4.01128">
        <ele>91</ele>
        <time>2018-09-26T09:52:10.000Z</time>
      </trkpt>
      <trkpt lat="50.44098" lon="4.01123">
        <ele>90</ele>
        <time>2018-09-26T09:52:12.000Z</time>
      </trkpt>
      <trkpt lat="50.44112" lon="4.01118">
        <ele>90</ele>
        <time>2018-09-26T09:52:14.000Z</time>
      </trkpt>
      <trkpt lat="50.44125" lon="4.01119">
        <ele>90</ele>
        <time>2018-09-26T09:52:16.000Z</time>
      </trkpt>
      <trkpt lat="50.44139" lon="4.01123">
        <ele>89</ele>
        <time>2018-09-26T09:52:18.000Z</time>
      </trkpt>
      <trkpt lat="50.44153" lon="4.01129">
        <ele>89</ele>
        <time>2018-09-26T09:52:20.000Z</time>
      </trkpt>
      <trkpt lat="50.44166" lon="4.01137">
        <ele>88</ele>
        <time>2018-09-26T09:52:22.000Z</time>
      </trkpt>
      <trkpt lat="50.4418" lon="4.01146">
        <ele>87</ele>
        <time>2018-09-26T09:52:24.000Z</time>
      </trkpt>
      <trkpt lat="50.44193" lon="4.01153">
        <ele>86</ele>
        <time>2018-09-26T09:52:26.000Z</time>
      </trkpt>
      <trkpt lat="50.44206" lon="4.01161">
        <ele>86</ele>
        <time>2018-09-26T09:52:28.000Z</time>
      </trkpt>
      <trkpt lat="50.4422" lon="4.01171">
        <ele>85</ele>
        <time>2018-09-26T09:52:30.000Z</time>
      </trkpt>
      <trkpt lat="50.44233" lon="4.01181">
        <ele>85</ele>
        <time>2018-09-26T09:52:32.000Z</time>
      </trkpt>
      <trkpt lat="50.44246" lon="4.01191">
        <ele>84</ele>
        <time>2018-09-26T09:52:34.000Z</time>
      </trkpt>
      <trkpt lat="50.44259" lon="4.012">
        <ele>84</ele>
        <time>2018-09-26T09:52:36.000Z</time>
      </trkpt>
      <trkpt lat="50.44273" lon="4.01208">
        <ele>84</ele>
        <time>2018-09-26T09:52:38.000Z</time>
      </trkpt>
      <trkpt lat="50.44287" lon="4.01209">
        <ele>83</ele>
        <time>2018-09-26T09:52:40.000Z</time>
      </trkpt>
      <trkpt lat="50.44301" lon="4.01209">
        <ele>84</ele>
        <time>2018-09-26T09:52:42.000Z</time>
      </trkpt>
      <trkpt lat="50.44315" lon="4.01206">
        <ele>84</ele>
        <time>2018-09-26T09:52:44.000Z</time>
      </trkpt>
      <trkpt lat="50.44329" lon="4.01199">
        <ele>85</ele>
        <time>2018-09-26T09:52:46.000Z</time>
      </trkpt>
      <trkpt lat="50.44342" lon="4.0119">
        <ele>85</ele>
        <time>2018-09-26T09:52:48.000Z</time>
      </trkpt>
      <trkpt lat="50.44355" lon="4.0118">
        <ele>86</ele>
        <time>2018-09-26T09:52:50.000Z</time>
      </trkpt>
      <trkpt lat="50.44367" lon="4.01171">
        <ele>86</ele>
        <time>2018-09-26T09:52:52.000Z</time>
      </trkpt>
      <trkpt lat="50.44381" lon="4.01171">
        <ele>86</ele>
        <time>2018-09-26T09:52:54.000Z</time>
      </trkpt>
      <trkpt lat="50.44394" lon="4.01176">
        <ele>86</ele>
        <time>2018-09-26T09:52:56.000Z</time>
      </trkpt>
      <trkpt lat="50.44408" lon="4.01184">
        <ele>85</ele>
        <time>2018-09-26T09:52:58.000Z</time>
      </trkpt>
      <trkpt lat="50.44421" lon="4.01193">
        <ele>84</ele>
        <time>2018-09-26T09:53:00.000Z</time>
      </trkpt>
      <trkpt lat="50.44434" lon="4.01199">
        <ele>85</ele>
        <time>2018-09-26T09:53:02.000Z</time>
      </trkpt>
      <trkpt lat="50.44447" lon="4.01203">
        <ele>84</ele>
        <time>2018-09-26T09:53:04.000Z</time>
      </trkpt>
      <trkpt lat="50.44461" lon="4.01204">
        <ele>85</ele>
        <time>2018-09-26T09:53:06.000Z</time>
      </trkpt>
      <trkpt lat="50.44475" lon="4.01203">
        <ele>85</ele>
        <time>2018-09-26T09:53:08.000Z</time>
      </trkpt>
      <trkpt lat="50.44489" lon="4.012">
        <ele>84</ele>
        <time>2018-09-26T09:53:10.000Z</time>
      </trkpt>
      <trkpt lat="50.44502" lon="4.01196">
        <ele>83</ele>
        <time>2018-09-26T09:53:12.000Z</time>
      </trkpt>
      <trkpt lat="50.44515" lon="4.01191">
        <ele>83</ele>
        <time>2018-09-26T09:53:14.000Z</time>
      </trkpt>
      <trkpt lat="50.44529" lon="4.01186">
        <ele>82</ele>
        <time>2018-09-26T09:53:16.000Z</time>
      </trkpt>
      <trkpt lat="50.44543" lon="4.0118">
        <ele>82</ele>
        <time>2018-09-26T09:53:18.000Z</time>
      </trkpt>
      <trkpt lat="50.44555" lon="4.01172">
        <ele>83</ele>
        <time>2018-09-26T09:53:20.000Z</time>
      </trkpt>
      <trkpt lat="50.44567" lon="4.0116">
        <ele>83</ele>
        <time>2018-09-26T09:53:22.000Z</time>
      </trkpt>
      <trkpt lat="50.44579" lon="4.01147">
        <ele>83</ele>
        <time>2018-09-26T09:53:24.000Z</time>
      </trkpt>
      <trkpt lat="50.44591" lon="4.01134">
        <ele>84</ele>
        <time>2018-09-26T09:53:26.000Z</time>
      </trkpt>
      <trkpt lat="50.44603" lon="4.01122">
        <ele>84</ele>
        <time>2018-09-26T09:53:28.000Z</time>
      </trkpt>
      <trkpt lat="50.44616" lon="4.01112">
        <ele>85</ele>
        <time>2018-09-26T09:53:30.000Z</time>
      </trkpt>
      <trkpt lat="50.44628" lon="4.01105">
        <ele>85</ele>
        <time>2018-09-26T09:53:32.000Z</time>
      </trkpt>
      <trkpt lat="50.44641" lon="4.011">
        <ele>85</ele>
        <time>2018-09-26T09:53:34.000Z</time>
      </trkpt>
      <trkpt lat="50.44655" lon="4.01096">
        <ele>85</ele>
        <time>2018-09-26T09:53:36.000Z</time>
      </trkpt>
      <trkpt lat="50.44668" lon="4.01094">
        <ele>85</ele>
        <time>2018-09-26T09:53:38.000Z</time>
      </trkpt>
      <trkpt lat="50.44682" lon="4.01091">
        <ele>85</ele>
        <time>2018-09-26T09:53:40.000Z</time>
      </trkpt>
      <trkpt lat="50.44695" lon="4.0109">
        <ele>85</ele>
        <time>2018-09-26T09:53:42.000Z</time>
      </trkpt>
      <trkpt lat="50.44709" lon="4.01089">
        <ele>85</ele>
        <time>2018-09-26T09:53:44.000Z</time>
      </trkpt>
      <trkpt lat="50.44722" lon="4.0109">
        <ele>85</ele>
        <time>2018-09-26T09:53:46.000Z</time>
      </trkpt>
      <trkpt lat="50.44735" lon="4.0109">
        <ele>86</ele>
        <time>2018-09-26T09:53:48.000Z</time>
      </trkpt>
      <trkpt lat="50.44748" lon="4.01092">
        <ele>86</ele>
        <time>2018-09-26T09:53:50.000Z</time>
      </trkpt>
      <trkpt lat="50.4476" lon="4.01095">
        <ele>86</ele>
        <time>2018-09-26T09:53:52.000Z</time>
      </trkpt>
      <trkpt lat="50.44773" lon="4.01098">
        <ele>86</ele>
        <time>2018-09-26T09:53:54.000Z</time>
      </trkpt>
      <trkpt lat="50.44785" lon="4.01102">
        <ele>86</ele>
        <time>2018-09-26T09:53:56.000Z</time>
      </trkpt>
      <trkpt lat="50.44798" lon="4.01106">
        <ele>86</ele>
        <time>2018-09-26T09:53:58.000Z</time>
      </trkpt>
      <trkpt lat="50.4481" lon="4.01111">
        <ele>87</ele>
        <time>2018-09-26T09:54:00.000Z</time>
      </trkpt>
      <trkpt lat="50.44822" lon="4.01116">
        <ele>87</ele>
        <time>2018-09-26T09:54:02.000Z</time>
      </trkpt>
      <trkpt lat="50.44833" lon="4.01122">
        <ele>87</ele>
        <time>2018-09-26T09:54:04.000Z</time>
      </trkpt>
      <trkpt lat="50.44845" lon="4.01127">
        <ele>88</ele>
        <time>2018-09-26T09:54:06.000Z</time>
      </trkpt>
      <trkpt lat="50.44857" lon="4.01132">
        <ele>88</ele>
        <time>2018-09-26T09:54:08.000Z</time>
      </trkpt>
      <trkpt lat="50.4487" lon="4.01137">
        <ele>88</ele>
        <time>2018-09-26T09:54:10.000Z</time>
      </trkpt>
      <trkpt lat="50.44883" lon="4.01139">
        <ele>89</ele>
        <time>2018-09-26T09:54:12.000Z</time>
      </trkpt>
      <trkpt lat="50.44896" lon="4.01142">
        <ele>89</ele>
        <time>2018-09-26T09:54:14.000Z</time>
      </trkpt>
      <trkpt lat="50.44908" lon="4.01144">
        <ele>89</ele>
        <time>2018-09-26T09:54:16.000Z</time>
      </trkpt>
      <trkpt lat="50.44921" lon="4.01144">
        <ele>89</ele>
        <time>2018-09-26T09:54:18.000Z</time>
      </trkpt>
      <trkpt lat="50.44933" lon="4.01141">
        <ele>90</ele>
        <time>2018-09-26T09:54:20.000Z</time>
      </trkpt>
      <trkpt lat="50.44943" lon="4.01131">
        <ele>90</ele>
        <time>2018-09-26T09:54:22.000Z</time>
      </trkpt>
      <trkpt lat="50.4495" lon="4.01116">
        <ele>91</ele>
        <time>2018-09-26T09:54:24.000Z</time>
      </trkpt>
      <trkpt lat="50.44955" lon="4.011">
        <ele>91</ele>
        <time>2018-09-26T09:54:26.000Z</time>
      </trkpt>
      <trkpt lat="50.44961" lon="4.01083">
        <ele>91</ele>
        <time>2018-09-26T09:54:28.000Z</time>
      </trkpt>
      <trkpt lat="50.44967" lon="4.01065">
        <ele>92</ele>
        <time>2018-09-26T09:54:30.000Z</time>
      </trkpt>
      <trkpt lat="50.44972" lon="4.01048">
        <ele>92</ele>
        <time>2018-09-26T09:54:32.000Z</time>
      </trkpt>
      <trkpt lat="50.44978" lon="4.01031">
        <ele>91</ele>
        <time>2018-09-26T09:54:34.000Z</time>
      </trkpt>
      <trkpt lat="50.44983" lon="4.01014">
        <ele>91</ele>
        <time>2018-09-26T09:54:36.000Z</time>
      </trkpt>
      <trkpt lat="50.44989" lon="4.00997">
        <ele>91</ele>
        <time>2018-09-26T09:54:38.000Z</time>
      </trkpt>
      <trkpt lat="50.44994" lon="4.00981">
        <ele>91</ele>
        <time>2018-09-26T09:54:40.000Z</time>
      </trkpt>
      <trkpt lat="50.45" lon="4.00965">
        <ele>91</ele>
        <time>2018-09-26T09:54:42.000Z</time>
      </trkpt>
      <trkpt lat="50.45007" lon="4.00949">
        <ele>91</ele>
        <time>2018-09-26T09:54:44.000Z</time>
      </trkpt>
      <trkpt lat="50.45014" lon="4.00935">
        <ele>91</ele>
        <time>2018-09-26T09:54:46.000Z</time>
      </trkpt>
      <trkpt lat="50.45022" lon="4.00921">
        <ele>90</ele>
        <time>2018-09-26T09:54:48.000Z</time>
      </trkpt>
      <trkpt lat="50.45032" lon="4.0091">
        <ele>91</ele>
        <time>2018-09-26T09:54:50.000Z</time>
      </trkpt>
      <trkpt lat="50.45042" lon="4.00899">
        <ele>91</ele>
        <time>2018-09-26T09:54:52.000Z</time>
      </trkpt>
      <trkpt lat="50.45052" lon="4.0089">
        <ele>91</ele>
        <time>2018-09-26T09:54:54.000Z</time>
      </trkpt>
      <trkpt lat="50.45062" lon="4.0088">
        <ele>91</ele>
        <time>2018-09-26T09:54:56.000Z</time>
      </trkpt>
      <trkpt lat="50.45073" lon="4.00872">
        <ele>92</ele>
        <time>2018-09-26T09:54:58.000Z</time>
      </trkpt>
      <trkpt lat="50.45085" lon="4.00864">
        <ele>92</ele>
        <time>2018-09-26T09:55:00.000Z</time>
      </trkpt>
      <trkpt lat="50.45096" lon="4.00856">
        <ele>92</ele>
        <time>2018-09-26T09:55:02.000Z</time>
      </trkpt>
      <trkpt lat="50.45107" lon="4.00848">
        <ele>91</ele>
        <time>2018-09-26T09:55:04.000Z</time>
      </trkpt>
      <trkpt lat="50.45117" lon="4.0084">
        <ele>91</ele>
        <time>2018-09-26T09:55:06.000Z</time>
      </trkpt>
      <trkpt lat="50.45127" lon="4.00832">
        <ele>90</ele>
        <time>2018-09-26T09:55:08.000Z</time>
      </trkpt>
      <trkpt lat="50.45138" lon="4.00825">
        <ele>90</ele>
        <time>2018-09-26T09:55:10.000Z</time>
      </trkpt>
      <trkpt lat="50.45149" lon="4.00819">
        <ele>89</ele>
        <time>2018-09-26T09:55:12.000Z</time>
      </trkpt>
      <trkpt lat="50.45161" lon="4.00813">
        <ele>90</ele>
        <time>2018-09-26T09:55:14.000Z</time>
      </trkpt>
      <trkpt lat="50.45172" lon="4.00807">
        <ele>91</ele>
        <time>2018-09-26T09:55:16.000Z</time>
      </trkpt>
      <trkpt lat="50.45182" lon="4.00802">
        <ele>91</ele>
        <time>2018-09-26T09:55:18.000Z</time>
      </trkpt>
      <trkpt lat="50.45193" lon="4.00797">
        <ele>94</ele>
        <time>2018-09-26T09:55:20.000Z</time>
      </trkpt>
      <trkpt lat="50.45205" lon="4.00792">
        <ele>94</ele>
        <time>2018-09-26T09:55:22.000Z</time>
      </trkpt>
      <trkpt lat="50.45217" lon="4.00788">
        <ele>95</ele>
        <time>2018-09-26T09:55:24.000Z</time>
      </trkpt>
      <trkpt lat="50.45229" lon="4.00784">
        <ele>96</ele>
        <time>2018-09-26T09:55:26.000Z</time>
      </trkpt>
      <trkpt lat="50.45242" lon="4.00782">
        <ele>95</ele>
        <time>2018-09-26T09:55:28.000Z</time>
      </trkpt>
      <trkpt lat="50.45255" lon="4.00779">
        <ele>96</ele>
        <time>2018-09-26T09:55:30.000Z</time>
      </trkpt>
      <trkpt lat="50.45268" lon="4.00775">
        <ele>96</ele>
        <time>2018-09-26T09:55:32.000Z</time>
      </trkpt>
      <trkpt lat="50.4528" lon="4.00769">
        <ele>96</ele>
        <time>2018-09-26T09:55:34.000Z</time>
      </trkpt>
      <trkpt lat="50.45293" lon="4.00762">
        <ele>95</ele>
        <time>2018-09-26T09:55:36.000Z</time>
      </trkpt>
      <trkpt lat="50.45305" lon="4.00756">
        <ele>93</ele>
        <time>2018-09-26T09:55:38.000Z</time>
      </trkpt>
      <trkpt lat="50.45318" lon="4.0075">
        <ele>93</ele>
        <time>2018-09-26T09:55:40.000Z</time>
      </trkpt>
      <trkpt lat="50.4533" lon="4.00746">
        <ele>92</ele>
        <time>2018-09-26T09:55:42.000Z</time>
      </trkpt>
      <trkpt lat="50.45341" lon="4.0074">
        <ele>92</ele>
        <time>2018-09-26T09:55:44.000Z</time>
      </trkpt>
      <trkpt lat="50.45351" lon="4.00731">
        <ele>93</ele>
        <time>2018-09-26T09:55:46.000Z</time>
      </trkpt>
      <trkpt lat="50.45362" lon="4.00724">
        <ele>94</ele>
        <time>2018-09-26T09:55:48.000Z</time>
      </trkpt>
      <trkpt lat="50.45373" lon="4.00715">
        <ele>95</ele>
        <time>2018-09-26T09:55:50.000Z</time>
      </trkpt>
      <trkpt lat="50.45385" lon="4.00703">
        <ele>94</ele>
        <time>2018-09-26T09:55:52.000Z</time>
      </trkpt>
      <trkpt lat="50.45398" lon="4.00694">
        <ele>96</ele>
        <time>2018-09-26T09:55:54.000Z</time>
      </trkpt>
      <trkpt lat="50.45411" lon="4.00685">
        <ele>97</ele>
        <time>2018-09-26T09:55:56.000Z</time>
      </trkpt>
      <trkpt lat="50.45424" lon="4.00676">
        <ele>96</ele>
        <time>2018-09-26T09:55:58.000Z</time>
      </trkpt>
      <trkpt lat="50.45437" lon="4.00668">
        <ele>95</ele>
        <time>2018-09-26T09:56:00.000Z</time>
      </trkpt>
      <trkpt lat="50.4545" lon="4.00659">
        <ele>95</ele>
        <time>2018-09-26T09:56:02.000Z</time>
      </trkpt>
      <trkpt lat="50.45462" lon="4.00651">
        <ele>95</ele>
        <time>2018-09-26T09:56:04.000Z</time>
      </trkpt>
      <trkpt lat="50.45474" lon="4.00644">
        <ele>96</ele>
        <time>2018-09-26T09:56:06.000Z</time>
      </trkpt>
      <trkpt lat="50.45486" lon="4.00637">
        <ele>96</ele>
        <time>2018-09-26T09:56:08.000Z</time>
      </trkpt>
      <trkpt lat="50.45499" lon="4.00629">
        <ele>97</ele>
        <time>2018-09-26T09:56:10.000Z</time>
      </trkpt>
      <trkpt lat="50.45511" lon="4.00621">
        <ele>97</ele>
        <time>2018-09-26T09:56:12.000Z</time>
      </trkpt>
      <trkpt lat="50.45524" lon="4.00613">
        <ele>97</ele>
        <time>2018-09-26T09:56:14.000Z</time>
      </trkpt>
      <trkpt lat="50.45536" lon="4.00604">
        <ele>97</ele>
        <time>2018-09-26T09:56:16.000Z</time>
      </trkpt>
      <trkpt lat="50.45549" lon="4.00596">
        <ele>97</ele>
        <time>2018-09-26T09:56:18.000Z</time>
      </trkpt>
      <trkpt lat="50.45562" lon="4.00588">
        <ele>97</ele>
        <time>2018-09-26T09:56:20.000Z</time>
      </trkpt>
      <trkpt lat="50.45575" lon="4.0058">
        <ele>97</ele>
        <time>2018-09-26T09:56:22.000Z</time>
      </trkpt>
      <trkpt lat="50.45587" lon="4.00572">
        <ele>97</ele>
        <time>2018-09-26T09:56:24.000Z</time>
      </trkpt>
      <trkpt lat="50.45599" lon="4.00564">
        <ele>98</ele>
        <time>2018-09-26T09:56:26.000Z</time>
      </trkpt>
      <trkpt lat="50.4561" lon="4.00556">
        <ele>99</ele>
        <time>2018-09-26T09:56:28.000Z</time>
      </trkpt>
      <trkpt lat="50.45621" lon="4.00548">
        <ele>99</ele>
        <time>2018-09-26T09:56:30.000Z</time>
      </trkpt>
      <trkpt lat="50.45633" lon="4.00541">
        <ele>98</ele>
        <time>2018-09-26T09:56:32.000Z</time>
      </trkpt>
      <trkpt lat="50.45644" lon="4.00535">
        <ele>99</ele>
        <time>2018-09-26T09:56:34.000Z</time>
      </trkpt>
      <trkpt lat="50.45655" lon="4.00529">
        <ele>99</ele>
        <time>2018-09-26T09:56:36.000Z</time>
      </trkpt>
      <trkpt lat="50.45665" lon="4.00522">
        <ele>99</ele>
        <time>2018-09-26T09:56:38.000Z</time>
      </trkpt>
      <trkpt lat="50.45676" lon="4.00515">
        <ele>100</ele>
        <time>2018-09-26T09:56:40.000Z</time>
      </trkpt>
      <trkpt lat="50.45686" lon="4.00509">
        <ele>101</ele>
        <time>2018-09-26T09:56:42.000Z</time>
      </trkpt>
      <trkpt lat="50.45696" lon="4.00501">
        <ele>101</ele>
        <time>2018-09-26T09:56:44.000Z</time>
      </trkpt>
      <trkpt lat="50.45707" lon="4.00494">
        <ele>100</ele>
        <time>2018-09-26T09:56:46.000Z</time>
      </trkpt>
      <trkpt lat="50.45715" lon="4.00486">
        <ele>100</ele>
        <time>2018-09-26T09:56:48.000Z</time>
      </trkpt>
      <trkpt lat="50.45725" lon="4.00478">
        <ele>98</ele>
        <time>2018-09-26T09:56:50.000Z</time>
      </trkpt>
      <trkpt lat="50.45735" lon="4.00472">
        <ele>97</ele>
        <time>2018-09-26T09:56:52.000Z</time>
      </trkpt>
      <trkpt lat="50.45745" lon="4.00467">
        <ele>95</ele>
        <time>2018-09-26T09:56:54.000Z</time>
      </trkpt>
      <trkpt lat="50.45755" lon="4.00461">
        <ele>95</ele>
        <time>2018-09-26T09:56:56.000Z</time>
      </trkpt>
      <trkpt lat="50.45763" lon="4.00453">
        <ele>95</ele>
        <time>2018-09-26T09:56:58.000Z</time>
      </trkpt>
      <trkpt lat="50.45772" lon="4.00446">
        <ele>94</ele>
        <time>2018-09-26T09:57:00.000Z</time>
      </trkpt>
      <trkpt lat="50.4578" lon="4.00438">
        <ele>94</ele>
        <time>2018-09-26T09:57:02.000Z</time>
      </trkpt>
      <trkpt lat="50.45788" lon="4.00431">
        <ele>95</ele>
        <time>2018-09-26T09:57:04.000Z</time>
      </trkpt>
      <trkpt lat="50.45798" lon="4.00426">
        <ele>97</ele>
        <time>2018-09-26T09:57:06.000Z</time>
      </trkpt>
      <trkpt lat="50.45808" lon="4.0042">
        <ele>97</ele>
        <time>2018-09-26T09:57:08.000Z</time>
      </trkpt>
      <trkpt lat="50.45819" lon="4.00413">
        <ele>99</ele>
        <time>2018-09-26T09:57:10.000Z</time>
      </trkpt>
      <trkpt lat="50.45829" lon="4.00407">
        <ele>100</ele>
        <time>2018-09-26T09:57:12.000Z</time>
      </trkpt>
      <trkpt lat="50.4584" lon="4.00402">
        <ele>99</ele>
        <time>2018-09-26T09:57:14.000Z</time>
      </trkpt>
      <trkpt lat="50.4585" lon="4.00393">
        <ele>100</ele>
        <time>2018-09-26T09:57:16.000Z</time>
      </trkpt>
      <trkpt lat="50.45861" lon="4.00385">
        <ele>100</ele>
        <time>2018-09-26T09:57:18.000Z</time>
      </trkpt>
      <trkpt lat="50.45871" lon="4.00378">
        <ele>101</ele>
        <time>2018-09-26T09:57:20.000Z</time>
      </trkpt>
      <trkpt lat="50.45881" lon="4.00371">
        <ele>102</ele>
        <time>2018-09-26T09:57:22.000Z</time>
      </trkpt>
      <trkpt lat="50.45892" lon="4.00364">
        <ele>102</ele>
        <time>2018-09-26T09:57:24.000Z</time>
      </trkpt>
      <trkpt lat="50.45903" lon="4.00357">
        <ele>102</ele>
        <time>2018-09-26T09:57:26.000Z</time>
      </trkpt>
      <trkpt lat="50.45914" lon="4.0035">
        <ele>102</ele>
        <time>2018-09-26T09:57:28.000Z</time>
      </trkpt>
      <trkpt lat="50.45926" lon="4.00343">
        <ele>103</ele>
        <time>2018-09-26T09:57:30.000Z</time>
      </trkpt>
      <trkpt lat="50.45935" lon="4.00337">
        <ele>104</ele>
        <time>2018-09-26T09:57:32.000Z</time>
      </trkpt>
      <trkpt lat="50.45942" lon="4.00332">
        <ele>103</ele>
        <time>2018-09-26T09:57:34.000Z</time>
      </trkpt>
      <trkpt lat="50.45948" lon="4.00329">
        <ele>103</ele>
        <time>2018-09-26T09:57:36.000Z</time>
      </trkpt>
      <trkpt lat="50.45957" lon="4.00324">
        <ele>104</ele>
        <time>2018-09-26T09:57:38.000Z</time>
      </trkpt>
      <trkpt lat="50.45957" lon="4.00324">
        <ele>104</ele>
        <time>2018-09-26T09:57:40.000Z</time>
      </trkpt>
      <trkpt lat="50.45963" lon="4.0032">
        <ele>104</ele>
        <time>2018-09-26T09:57:42.000Z</time>
      </trkpt>
      <trkpt lat="50.45963" lon="4.0032">
        <ele>104</ele>
        <time>2018-09-26T09:57:44.000Z</time>
      </trkpt>
      <trkpt lat="50.45963" lon="4.0032">
        <ele>104</ele>
        <time>2018-09-26T09:57:46.000Z</time>
      </trkpt>
      <trkpt lat="50.4597" lon="4.00312">
        <ele>105</ele>
        <time>2018-09-26T09:58:05.000Z</time>
      </trkpt>
      <trkpt lat="50.45972" lon="4.00284">
        <ele>105</ele>
        <time>2018-09-26T09:58:09.000Z</time>
      </trkpt>
      <trkpt lat="50.45972" lon="4.00267">
        <ele>106</ele>
        <time>2018-09-26T09:58:11.000Z</time>
      </trkpt>
      <trkpt lat="50.4597" lon="4.00247">
        <ele>104</ele>
        <time>2018-09-26T09:58:13.000Z</time>
      </trkpt>
      <trkpt lat="50.45969" lon="4.00227">
        <ele>104</ele>
        <time>2018-09-26T09:58:15.000Z</time>
      </trkpt>
      <trkpt lat="50.45967" lon="4.00208">
        <ele>104</ele>
        <time>2018-09-26T09:58:17.000Z</time>
      </trkpt>
      <trkpt lat="50.45966" lon="4.0019">
        <ele>103</ele>
        <time>2018-09-26T09:58:19.000Z</time>
      </trkpt>
      <trkpt lat="50.4597" lon="4.00178">
        <ele>104</ele>
        <time>2018-09-26T09:58:21.000Z</time>
      </trkpt>
      <trkpt lat="50.45978" lon="4.00178">
        <ele>104</ele>
        <time>2018-09-26T09:58:23.000Z</time>
      </trkpt>
      <trkpt lat="50.45989" lon="4.00182">
        <ele>104</ele>
        <time>2018-09-26T09:58:25.000Z</time>
      </trkpt>
      <trkpt lat="50.46001" lon="4.00186">
        <ele>103</ele>
        <time>2018-09-26T09:58:27.000Z</time>
      </trkpt>
      <trkpt lat="50.46014" lon="4.00189">
        <ele>103</ele>
        <time>2018-09-26T09:58:29.000Z</time>
      </trkpt>
      <trkpt lat="50.46028" lon="4.00192">
        <ele>103</ele>
        <time>2018-09-26T09:58:31.000Z</time>
      </trkpt>
      <trkpt lat="50.46041" lon="4.00197">
        <ele>103</ele>
        <time>2018-09-26T09:58:33.000Z</time>
      </trkpt>
      <trkpt lat="50.46056" lon="4.00201">
        <ele>103</ele>
        <time>2018-09-26T09:58:35.000Z</time>
      </trkpt>
      <trkpt lat="50.46071" lon="4.00204">
        <ele>103</ele>
        <time>2018-09-26T09:58:37.000Z</time>
      </trkpt>
      <trkpt lat="50.46086" lon="4.00208">
        <ele>103</ele>
        <time>2018-09-26T09:58:39.000Z</time>
      </trkpt>
      <trkpt lat="50.461" lon="4.00212">
        <ele>103</ele>
        <time>2018-09-26T09:58:41.000Z</time>
      </trkpt>
      <trkpt lat="50.46114" lon="4.00215">
        <ele>103</ele>
        <time>2018-09-26T09:58:43.000Z</time>
      </trkpt>
      <trkpt lat="50.46129" lon="4.00218">
        <ele>103</ele>
        <time>2018-09-26T09:58:45.000Z</time>
      </trkpt>
      <trkpt lat="50.46143" lon="4.00223">
        <ele>102</ele>
        <time>2018-09-26T09:58:47.000Z</time>
      </trkpt>
      <trkpt lat="50.46157" lon="4.00226">
        <ele>102</ele>
        <time>2018-09-26T09:58:49.000Z</time>
      </trkpt>
      <trkpt lat="50.46171" lon="4.0023">
        <ele>102</ele>
        <time>2018-09-26T09:58:51.000Z</time>
      </trkpt>
      <trkpt lat="50.46185" lon="4.00233">
        <ele>102</ele>
        <time>2018-09-26T09:58:53.000Z</time>
      </trkpt>
      <trkpt lat="50.462" lon="4.00233">
        <ele>102</ele>
        <time>2018-09-26T09:58:55.000Z</time>
      </trkpt>
      <trkpt lat="50.46213" lon="4.00223">
        <ele>102</ele>
        <time>2018-09-26T09:58:57.000Z</time>
      </trkpt>
      <trkpt lat="50.46225" lon="4.00208">
        <ele>101</ele>
        <time>2018-09-26T09:58:59.000Z</time>
      </trkpt>
      <trkpt lat="50.46237" lon="4.00193">
        <ele>101</ele>
        <time>2018-09-26T09:59:01.000Z</time>
      </trkpt>
      <trkpt lat="50.46249" lon="4.00178">
        <ele>101</ele>
        <time>2018-09-26T09:59:03.000Z</time>
      </trkpt>
      <trkpt lat="50.46262" lon="4.00164">
        <ele>100</ele>
        <time>2018-09-26T09:59:05.000Z</time>
      </trkpt>
      <trkpt lat="50.46274" lon="4.0015">
        <ele>100</ele>
        <time>2018-09-26T09:59:07.000Z</time>
      </trkpt>
      <trkpt lat="50.46286" lon="4.00137">
        <ele>99</ele>
        <time>2018-09-26T09:59:09.000Z</time>
      </trkpt>
      <trkpt lat="50.46299" lon="4.00124">
        <ele>99</ele>
        <time>2018-09-26T09:59:11.000Z</time>
      </trkpt>
      <trkpt lat="50.46311" lon="4.00112">
        <ele>99</ele>
        <time>2018-09-26T09:59:13.000Z</time>
      </trkpt>
      <trkpt lat="50.46323" lon="4.00099">
        <ele>98</ele>
        <time>2018-09-26T09:59:15.000Z</time>
      </trkpt>
      <trkpt lat="50.46335" lon="4.00087">
        <ele>98</ele>
        <time>2018-09-26T09:59:17.000Z</time>
      </trkpt>
      <trkpt lat="50.46346" lon="4.00075">
        <ele>97</ele>
        <time>2018-09-26T09:59:19.000Z</time>
      </trkpt>
      <trkpt lat="50.46357" lon="4.00062">
        <ele>97</ele>
        <time>2018-09-26T09:59:21.000Z</time>
      </trkpt>
      <trkpt lat="50.46368" lon="4.00049">
        <ele>97</ele>
        <time>2018-09-26T09:59:23.000Z</time>
      </trkpt>
      <trkpt lat="50.46373" lon="4.00032">
        <ele>98</ele>
        <time>2018-09-26T09:59:25.000Z</time>
      </trkpt>
      <trkpt lat="50.46378" lon="4.00016">
        <ele>98</ele>
        <time>2018-09-26T09:59:27.000Z</time>
      </trkpt>
      <trkpt lat="50.46382" lon="4.00002">
        <ele>98</ele>
        <time>2018-09-26T09:59:29.000Z</time>
      </trkpt>
      <trkpt lat="50.46387" lon="3.99996">
        <ele>98</ele>
        <time>2018-09-26T09:59:31.000Z</time>
      </trkpt>
      <trkpt lat="50.46387" lon="3.99996">
        <ele>98</ele>
        <time>2018-09-26T09:59:33.000Z</time>
      </trkpt>
      <trkpt lat="50.46407" lon="4.00037">
        <ele>102</ele>
        <time>2018-09-26T09:59:38.000Z</time>
      </trkpt>
      <trkpt lat="50.46416" lon="4.00053">
        <ele>102</ele>
        <time>2018-09-26T09:59:40.000Z</time>
      </trkpt>
      <trkpt lat="50.46426" lon="4.0007">
        <ele>102</ele>
        <time>2018-09-26T09:59:42.000Z</time>
      </trkpt>
      <trkpt lat="50.46435" lon="4.00087">
        <ele>102</ele>
        <time>2018-09-26T09:59:44.000Z</time>
      </trkpt>
      <trkpt lat="50.46445" lon="4.00105">
        <ele>102</ele>
        <time>2018-09-26T09:59:46.000Z</time>
      </trkpt>
      <trkpt lat="50.46455" lon="4.00122">
        <ele>101</ele>
        <time>2018-09-26T09:59:48.000Z</time>
      </trkpt>
      <trkpt lat="50.46466" lon="4.0014">
        <ele>101</ele>
        <time>2018-09-26T09:59:50.000Z</time>
      </trkpt>
      <trkpt lat="50.46476" lon="4.00158">
        <ele>101</ele>
        <time>2018-09-26T09:59:52.000Z</time>
      </trkpt>
      <trkpt lat="50.46487" lon="4.00177">
        <ele>101</ele>
        <time>2018-09-26T09:59:54.000Z</time>
      </trkpt>
      <trkpt lat="50.465" lon="4.00195">
        <ele>100</ele>
        <time>2018-09-26T09:59:56.000Z</time>
      </trkpt>
      <trkpt lat="50.46513" lon="4.00213">
        <ele>99</ele>
        <time>2018-09-26T09:59:58.000Z</time>
      </trkpt>
      <trkpt lat="50.46527" lon="4.00232">
        <ele>98</ele>
        <time>2018-09-26T10:00:00.000Z</time>
      </trkpt>
      <trkpt lat="50.46542" lon="4.00251">
        <ele>97</ele>
        <time>2018-09-26T10:00:02.000Z</time>
      </trkpt>
      <trkpt lat="50.46556" lon="4.00271">
        <ele>96</ele>
        <time>2018-09-26T10:00:04.000Z</time>
      </trkpt>
      <trkpt lat="50.46571" lon="4.0029">
        <ele>96</ele>
        <time>2018-09-26T10:00:06.000Z</time>
      </trkpt>
      <trkpt lat="50.46586" lon="4.00311">
        <ele>95</ele>
        <time>2018-09-26T10:00:08.000Z</time>
      </trkpt>
      <trkpt lat="50.46602" lon="4.00331">
        <ele>93</ele>
        <time>2018-09-26T10:00:10.000Z</time>
      </trkpt>
      <trkpt lat="50.46617" lon="4.00352">
        <ele>92</ele>
        <time>2018-09-26T10:00:12.000Z</time>
      </trkpt>
      <trkpt lat="50.46632" lon="4.00372">
        <ele>92</ele>
        <time>2018-09-26T10:00:14.000Z</time>
      </trkpt>
      <trkpt lat="50.46645" lon="4.00389">
        <ele>93</ele>
        <time>2018-09-26T10:00:16.000Z</time>
      </trkpt>
      <trkpt lat="50.46659" lon="4.00404">
        <ele>93</ele>
        <time>2018-09-26T10:00:18.000Z</time>
      </trkpt>
      <trkpt lat="50.46675" lon="4.00423">
        <ele>91</ele>
        <time>2018-09-26T10:00:20.000Z</time>
      </trkpt>
      <trkpt lat="50.46689" lon="4.0044">
        <ele>93</ele>
        <time>2018-09-26T10:00:22.000Z</time>
      </trkpt>
      <trkpt lat="50.46705" lon="4.00457">
        <ele>92</ele>
        <time>2018-09-26T10:00:24.000Z</time>
      </trkpt>
      <trkpt lat="50.46722" lon="4.00472">
        <ele>91</ele>
        <time>2018-09-26T10:00:26.000Z</time>
      </trkpt>
      <trkpt lat="50.4674" lon="4.00485">
        <ele>91</ele>
        <time>2018-09-26T10:00:28.000Z</time>
      </trkpt>
      <trkpt lat="50.46758" lon="4.00499">
        <ele>90</ele>
        <time>2018-09-26T10:00:30.000Z</time>
      </trkpt>
      <trkpt lat="50.46778" lon="4.0051">
        <ele>89</ele>
        <time>2018-09-26T10:00:32.000Z</time>
      </trkpt>
      <trkpt lat="50.46799" lon="4.00516">
        <ele>88</ele>
        <time>2018-09-26T10:00:34.000Z</time>
      </trkpt>
      <trkpt lat="50.46818" lon="4.0052">
        <ele>88</ele>
        <time>2018-09-26T10:00:36.000Z</time>
      </trkpt>
      <trkpt lat="50.46836" lon="4.00522">
        <ele>88</ele>
        <time>2018-09-26T10:00:38.000Z</time>
      </trkpt>
      <trkpt lat="50.46852" lon="4.00523">
        <ele>88</ele>
        <time>2018-09-26T10:00:40.000Z</time>
      </trkpt>
      <trkpt lat="50.46867" lon="4.00523">
        <ele>88</ele>
        <time>2018-09-26T10:00:42.000Z</time>
      </trkpt>
      <trkpt lat="50.4688" lon="4.00524">
        <ele>88</ele>
        <time>2018-09-26T10:00:44.000Z</time>
      </trkpt>
      <trkpt lat="50.46892" lon="4.00523">
        <ele>88</ele>
        <time>2018-09-26T10:00:46.000Z</time>
      </trkpt>
      <trkpt lat="50.46902" lon="4.00522">
        <ele>88</ele>
        <time>2018-09-26T10:00:48.000Z</time>
      </trkpt>
      <trkpt lat="50.46914" lon="4.00524">
        <ele>88</ele>
        <time>2018-09-26T10:00:50.000Z</time>
      </trkpt>
      <trkpt lat="50.46925" lon="4.00526">
        <ele>90</ele>
        <time>2018-09-26T10:00:52.000Z</time>
      </trkpt>
      <trkpt lat="50.46936" lon="4.00527">
        <ele>90</ele>
        <time>2018-09-26T10:00:54.000Z</time>
      </trkpt>
      <trkpt lat="50.46946" lon="4.00528">
        <ele>91</ele>
        <time>2018-09-26T10:00:56.000Z</time>
      </trkpt>
      <trkpt lat="50.46956" lon="4.0053">
        <ele>92</ele>
        <time>2018-09-26T10:00:58.000Z</time>
      </trkpt>
      <trkpt lat="50.46966" lon="4.00531">
        <ele>93</ele>
        <time>2018-09-26T10:01:00.000Z</time>
      </trkpt>
      <trkpt lat="50.46977" lon="4.00533">
        <ele>93</ele>
        <time>2018-09-26T10:01:02.000Z</time>
      </trkpt>
      <trkpt lat="50.46989" lon="4.00534">
        <ele>93</ele>
        <time>2018-09-26T10:01:04.000Z</time>
      </trkpt>
      <trkpt lat="50.47001" lon="4.00535">
        <ele>95</ele>
        <time>2018-09-26T10:01:06.000Z</time>
      </trkpt>
      <trkpt lat="50.47012" lon="4.00536">
        <ele>94</ele>
        <time>2018-09-26T10:01:08.000Z</time>
      </trkpt>
      <trkpt lat="50.47024" lon="4.00537">
        <ele>94</ele>
        <time>2018-09-26T10:01:10.000Z</time>
      </trkpt>
      <trkpt lat="50.47036" lon="4.00537">
        <ele>94</ele>
        <time>2018-09-26T10:01:12.000Z</time>
      </trkpt>
      <trkpt lat="50.47047" lon="4.00538">
        <ele>94</ele>
        <time>2018-09-26T10:01:14.000Z</time>
      </trkpt>
      <trkpt lat="50.4706" lon="4.00539">
        <ele>93</ele>
        <time>2018-09-26T10:01:16.000Z</time>
      </trkpt>
      <trkpt lat="50.47072" lon="4.00539">
        <ele>93</ele>
        <time>2018-09-26T10:01:18.000Z</time>
      </trkpt>
      <trkpt lat="50.47085" lon="4.00541">
        <ele>93</ele>
        <time>2018-09-26T10:01:20.000Z</time>
      </trkpt>
      <trkpt lat="50.47098" lon="4.00542">
        <ele>93</ele>
        <time>2018-09-26T10:01:22.000Z</time>
      </trkpt>
      <trkpt lat="50.47112" lon="4.00543">
        <ele>93</ele>
        <time>2018-09-26T10:01:24.000Z</time>
      </trkpt>
      <trkpt lat="50.47127" lon="4.00544">
        <ele>93</ele>
        <time>2018-09-26T10:01:26.000Z</time>
      </trkpt>
      <trkpt lat="50.47143" lon="4.00545">
        <ele>91</ele>
        <time>2018-09-26T10:01:28.000Z</time>
      </trkpt>
      <trkpt lat="50.47159" lon="4.00545">
        <ele>89</ele>
        <time>2018-09-26T10:01:30.000Z</time>
      </trkpt>
      <trkpt lat="50.47174" lon="4.00545">
        <ele>88</ele>
        <time>2018-09-26T10:01:32.000Z</time>
      </trkpt>
      <trkpt lat="50.47192" lon="4.00545">
        <ele>86</ele>
        <time>2018-09-26T10:01:34.000Z</time>
      </trkpt>
      <trkpt lat="50.4721" lon="4.00544">
        <ele>86</ele>
        <time>2018-09-26T10:01:36.000Z</time>
      </trkpt>
      <trkpt lat="50.47227" lon="4.00543">
        <ele>87</ele>
        <time>2018-09-26T10:01:38.000Z</time>
      </trkpt>
      <trkpt lat="50.47246" lon="4.00545">
        <ele>87</ele>
        <time>2018-09-26T10:01:40.000Z</time>
      </trkpt>
      <trkpt lat="50.47265" lon="4.00547">
        <ele>87</ele>
        <time>2018-09-26T10:01:42.000Z</time>
      </trkpt>
      <trkpt lat="50.47285" lon="4.00553">
        <ele>87</ele>
        <time>2018-09-26T10:01:44.000Z</time>
      </trkpt>
      <trkpt lat="50.47305" lon="4.00562">
        <ele>87</ele>
        <time>2018-09-26T10:01:46.000Z</time>
      </trkpt>
      <trkpt lat="50.47324" lon="4.00571">
        <ele>87</ele>
        <time>2018-09-26T10:01:48.000Z</time>
      </trkpt>
      <trkpt lat="50.47341" lon="4.00581">
        <ele>86</ele>
        <time>2018-09-26T10:01:50.000Z</time>
      </trkpt>
      <trkpt lat="50.47358" lon="4.00589">
        <ele>86</ele>
        <time>2018-09-26T10:01:52.000Z</time>
      </trkpt>
      <trkpt lat="50.47374" lon="4.00596">
        <ele>85</ele>
        <time>2018-09-26T10:01:54.000Z</time>
      </trkpt>
      <trkpt lat="50.47388" lon="4.00603">
        <ele>86</ele>
        <time>2018-09-26T10:01:56.000Z</time>
      </trkpt>
      <trkpt lat="50.47401" lon="4.00609">
        <ele>85</ele>
        <time>2018-09-26T10:01:58.000Z</time>
      </trkpt>
      <trkpt lat="50.47412" lon="4.00618">
        <ele>85</ele>
        <time>2018-09-26T10:02:00.000Z</time>
      </trkpt>
      <trkpt lat="50.47424" lon="4.00622">
        <ele>85</ele>
        <time>2018-09-26T10:02:02.000Z</time>
      </trkpt>
      <trkpt lat="50.47437" lon="4.00626">
        <ele>84</ele>
        <time>2018-09-26T10:02:04.000Z</time>
      </trkpt>
      <trkpt lat="50.4745" lon="4.00632">
        <ele>84</ele>
        <time>2018-09-26T10:02:06.000Z</time>
      </trkpt>
      <trkpt lat="50.47463" lon="4.00638">
        <ele>83</ele>
        <time>2018-09-26T10:02:08.000Z</time>
      </trkpt>
      <trkpt lat="50.47476" lon="4.00645">
        <ele>82</ele>
        <time>2018-09-26T10:02:10.000Z</time>
      </trkpt>
      <trkpt lat="50.47488" lon="4.00654">
        <ele>82</ele>
        <time>2018-09-26T10:02:12.000Z</time>
      </trkpt>
      <trkpt lat="50.47499" lon="4.00666">
        <ele>81</ele>
        <time>2018-09-26T10:02:14.000Z</time>
      </trkpt>
      <trkpt lat="50.4751" lon="4.00679">
        <ele>82</ele>
        <time>2018-09-26T10:02:16.000Z</time>
      </trkpt>
      <trkpt lat="50.47519" lon="4.00695">
        <ele>82</ele>
        <time>2018-09-26T10:02:18.000Z</time>
      </trkpt>
      <trkpt lat="50.47527" lon="4.00711">
        <ele>82</ele>
        <time>2018-09-26T10:02:20.000Z</time>
      </trkpt>
      <trkpt lat="50.47536" lon="4.00727">
        <ele>83</ele>
        <time>2018-09-26T10:02:22.000Z</time>
      </trkpt>
      <trkpt lat="50.47546" lon="4.00741">
        <ele>83</ele>
        <time>2018-09-26T10:02:24.000Z</time>
      </trkpt>
      <trkpt lat="50.47556" lon="4.00755">
        <ele>83</ele>
        <time>2018-09-26T10:02:26.000Z</time>
      </trkpt>
      <trkpt lat="50.47565" lon="4.00768">
        <ele>83</ele>
        <time>2018-09-26T10:02:28.000Z</time>
      </trkpt>
      <trkpt lat="50.47576" lon="4.0078">
        <ele>83</ele>
        <time>2018-09-26T10:02:30.000Z</time>
      </trkpt>
      <trkpt lat="50.47587" lon="4.00791">
        <ele>83</ele>
        <time>2018-09-26T10:02:32.000Z</time>
      </trkpt>
      <trkpt lat="50.47597" lon="4.00802">
        <ele>83</ele>
        <time>2018-09-26T10:02:34.000Z</time>
      </trkpt>
      <trkpt lat="50.47607" lon="4.00813">
        <ele>83</ele>
        <time>2018-09-26T10:02:36.000Z</time>
      </trkpt>
      <trkpt lat="50.47618" lon="4.00826">
        <ele>83</ele>
        <time>2018-09-26T10:02:38.000Z</time>
      </trkpt>
      <trkpt lat="50.47629" lon="4.00837">
        <ele>84</ele>
        <time>2018-09-26T10:02:40.000Z</time>
      </trkpt>
      <trkpt lat="50.4764" lon="4.00847">
        <ele>85</ele>
        <time>2018-09-26T10:02:42.000Z</time>
      </trkpt>
      <trkpt lat="50.47651" lon="4.00859">
        <ele>85</ele>
        <time>2018-09-26T10:02:44.000Z</time>
      </trkpt>
      <trkpt lat="50.47661" lon="4.0087">
        <ele>86</ele>
        <time>2018-09-26T10:02:46.000Z</time>
      </trkpt>
      <trkpt lat="50.47672" lon="4.00881">
        <ele>86</ele>
        <time>2018-09-26T10:02:48.000Z</time>
      </trkpt>
      <trkpt lat="50.47684" lon="4.00892">
        <ele>87</ele>
        <time>2018-09-26T10:02:50.000Z</time>
      </trkpt>
      <trkpt lat="50.47695" lon="4.00902">
        <ele>87</ele>
        <time>2018-09-26T10:02:52.000Z</time>
      </trkpt>
      <trkpt lat="50.47707" lon="4.00911">
        <ele>87</ele>
        <time>2018-09-26T10:02:54.000Z</time>
      </trkpt>
      <trkpt lat="50.47718" lon="4.00907">
        <ele>86</ele>
        <time>2018-09-26T10:02:56.000Z</time>
      </trkpt>
      <trkpt lat="50.47726" lon="4.00892">
        <ele>87</ele>
        <time>2018-09-26T10:02:58.000Z</time>
      </trkpt>
      <trkpt lat="50.47733" lon="4.00876">
        <ele>87</ele>
        <time>2018-09-26T10:03:00.000Z</time>
      </trkpt>
      <trkpt lat="50.47738" lon="4.0086">
        <ele>87</ele>
        <time>2018-09-26T10:03:02.000Z</time>
      </trkpt>
      <trkpt lat="50.47744" lon="4.00845">
        <ele>87</ele>
        <time>2018-09-26T10:03:04.000Z</time>
      </trkpt>
      <trkpt lat="50.4775" lon="4.0083">
        <ele>87</ele>
        <time>2018-09-26T10:03:06.000Z</time>
      </trkpt>
      <trkpt lat="50.47757" lon="4.00815">
        <ele>87</ele>
        <time>2018-09-26T10:03:08.000Z</time>
      </trkpt>
      <trkpt lat="50.47763" lon="4.00801">
        <ele>86</ele>
        <time>2018-09-26T10:03:10.000Z</time>
      </trkpt>
      <trkpt lat="50.47769" lon="4.00786">
        <ele>86</ele>
        <time>2018-09-26T10:03:12.000Z</time>
      </trkpt>
      <trkpt lat="50.47775" lon="4.00772">
        <ele>86</ele>
        <time>2018-09-26T10:03:14.000Z</time>
      </trkpt>
      <trkpt lat="50.4778" lon="4.00757">
        <ele>86</ele>
        <time>2018-09-26T10:03:16.000Z</time>
      </trkpt>
      <trkpt lat="50.47785" lon="4.00742">
        <ele>86</ele>
        <time>2018-09-26T10:03:18.000Z</time>
      </trkpt>
      <trkpt lat="50.4779" lon="4.00728">
        <ele>87</ele>
        <time>2018-09-26T10:03:20.000Z</time>
      </trkpt>
      <trkpt lat="50.47794" lon="4.00715">
        <ele>88</ele>
        <time>2018-09-26T10:03:22.000Z</time>
      </trkpt>
      <trkpt lat="50.47798" lon="4.00703">
        <ele>89</ele>
        <time>2018-09-26T10:03:24.000Z</time>
      </trkpt>
      <trkpt lat="50.47801" lon="4.00692">
        <ele>90</ele>
        <time>2018-09-26T10:03:26.000Z</time>
      </trkpt>
      <trkpt lat="50.47805" lon="4.00683">
        <ele>91</ele>
        <time>2018-09-26T10:03:28.000Z</time>
      </trkpt>
      <trkpt lat="50.47809" lon="4.00674">
        <ele>90</ele>
        <time>2018-09-26T10:03:30.000Z</time>
      </trkpt>
      <trkpt lat="50.47814" lon="4.00666">
        <ele>90</ele>
        <time>2018-09-26T10:03:32.000Z</time>
      </trkpt>
      <trkpt lat="50.47818" lon="4.00657">
        <ele>90</ele>
        <time>2018-09-26T10:03:34.000Z</time>
      </trkpt>
      <trkpt lat="50.47823" lon="4.00647">
        <ele>90</ele>
        <time>2018-09-26T10:03:36.000Z</time>
      </trkpt>
      <trkpt lat="50.47828" lon="4.00638">
        <ele>90</ele>
        <time>2018-09-26T10:03:38.000Z</time>
      </trkpt>
      <trkpt lat="50.47834" lon="4.00632">
        <ele>90</ele>
        <time>2018-09-26T10:03:40.000Z</time>
      </trkpt>
      <trkpt lat="50.47841" lon="4.00628">
        <ele>90</ele>
        <time>2018-09-26T10:03:42.000Z</time>
      </trkpt>
      <trkpt lat="50.47848" lon="4.00624">
        <ele>90</ele>
        <time>2018-09-26T10:03:44.000Z</time>
      </trkpt>
      <trkpt lat="50.47855" lon="4.0062">
        <ele>90</ele>
        <time>2018-09-26T10:03:46.000Z</time>
      </trkpt>
      <trkpt lat="50.47863" lon="4.00617">
        <ele>89</ele>
        <time>2018-09-26T10:03:48.000Z</time>
      </trkpt>
      <trkpt lat="50.47871" lon="4.00615">
        <ele>89</ele>
        <time>2018-09-26T10:03:50.000Z</time>
      </trkpt>
      <trkpt lat="50.47878" lon="4.00614">
        <ele>90</ele>
        <time>2018-09-26T10:03:52.000Z</time>
      </trkpt>
      <trkpt lat="50.47886" lon="4.00611">
        <ele>90</ele>
        <time>2018-09-26T10:03:54.000Z</time>
      </trkpt>
      <trkpt lat="50.47892" lon="4.00608">
        <ele>91</ele>
        <time>2018-09-26T10:03:56.000Z</time>
      </trkpt>
      <trkpt lat="50.47898" lon="4.00604">
        <ele>92</ele>
        <time>2018-09-26T10:03:58.000Z</time>
      </trkpt>
      <trkpt lat="50.47904" lon="4.00599">
        <ele>92</ele>
        <time>2018-09-26T10:04:00.000Z</time>
      </trkpt>
      <trkpt lat="50.4791" lon="4.00594">
        <ele>92</ele>
        <time>2018-09-26T10:04:02.000Z</time>
      </trkpt>
      <trkpt lat="50.47917" lon="4.00587">
        <ele>92</ele>
        <time>2018-09-26T10:04:04.000Z</time>
      </trkpt>
      <trkpt lat="50.47924" lon="4.0058">
        <ele>93</ele>
        <time>2018-09-26T10:04:06.000Z</time>
      </trkpt>
      <trkpt lat="50.4793" lon="4.00574">
        <ele>93</ele>
        <time>2018-09-26T10:04:08.000Z</time>
      </trkpt>
      <trkpt lat="50.47936" lon="4.00568">
        <ele>93</ele>
        <time>2018-09-26T10:04:10.000Z</time>
      </trkpt>
      <trkpt lat="50.47943" lon="4.00561">
        <ele>94</ele>
        <time>2018-09-26T10:04:12.000Z</time>
      </trkpt>
      <trkpt lat="50.47949" lon="4.00557">
        <ele>94</ele>
        <time>2018-09-26T10:04:14.000Z</time>
      </trkpt>
      <trkpt lat="50.47956" lon="4.00554">
        <ele>96</ele>
        <time>2018-09-26T10:04:16.000Z</time>
      </trkpt>
      <trkpt lat="50.47962" lon="4.00551">
        <ele>96</ele>
        <time>2018-09-26T10:04:18.000Z</time>
      </trkpt>
      <trkpt lat="50.47969" lon="4.00548">
        <ele>96</ele>
        <time>2018-09-26T10:04:20.000Z</time>
      </trkpt>
      <trkpt lat="50.47976" lon="4.00545">
        <ele>96</ele>
        <time>2018-09-26T10:04:22.000Z</time>
      </trkpt>
      <trkpt lat="50.47983" lon="4.00542">
        <ele>96</ele>
        <time>2018-09-26T10:04:24.000Z</time>
      </trkpt>
      <trkpt lat="50.47991" lon="4.0054">
        <ele>96</ele>
        <time>2018-09-26T10:04:26.000Z</time>
      </trkpt>
      <trkpt lat="50.47998" lon="4.00538">
        <ele>97</ele>
        <time>2018-09-26T10:04:28.000Z</time>
      </trkpt>
      <trkpt lat="50.48006" lon="4.00535">
        <ele>97</ele>
        <time>2018-09-26T10:04:30.000Z</time>
      </trkpt>
      <trkpt lat="50.48013" lon="4.00532">
        <ele>97</ele>
        <time>2018-09-26T10:04:32.000Z</time>
      </trkpt>
      <trkpt lat="50.48021" lon="4.00529">
        <ele>97</ele>
        <time>2018-09-26T10:04:34.000Z</time>
      </trkpt>
      <trkpt lat="50.48029" lon="4.00527">
        <ele>98</ele>
        <time>2018-09-26T10:04:36.000Z</time>
      </trkpt>
      <trkpt lat="50.48035" lon="4.00524">
        <ele>98</ele>
        <time>2018-09-26T10:04:38.000Z</time>
      </trkpt>
      <trkpt lat="50.48043" lon="4.00521">
        <ele>99</ele>
        <time>2018-09-26T10:04:40.000Z</time>
      </trkpt>
      <trkpt lat="50.4805" lon="4.00517">
        <ele>99</ele>
        <time>2018-09-26T10:04:42.000Z</time>
      </trkpt>
      <trkpt lat="50.48056" lon="4.00512">
        <ele>98</ele>
        <time>2018-09-26T10:04:44.000Z</time>
      </trkpt>
      <trkpt lat="50.48064" lon="4.00507">
        <ele>99</ele>
        <time>2018-09-26T10:04:46.000Z</time>
      </trkpt>
      <trkpt lat="50.48071" lon="4.005">
        <ele>100</ele>
        <time>2018-09-26T10:04:48.000Z</time>
      </trkpt>
      <trkpt lat="50.48077" lon="4.00494">
        <ele>100</ele>
        <time>2018-09-26T10:04:50.000Z</time>
      </trkpt>
      <trkpt lat="50.48085" lon="4.00489">
        <ele>100</ele>
        <time>2018-09-26T10:04:52.000Z</time>
      </trkpt>
      <trkpt lat="50.48092" lon="4.00483">
        <ele>101</ele>
        <time>2018-09-26T10:04:54.000Z</time>
      </trkpt>
      <trkpt lat="50.481" lon="4.00477">
        <ele>101</ele>
        <time>2018-09-26T10:04:56.000Z</time>
      </trkpt>
      <trkpt lat="50.48108" lon="4.00469">
        <ele>101</ele>
        <time>2018-09-26T10:04:58.000Z</time>
      </trkpt>
      <trkpt lat="50.48116" lon="4.00462">
        <ele>101</ele>
        <time>2018-09-26T10:05:00.000Z</time>
      </trkpt>
      <trkpt lat="50.48124" lon="4.00456">
        <ele>102</ele>
        <time>2018-09-26T10:05:02.000Z</time>
      </trkpt>
      <trkpt lat="50.48133" lon="4.00449">
        <ele>102</ele>
        <time>2018-09-26T10:05:04.000Z</time>
      </trkpt>
      <trkpt lat="50.48143" lon="4.00442">
        <ele>102</ele>
        <time>2018-09-26T10:05:06.000Z</time>
      </trkpt>
      <trkpt lat="50.48153" lon="4.00433">
        <ele>102</ele>
        <time>2018-09-26T10:05:08.000Z</time>
      </trkpt>
      <trkpt lat="50.48164" lon="4.00424">
        <ele>103</ele>
        <time>2018-09-26T10:05:10.000Z</time>
      </trkpt>
      <trkpt lat="50.48175" lon="4.00416">
        <ele>103</ele>
        <time>2018-09-26T10:05:12.000Z</time>
      </trkpt>
      <trkpt lat="50.48186" lon="4.00406">
        <ele>102</ele>
        <time>2018-09-26T10:05:14.000Z</time>
      </trkpt>
      <trkpt lat="50.48199" lon="4.00397">
        <ele>103</ele>
        <time>2018-09-26T10:05:16.000Z</time>
      </trkpt>
      <trkpt lat="50.48211" lon="4.00388">
        <ele>103</ele>
        <time>2018-09-26T10:05:18.000Z</time>
      </trkpt>
      <trkpt lat="50.48223" lon="4.00379">
        <ele>103</ele>
        <time>2018-09-26T10:05:20.000Z</time>
      </trkpt>
      <trkpt lat="50.48235" lon="4.00369">
        <ele>103</ele>
        <time>2018-09-26T10:05:22.000Z</time>
      </trkpt>
      <trkpt lat="50.48248" lon="4.00358">
        <ele>103</ele>
        <time>2018-09-26T10:05:24.000Z</time>
      </trkpt>
      <trkpt lat="50.4826" lon="4.00347">
        <ele>103</ele>
        <time>2018-09-26T10:05:26.000Z</time>
      </trkpt>
      <trkpt lat="50.48273" lon="4.00336">
        <ele>102</ele>
        <time>2018-09-26T10:05:28.000Z</time>
      </trkpt>
      <trkpt lat="50.48287" lon="4.00325">
        <ele>102</ele>
        <time>2018-09-26T10:05:30.000Z</time>
      </trkpt>
      <trkpt lat="50.483" lon="4.00315">
        <ele>102</ele>
        <time>2018-09-26T10:05:32.000Z</time>
      </trkpt>
      <trkpt lat="50.48314" lon="4.00305">
        <ele>101</ele>
        <time>2018-09-26T10:05:34.000Z</time>
      </trkpt>
      <trkpt lat="50.48326" lon="4.00297">
        <ele>101</ele>
        <time>2018-09-26T10:05:36.000Z</time>
      </trkpt>
      <trkpt lat="50.48338" lon="4.00289">
        <ele>101</ele>
        <time>2018-09-26T10:05:38.000Z</time>
      </trkpt>
      <trkpt lat="50.48351" lon="4.00283">
        <ele>101</ele>
        <time>2018-09-26T10:05:40.000Z</time>
      </trkpt>
      <trkpt lat="50.48365" lon="4.00276">
        <ele>101</ele>
        <time>2018-09-26T10:05:42.000Z</time>
      </trkpt>
      <trkpt lat="50.48378" lon="4.00269">
        <ele>101</ele>
        <time>2018-09-26T10:05:44.000Z</time>
      </trkpt>
      <trkpt lat="50.48391" lon="4.00263">
        <ele>102</ele>
        <time>2018-09-26T10:05:46.000Z</time>
      </trkpt>
      <trkpt lat="50.48403" lon="4.00256">
        <ele>103</ele>
        <time>2018-09-26T10:05:48.000Z</time>
      </trkpt>
      <trkpt lat="50.48415" lon="4.0025">
        <ele>104</ele>
        <time>2018-09-26T10:05:50.000Z</time>
      </trkpt>
      <trkpt lat="50.48428" lon="4.00246">
        <ele>105</ele>
        <time>2018-09-26T10:05:52.000Z</time>
      </trkpt>
      <trkpt lat="50.48439" lon="4.0024">
        <ele>105</ele>
        <time>2018-09-26T10:05:54.000Z</time>
      </trkpt>
      <trkpt lat="50.48452" lon="4.00236">
        <ele>105</ele>
        <time>2018-09-26T10:05:56.000Z</time>
      </trkpt>
      <trkpt lat="50.48464" lon="4.00234">
        <ele>105</ele>
        <time>2018-09-26T10:05:58.000Z</time>
      </trkpt>
      <trkpt lat="50.48477" lon="4.00232">
        <ele>104</ele>
        <time>2018-09-26T10:06:00.000Z</time>
      </trkpt>
      <trkpt lat="50.48489" lon="4.00229">
        <ele>103</ele>
        <time>2018-09-26T10:06:02.000Z</time>
      </trkpt>
      <trkpt lat="50.485" lon="4.00227">
        <ele>103</ele>
        <time>2018-09-26T10:06:04.000Z</time>
      </trkpt>
      <trkpt lat="50.48512" lon="4.00224">
        <ele>103</ele>
        <time>2018-09-26T10:06:06.000Z</time>
      </trkpt>
      <trkpt lat="50.48523" lon="4.00222">
        <ele>103</ele>
        <time>2018-09-26T10:06:08.000Z</time>
      </trkpt>
      <trkpt lat="50.48534" lon="4.00221">
        <ele>102</ele>
        <time>2018-09-26T10:06:10.000Z</time>
      </trkpt>
      <trkpt lat="50.48545" lon="4.0022">
        <ele>101</ele>
        <time>2018-09-26T10:06:12.000Z</time>
      </trkpt>
      <trkpt lat="50.48556" lon="4.0022">
        <ele>101</ele>
        <time>2018-09-26T10:06:14.000Z</time>
      </trkpt>
      <trkpt lat="50.48567" lon="4.00218">
        <ele>102</ele>
        <time>2018-09-26T10:06:16.000Z</time>
      </trkpt>
      <trkpt lat="50.48578" lon="4.00214">
        <ele>103</ele>
        <time>2018-09-26T10:06:18.000Z</time>
      </trkpt>
      <trkpt lat="50.48589" lon="4.00213">
        <ele>103</ele>
        <time>2018-09-26T10:06:20.000Z</time>
      </trkpt>
      <trkpt lat="50.486" lon="4.00213">
        <ele>104</ele>
        <time>2018-09-26T10:06:22.000Z</time>
      </trkpt>
      <trkpt lat="50.4861" lon="4.00211">
        <ele>104</ele>
        <time>2018-09-26T10:06:24.000Z</time>
      </trkpt>
      <trkpt lat="50.48621" lon="4.00211">
        <ele>105</ele>
        <time>2018-09-26T10:06:26.000Z</time>
      </trkpt>
      <trkpt lat="50.48631" lon="4.00209">
        <ele>105</ele>
        <time>2018-09-26T10:06:28.000Z</time>
      </trkpt>
      <trkpt lat="50.48642" lon="4.00207">
        <ele>105</ele>
        <time>2018-09-26T10:06:30.000Z</time>
      </trkpt>
      <trkpt lat="50.48653" lon="4.00205">
        <ele>105</ele>
        <time>2018-09-26T10:06:32.000Z</time>
      </trkpt>
      <trkpt lat="50.48664" lon="4.00203">
        <ele>106</ele>
        <time>2018-09-26T10:06:34.000Z</time>
      </trkpt>
      <trkpt lat="50.48674" lon="4.00202">
        <ele>106</ele>
        <time>2018-09-26T10:06:36.000Z</time>
      </trkpt>
      <trkpt lat="50.48685" lon="4.00201">
        <ele>106</ele>
        <time>2018-09-26T10:06:38.000Z</time>
      </trkpt>
      <trkpt lat="50.48696" lon="4.00199">
        <ele>107</ele>
        <time>2018-09-26T10:06:40.000Z</time>
      </trkpt>
      <trkpt lat="50.48708" lon="4.00199">
        <ele>107</ele>
        <time>2018-09-26T10:06:42.000Z</time>
      </trkpt>
      <trkpt lat="50.48719" lon="4.00197">
        <ele>107</ele>
        <time>2018-09-26T10:06:44.000Z</time>
      </trkpt>
      <trkpt lat="50.4873" lon="4.00195">
        <ele>107</ele>
        <time>2018-09-26T10:06:46.000Z</time>
      </trkpt>
      <trkpt lat="50.4874" lon="4.00193">
        <ele>107</ele>
        <time>2018-09-26T10:06:48.000Z</time>
      </trkpt>
      <trkpt lat="50.48751" lon="4.00191">
        <ele>107</ele>
        <time>2018-09-26T10:06:50.000Z</time>
      </trkpt>
      <trkpt lat="50.48761" lon="4.00191">
        <ele>108</ele>
        <time>2018-09-26T10:06:52.000Z</time>
      </trkpt>
      <trkpt lat="50.48773" lon="4.00189">
        <ele>108</ele>
        <time>2018-09-26T10:06:54.000Z</time>
      </trkpt>
      <trkpt lat="50.48784" lon="4.00188">
        <ele>108</ele>
        <time>2018-09-26T10:06:56.000Z</time>
      </trkpt>
      <trkpt lat="50.48795" lon="4.00186">
        <ele>108</ele>
        <time>2018-09-26T10:06:58.000Z</time>
      </trkpt>
      <trkpt lat="50.48806" lon="4.00187">
        <ele>108</ele>
        <time>2018-09-26T10:07:00.000Z</time>
      </trkpt>
      <trkpt lat="50.48817" lon="4.00187">
        <ele>109</ele>
        <time>2018-09-26T10:07:02.000Z</time>
      </trkpt>
      <trkpt lat="50.48829" lon="4.00187">
        <ele>109</ele>
        <time>2018-09-26T10:07:04.000Z</time>
      </trkpt>
      <trkpt lat="50.48841" lon="4.00187">
        <ele>110</ele>
        <time>2018-09-26T10:07:06.000Z</time>
      </trkpt>
      <trkpt lat="50.48853" lon="4.00187">
        <ele>110</ele>
        <time>2018-09-26T10:07:08.000Z</time>
      </trkpt>
      <trkpt lat="50.48865" lon="4.00188">
        <ele>110</ele>
        <time>2018-09-26T10:07:10.000Z</time>
      </trkpt>
      <trkpt lat="50.48877" lon="4.00188">
        <ele>110</ele>
        <time>2018-09-26T10:07:12.000Z</time>
      </trkpt>
      <trkpt lat="50.48888" lon="4.0019">
        <ele>110</ele>
        <time>2018-09-26T10:07:14.000Z</time>
      </trkpt>
      <trkpt lat="50.48899" lon="4.00191">
        <ele>110</ele>
        <time>2018-09-26T10:07:16.000Z</time>
      </trkpt>
      <trkpt lat="50.48911" lon="4.00194">
        <ele>110</ele>
        <time>2018-09-26T10:07:18.000Z</time>
      </trkpt>
      <trkpt lat="50.48923" lon="4.00196">
        <ele>110</ele>
        <time>2018-09-26T10:07:20.000Z</time>
      </trkpt>
      <trkpt lat="50.48934" lon="4.00198">
        <ele>111</ele>
        <time>2018-09-26T10:07:22.000Z</time>
      </trkpt>
      <trkpt lat="50.48946" lon="4.00202">
        <ele>111</ele>
        <time>2018-09-26T10:07:24.000Z</time>
      </trkpt>
      <trkpt lat="50.48958" lon="4.00204">
        <ele>111</ele>
        <time>2018-09-26T10:07:26.000Z</time>
      </trkpt>
      <trkpt lat="50.4897" lon="4.00208">
        <ele>111</ele>
        <time>2018-09-26T10:07:28.000Z</time>
      </trkpt>
      <trkpt lat="50.48982" lon="4.00211">
        <ele>111</ele>
        <time>2018-09-26T10:07:30.000Z</time>
      </trkpt>
      <trkpt lat="50.48994" lon="4.00214">
        <ele>111</ele>
        <time>2018-09-26T10:07:32.000Z</time>
      </trkpt>
      <trkpt lat="50.49005" lon="4.00218">
        <ele>111</ele>
        <time>2018-09-26T10:07:34.000Z</time>
      </trkpt>
      <trkpt lat="50.49017" lon="4.00223">
        <ele>110</ele>
        <time>2018-09-26T10:07:36.000Z</time>
      </trkpt>
      <trkpt lat="50.49028" lon="4.00227">
        <ele>111</ele>
        <time>2018-09-26T10:07:38.000Z</time>
      </trkpt>
      <trkpt lat="50.49039" lon="4.00233">
        <ele>111</ele>
        <time>2018-09-26T10:07:40.000Z</time>
      </trkpt>
      <trkpt lat="50.4905" lon="4.00238">
        <ele>111</ele>
        <time>2018-09-26T10:07:42.000Z</time>
      </trkpt>
      <trkpt lat="50.49061" lon="4.00244">
        <ele>111</ele>
        <time>2018-09-26T10:07:44.000Z</time>
      </trkpt>
      <trkpt lat="50.49072" lon="4.00251">
        <ele>112</ele>
        <time>2018-09-26T10:07:46.000Z</time>
      </trkpt>
      <trkpt lat="50.49083" lon="4.00257">
        <ele>112</ele>
        <time>2018-09-26T10:07:48.000Z</time>
      </trkpt>
      <trkpt lat="50.49095" lon="4.00264">
        <ele>112</ele>
        <time>2018-09-26T10:07:50.000Z</time>
      </trkpt>
      <trkpt lat="50.49106" lon="4.0027">
        <ele>113</ele>
        <time>2018-09-26T10:07:52.000Z</time>
      </trkpt>
      <trkpt lat="50.49117" lon="4.00276">
        <ele>113</ele>
        <time>2018-09-26T10:07:54.000Z</time>
      </trkpt>
      <trkpt lat="50.49129" lon="4.00283">
        <ele>113</ele>
        <time>2018-09-26T10:07:56.000Z</time>
      </trkpt>
      <trkpt lat="50.49141" lon="4.00289">
        <ele>114</ele>
        <time>2018-09-26T10:07:58.000Z</time>
      </trkpt>
      <trkpt lat="50.49152" lon="4.00294">
        <ele>115</ele>
        <time>2018-09-26T10:08:00.000Z</time>
      </trkpt>
      <trkpt lat="50.49163" lon="4.003">
        <ele>115</ele>
        <time>2018-09-26T10:08:02.000Z</time>
      </trkpt>
      <trkpt lat="50.49174" lon="4.00305">
        <ele>115</ele>
        <time>2018-09-26T10:08:04.000Z</time>
      </trkpt>
      <trkpt lat="50.49185" lon="4.00311">
        <ele>115</ele>
        <time>2018-09-26T10:08:06.000Z</time>
      </trkpt>
      <trkpt lat="50.49197" lon="4.00319">
        <ele>115</ele>
        <time>2018-09-26T10:08:08.000Z</time>
      </trkpt>
      <trkpt lat="50.49209" lon="4.00324">
        <ele>115</ele>
        <time>2018-09-26T10:08:10.000Z</time>
      </trkpt>
      <trkpt lat="50.49221" lon="4.0033">
        <ele>116</ele>
        <time>2018-09-26T10:08:12.000Z</time>
      </trkpt>
      <trkpt lat="50.49233" lon="4.00336">
        <ele>116</ele>
        <time>2018-09-26T10:08:14.000Z</time>
      </trkpt>
      <trkpt lat="50.49245" lon="4.00342">
        <ele>116</ele>
        <time>2018-09-26T10:08:16.000Z</time>
      </trkpt>
      <trkpt lat="50.49257" lon="4.00348">
        <ele>117</ele>
        <time>2018-09-26T10:08:18.000Z</time>
      </trkpt>
      <trkpt lat="50.49269" lon="4.00354">
        <ele>117</ele>
        <time>2018-09-26T10:08:20.000Z</time>
      </trkpt>
      <trkpt lat="50.49281" lon="4.00361">
        <ele>118</ele>
        <time>2018-09-26T10:08:22.000Z</time>
      </trkpt>
      <trkpt lat="50.49294" lon="4.00367">
        <ele>119</ele>
        <time>2018-09-26T10:08:24.000Z</time>
      </trkpt>
      <trkpt lat="50.49306" lon="4.00374">
        <ele>120</ele>
        <time>2018-09-26T10:08:26.000Z</time>
      </trkpt>
      <trkpt lat="50.49318" lon="4.00379">
        <ele>120</ele>
        <time>2018-09-26T10:08:28.000Z</time>
      </trkpt>
      <trkpt lat="50.49329" lon="4.00386">
        <ele>121</ele>
        <time>2018-09-26T10:08:30.000Z</time>
      </trkpt>
      <trkpt lat="50.49341" lon="4.00392">
        <ele>121</ele>
        <time>2018-09-26T10:08:32.000Z</time>
      </trkpt>
      <trkpt lat="50.49353" lon="4.00398">
        <ele>121</ele>
        <time>2018-09-26T10:08:34.000Z</time>
      </trkpt>
      <trkpt lat="50.49365" lon="4.00404">
        <ele>121</ele>
        <time>2018-09-26T10:08:36.000Z</time>
      </trkpt>
      <trkpt lat="50.49377" lon="4.0041">
        <ele>121</ele>
        <time>2018-09-26T10:08:38.000Z</time>
      </trkpt>
      <trkpt lat="50.49388" lon="4.00416">
        <ele>122</ele>
        <time>2018-09-26T10:08:40.000Z</time>
      </trkpt>
      <trkpt lat="50.494" lon="4.00422">
        <ele>122</ele>
        <time>2018-09-26T10:08:42.000Z</time>
      </trkpt>
      <trkpt lat="50.49411" lon="4.00428">
        <ele>122</ele>
        <time>2018-09-26T10:08:44.000Z</time>
      </trkpt>
      <trkpt lat="50.49422" lon="4.00433">
        <ele>122</ele>
        <time>2018-09-26T10:08:46.000Z</time>
      </trkpt>
      <trkpt lat="50.49434" lon="4.00437">
        <ele>122</ele>
        <time>2018-09-26T10:08:48.000Z</time>
      </trkpt>
      <trkpt lat="50.49443" lon="4.00443">
        <ele>122</ele>
        <time>2018-09-26T10:08:50.000Z</time>
      </trkpt>
      <trkpt lat="50.49453" lon="4.00449">
        <ele>123</ele>
        <time>2018-09-26T10:08:52.000Z</time>
      </trkpt>
      <trkpt lat="50.49462" lon="4.00455">
        <ele>123</ele>
        <time>2018-09-26T10:08:54.000Z</time>
      </trkpt>
      <trkpt lat="50.4947" lon="4.00458">
        <ele>125</ele>
        <time>2018-09-26T10:08:56.000Z</time>
      </trkpt>
      <trkpt lat="50.49478" lon="4.00461">
        <ele>125</ele>
        <time>2018-09-26T10:08:58.000Z</time>
      </trkpt>
      <trkpt lat="50.49487" lon="4.00465">
        <ele>126</ele>
        <time>2018-09-26T10:09:00.000Z</time>
      </trkpt>
      <trkpt lat="50.49495" lon="4.0047">
        <ele>126</ele>
        <time>2018-09-26T10:09:02.000Z</time>
      </trkpt>
      <trkpt lat="50.49505" lon="4.00477">
        <ele>126</ele>
        <time>2018-09-26T10:09:04.000Z</time>
      </trkpt>
      <trkpt lat="50.49514" lon="4.00482">
        <ele>127</ele>
        <time>2018-09-26T10:09:06.000Z</time>
      </trkpt>
      <trkpt lat="50.49523" lon="4.00487">
        <ele>128</ele>
        <time>2018-09-26T10:09:08.000Z</time>
      </trkpt>
      <trkpt lat="50.49532" lon="4.00493">
        <ele>128</ele>
        <time>2018-09-26T10:09:10.000Z</time>
      </trkpt>
      <trkpt lat="50.49542" lon="4.00497">
        <ele>127</ele>
        <time>2018-09-26T10:09:12.000Z</time>
      </trkpt>
      <trkpt lat="50.49549" lon="4.00502">
        <ele>128</ele>
        <time>2018-09-26T10:09:14.000Z</time>
      </trkpt>
      <trkpt lat="50.49558" lon="4.00507">
        <ele>128</ele>
        <time>2018-09-26T10:09:16.000Z</time>
      </trkpt>
      <trkpt lat="50.49566" lon="4.00512">
        <ele>128</ele>
        <time>2018-09-26T10:09:18.000Z</time>
      </trkpt>
      <trkpt lat="50.49574" lon="4.00515">
        <ele>129</ele>
        <time>2018-09-26T10:09:20.000Z</time>
      </trkpt>
      <trkpt lat="50.49581" lon="4.00517">
        <ele>129</ele>
        <time>2018-09-26T10:09:22.000Z</time>
      </trkpt>
      <trkpt lat="50.49589" lon="4.00519">
        <ele>128</ele>
        <time>2018-09-26T10:09:24.000Z</time>
      </trkpt>
      <trkpt lat="50.49596" lon="4.00522">
        <ele>127</ele>
        <time>2018-09-26T10:09:26.000Z</time>
      </trkpt>
      <trkpt lat="50.49603" lon="4.00526">
        <ele>127</ele>
        <time>2018-09-26T10:09:28.000Z</time>
      </trkpt>
      <trkpt lat="50.49611" lon="4.0053">
        <ele>127</ele>
        <time>2018-09-26T10:09:30.000Z</time>
      </trkpt>
      <trkpt lat="50.4962" lon="4.00533">
        <ele>127</ele>
        <time>2018-09-26T10:09:32.000Z</time>
      </trkpt>
      <trkpt lat="50.49629" lon="4.00536">
        <ele>127</ele>
        <time>2018-09-26T10:09:34.000Z</time>
      </trkpt>
      <trkpt lat="50.49637" lon="4.0054">
        <ele>127</ele>
        <time>2018-09-26T10:09:36.000Z</time>
      </trkpt>
      <trkpt lat="50.49646" lon="4.00547">
        <ele>127</ele>
        <time>2018-09-26T10:09:38.000Z</time>
      </trkpt>
      <trkpt lat="50.49655" lon="4.00553">
        <ele>128</ele>
        <time>2018-09-26T10:09:40.000Z</time>
      </trkpt>
      <trkpt lat="50.49665" lon="4.00559">
        <ele>127</ele>
        <time>2018-09-26T10:09:42.000Z</time>
      </trkpt>
      <trkpt lat="50.49675" lon="4.00566">
        <ele>127</ele>
        <time>2018-09-26T10:09:44.000Z</time>
      </trkpt>
      <trkpt lat="50.49685" lon="4.00574">
        <ele>127</ele>
        <time>2018-09-26T10:09:46.000Z</time>
      </trkpt>
      <trkpt lat="50.49695" lon="4.00581">
        <ele>128</ele>
        <time>2018-09-26T10:09:48.000Z</time>
      </trkpt>
      <trkpt lat="50.49704" lon="4.00589">
        <ele>128</ele>
        <time>2018-09-26T10:09:50.000Z</time>
      </trkpt>
      <trkpt lat="50.49713" lon="4.00596">
        <ele>127</ele>
        <time>2018-09-26T10:09:52.000Z</time>
      </trkpt>
      <trkpt lat="50.49721" lon="4.00604">
        <ele>128</ele>
        <time>2018-09-26T10:09:54.000Z</time>
      </trkpt>
      <trkpt lat="50.4973" lon="4.00614">
        <ele>127</ele>
        <time>2018-09-26T10:09:56.000Z</time>
      </trkpt>
      <trkpt lat="50.4974" lon="4.00625">
        <ele>127</ele>
        <time>2018-09-26T10:09:58.000Z</time>
      </trkpt>
      <trkpt lat="50.49748" lon="4.00636">
        <ele>126</ele>
        <time>2018-09-26T10:10:00.000Z</time>
      </trkpt>
      <trkpt lat="50.49754" lon="4.00646">
        <ele>126</ele>
        <time>2018-09-26T10:10:02.000Z</time>
      </trkpt>
      <trkpt lat="50.49759" lon="4.00651">
        <ele>129</ele>
        <time>2018-09-26T10:10:04.000Z</time>
      </trkpt>
      <trkpt lat="50.49765" lon="4.00655">
        <ele>133</ele>
        <time>2018-09-26T10:10:06.000Z</time>
      </trkpt>
      <trkpt lat="50.49774" lon="4.00654">
        <ele>131</ele>
        <time>2018-09-26T10:10:08.000Z</time>
      </trkpt>
      <trkpt lat="50.49782" lon="4.00646">
        <ele>130</ele>
        <time>2018-09-26T10:10:10.000Z</time>
      </trkpt>
      <trkpt lat="50.4979" lon="4.00636">
        <ele>130</ele>
        <time>2018-09-26T10:10:12.000Z</time>
      </trkpt>
      <trkpt lat="50.49799" lon="4.00625">
        <ele>130</ele>
        <time>2018-09-26T10:10:14.000Z</time>
      </trkpt>
      <trkpt lat="50.49807" lon="4.00613">
        <ele>130</ele>
        <time>2018-09-26T10:10:16.000Z</time>
      </trkpt>
      <trkpt lat="50.49815" lon="4.00603">
        <ele>130</ele>
        <time>2018-09-26T10:10:18.000Z</time>
      </trkpt>
      <trkpt lat="50.49824" lon="4.0059">
        <ele>131</ele>
        <time>2018-09-26T10:10:20.000Z</time>
      </trkpt>
      <trkpt lat="50.49833" lon="4.00578">
        <ele>131</ele>
        <time>2018-09-26T10:10:22.000Z</time>
      </trkpt>
      <trkpt lat="50.49842" lon="4.00566">
        <ele>131</ele>
        <time>2018-09-26T10:10:24.000Z</time>
      </trkpt>
      <trkpt lat="50.49851" lon="4.00554">
        <ele>131</ele>
        <time>2018-09-26T10:10:26.000Z</time>
      </trkpt>
      <trkpt lat="50.49862" lon="4.00543">
        <ele>131</ele>
        <time>2018-09-26T10:10:28.000Z</time>
      </trkpt>
      <trkpt lat="50.49872" lon="4.00529">
        <ele>130</ele>
        <time>2018-09-26T10:10:30.000Z</time>
      </trkpt>
      <trkpt lat="50.49883" lon="4.00514">
        <ele>130</ele>
        <time>2018-09-26T10:10:32.000Z</time>
      </trkpt>
      <trkpt lat="50.49893" lon="4.00499">
        <ele>130</ele>
        <time>2018-09-26T10:10:34.000Z</time>
      </trkpt>
      <trkpt lat="50.49904" lon="4.00484">
        <ele>130</ele>
        <time>2018-09-26T10:10:36.000Z</time>
      </trkpt>
      <trkpt lat="50.49916" lon="4.00469">
        <ele>130</ele>
        <time>2018-09-26T10:10:38.000Z</time>
      </trkpt>
      <trkpt lat="50.49928" lon="4.00453">
        <ele>131</ele>
        <time>2018-09-26T10:10:40.000Z</time>
      </trkpt>
      <trkpt lat="50.49939" lon="4.00437">
        <ele>132</ele>
        <time>2018-09-26T10:10:42.000Z</time>
      </trkpt>
      <trkpt lat="50.4995" lon="4.00421">
        <ele>132</ele>
        <time>2018-09-26T10:10:44.000Z</time>
      </trkpt>
      <trkpt lat="50.49961" lon="4.00406">
        <ele>132</ele>
        <time>2018-09-26T10:10:46.000Z</time>
      </trkpt>
      <trkpt lat="50.49972" lon="4.00391">
        <ele>133</ele>
        <time>2018-09-26T10:10:48.000Z</time>
      </trkpt>
      <trkpt lat="50.49982" lon="4.00377">
        <ele>133</ele>
        <time>2018-09-26T10:10:50.000Z</time>
      </trkpt>
      <trkpt lat="50.49992" lon="4.00362">
        <ele>133</ele>
        <time>2018-09-26T10:10:52.000Z</time>
      </trkpt>
      <trkpt lat="50.50002" lon="4.00348">
        <ele>133</ele>
        <time>2018-09-26T10:10:54.000Z</time>
      </trkpt>
      <trkpt lat="50.50011" lon="4.00333">
        <ele>133</ele>
        <time>2018-09-26T10:10:56.000Z</time>
      </trkpt>
      <trkpt lat="50.50021" lon="4.00318">
        <ele>133</ele>
        <time>2018-09-26T10:10:58.000Z</time>
      </trkpt>
      <trkpt lat="50.5003" lon="4.00304">
        <ele>134</ele>
        <time>2018-09-26T10:11:00.000Z</time>
      </trkpt>
      <trkpt lat="50.50039" lon="4.00288">
        <ele>133</ele>
        <time>2018-09-26T10:11:02.000Z</time>
      </trkpt>
      <trkpt lat="50.50048" lon="4.00273">
        <ele>133</ele>
        <time>2018-09-26T10:11:04.000Z</time>
      </trkpt>
      <trkpt lat="50.50058" lon="4.00258">
        <ele>133</ele>
        <time>2018-09-26T10:11:06.000Z</time>
      </trkpt>
      <trkpt lat="50.50068" lon="4.00244">
        <ele>133</ele>
        <time>2018-09-26T10:11:08.000Z</time>
      </trkpt>
      <trkpt lat="50.50077" lon="4.00229">
        <ele>132</ele>
        <time>2018-09-26T10:11:10.000Z</time>
      </trkpt>
      <trkpt lat="50.50087" lon="4.00215">
        <ele>132</ele>
        <time>2018-09-26T10:11:12.000Z</time>
      </trkpt>
      <trkpt lat="50.50096" lon="4.002">
        <ele>132</ele>
        <time>2018-09-26T10:11:14.000Z</time>
      </trkpt>
      <trkpt lat="50.50105" lon="4.00185">
        <ele>131</ele>
        <time>2018-09-26T10:11:16.000Z</time>
      </trkpt>
      <trkpt lat="50.50114" lon="4.00169">
        <ele>131</ele>
        <time>2018-09-26T10:11:18.000Z</time>
      </trkpt>
      <trkpt lat="50.50121" lon="4.00151">
        <ele>131</ele>
        <time>2018-09-26T10:11:20.000Z</time>
      </trkpt>
      <trkpt lat="50.50129" lon="4.00133">
        <ele>130</ele>
        <time>2018-09-26T10:11:22.000Z</time>
      </trkpt>
      <trkpt lat="50.50136" lon="4.00115">
        <ele>131</ele>
        <time>2018-09-26T10:11:24.000Z</time>
      </trkpt>
      <trkpt lat="50.50143" lon="4.00097">
        <ele>131</ele>
        <time>2018-09-26T10:11:26.000Z</time>
      </trkpt>
      <trkpt lat="50.5015" lon="4.00078">
        <ele>131</ele>
        <time>2018-09-26T10:11:28.000Z</time>
      </trkpt>
      <trkpt lat="50.50156" lon="4.00059">
        <ele>132</ele>
        <time>2018-09-26T10:11:30.000Z</time>
      </trkpt>
      <trkpt lat="50.50164" lon="4.00041">
        <ele>131</ele>
        <time>2018-09-26T10:11:32.000Z</time>
      </trkpt>
      <trkpt lat="50.50171" lon="4.00021">
        <ele>131</ele>
        <time>2018-09-26T10:11:34.000Z</time>
      </trkpt>
      <trkpt lat="50.50179" lon="4.00002">
        <ele>131</ele>
        <time>2018-09-26T10:11:36.000Z</time>
      </trkpt>
      <trkpt lat="50.50185" lon="3.99982">
        <ele>130</ele>
        <time>2018-09-26T10:11:38.000Z</time>
      </trkpt>
      <trkpt lat="50.50193" lon="3.99963">
        <ele>130</ele>
        <time>2018-09-26T10:11:40.000Z</time>
      </trkpt>
      <trkpt lat="50.502" lon="3.99944">
        <ele>130</ele>
        <time>2018-09-26T10:11:42.000Z</time>
      </trkpt>
      <trkpt lat="50.50207" lon="3.99924">
        <ele>130</ele>
        <time>2018-09-26T10:11:44.000Z</time>
      </trkpt>
      <trkpt lat="50.50214" lon="3.99904">
        <ele>129</ele>
        <time>2018-09-26T10:11:46.000Z</time>
      </trkpt>
      <trkpt lat="50.50222" lon="3.99885">
        <ele>129</ele>
        <time>2018-09-26T10:11:48.000Z</time>
      </trkpt>
      <trkpt lat="50.5023" lon="3.99866">
        <ele>129</ele>
        <time>2018-09-26T10:11:50.000Z</time>
      </trkpt>
      <trkpt lat="50.50237" lon="3.99846">
        <ele>129</ele>
        <time>2018-09-26T10:11:52.000Z</time>
      </trkpt>
      <trkpt lat="50.50243" lon="3.99826">
        <ele>128</ele>
        <time>2018-09-26T10:11:54.000Z</time>
      </trkpt>
      <trkpt lat="50.5025" lon="3.99807">
        <ele>128</ele>
        <time>2018-09-26T10:11:56.000Z</time>
      </trkpt>
      <trkpt lat="50.50258" lon="3.99788">
        <ele>128</ele>
        <time>2018-09-26T10:11:58.000Z</time>
      </trkpt>
      <trkpt lat="50.50266" lon="3.9977">
        <ele>128</ele>
        <time>2018-09-26T10:12:00.000Z</time>
      </trkpt>
      <trkpt lat="50.50273" lon="3.99751">
        <ele>128</ele>
        <time>2018-09-26T10:12:02.000Z</time>
      </trkpt>
      <trkpt lat="50.5028" lon="3.99733">
        <ele>128</ele>
        <time>2018-09-26T10:12:04.000Z</time>
      </trkpt>
      <trkpt lat="50.50287" lon="3.99715">
        <ele>129</ele>
        <time>2018-09-26T10:12:06.000Z</time>
      </trkpt>
      <trkpt lat="50.50294" lon="3.99697">
        <ele>129</ele>
        <time>2018-09-26T10:12:08.000Z</time>
      </trkpt>
      <trkpt lat="50.50301" lon="3.9968">
        <ele>129</ele>
        <time>2018-09-26T10:12:10.000Z</time>
      </trkpt>
      <trkpt lat="50.50308" lon="3.99662">
        <ele>129</ele>
        <time>2018-09-26T10:12:12.000Z</time>
      </trkpt>
      <trkpt lat="50.50314" lon="3.99645">
        <ele>129</ele>
        <time>2018-09-26T10:12:14.000Z</time>
      </trkpt>
      <trkpt lat="50.5032" lon="3.9963">
        <ele>129</ele>
        <time>2018-09-26T10:12:16.000Z</time>
      </trkpt>
      <trkpt lat="50.50326" lon="3.99615">
        <ele>129</ele>
        <time>2018-09-26T10:12:18.000Z</time>
      </trkpt>
      <trkpt lat="50.50331" lon="3.99602">
        <ele>129</ele>
        <time>2018-09-26T10:12:20.000Z</time>
      </trkpt>
      <trkpt lat="50.50336" lon="3.9959">
        <ele>128</ele>
        <time>2018-09-26T10:12:22.000Z</time>
      </trkpt>
      <trkpt lat="50.5034" lon="3.99581">
        <ele>129</ele>
        <time>2018-09-26T10:12:24.000Z</time>
      </trkpt>
      <trkpt lat="50.5034" lon="3.99581">
        <ele>129</ele>
        <time>2018-09-26T10:12:27.000Z</time>
      </trkpt>
      <trkpt lat="50.50348" lon="3.99561">
        <ele>134</ele>
        <time>2018-09-26T10:12:57.000Z</time>
      </trkpt>
      <trkpt lat="50.50357" lon="3.99536">
        <ele>135</ele>
        <time>2018-09-26T10:13:01.000Z</time>
      </trkpt>
      <trkpt lat="50.50358" lon="3.99517">
        <ele>134</ele>
        <time>2018-09-26T10:13:03.000Z</time>
      </trkpt>
      <trkpt lat="50.50361" lon="3.99495">
        <ele>133</ele>
        <time>2018-09-26T10:13:05.000Z</time>
      </trkpt>
      <trkpt lat="50.50368" lon="3.99475">
        <ele>134</ele>
        <time>2018-09-26T10:13:07.000Z</time>
      </trkpt>
      <trkpt lat="50.50377" lon="3.99458">
        <ele>133</ele>
        <time>2018-09-26T10:13:09.000Z</time>
      </trkpt>
      <trkpt lat="50.50386" lon="3.99441">
        <ele>133</ele>
        <time>2018-09-26T10:13:11.000Z</time>
      </trkpt>
      <trkpt lat="50.50395" lon="3.99426">
        <ele>132</ele>
        <time>2018-09-26T10:13:13.000Z</time>
      </trkpt>
      <trkpt lat="50.50404" lon="3.99411">
        <ele>132</ele>
        <time>2018-09-26T10:13:15.000Z</time>
      </trkpt>
      <trkpt lat="50.50412" lon="3.99395">
        <ele>131</ele>
        <time>2018-09-26T10:13:17.000Z</time>
      </trkpt>
      <trkpt lat="50.5042" lon="3.9938">
        <ele>131</ele>
        <time>2018-09-26T10:13:19.000Z</time>
      </trkpt>
      <trkpt lat="50.50427" lon="3.99365">
        <ele>131</ele>
        <time>2018-09-26T10:13:21.000Z</time>
      </trkpt>
      <trkpt lat="50.50435" lon="3.99351">
        <ele>132</ele>
        <time>2018-09-26T10:13:23.000Z</time>
      </trkpt>
      <trkpt lat="50.50442" lon="3.99337">
        <ele>132</ele>
        <time>2018-09-26T10:13:25.000Z</time>
      </trkpt>
      <trkpt lat="50.50448" lon="3.99323">
        <ele>131</ele>
        <time>2018-09-26T10:13:27.000Z</time>
      </trkpt>
      <trkpt lat="50.50454" lon="3.99306">
        <ele>133</ele>
        <time>2018-09-26T10:13:29.000Z</time>
      </trkpt>
      <trkpt lat="50.50461" lon="3.99289">
        <ele>133</ele>
        <time>2018-09-26T10:13:31.000Z</time>
      </trkpt>
      <trkpt lat="50.50468" lon="3.99273">
        <ele>134</ele>
        <time>2018-09-26T10:13:33.000Z</time>
      </trkpt>
      <trkpt lat="50.50475" lon="3.99257">
        <ele>135</ele>
        <time>2018-09-26T10:13:35.000Z</time>
      </trkpt>
      <trkpt lat="50.50482" lon="3.99242">
        <ele>135</ele>
        <time>2018-09-26T10:13:37.000Z</time>
      </trkpt>
      <trkpt lat="50.50488" lon="3.99226">
        <ele>135</ele>
        <time>2018-09-26T10:13:39.000Z</time>
      </trkpt>
      <trkpt lat="50.50495" lon="3.99211">
        <ele>135</ele>
        <time>2018-09-26T10:13:41.000Z</time>
      </trkpt>
      <trkpt lat="50.50502" lon="3.99195">
        <ele>135</ele>
        <time>2018-09-26T10:13:43.000Z</time>
      </trkpt>
      <trkpt lat="50.50509" lon="3.99179">
        <ele>135</ele>
        <time>2018-09-26T10:13:45.000Z</time>
      </trkpt>
      <trkpt lat="50.50516" lon="3.99165">
        <ele>135</ele>
        <time>2018-09-26T10:13:47.000Z</time>
      </trkpt>
      <trkpt lat="50.50522" lon="3.9915">
        <ele>134</ele>
        <time>2018-09-26T10:13:49.000Z</time>
      </trkpt>
      <trkpt lat="50.50529" lon="3.99135">
        <ele>134</ele>
        <time>2018-09-26T10:13:51.000Z</time>
      </trkpt>
      <trkpt lat="50.50535" lon="3.99121">
        <ele>134</ele>
        <time>2018-09-26T10:13:53.000Z</time>
      </trkpt>
      <trkpt lat="50.50542" lon="3.99107">
        <ele>134</ele>
        <time>2018-09-26T10:13:55.000Z</time>
      </trkpt>
      <trkpt lat="50.50549" lon="3.99092">
        <ele>133</ele>
        <time>2018-09-26T10:13:57.000Z</time>
      </trkpt>
      <trkpt lat="50.50555" lon="3.99078">
        <ele>133</ele>
        <time>2018-09-26T10:13:59.000Z</time>
      </trkpt>
      <trkpt lat="50.50561" lon="3.99063">
        <ele>133</ele>
        <time>2018-09-26T10:14:01.000Z</time>
      </trkpt>
      <trkpt lat="50.50567" lon="3.99049">
        <ele>133</ele>
        <time>2018-09-26T10:14:03.000Z</time>
      </trkpt>
      <trkpt lat="50.50573" lon="3.99034">
        <ele>133</ele>
        <time>2018-09-26T10:14:05.000Z</time>
      </trkpt>
      <trkpt lat="50.50578" lon="3.99019">
        <ele>132</ele>
        <time>2018-09-26T10:14:07.000Z</time>
      </trkpt>
      <trkpt lat="50.50584" lon="3.99005">
        <ele>132</ele>
        <time>2018-09-26T10:14:09.000Z</time>
      </trkpt>
      <trkpt lat="50.5059" lon="3.98991">
        <ele>132</ele>
        <time>2018-09-26T10:14:11.000Z</time>
      </trkpt>
      <trkpt lat="50.50596" lon="3.98976">
        <ele>132</ele>
        <time>2018-09-26T10:14:13.000Z</time>
      </trkpt>
      <trkpt lat="50.50602" lon="3.98961">
        <ele>132</ele>
        <time>2018-09-26T10:14:15.000Z</time>
      </trkpt>
      <trkpt lat="50.50608" lon="3.98947">
        <ele>132</ele>
        <time>2018-09-26T10:14:17.000Z</time>
      </trkpt>
      <trkpt lat="50.50615" lon="3.98933">
        <ele>132</ele>
        <time>2018-09-26T10:14:19.000Z</time>
      </trkpt>
      <trkpt lat="50.50621" lon="3.98918">
        <ele>133</ele>
        <time>2018-09-26T10:14:21.000Z</time>
      </trkpt>
      <trkpt lat="50.50626" lon="3.98904">
        <ele>133</ele>
        <time>2018-09-26T10:14:23.000Z</time>
      </trkpt>
      <trkpt lat="50.50632" lon="3.98891">
        <ele>134</ele>
        <time>2018-09-26T10:14:25.000Z</time>
      </trkpt>
      <trkpt lat="50.50638" lon="3.98876">
        <ele>135</ele>
        <time>2018-09-26T10:14:27.000Z</time>
      </trkpt>
      <trkpt lat="50.50644" lon="3.98862">
        <ele>136</ele>
        <time>2018-09-26T10:14:29.000Z</time>
      </trkpt>
      <trkpt lat="50.50651" lon="3.98848">
        <ele>136</ele>
        <time>2018-09-26T10:14:31.000Z</time>
      </trkpt>
      <trkpt lat="50.50658" lon="3.98834">
        <ele>137</ele>
        <time>2018-09-26T10:14:33.000Z</time>
      </trkpt>
      <trkpt lat="50.50665" lon="3.9882">
        <ele>138</ele>
        <time>2018-09-26T10:14:35.000Z</time>
      </trkpt>
      <trkpt lat="50.50671" lon="3.98805">
        <ele>139</ele>
        <time>2018-09-26T10:14:37.000Z</time>
      </trkpt>
      <trkpt lat="50.50677" lon="3.98791">
        <ele>139</ele>
        <time>2018-09-26T10:14:39.000Z</time>
      </trkpt>
      <trkpt lat="50.50684" lon="3.98776">
        <ele>140</ele>
        <time>2018-09-26T10:14:41.000Z</time>
      </trkpt>
      <trkpt lat="50.50691" lon="3.98761">
        <ele>141</ele>
        <time>2018-09-26T10:14:43.000Z</time>
      </trkpt>
      <trkpt lat="50.50698" lon="3.98746">
        <ele>141</ele>
        <time>2018-09-26T10:14:45.000Z</time>
      </trkpt>
      <trkpt lat="50.50704" lon="3.98731">
        <ele>141</ele>
        <time>2018-09-26T10:14:47.000Z</time>
      </trkpt>
      <trkpt lat="50.5071" lon="3.98715">
        <ele>142</ele>
        <time>2018-09-26T10:14:49.000Z</time>
      </trkpt>
      <trkpt lat="50.50715" lon="3.98701">
        <ele>142</ele>
        <time>2018-09-26T10:14:51.000Z</time>
      </trkpt>
      <trkpt lat="50.50721" lon="3.98688">
        <ele>142</ele>
        <time>2018-09-26T10:14:53.000Z</time>
      </trkpt>
      <trkpt lat="50.50726" lon="3.98676">
        <ele>143</ele>
        <time>2018-09-26T10:14:55.000Z</time>
      </trkpt>
      <trkpt lat="50.50732" lon="3.98664">
        <ele>143</ele>
        <time>2018-09-26T10:14:57.000Z</time>
      </trkpt>
      <trkpt lat="50.50738" lon="3.98653">
        <ele>144</ele>
        <time>2018-09-26T10:14:59.000Z</time>
      </trkpt>
      <trkpt lat="50.50744" lon="3.98642">
        <ele>145</ele>
        <time>2018-09-26T10:15:01.000Z</time>
      </trkpt>
      <trkpt lat="50.5075" lon="3.98631">
        <ele>146</ele>
        <time>2018-09-26T10:15:03.000Z</time>
      </trkpt>
      <trkpt lat="50.50758" lon="3.98619">
        <ele>146</ele>
        <time>2018-09-26T10:15:05.000Z</time>
      </trkpt>
      <trkpt lat="50.50765" lon="3.98607">
        <ele>146</ele>
        <time>2018-09-26T10:15:07.000Z</time>
      </trkpt>
      <trkpt lat="50.50772" lon="3.98593">
        <ele>148</ele>
        <time>2018-09-26T10:15:09.000Z</time>
      </trkpt>
      <trkpt lat="50.50781" lon="3.98579">
        <ele>148</ele>
        <time>2018-09-26T10:15:11.000Z</time>
      </trkpt>
      <trkpt lat="50.50789" lon="3.98565">
        <ele>147</ele>
        <time>2018-09-26T10:15:13.000Z</time>
      </trkpt>
      <trkpt lat="50.50797" lon="3.9855">
        <ele>149</ele>
        <time>2018-09-26T10:15:15.000Z</time>
      </trkpt>
      <trkpt lat="50.50805" lon="3.98537">
        <ele>149</ele>
        <time>2018-09-26T10:15:17.000Z</time>
      </trkpt>
      <trkpt lat="50.50812" lon="3.98525">
        <ele>151</ele>
        <time>2018-09-26T10:15:19.000Z</time>
      </trkpt>
      <trkpt lat="50.50819" lon="3.98513">
        <ele>152</ele>
        <time>2018-09-26T10:15:21.000Z</time>
      </trkpt>
      <trkpt lat="50.50826" lon="3.98501">
        <ele>153</ele>
        <time>2018-09-26T10:15:23.000Z</time>
      </trkpt>
      <trkpt lat="50.50833" lon="3.9849">
        <ele>154</ele>
        <time>2018-09-26T10:15:25.000Z</time>
      </trkpt>
      <trkpt lat="50.5084" lon="3.98475">
        <ele>152</ele>
        <time>2018-09-26T10:15:27.000Z</time>
      </trkpt>
      <trkpt lat="50.50848" lon="3.98462">
        <ele>153</ele>
        <time>2018-09-26T10:15:29.000Z</time>
      </trkpt>
      <trkpt lat="50.50856" lon="3.98448">
        <ele>152</ele>
        <time>2018-09-26T10:15:31.000Z</time>
      </trkpt>
      <trkpt lat="50.50863" lon="3.98434">
        <ele>154</ele>
        <time>2018-09-26T10:15:33.000Z</time>
      </trkpt>
      <trkpt lat="50.50871" lon="3.98421">
        <ele>154</ele>
        <time>2018-09-26T10:15:35.000Z</time>
      </trkpt>
      <trkpt lat="50.50879" lon="3.98407">
        <ele>154</ele>
        <time>2018-09-26T10:15:37.000Z</time>
      </trkpt>
      <trkpt lat="50.50887" lon="3.98393">
        <ele>154</ele>
        <time>2018-09-26T10:15:39.000Z</time>
      </trkpt>
      <trkpt lat="50.50895" lon="3.98379">
        <ele>155</ele>
        <time>2018-09-26T10:15:41.000Z</time>
      </trkpt>
      <trkpt lat="50.50903" lon="3.98363">
        <ele>154</ele>
        <time>2018-09-26T10:15:43.000Z</time>
      </trkpt>
      <trkpt lat="50.50912" lon="3.98347">
        <ele>153</ele>
        <time>2018-09-26T10:15:45.000Z</time>
      </trkpt>
      <trkpt lat="50.5092" lon="3.98331">
        <ele>152</ele>
        <time>2018-09-26T10:15:47.000Z</time>
      </trkpt>
      <trkpt lat="50.50928" lon="3.98315">
        <ele>152</ele>
        <time>2018-09-26T10:15:49.000Z</time>
      </trkpt>
      <trkpt lat="50.50937" lon="3.98301">
        <ele>152</ele>
        <time>2018-09-26T10:15:51.000Z</time>
      </trkpt>
      <trkpt lat="50.50946" lon="3.98286">
        <ele>151</ele>
        <time>2018-09-26T10:15:53.000Z</time>
      </trkpt>
      <trkpt lat="50.50954" lon="3.9827">
        <ele>151</ele>
        <time>2018-09-26T10:15:55.000Z</time>
      </trkpt>
      <trkpt lat="50.50963" lon="3.98255">
        <ele>151</ele>
        <time>2018-09-26T10:15:57.000Z</time>
      </trkpt>
      <trkpt lat="50.50971" lon="3.98239">
        <ele>150</ele>
        <time>2018-09-26T10:15:59.000Z</time>
      </trkpt>
      <trkpt lat="50.50979" lon="3.98223">
        <ele>150</ele>
        <time>2018-09-26T10:16:01.000Z</time>
      </trkpt>
      <trkpt lat="50.50987" lon="3.98207">
        <ele>150</ele>
        <time>2018-09-26T10:16:03.000Z</time>
      </trkpt>
      <trkpt lat="50.50996" lon="3.98192">
        <ele>150</ele>
        <time>2018-09-26T10:16:05.000Z</time>
      </trkpt>
      <trkpt lat="50.51004" lon="3.98177">
        <ele>150</ele>
        <time>2018-09-26T10:16:07.000Z</time>
      </trkpt>
      <trkpt lat="50.51014" lon="3.98162">
        <ele>150</ele>
        <time>2018-09-26T10:16:09.000Z</time>
      </trkpt>
      <trkpt lat="50.51023" lon="3.98148">
        <ele>151</ele>
        <time>2018-09-26T10:16:11.000Z</time>
      </trkpt>
      <trkpt lat="50.51031" lon="3.98133">
        <ele>150</ele>
        <time>2018-09-26T10:16:13.000Z</time>
      </trkpt>
      <trkpt lat="50.5104" lon="3.98117">
        <ele>150</ele>
        <time>2018-09-26T10:16:15.000Z</time>
      </trkpt>
      <trkpt lat="50.51049" lon="3.98102">
        <ele>150</ele>
        <time>2018-09-26T10:16:17.000Z</time>
      </trkpt>
      <trkpt lat="50.51057" lon="3.98087">
        <ele>151</ele>
        <time>2018-09-26T10:16:19.000Z</time>
      </trkpt>
      <trkpt lat="50.51065" lon="3.98072">
        <ele>151</ele>
        <time>2018-09-26T10:16:21.000Z</time>
      </trkpt>
      <trkpt lat="50.51074" lon="3.98057">
        <ele>151</ele>
        <time>2018-09-26T10:16:23.000Z</time>
      </trkpt>
      <trkpt lat="50.51082" lon="3.98042">
        <ele>151</ele>
        <time>2018-09-26T10:16:25.000Z</time>
      </trkpt>
      <trkpt lat="50.51091" lon="3.98027">
        <ele>151</ele>
        <time>2018-09-26T10:16:27.000Z</time>
      </trkpt>
      <trkpt lat="50.51099" lon="3.98011">
        <ele>151</ele>
        <time>2018-09-26T10:16:29.000Z</time>
      </trkpt>
      <trkpt lat="50.51107" lon="3.97996">
        <ele>151</ele>
        <time>2018-09-26T10:16:31.000Z</time>
      </trkpt>
      <trkpt lat="50.51116" lon="3.97981">
        <ele>151</ele>
        <time>2018-09-26T10:16:33.000Z</time>
      </trkpt>
      <trkpt lat="50.51126" lon="3.97966">
        <ele>151</ele>
        <time>2018-09-26T10:16:35.000Z</time>
      </trkpt>
      <trkpt lat="50.51135" lon="3.97952">
        <ele>151</ele>
        <time>2018-09-26T10:16:37.000Z</time>
      </trkpt>
      <trkpt lat="50.51144" lon="3.97936">
        <ele>151</ele>
        <time>2018-09-26T10:16:39.000Z</time>
      </trkpt>
      <trkpt lat="50.51152" lon="3.97922">
        <ele>151</ele>
        <time>2018-09-26T10:16:41.000Z</time>
      </trkpt>
      <trkpt lat="50.51161" lon="3.97907">
        <ele>151</ele>
        <time>2018-09-26T10:16:43.000Z</time>
      </trkpt>
      <trkpt lat="50.51169" lon="3.97891">
        <ele>151</ele>
        <time>2018-09-26T10:16:45.000Z</time>
      </trkpt>
      <trkpt lat="50.51177" lon="3.97876">
        <ele>150</ele>
        <time>2018-09-26T10:16:47.000Z</time>
      </trkpt>
      <trkpt lat="50.51187" lon="3.97862">
        <ele>150</ele>
        <time>2018-09-26T10:16:49.000Z</time>
      </trkpt>
      <trkpt lat="50.51196" lon="3.97846">
        <ele>150</ele>
        <time>2018-09-26T10:16:51.000Z</time>
      </trkpt>
      <trkpt lat="50.51206" lon="3.9783">
        <ele>151</ele>
        <time>2018-09-26T10:16:53.000Z</time>
      </trkpt>
      <trkpt lat="50.51216" lon="3.97815">
        <ele>151</ele>
        <time>2018-09-26T10:16:55.000Z</time>
      </trkpt>
      <trkpt lat="50.51225" lon="3.97798">
        <ele>151</ele>
        <time>2018-09-26T10:16:57.000Z</time>
      </trkpt>
      <trkpt lat="50.51235" lon="3.97783">
        <ele>150</ele>
        <time>2018-09-26T10:16:59.000Z</time>
      </trkpt>
      <trkpt lat="50.51245" lon="3.97766">
        <ele>150</ele>
        <time>2018-09-26T10:17:01.000Z</time>
      </trkpt>
      <trkpt lat="50.51254" lon="3.97749">
        <ele>150</ele>
        <time>2018-09-26T10:17:03.000Z</time>
      </trkpt>
      <trkpt lat="50.51265" lon="3.97733">
        <ele>150</ele>
        <time>2018-09-26T10:17:05.000Z</time>
      </trkpt>
      <trkpt lat="50.51274" lon="3.97717">
        <ele>151</ele>
        <time>2018-09-26T10:17:07.000Z</time>
      </trkpt>
      <trkpt lat="50.51284" lon="3.97701">
        <ele>150</ele>
        <time>2018-09-26T10:17:09.000Z</time>
      </trkpt>
      <trkpt lat="50.51294" lon="3.97685">
        <ele>150</ele>
        <time>2018-09-26T10:17:11.000Z</time>
      </trkpt>
      <trkpt lat="50.51303" lon="3.97669">
        <ele>151</ele>
        <time>2018-09-26T10:17:13.000Z</time>
      </trkpt>
      <trkpt lat="50.51313" lon="3.97652">
        <ele>151</ele>
        <time>2018-09-26T10:17:15.000Z</time>
      </trkpt>
      <trkpt lat="50.51323" lon="3.97637">
        <ele>151</ele>
        <time>2018-09-26T10:17:17.000Z</time>
      </trkpt>
      <trkpt lat="50.51332" lon="3.97621">
        <ele>151</ele>
        <time>2018-09-26T10:17:19.000Z</time>
      </trkpt>
      <trkpt lat="50.51341" lon="3.97605">
        <ele>151</ele>
        <time>2018-09-26T10:17:21.000Z</time>
      </trkpt>
      <trkpt lat="50.5135" lon="3.9759">
        <ele>152</ele>
        <time>2018-09-26T10:17:23.000Z</time>
      </trkpt>
      <trkpt lat="50.51358" lon="3.97575">
        <ele>151</ele>
        <time>2018-09-26T10:17:25.000Z</time>
      </trkpt>
      <trkpt lat="50.51365" lon="3.97561">
        <ele>151</ele>
        <time>2018-09-26T10:17:27.000Z</time>
      </trkpt>
      <trkpt lat="50.51373" lon="3.97547">
        <ele>151</ele>
        <time>2018-09-26T10:17:29.000Z</time>
      </trkpt>
      <trkpt lat="50.51379" lon="3.97536">
        <ele>152</ele>
        <time>2018-09-26T10:17:31.000Z</time>
      </trkpt>
      <trkpt lat="50.51385" lon="3.97525">
        <ele>152</ele>
        <time>2018-09-26T10:17:33.000Z</time>
      </trkpt>
      <trkpt lat="50.51394" lon="3.97513">
        <ele>152</ele>
        <time>2018-09-26T10:17:35.000Z</time>
      </trkpt>
      <trkpt lat="50.51402" lon="3.97499">
        <ele>151</ele>
        <time>2018-09-26T10:17:37.000Z</time>
      </trkpt>
      <trkpt lat="50.5141" lon="3.97484">
        <ele>151</ele>
        <time>2018-09-26T10:17:39.000Z</time>
      </trkpt>
      <trkpt lat="50.51419" lon="3.97469">
        <ele>151</ele>
        <time>2018-09-26T10:17:41.000Z</time>
      </trkpt>
      <trkpt lat="50.51428" lon="3.97453">
        <ele>151</ele>
        <time>2018-09-26T10:17:43.000Z</time>
      </trkpt>
      <trkpt lat="50.51437" lon="3.97437">
        <ele>151</ele>
        <time>2018-09-26T10:17:45.000Z</time>
      </trkpt>
      <trkpt lat="50.51447" lon="3.9742">
        <ele>150</ele>
        <time>2018-09-26T10:17:47.000Z</time>
      </trkpt>
      <trkpt lat="50.51456" lon="3.97403">
        <ele>150</ele>
        <time>2018-09-26T10:17:49.000Z</time>
      </trkpt>
      <trkpt lat="50.51466" lon="3.97386">
        <ele>150</ele>
        <time>2018-09-26T10:17:51.000Z</time>
      </trkpt>
      <trkpt lat="50.51477" lon="3.9737">
        <ele>149</ele>
        <time>2018-09-26T10:17:53.000Z</time>
      </trkpt>
      <trkpt lat="50.51487" lon="3.97351">
        <ele>148</ele>
        <time>2018-09-26T10:17:55.000Z</time>
      </trkpt>
      <trkpt lat="50.51498" lon="3.97331">
        <ele>148</ele>
        <time>2018-09-26T10:17:57.000Z</time>
      </trkpt>
      <trkpt lat="50.51509" lon="3.97311">
        <ele>148</ele>
        <time>2018-09-26T10:17:59.000Z</time>
      </trkpt>
      <trkpt lat="50.51521" lon="3.97292">
        <ele>148</ele>
        <time>2018-09-26T10:18:01.000Z</time>
      </trkpt>
      <trkpt lat="50.51532" lon="3.97274">
        <ele>147</ele>
        <time>2018-09-26T10:18:03.000Z</time>
      </trkpt>
      <trkpt lat="50.51544" lon="3.97254">
        <ele>147</ele>
        <time>2018-09-26T10:18:05.000Z</time>
      </trkpt>
      <trkpt lat="50.51555" lon="3.97235">
        <ele>147</ele>
        <time>2018-09-26T10:18:07.000Z</time>
      </trkpt>
      <trkpt lat="50.51566" lon="3.97216">
        <ele>146</ele>
        <time>2018-09-26T10:18:09.000Z</time>
      </trkpt>
      <trkpt lat="50.51577" lon="3.97197">
        <ele>146</ele>
        <time>2018-09-26T10:18:11.000Z</time>
      </trkpt>
      <trkpt lat="50.51589" lon="3.97181">
        <ele>146</ele>
        <time>2018-09-26T10:18:13.000Z</time>
      </trkpt>
      <trkpt lat="50.51601" lon="3.97166">
        <ele>146</ele>
        <time>2018-09-26T10:18:15.000Z</time>
      </trkpt>
      <trkpt lat="50.51613" lon="3.97153">
        <ele>146</ele>
        <time>2018-09-26T10:18:17.000Z</time>
      </trkpt>
      <trkpt lat="50.51625" lon="3.9714">
        <ele>145</ele>
        <time>2018-09-26T10:18:19.000Z</time>
      </trkpt>
      <trkpt lat="50.51638" lon="3.97127">
        <ele>145</ele>
        <time>2018-09-26T10:18:21.000Z</time>
      </trkpt>
      <trkpt lat="50.51649" lon="3.97113">
        <ele>145</ele>
        <time>2018-09-26T10:18:23.000Z</time>
      </trkpt>
      <trkpt lat="50.51661" lon="3.97098">
        <ele>145</ele>
        <time>2018-09-26T10:18:25.000Z</time>
      </trkpt>
      <trkpt lat="50.5167" lon="3.97081">
        <ele>145</ele>
        <time>2018-09-26T10:18:27.000Z</time>
      </trkpt>
      <trkpt lat="50.51679" lon="3.97063">
        <ele>144</ele>
        <time>2018-09-26T10:18:29.000Z</time>
      </trkpt>
      <trkpt lat="50.51687" lon="3.97044">
        <ele>144</ele>
        <time>2018-09-26T10:18:31.000Z</time>
      </trkpt>
      <trkpt lat="50.51694" lon="3.97024">
        <ele>143</ele>
        <time>2018-09-26T10:18:33.000Z</time>
      </trkpt>
      <trkpt lat="50.51701" lon="3.97004">
        <ele>143</ele>
        <time>2018-09-26T10:18:35.000Z</time>
      </trkpt>
      <trkpt lat="50.51706" lon="3.96982">
        <ele>143</ele>
        <time>2018-09-26T10:18:37.000Z</time>
      </trkpt>
      <trkpt lat="50.5171" lon="3.96959">
        <ele>142</ele>
        <time>2018-09-26T10:18:39.000Z</time>
      </trkpt>
      <trkpt lat="50.51714" lon="3.96936">
        <ele>142</ele>
        <time>2018-09-26T10:18:41.000Z</time>
      </trkpt>
      <trkpt lat="50.51717" lon="3.96913">
        <ele>142</ele>
        <time>2018-09-26T10:18:43.000Z</time>
      </trkpt>
      <trkpt lat="50.51721" lon="3.9689">
        <ele>142</ele>
        <time>2018-09-26T10:18:45.000Z</time>
      </trkpt>
      <trkpt lat="50.51724" lon="3.96868">
        <ele>142</ele>
        <time>2018-09-26T10:18:47.000Z</time>
      </trkpt>
      <trkpt lat="50.51727" lon="3.96846">
        <ele>141</ele>
        <time>2018-09-26T10:18:49.000Z</time>
      </trkpt>
      <trkpt lat="50.51731" lon="3.96823">
        <ele>141</ele>
        <time>2018-09-26T10:18:51.000Z</time>
      </trkpt>
      <trkpt lat="50.51735" lon="3.96801">
        <ele>140</ele>
        <time>2018-09-26T10:18:53.000Z</time>
      </trkpt>
      <trkpt lat="50.5174" lon="3.96779">
        <ele>140</ele>
        <time>2018-09-26T10:18:55.000Z</time>
      </trkpt>
      <trkpt lat="50.51747" lon="3.96757">
        <ele>140</ele>
        <time>2018-09-26T10:18:57.000Z</time>
      </trkpt>
      <trkpt lat="50.51753" lon="3.96734">
        <ele>140</ele>
        <time>2018-09-26T10:18:59.000Z</time>
      </trkpt>
      <trkpt lat="50.51759" lon="3.96712">
        <ele>140</ele>
        <time>2018-09-26T10:19:01.000Z</time>
      </trkpt>
      <trkpt lat="50.51765" lon="3.96689">
        <ele>140</ele>
        <time>2018-09-26T10:19:03.000Z</time>
      </trkpt>
      <trkpt lat="50.51772" lon="3.96666">
        <ele>139</ele>
        <time>2018-09-26T10:19:05.000Z</time>
      </trkpt>
      <trkpt lat="50.51778" lon="3.96643">
        <ele>139</ele>
        <time>2018-09-26T10:19:07.000Z</time>
      </trkpt>
      <trkpt lat="50.51785" lon="3.9662">
        <ele>139</ele>
        <time>2018-09-26T10:19:09.000Z</time>
      </trkpt>
      <trkpt lat="50.51791" lon="3.96597">
        <ele>139</ele>
        <time>2018-09-26T10:19:11.000Z</time>
      </trkpt>
      <trkpt lat="50.51797" lon="3.96574">
        <ele>138</ele>
        <time>2018-09-26T10:19:13.000Z</time>
      </trkpt>
      <trkpt lat="50.51804" lon="3.9655">
        <ele>138</ele>
        <time>2018-09-26T10:19:15.000Z</time>
      </trkpt>
      <trkpt lat="50.51812" lon="3.96526">
        <ele>138</ele>
        <time>2018-09-26T10:19:17.000Z</time>
      </trkpt>
      <trkpt lat="50.51821" lon="3.96503">
        <ele>138</ele>
        <time>2018-09-26T10:19:19.000Z</time>
      </trkpt>
      <trkpt lat="50.51831" lon="3.96482">
        <ele>138</ele>
        <time>2018-09-26T10:19:21.000Z</time>
      </trkpt>
      <trkpt lat="50.51842" lon="3.96461">
        <ele>137</ele>
        <time>2018-09-26T10:19:23.000Z</time>
      </trkpt>
      <trkpt lat="50.51854" lon="3.96443">
        <ele>137</ele>
        <time>2018-09-26T10:19:25.000Z</time>
      </trkpt>
      <trkpt lat="50.51867" lon="3.96427">
        <ele>138</ele>
        <time>2018-09-26T10:19:27.000Z</time>
      </trkpt>
      <trkpt lat="50.5188" lon="3.96412">
        <ele>137</ele>
        <time>2018-09-26T10:19:29.000Z</time>
      </trkpt>
      <trkpt lat="50.51892" lon="3.96397">
        <ele>137</ele>
        <time>2018-09-26T10:19:31.000Z</time>
      </trkpt>
      <trkpt lat="50.51904" lon="3.96382">
        <ele>137</ele>
        <time>2018-09-26T10:19:33.000Z</time>
      </trkpt>
      <trkpt lat="50.51915" lon="3.96368">
        <ele>137</ele>
        <time>2018-09-26T10:19:35.000Z</time>
      </trkpt>
      <trkpt lat="50.51927" lon="3.96353">
        <ele>137</ele>
        <time>2018-09-26T10:19:37.000Z</time>
      </trkpt>
      <trkpt lat="50.51939" lon="3.96339">
        <ele>137</ele>
        <time>2018-09-26T10:19:39.000Z</time>
      </trkpt>
      <trkpt lat="50.51952" lon="3.96326">
        <ele>136</ele>
        <time>2018-09-26T10:19:41.000Z</time>
      </trkpt>
      <trkpt lat="50.51965" lon="3.96312">
        <ele>136</ele>
        <time>2018-09-26T10:19:43.000Z</time>
      </trkpt>
      <trkpt lat="50.51976" lon="3.96297">
        <ele>136</ele>
        <time>2018-09-26T10:19:45.000Z</time>
      </trkpt>
      <trkpt lat="50.51986" lon="3.96281">
        <ele>136</ele>
        <time>2018-09-26T10:19:47.000Z</time>
      </trkpt>
      <trkpt lat="50.51994" lon="3.96265">
        <ele>136</ele>
        <time>2018-09-26T10:19:49.000Z</time>
      </trkpt>
      <trkpt lat="50.52" lon="3.96252">
        <ele>136</ele>
        <time>2018-09-26T10:19:51.000Z</time>
      </trkpt>
      <trkpt lat="50.52006" lon="3.96237">
        <ele>135</ele>
        <time>2018-09-26T10:19:53.000Z</time>
      </trkpt>
      <trkpt lat="50.5201" lon="3.96219">
        <ele>135</ele>
        <time>2018-09-26T10:19:55.000Z</time>
      </trkpt>
      <trkpt lat="50.52016" lon="3.96202">
        <ele>135</ele>
        <time>2018-09-26T10:19:57.000Z</time>
      </trkpt>
      <trkpt lat="50.52024" lon="3.96183">
        <ele>135</ele>
        <time>2018-09-26T10:19:59.000Z</time>
      </trkpt>
      <trkpt lat="50.52032" lon="3.96167">
        <ele>135</ele>
        <time>2018-09-26T10:20:01.000Z</time>
      </trkpt>
      <trkpt lat="50.52044" lon="3.96155">
        <ele>135</ele>
        <time>2018-09-26T10:20:03.000Z</time>
      </trkpt>
      <trkpt lat="50.52058" lon="3.96146">
        <ele>135</ele>
        <time>2018-09-26T10:20:05.000Z</time>
      </trkpt>
      <trkpt lat="50.52071" lon="3.96137">
        <ele>135</ele>
        <time>2018-09-26T10:20:07.000Z</time>
      </trkpt>
      <trkpt lat="50.52083" lon="3.96127">
        <ele>135</ele>
        <time>2018-09-26T10:20:09.000Z</time>
      </trkpt>
      <trkpt lat="50.52095" lon="3.96115">
        <ele>135</ele>
        <time>2018-09-26T10:20:11.000Z</time>
      </trkpt>
      <trkpt lat="50.52107" lon="3.96102">
        <ele>135</ele>
        <time>2018-09-26T10:20:13.000Z</time>
      </trkpt>
      <trkpt lat="50.52118" lon="3.96087">
        <ele>135</ele>
        <time>2018-09-26T10:20:15.000Z</time>
      </trkpt>
      <trkpt lat="50.52128" lon="3.96069">
        <ele>135</ele>
        <time>2018-09-26T10:20:17.000Z</time>
      </trkpt>
      <trkpt lat="50.52139" lon="3.96053">
        <ele>135</ele>
        <time>2018-09-26T10:20:19.000Z</time>
      </trkpt>
      <trkpt lat="50.52149" lon="3.96037">
        <ele>135</ele>
        <time>2018-09-26T10:20:21.000Z</time>
      </trkpt>
      <trkpt lat="50.5216" lon="3.96024">
        <ele>135</ele>
        <time>2018-09-26T10:20:23.000Z</time>
      </trkpt>
      <trkpt lat="50.52172" lon="3.96011">
        <ele>135</ele>
        <time>2018-09-26T10:20:25.000Z</time>
      </trkpt>
      <trkpt lat="50.52183" lon="3.95999">
        <ele>135</ele>
        <time>2018-09-26T10:20:27.000Z</time>
      </trkpt>
      <trkpt lat="50.52193" lon="3.95987">
        <ele>135</ele>
        <time>2018-09-26T10:20:29.000Z</time>
      </trkpt>
      <trkpt lat="50.52205" lon="3.95976">
        <ele>135</ele>
        <time>2018-09-26T10:20:31.000Z</time>
      </trkpt>
      <trkpt lat="50.52216" lon="3.95965">
        <ele>135</ele>
        <time>2018-09-26T10:20:33.000Z</time>
      </trkpt>
      <trkpt lat="50.52227" lon="3.95954">
        <ele>135</ele>
        <time>2018-09-26T10:20:35.000Z</time>
      </trkpt>
      <trkpt lat="50.52239" lon="3.95941">
        <ele>135</ele>
        <time>2018-09-26T10:20:37.000Z</time>
      </trkpt>
      <trkpt lat="50.5225" lon="3.95925">
        <ele>135</ele>
        <time>2018-09-26T10:20:39.000Z</time>
      </trkpt>
      <trkpt lat="50.5226" lon="3.95908">
        <ele>134</ele>
        <time>2018-09-26T10:20:41.000Z</time>
      </trkpt>
      <trkpt lat="50.5227" lon="3.95891">
        <ele>134</ele>
        <time>2018-09-26T10:20:43.000Z</time>
      </trkpt>
      <trkpt lat="50.5228" lon="3.95874">
        <ele>134</ele>
        <time>2018-09-26T10:20:45.000Z</time>
      </trkpt>
      <trkpt lat="50.52289" lon="3.95856">
        <ele>133</ele>
        <time>2018-09-26T10:20:47.000Z</time>
      </trkpt>
      <trkpt lat="50.52299" lon="3.95839">
        <ele>133</ele>
        <time>2018-09-26T10:20:49.000Z</time>
      </trkpt>
      <trkpt lat="50.52309" lon="3.95822">
        <ele>133</ele>
        <time>2018-09-26T10:20:51.000Z</time>
      </trkpt>
      <trkpt lat="50.5232" lon="3.95805">
        <ele>133</ele>
        <time>2018-09-26T10:20:53.000Z</time>
      </trkpt>
      <trkpt lat="50.5233" lon="3.95787">
        <ele>133</ele>
        <time>2018-09-26T10:20:55.000Z</time>
      </trkpt>
      <trkpt lat="50.5234" lon="3.9577">
        <ele>133</ele>
        <time>2018-09-26T10:20:57.000Z</time>
      </trkpt>
      <trkpt lat="50.52351" lon="3.95754">
        <ele>133</ele>
        <time>2018-09-26T10:20:59.000Z</time>
      </trkpt>
      <trkpt lat="50.52362" lon="3.95738">
        <ele>133</ele>
        <time>2018-09-26T10:21:01.000Z</time>
      </trkpt>
      <trkpt lat="50.52372" lon="3.95722">
        <ele>133</ele>
        <time>2018-09-26T10:21:03.000Z</time>
      </trkpt>
      <trkpt lat="50.52383" lon="3.95706">
        <ele>133</ele>
        <time>2018-09-26T10:21:05.000Z</time>
      </trkpt>
      <trkpt lat="50.52394" lon="3.9569">
        <ele>133</ele>
        <time>2018-09-26T10:21:07.000Z</time>
      </trkpt>
      <trkpt lat="50.52405" lon="3.95674">
        <ele>133</ele>
        <time>2018-09-26T10:21:09.000Z</time>
      </trkpt>
      <trkpt lat="50.52416" lon="3.95658">
        <ele>133</ele>
        <time>2018-09-26T10:21:11.000Z</time>
      </trkpt>
      <trkpt lat="50.52427" lon="3.95642">
        <ele>133</ele>
        <time>2018-09-26T10:21:13.000Z</time>
      </trkpt>
      <trkpt lat="50.52438" lon="3.95626">
        <ele>133</ele>
        <time>2018-09-26T10:21:15.000Z</time>
      </trkpt>
      <trkpt lat="50.52449" lon="3.9561">
        <ele>134</ele>
        <time>2018-09-26T10:21:17.000Z</time>
      </trkpt>
      <trkpt lat="50.5246" lon="3.95594">
        <ele>133</ele>
        <time>2018-09-26T10:21:19.000Z</time>
      </trkpt>
      <trkpt lat="50.5247" lon="3.95578">
        <ele>133</ele>
        <time>2018-09-26T10:21:21.000Z</time>
      </trkpt>
      <trkpt lat="50.52481" lon="3.95562">
        <ele>133</ele>
        <time>2018-09-26T10:21:23.000Z</time>
      </trkpt>
      <trkpt lat="50.52491" lon="3.95547">
        <ele>133</ele>
        <time>2018-09-26T10:21:25.000Z</time>
      </trkpt>
      <trkpt lat="50.52502" lon="3.95532">
        <ele>133</ele>
        <time>2018-09-26T10:21:27.000Z</time>
      </trkpt>
      <trkpt lat="50.52512" lon="3.95517">
        <ele>133</ele>
        <time>2018-09-26T10:21:29.000Z</time>
      </trkpt>
      <trkpt lat="50.52522" lon="3.95502">
        <ele>133</ele>
        <time>2018-09-26T10:21:31.000Z</time>
      </trkpt>
      <trkpt lat="50.52533" lon="3.95487">
        <ele>133</ele>
        <time>2018-09-26T10:21:33.000Z</time>
      </trkpt>
      <trkpt lat="50.52542" lon="3.95473">
        <ele>133</ele>
        <time>2018-09-26T10:21:35.000Z</time>
      </trkpt>
      <trkpt lat="50.52552" lon="3.95458">
        <ele>133</ele>
        <time>2018-09-26T10:21:37.000Z</time>
      </trkpt>
      <trkpt lat="50.52562" lon="3.95444">
        <ele>133</ele>
        <time>2018-09-26T10:21:39.000Z</time>
      </trkpt>
      <trkpt lat="50.52571" lon="3.9543">
        <ele>133</ele>
        <time>2018-09-26T10:21:41.000Z</time>
      </trkpt>
      <trkpt lat="50.52582" lon="3.95416">
        <ele>134</ele>
        <time>2018-09-26T10:21:43.000Z</time>
      </trkpt>
      <trkpt lat="50.52592" lon="3.95402">
        <ele>134</ele>
        <time>2018-09-26T10:21:45.000Z</time>
      </trkpt>
      <trkpt lat="50.52602" lon="3.9539">
        <ele>134</ele>
        <time>2018-09-26T10:21:47.000Z</time>
      </trkpt>
      <trkpt lat="50.52613" lon="3.95377">
        <ele>134</ele>
        <time>2018-09-26T10:21:49.000Z</time>
      </trkpt>
      <trkpt lat="50.52624" lon="3.95363">
        <ele>134</ele>
        <time>2018-09-26T10:21:51.000Z</time>
      </trkpt>
      <trkpt lat="50.52634" lon="3.9535">
        <ele>134</ele>
        <time>2018-09-26T10:21:53.000Z</time>
      </trkpt>
      <trkpt lat="50.52644" lon="3.95337">
        <ele>134</ele>
        <time>2018-09-26T10:21:55.000Z</time>
      </trkpt>
      <trkpt lat="50.52655" lon="3.95323">
        <ele>134</ele>
        <time>2018-09-26T10:21:57.000Z</time>
      </trkpt>
      <trkpt lat="50.52665" lon="3.9531">
        <ele>134</ele>
        <time>2018-09-26T10:21:59.000Z</time>
      </trkpt>
      <trkpt lat="50.52676" lon="3.95295">
        <ele>134</ele>
        <time>2018-09-26T10:22:01.000Z</time>
      </trkpt>
      <trkpt lat="50.52686" lon="3.95281">
        <ele>134</ele>
        <time>2018-09-26T10:22:03.000Z</time>
      </trkpt>
      <trkpt lat="50.52697" lon="3.95266">
        <ele>134</ele>
        <time>2018-09-26T10:22:05.000Z</time>
      </trkpt>
      <trkpt lat="50.52707" lon="3.95251">
        <ele>134</ele>
        <time>2018-09-26T10:22:07.000Z</time>
      </trkpt>
      <trkpt lat="50.52717" lon="3.95238">
        <ele>134</ele>
        <time>2018-09-26T10:22:09.000Z</time>
      </trkpt>
      <trkpt lat="50.52728" lon="3.95225">
        <ele>134</ele>
        <time>2018-09-26T10:22:11.000Z</time>
      </trkpt>
      <trkpt lat="50.5274" lon="3.95213">
        <ele>134</ele>
        <time>2018-09-26T10:22:13.000Z</time>
      </trkpt>
      <trkpt lat="50.52751" lon="3.952">
        <ele>134</ele>
        <time>2018-09-26T10:22:15.000Z</time>
      </trkpt>
      <trkpt lat="50.52763" lon="3.95189">
        <ele>133</ele>
        <time>2018-09-26T10:22:17.000Z</time>
      </trkpt>
      <trkpt lat="50.52774" lon="3.95176">
        <ele>134</ele>
        <time>2018-09-26T10:22:19.000Z</time>
      </trkpt>
      <trkpt lat="50.52785" lon="3.95164">
        <ele>134</ele>
        <time>2018-09-26T10:22:21.000Z</time>
      </trkpt>
      <trkpt lat="50.52797" lon="3.95151">
        <ele>134</ele>
        <time>2018-09-26T10:22:23.000Z</time>
      </trkpt>
      <trkpt lat="50.52809" lon="3.95137">
        <ele>134</ele>
        <time>2018-09-26T10:22:25.000Z</time>
      </trkpt>
      <trkpt lat="50.5282" lon="3.95125">
        <ele>133</ele>
        <time>2018-09-26T10:22:27.000Z</time>
      </trkpt>
      <trkpt lat="50.52831" lon="3.95111">
        <ele>133</ele>
        <time>2018-09-26T10:22:29.000Z</time>
      </trkpt>
      <trkpt lat="50.5284" lon="3.95096">
        <ele>133</ele>
        <time>2018-09-26T10:22:31.000Z</time>
      </trkpt>
      <trkpt lat="50.52851" lon="3.95081">
        <ele>133</ele>
        <time>2018-09-26T10:22:33.000Z</time>
      </trkpt>
      <trkpt lat="50.52863" lon="3.95066">
        <ele>132</ele>
        <time>2018-09-26T10:22:35.000Z</time>
      </trkpt>
      <trkpt lat="50.52877" lon="3.95052">
        <ele>132</ele>
        <time>2018-09-26T10:22:37.000Z</time>
      </trkpt>
      <trkpt lat="50.5289" lon="3.95039">
        <ele>131</ele>
        <time>2018-09-26T10:22:39.000Z</time>
      </trkpt>
      <trkpt lat="50.52903" lon="3.95024">
        <ele>131</ele>
        <time>2018-09-26T10:22:41.000Z</time>
      </trkpt>
      <trkpt lat="50.52916" lon="3.9501">
        <ele>131</ele>
        <time>2018-09-26T10:22:43.000Z</time>
      </trkpt>
      <trkpt lat="50.52929" lon="3.94995">
        <ele>131</ele>
        <time>2018-09-26T10:22:45.000Z</time>
      </trkpt>
      <trkpt lat="50.5294" lon="3.94978">
        <ele>130</ele>
        <time>2018-09-26T10:22:47.000Z</time>
      </trkpt>
      <trkpt lat="50.52951" lon="3.9496">
        <ele>129</ele>
        <time>2018-09-26T10:22:49.000Z</time>
      </trkpt>
      <trkpt lat="50.52962" lon="3.94942">
        <ele>129</ele>
        <time>2018-09-26T10:22:51.000Z</time>
      </trkpt>
      <trkpt lat="50.52974" lon="3.94925">
        <ele>129</ele>
        <time>2018-09-26T10:22:53.000Z</time>
      </trkpt>
      <trkpt lat="50.52985" lon="3.94908">
        <ele>129</ele>
        <time>2018-09-26T10:22:55.000Z</time>
      </trkpt>
      <trkpt lat="50.52997" lon="3.94892">
        <ele>129</ele>
        <time>2018-09-26T10:22:57.000Z</time>
      </trkpt>
      <trkpt lat="50.53009" lon="3.94875">
        <ele>128</ele>
        <time>2018-09-26T10:22:59.000Z</time>
      </trkpt>
      <trkpt lat="50.5302" lon="3.94859">
        <ele>128</ele>
        <time>2018-09-26T10:23:01.000Z</time>
      </trkpt>
      <trkpt lat="50.53032" lon="3.94843">
        <ele>128</ele>
        <time>2018-09-26T10:23:03.000Z</time>
      </trkpt>
      <trkpt lat="50.53043" lon="3.94826">
        <ele>128</ele>
        <time>2018-09-26T10:23:05.000Z</time>
      </trkpt>
      <trkpt lat="50.53054" lon="3.94811">
        <ele>128</ele>
        <time>2018-09-26T10:23:07.000Z</time>
      </trkpt>
      <trkpt lat="50.53066" lon="3.94796">
        <ele>128</ele>
        <time>2018-09-26T10:23:09.000Z</time>
      </trkpt>
      <trkpt lat="50.53078" lon="3.94782">
        <ele>128</ele>
        <time>2018-09-26T10:23:11.000Z</time>
      </trkpt>
      <trkpt lat="50.5309" lon="3.94768">
        <ele>128</ele>
        <time>2018-09-26T10:23:13.000Z</time>
      </trkpt>
      <trkpt lat="50.53102" lon="3.94754">
        <ele>128</ele>
        <time>2018-09-26T10:23:15.000Z</time>
      </trkpt>
      <trkpt lat="50.53114" lon="3.9474">
        <ele>127</ele>
        <time>2018-09-26T10:23:17.000Z</time>
      </trkpt>
      <trkpt lat="50.53124" lon="3.94727">
        <ele>127</ele>
        <time>2018-09-26T10:23:19.000Z</time>
      </trkpt>
      <trkpt lat="50.53135" lon="3.94717">
        <ele>127</ele>
        <time>2018-09-26T10:23:21.000Z</time>
      </trkpt>
      <trkpt lat="50.53143" lon="3.94709">
        <ele>126</ele>
        <time>2018-09-26T10:23:23.000Z</time>
      </trkpt>
      <trkpt lat="50.53143" lon="3.94709">
        <ele>126</ele>
        <time>2018-09-26T10:23:25.000Z</time>
      </trkpt>
      <trkpt lat="50.53149" lon="3.94701">
        <ele>126</ele>
        <time>2018-09-26T10:23:27.000Z</time>
      </trkpt>
      <trkpt lat="50.53149" lon="3.94688">
        <ele>125</ele>
        <time>2018-09-26T10:23:29.000Z</time>
      </trkpt>
      <trkpt lat="50.53146" lon="3.94673">
        <ele>125</ele>
        <time>2018-09-26T10:23:31.000Z</time>
      </trkpt>
      <trkpt lat="50.53143" lon="3.94655">
        <ele>125</ele>
        <time>2018-09-26T10:23:33.000Z</time>
      </trkpt>
      <trkpt lat="50.53139" lon="3.94637">
        <ele>125</ele>
        <time>2018-09-26T10:23:35.000Z</time>
      </trkpt>
      <trkpt lat="50.53136" lon="3.94621">
        <ele>125</ele>
        <time>2018-09-26T10:23:37.000Z</time>
      </trkpt>
      <trkpt lat="50.53132" lon="3.94604">
        <ele>124</ele>
        <time>2018-09-26T10:23:39.000Z</time>
      </trkpt>
      <trkpt lat="50.53128" lon="3.94587">
        <ele>124</ele>
        <time>2018-09-26T10:23:41.000Z</time>
      </trkpt>
      <trkpt lat="50.53123" lon="3.94568">
        <ele>124</ele>
        <time>2018-09-26T10:23:43.000Z</time>
      </trkpt>
      <trkpt lat="50.53117" lon="3.94547">
        <ele>124</ele>
        <time>2018-09-26T10:23:45.000Z</time>
      </trkpt>
      <trkpt lat="50.53112" lon="3.94527">
        <ele>124</ele>
        <time>2018-09-26T10:23:47.000Z</time>
      </trkpt>
      <trkpt lat="50.5311" lon="3.94505">
        <ele>124</ele>
        <time>2018-09-26T10:23:49.000Z</time>
      </trkpt>
      <trkpt lat="50.53112" lon="3.94486">
        <ele>124</ele>
        <time>2018-09-26T10:23:51.000Z</time>
      </trkpt>
      <trkpt lat="50.53124" lon="3.94471">
        <ele>124</ele>
        <time>2018-09-26T10:23:53.000Z</time>
      </trkpt>
      <trkpt lat="50.53137" lon="3.94456">
        <ele>124</ele>
        <time>2018-09-26T10:23:55.000Z</time>
      </trkpt>
      <trkpt lat="50.53149" lon="3.94441">
        <ele>125</ele>
        <time>2018-09-26T10:23:57.000Z</time>
      </trkpt>
      <trkpt lat="50.53162" lon="3.94426">
        <ele>124</ele>
        <time>2018-09-26T10:23:59.000Z</time>
      </trkpt>
      <trkpt lat="50.53173" lon="3.9441">
        <ele>124</ele>
        <time>2018-09-26T10:24:01.000Z</time>
      </trkpt>
      <trkpt lat="50.53184" lon="3.94394">
        <ele>124</ele>
        <time>2018-09-26T10:24:03.000Z</time>
      </trkpt>
      <trkpt lat="50.53193" lon="3.94377">
        <ele>124</ele>
        <time>2018-09-26T10:24:05.000Z</time>
      </trkpt>
      <trkpt lat="50.53202" lon="3.94359">
        <ele>124</ele>
        <time>2018-09-26T10:24:07.000Z</time>
      </trkpt>
      <trkpt lat="50.53214" lon="3.94351">
        <ele>123</ele>
        <time>2018-09-26T10:24:09.000Z</time>
      </trkpt>
      <trkpt lat="50.53229" lon="3.94348">
        <ele>123</ele>
        <time>2018-09-26T10:24:11.000Z</time>
      </trkpt>
      <trkpt lat="50.53243" lon="3.94345">
        <ele>124</ele>
        <time>2018-09-26T10:24:13.000Z</time>
      </trkpt>
      <trkpt lat="50.53256" lon="3.94341">
        <ele>124</ele>
        <time>2018-09-26T10:24:15.000Z</time>
      </trkpt>
      <trkpt lat="50.53269" lon="3.94338">
        <ele>124</ele>
        <time>2018-09-26T10:24:17.000Z</time>
      </trkpt>
      <trkpt lat="50.53281" lon="3.94334">
        <ele>124</ele>
        <time>2018-09-26T10:24:19.000Z</time>
      </trkpt>
      <trkpt lat="50.53293" lon="3.94329">
        <ele>124</ele>
        <time>2018-09-26T10:24:21.000Z</time>
      </trkpt>
      <trkpt lat="50.53305" lon="3.94322">
        <ele>124</ele>
        <time>2018-09-26T10:24:23.000Z</time>
      </trkpt>
      <trkpt lat="50.53316" lon="3.94316">
        <ele>123</ele>
        <time>2018-09-26T10:24:25.000Z</time>
      </trkpt>
      <trkpt lat="50.53328" lon="3.94309">
        <ele>123</ele>
        <time>2018-09-26T10:24:27.000Z</time>
      </trkpt>
      <trkpt lat="50.53339" lon="3.94302">
        <ele>123</ele>
        <time>2018-09-26T10:24:29.000Z</time>
      </trkpt>
      <trkpt lat="50.5335" lon="3.94294">
        <ele>123</ele>
        <time>2018-09-26T10:24:31.000Z</time>
      </trkpt>
      <trkpt lat="50.53361" lon="3.94287">
        <ele>124</ele>
        <time>2018-09-26T10:24:33.000Z</time>
      </trkpt>
      <trkpt lat="50.53373" lon="3.94283">
        <ele>124</ele>
        <time>2018-09-26T10:24:35.000Z</time>
      </trkpt>
      <trkpt lat="50.53386" lon="3.94281">
        <ele>125</ele>
        <time>2018-09-26T10:24:37.000Z</time>
      </trkpt>
      <trkpt lat="50.53398" lon="3.94279">
        <ele>125</ele>
        <time>2018-09-26T10:24:39.000Z</time>
      </trkpt>
      <trkpt lat="50.5341" lon="3.94276">
        <ele>125</ele>
        <time>2018-09-26T10:24:41.000Z</time>
      </trkpt>
      <trkpt lat="50.53423" lon="3.94271">
        <ele>126</ele>
        <time>2018-09-26T10:24:43.000Z</time>
      </trkpt>
      <trkpt lat="50.53434" lon="3.94265">
        <ele>126</ele>
        <time>2018-09-26T10:24:45.000Z</time>
      </trkpt>
      <trkpt lat="50.53447" lon="3.9426">
        <ele>126</ele>
        <time>2018-09-26T10:24:47.000Z</time>
      </trkpt>
      <trkpt lat="50.53459" lon="3.94253">
        <ele>127</ele>
        <time>2018-09-26T10:24:49.000Z</time>
      </trkpt>
      <trkpt lat="50.5347" lon="3.94247">
        <ele>127</ele>
        <time>2018-09-26T10:24:51.000Z</time>
      </trkpt>
      <trkpt lat="50.53481" lon="3.9424">
        <ele>127</ele>
        <time>2018-09-26T10:24:53.000Z</time>
      </trkpt>
      <trkpt lat="50.53492" lon="3.94233">
        <ele>128</ele>
        <time>2018-09-26T10:24:55.000Z</time>
      </trkpt>
      <trkpt lat="50.53503" lon="3.94226">
        <ele>128</ele>
        <time>2018-09-26T10:24:57.000Z</time>
      </trkpt>
      <trkpt lat="50.53515" lon="3.94218">
        <ele>128</ele>
        <time>2018-09-26T10:24:59.000Z</time>
      </trkpt>
      <trkpt lat="50.53526" lon="3.94211">
        <ele>128</ele>
        <time>2018-09-26T10:25:01.000Z</time>
      </trkpt>
      <trkpt lat="50.53537" lon="3.94203">
        <ele>128</ele>
        <time>2018-09-26T10:25:03.000Z</time>
      </trkpt>
      <trkpt lat="50.53548" lon="3.94195">
        <ele>128</ele>
        <time>2018-09-26T10:25:05.000Z</time>
      </trkpt>
      <trkpt lat="50.53559" lon="3.94188">
        <ele>128</ele>
        <time>2018-09-26T10:25:07.000Z</time>
      </trkpt>
      <trkpt lat="50.53572" lon="3.94188">
        <ele>127</ele>
        <time>2018-09-26T10:25:09.000Z</time>
      </trkpt>
      <trkpt lat="50.53583" lon="3.94197">
        <ele>126</ele>
        <time>2018-09-26T10:25:11.000Z</time>
      </trkpt>
      <trkpt lat="50.53593" lon="3.94209">
        <ele>126</ele>
        <time>2018-09-26T10:25:13.000Z</time>
      </trkpt>
      <trkpt lat="50.536" lon="3.94223">
        <ele>126</ele>
        <time>2018-09-26T10:25:15.000Z</time>
      </trkpt>
      <trkpt lat="50.53607" lon="3.94238">
        <ele>125</ele>
        <time>2018-09-26T10:25:17.000Z</time>
      </trkpt>
      <trkpt lat="50.53614" lon="3.94251">
        <ele>126</ele>
        <time>2018-09-26T10:25:19.000Z</time>
      </trkpt>
      <trkpt lat="50.53621" lon="3.94263">
        <ele>125</ele>
        <time>2018-09-26T10:25:21.000Z</time>
      </trkpt>
      <trkpt lat="50.53632" lon="3.94267">
        <ele>125</ele>
        <time>2018-09-26T10:25:23.000Z</time>
      </trkpt>
      <trkpt lat="50.53642" lon="3.94265">
        <ele>125</ele>
        <time>2018-09-26T10:25:25.000Z</time>
      </trkpt>
      <trkpt lat="50.53651" lon="3.94265">
        <ele>125</ele>
        <time>2018-09-26T10:25:27.000Z</time>
      </trkpt>
      <trkpt lat="50.5366" lon="3.94259">
        <ele>125</ele>
        <time>2018-09-26T10:25:29.000Z</time>
      </trkpt>
      <trkpt lat="50.53667" lon="3.94247">
        <ele>125</ele>
        <time>2018-09-26T10:25:31.000Z</time>
      </trkpt>
      <trkpt lat="50.53674" lon="3.94234">
        <ele>126</ele>
        <time>2018-09-26T10:25:33.000Z</time>
      </trkpt>
      <trkpt lat="50.53682" lon="3.94222">
        <ele>127</ele>
        <time>2018-09-26T10:25:35.000Z</time>
      </trkpt>
      <trkpt lat="50.53691" lon="3.94209">
        <ele>128</ele>
        <time>2018-09-26T10:25:37.000Z</time>
      </trkpt>
      <trkpt lat="50.53701" lon="3.94198">
        <ele>128</ele>
        <time>2018-09-26T10:25:39.000Z</time>
      </trkpt>
      <trkpt lat="50.53712" lon="3.94187">
        <ele>128</ele>
        <time>2018-09-26T10:25:41.000Z</time>
      </trkpt>
      <trkpt lat="50.53722" lon="3.94175">
        <ele>127</ele>
        <time>2018-09-26T10:25:43.000Z</time>
      </trkpt>
      <trkpt lat="50.53732" lon="3.94164">
        <ele>128</ele>
        <time>2018-09-26T10:25:45.000Z</time>
      </trkpt>
      <trkpt lat="50.53742" lon="3.94152">
        <ele>127</ele>
        <time>2018-09-26T10:25:47.000Z</time>
      </trkpt>
      <trkpt lat="50.53752" lon="3.94139">
        <ele>127</ele>
        <time>2018-09-26T10:25:49.000Z</time>
      </trkpt>
      <trkpt lat="50.53762" lon="3.94126">
        <ele>127</ele>
        <time>2018-09-26T10:25:51.000Z</time>
      </trkpt>
      <trkpt lat="50.53772" lon="3.94112">
        <ele>127</ele>
        <time>2018-09-26T10:25:53.000Z</time>
      </trkpt>
      <trkpt lat="50.53782" lon="3.94098">
        <ele>126</ele>
        <time>2018-09-26T10:25:55.000Z</time>
      </trkpt>
      <trkpt lat="50.53792" lon="3.94083">
        <ele>127</ele>
        <time>2018-09-26T10:25:57.000Z</time>
      </trkpt>
      <trkpt lat="50.53802" lon="3.94069">
        <ele>127</ele>
        <time>2018-09-26T10:25:59.000Z</time>
      </trkpt>
      <trkpt lat="50.53812" lon="3.94054">
        <ele>127</ele>
        <time>2018-09-26T10:26:01.000Z</time>
      </trkpt>
      <trkpt lat="50.53823" lon="3.94038">
        <ele>127</ele>
        <time>2018-09-26T10:26:03.000Z</time>
      </trkpt>
      <trkpt lat="50.53831" lon="3.9402">
        <ele>126</ele>
        <time>2018-09-26T10:26:05.000Z</time>
      </trkpt>
      <trkpt lat="50.53839" lon="3.94001">
        <ele>126</ele>
        <time>2018-09-26T10:26:07.000Z</time>
      </trkpt>
      <trkpt lat="50.53847" lon="3.93981">
        <ele>126</ele>
        <time>2018-09-26T10:26:09.000Z</time>
      </trkpt>
      <trkpt lat="50.53852" lon="3.93961">
        <ele>126</ele>
        <time>2018-09-26T10:26:11.000Z</time>
      </trkpt>
      <trkpt lat="50.53859" lon="3.93941">
        <ele>127</ele>
        <time>2018-09-26T10:26:13.000Z</time>
      </trkpt>
      <trkpt lat="50.53864" lon="3.93922">
        <ele>127</ele>
        <time>2018-09-26T10:26:15.000Z</time>
      </trkpt>
      <trkpt lat="50.5387" lon="3.93902">
        <ele>126</ele>
        <time>2018-09-26T10:26:17.000Z</time>
      </trkpt>
      <trkpt lat="50.53876" lon="3.93882">
        <ele>127</ele>
        <time>2018-09-26T10:26:19.000Z</time>
      </trkpt>
      <trkpt lat="50.53882" lon="3.93862">
        <ele>126</ele>
        <time>2018-09-26T10:26:21.000Z</time>
      </trkpt>
      <trkpt lat="50.53888" lon="3.93843">
        <ele>126</ele>
        <time>2018-09-26T10:26:23.000Z</time>
      </trkpt>
      <trkpt lat="50.53894" lon="3.93822">
        <ele>126</ele>
        <time>2018-09-26T10:26:25.000Z</time>
      </trkpt>
      <trkpt lat="50.53899" lon="3.93801">
        <ele>126</ele>
        <time>2018-09-26T10:26:27.000Z</time>
      </trkpt>
      <trkpt lat="50.53905" lon="3.9378">
        <ele>126</ele>
        <time>2018-09-26T10:26:29.000Z</time>
      </trkpt>
      <trkpt lat="50.53911" lon="3.9376">
        <ele>126</ele>
        <time>2018-09-26T10:26:31.000Z</time>
      </trkpt>
      <trkpt lat="50.53917" lon="3.93739">
        <ele>126</ele>
        <time>2018-09-26T10:26:33.000Z</time>
      </trkpt>
      <trkpt lat="50.53924" lon="3.93719">
        <ele>126</ele>
        <time>2018-09-26T10:26:35.000Z</time>
      </trkpt>
      <trkpt lat="50.53931" lon="3.93699">
        <ele>125</ele>
        <time>2018-09-26T10:26:37.000Z</time>
      </trkpt>
      <trkpt lat="50.53938" lon="3.9368">
        <ele>125</ele>
        <time>2018-09-26T10:26:39.000Z</time>
      </trkpt>
      <trkpt lat="50.53947" lon="3.93662">
        <ele>125</ele>
        <time>2018-09-26T10:26:41.000Z</time>
      </trkpt>
      <trkpt lat="50.53956" lon="3.93644">
        <ele>125</ele>
        <time>2018-09-26T10:26:43.000Z</time>
      </trkpt>
      <trkpt lat="50.53964" lon="3.93626">
        <ele>125</ele>
        <time>2018-09-26T10:26:45.000Z</time>
      </trkpt>
      <trkpt lat="50.53973" lon="3.93608">
        <ele>125</ele>
        <time>2018-09-26T10:26:47.000Z</time>
      </trkpt>
      <trkpt lat="50.53982" lon="3.9359">
        <ele>125</ele>
        <time>2018-09-26T10:26:49.000Z</time>
      </trkpt>
      <trkpt lat="50.53991" lon="3.93573">
        <ele>125</ele>
        <time>2018-09-26T10:26:51.000Z</time>
      </trkpt>
      <trkpt lat="50.53999" lon="3.93555">
        <ele>125</ele>
        <time>2018-09-26T10:26:53.000Z</time>
      </trkpt>
      <trkpt lat="50.54008" lon="3.93538">
        <ele>125</ele>
        <time>2018-09-26T10:26:55.000Z</time>
      </trkpt>
      <trkpt lat="50.54017" lon="3.9352">
        <ele>125</ele>
        <time>2018-09-26T10:26:57.000Z</time>
      </trkpt>
      <trkpt lat="50.54026" lon="3.93502">
        <ele>125</ele>
        <time>2018-09-26T10:26:59.000Z</time>
      </trkpt>
      <trkpt lat="50.54034" lon="3.93484">
        <ele>125</ele>
        <time>2018-09-26T10:27:01.000Z</time>
      </trkpt>
      <trkpt lat="50.54043" lon="3.93466">
        <ele>125</ele>
        <time>2018-09-26T10:27:03.000Z</time>
      </trkpt>
      <trkpt lat="50.54052" lon="3.93449">
        <ele>125</ele>
        <time>2018-09-26T10:27:05.000Z</time>
      </trkpt>
      <trkpt lat="50.5406" lon="3.93431">
        <ele>125</ele>
        <time>2018-09-26T10:27:07.000Z</time>
      </trkpt>
      <trkpt lat="50.54068" lon="3.93414">
        <ele>125</ele>
        <time>2018-09-26T10:27:09.000Z</time>
      </trkpt>
      <trkpt lat="50.54077" lon="3.93397">
        <ele>125</ele>
        <time>2018-09-26T10:27:11.000Z</time>
      </trkpt>
      <trkpt lat="50.54085" lon="3.9338">
        <ele>125</ele>
        <time>2018-09-26T10:27:13.000Z</time>
      </trkpt>
      <trkpt lat="50.54093" lon="3.93363">
        <ele>125</ele>
        <time>2018-09-26T10:27:15.000Z</time>
      </trkpt>
      <trkpt lat="50.54101" lon="3.93346">
        <ele>125</ele>
        <time>2018-09-26T10:27:17.000Z</time>
      </trkpt>
      <trkpt lat="50.5411" lon="3.9333">
        <ele>125</ele>
        <time>2018-09-26T10:27:19.000Z</time>
      </trkpt>
      <trkpt lat="50.54118" lon="3.93314">
        <ele>125</ele>
        <time>2018-09-26T10:27:21.000Z</time>
      </trkpt>
      <trkpt lat="50.54126" lon="3.93298">
        <ele>125</ele>
        <time>2018-09-26T10:27:23.000Z</time>
      </trkpt>
      <trkpt lat="50.54135" lon="3.93282">
        <ele>126</ele>
        <time>2018-09-26T10:27:25.000Z</time>
      </trkpt>
      <trkpt lat="50.54144" lon="3.93266">
        <ele>125</ele>
        <time>2018-09-26T10:27:27.000Z</time>
      </trkpt>
      <trkpt lat="50.54152" lon="3.9325">
        <ele>125</ele>
        <time>2018-09-26T10:27:29.000Z</time>
      </trkpt>
      <trkpt lat="50.5416" lon="3.93232">
        <ele>125</ele>
        <time>2018-09-26T10:27:31.000Z</time>
      </trkpt>
      <trkpt lat="50.54166" lon="3.93212">
        <ele>125</ele>
        <time>2018-09-26T10:27:33.000Z</time>
      </trkpt>
      <trkpt lat="50.54171" lon="3.93191">
        <ele>125</ele>
        <time>2018-09-26T10:27:35.000Z</time>
      </trkpt>
      <trkpt lat="50.54176" lon="3.93171">
        <ele>124</ele>
        <time>2018-09-26T10:27:37.000Z</time>
      </trkpt>
      <trkpt lat="50.5418" lon="3.93152">
        <ele>124</ele>
        <time>2018-09-26T10:27:39.000Z</time>
      </trkpt>
      <trkpt lat="50.54184" lon="3.93132">
        <ele>124</ele>
        <time>2018-09-26T10:27:41.000Z</time>
      </trkpt>
      <trkpt lat="50.54189" lon="3.93112">
        <ele>124</ele>
        <time>2018-09-26T10:27:43.000Z</time>
      </trkpt>
      <trkpt lat="50.54195" lon="3.93092">
        <ele>124</ele>
        <time>2018-09-26T10:27:45.000Z</time>
      </trkpt>
      <trkpt lat="50.54201" lon="3.93072">
        <ele>123</ele>
        <time>2018-09-26T10:27:47.000Z</time>
      </trkpt>
      <trkpt lat="50.5421" lon="3.93055">
        <ele>123</ele>
        <time>2018-09-26T10:27:49.000Z</time>
      </trkpt>
      <trkpt lat="50.5422" lon="3.93039">
        <ele>123</ele>
        <time>2018-09-26T10:27:51.000Z</time>
      </trkpt>
      <trkpt lat="50.54232" lon="3.93024">
        <ele>123</ele>
        <time>2018-09-26T10:27:53.000Z</time>
      </trkpt>
      <trkpt lat="50.54243" lon="3.93009">
        <ele>122</ele>
        <time>2018-09-26T10:27:55.000Z</time>
      </trkpt>
      <trkpt lat="50.54253" lon="3.92994">
        <ele>123</ele>
        <time>2018-09-26T10:27:57.000Z</time>
      </trkpt>
      <trkpt lat="50.54263" lon="3.92976">
        <ele>123</ele>
        <time>2018-09-26T10:27:59.000Z</time>
      </trkpt>
      <trkpt lat="50.54269" lon="3.92956">
        <ele>123</ele>
        <time>2018-09-26T10:28:01.000Z</time>
      </trkpt>
      <trkpt lat="50.54274" lon="3.92934">
        <ele>122</ele>
        <time>2018-09-26T10:28:03.000Z</time>
      </trkpt>
      <trkpt lat="50.54279" lon="3.92912">
        <ele>122</ele>
        <time>2018-09-26T10:28:05.000Z</time>
      </trkpt>
      <trkpt lat="50.54284" lon="3.92891">
        <ele>122</ele>
        <time>2018-09-26T10:28:07.000Z</time>
      </trkpt>
      <trkpt lat="50.5429" lon="3.92869">
        <ele>122</ele>
        <time>2018-09-26T10:28:09.000Z</time>
      </trkpt>
      <trkpt lat="50.54295" lon="3.92848">
        <ele>122</ele>
        <time>2018-09-26T10:28:11.000Z</time>
      </trkpt>
      <trkpt lat="50.543" lon="3.92827">
        <ele>122</ele>
        <time>2018-09-26T10:28:13.000Z</time>
      </trkpt>
      <trkpt lat="50.54305" lon="3.92806">
        <ele>122</ele>
        <time>2018-09-26T10:28:15.000Z</time>
      </trkpt>
      <trkpt lat="50.5431" lon="3.92786">
        <ele>122</ele>
        <time>2018-09-26T10:28:17.000Z</time>
      </trkpt>
      <trkpt lat="50.54316" lon="3.92767">
        <ele>122</ele>
        <time>2018-09-26T10:28:19.000Z</time>
      </trkpt>
      <trkpt lat="50.54321" lon="3.92747">
        <ele>122</ele>
        <time>2018-09-26T10:28:21.000Z</time>
      </trkpt>
      <trkpt lat="50.54325" lon="3.92728">
        <ele>122</ele>
        <time>2018-09-26T10:28:23.000Z</time>
      </trkpt>
      <trkpt lat="50.54331" lon="3.92709">
        <ele>122</ele>
        <time>2018-09-26T10:28:25.000Z</time>
      </trkpt>
      <trkpt lat="50.54337" lon="3.9269">
        <ele>122</ele>
        <time>2018-09-26T10:28:27.000Z</time>
      </trkpt>
      <trkpt lat="50.54343" lon="3.9267">
        <ele>121</ele>
        <time>2018-09-26T10:28:29.000Z</time>
      </trkpt>
      <trkpt lat="50.5435" lon="3.92651">
        <ele>121</ele>
        <time>2018-09-26T10:28:31.000Z</time>
      </trkpt>
      <trkpt lat="50.54358" lon="3.92632">
        <ele>121</ele>
        <time>2018-09-26T10:28:33.000Z</time>
      </trkpt>
      <trkpt lat="50.54365" lon="3.92613">
        <ele>121</ele>
        <time>2018-09-26T10:28:35.000Z</time>
      </trkpt>
      <trkpt lat="50.54373" lon="3.92594">
        <ele>122</ele>
        <time>2018-09-26T10:28:37.000Z</time>
      </trkpt>
      <trkpt lat="50.5438" lon="3.92575">
        <ele>121</ele>
        <time>2018-09-26T10:28:39.000Z</time>
      </trkpt>
      <trkpt lat="50.54387" lon="3.92556">
        <ele>122</ele>
        <time>2018-09-26T10:28:41.000Z</time>
      </trkpt>
      <trkpt lat="50.54394" lon="3.92538">
        <ele>122</ele>
        <time>2018-09-26T10:28:43.000Z</time>
      </trkpt>
      <trkpt lat="50.54401" lon="3.9252">
        <ele>122</ele>
        <time>2018-09-26T10:28:45.000Z</time>
      </trkpt>
      <trkpt lat="50.54409" lon="3.92501">
        <ele>122</ele>
        <time>2018-09-26T10:28:47.000Z</time>
      </trkpt>
      <trkpt lat="50.54416" lon="3.92483">
        <ele>122</ele>
        <time>2018-09-26T10:28:49.000Z</time>
      </trkpt>
      <trkpt lat="50.54423" lon="3.92465">
        <ele>122</ele>
        <time>2018-09-26T10:28:51.000Z</time>
      </trkpt>
      <trkpt lat="50.5443" lon="3.92447">
        <ele>122</ele>
        <time>2018-09-26T10:28:53.000Z</time>
      </trkpt>
      <trkpt lat="50.54436" lon="3.92429">
        <ele>121</ele>
        <time>2018-09-26T10:28:55.000Z</time>
      </trkpt>
      <trkpt lat="50.54441" lon="3.9241">
        <ele>121</ele>
        <time>2018-09-26T10:28:57.000Z</time>
      </trkpt>
      <trkpt lat="50.54448" lon="3.92392">
        <ele>121</ele>
        <time>2018-09-26T10:28:59.000Z</time>
      </trkpt>
      <trkpt lat="50.54453" lon="3.92374">
        <ele>121</ele>
        <time>2018-09-26T10:29:01.000Z</time>
      </trkpt>
      <trkpt lat="50.54459" lon="3.92356">
        <ele>121</ele>
        <time>2018-09-26T10:29:03.000Z</time>
      </trkpt>
      <trkpt lat="50.54465" lon="3.92337">
        <ele>121</ele>
        <time>2018-09-26T10:29:05.000Z</time>
      </trkpt>
      <trkpt lat="50.54472" lon="3.92319">
        <ele>121</ele>
        <time>2018-09-26T10:29:07.000Z</time>
      </trkpt>
      <trkpt lat="50.54478" lon="3.923">
        <ele>121</ele>
        <time>2018-09-26T10:29:09.000Z</time>
      </trkpt>
      <trkpt lat="50.54484" lon="3.92281">
        <ele>121</ele>
        <time>2018-09-26T10:29:11.000Z</time>
      </trkpt>
      <trkpt lat="50.5449" lon="3.92262">
        <ele>121</ele>
        <time>2018-09-26T10:29:13.000Z</time>
      </trkpt>
      <trkpt lat="50.54496" lon="3.92243">
        <ele>121</ele>
        <time>2018-09-26T10:29:15.000Z</time>
      </trkpt>
      <trkpt lat="50.54502" lon="3.92225">
        <ele>121</ele>
        <time>2018-09-26T10:29:17.000Z</time>
      </trkpt>
      <trkpt lat="50.54508" lon="3.92207">
        <ele>121</ele>
        <time>2018-09-26T10:29:19.000Z</time>
      </trkpt>
      <trkpt lat="50.54514" lon="3.92189">
        <ele>121</ele>
        <time>2018-09-26T10:29:21.000Z</time>
      </trkpt>
      <trkpt lat="50.5452" lon="3.9217">
        <ele>121</ele>
        <time>2018-09-26T10:29:23.000Z</time>
      </trkpt>
      <trkpt lat="50.54526" lon="3.92151">
        <ele>121</ele>
        <time>2018-09-26T10:29:25.000Z</time>
      </trkpt>
      <trkpt lat="50.54531" lon="3.92131">
        <ele>121</ele>
        <time>2018-09-26T10:29:27.000Z</time>
      </trkpt>
      <trkpt lat="50.54536" lon="3.92112">
        <ele>121</ele>
        <time>2018-09-26T10:29:29.000Z</time>
      </trkpt>
      <trkpt lat="50.54541" lon="3.92092">
        <ele>121</ele>
        <time>2018-09-26T10:29:31.000Z</time>
      </trkpt>
      <trkpt lat="50.54545" lon="3.92072">
        <ele>120</ele>
        <time>2018-09-26T10:29:33.000Z</time>
      </trkpt>
      <trkpt lat="50.54548" lon="3.92055">
        <ele>120</ele>
        <time>2018-09-26T10:29:35.000Z</time>
      </trkpt>
      <trkpt lat="50.54551" lon="3.92036">
        <ele>119</ele>
        <time>2018-09-26T10:29:37.000Z</time>
      </trkpt>
      <trkpt lat="50.54554" lon="3.92018">
        <ele>119</ele>
        <time>2018-09-26T10:29:39.000Z</time>
      </trkpt>
      <trkpt lat="50.54558" lon="3.92001">
        <ele>120</ele>
        <time>2018-09-26T10:29:41.000Z</time>
      </trkpt>
      <trkpt lat="50.54565" lon="3.91987">
        <ele>119</ele>
        <time>2018-09-26T10:29:43.000Z</time>
      </trkpt>
      <trkpt lat="50.54574" lon="3.91974">
        <ele>119</ele>
        <time>2018-09-26T10:29:45.000Z</time>
      </trkpt>
      <trkpt lat="50.54584" lon="3.91961">
        <ele>119</ele>
        <time>2018-09-26T10:29:47.000Z</time>
      </trkpt>
      <trkpt lat="50.54593" lon="3.91947">
        <ele>119</ele>
        <time>2018-09-26T10:29:49.000Z</time>
      </trkpt>
      <trkpt lat="50.54602" lon="3.91933">
        <ele>120</ele>
        <time>2018-09-26T10:29:51.000Z</time>
      </trkpt>
      <trkpt lat="50.54611" lon="3.91918">
        <ele>120</ele>
        <time>2018-09-26T10:29:53.000Z</time>
      </trkpt>
      <trkpt lat="50.5462" lon="3.91904">
        <ele>120</ele>
        <time>2018-09-26T10:29:55.000Z</time>
      </trkpt>
      <trkpt lat="50.5463" lon="3.9189">
        <ele>120</ele>
        <time>2018-09-26T10:29:57.000Z</time>
      </trkpt>
      <trkpt lat="50.54638" lon="3.91876">
        <ele>120</ele>
        <time>2018-09-26T10:29:59.000Z</time>
      </trkpt>
      <trkpt lat="50.54647" lon="3.91862">
        <ele>120</ele>
        <time>2018-09-26T10:30:01.000Z</time>
      </trkpt>
      <trkpt lat="50.54657" lon="3.91848">
        <ele>120</ele>
        <time>2018-09-26T10:30:03.000Z</time>
      </trkpt>
      <trkpt lat="50.54666" lon="3.91835">
        <ele>120</ele>
        <time>2018-09-26T10:30:05.000Z</time>
      </trkpt>
      <trkpt lat="50.54675" lon="3.91823">
        <ele>120</ele>
        <time>2018-09-26T10:30:07.000Z</time>
      </trkpt>
      <trkpt lat="50.54683" lon="3.91809">
        <ele>120</ele>
        <time>2018-09-26T10:30:09.000Z</time>
      </trkpt>
      <trkpt lat="50.54691" lon="3.91793">
        <ele>120</ele>
        <time>2018-09-26T10:30:11.000Z</time>
      </trkpt>
      <trkpt lat="50.54698" lon="3.91776">
        <ele>119</ele>
        <time>2018-09-26T10:30:13.000Z</time>
      </trkpt>
      <trkpt lat="50.54705" lon="3.91758">
        <ele>120</ele>
        <time>2018-09-26T10:30:15.000Z</time>
      </trkpt>
      <trkpt lat="50.54712" lon="3.9174">
        <ele>120</ele>
        <time>2018-09-26T10:30:17.000Z</time>
      </trkpt>
      <trkpt lat="50.54719" lon="3.91722">
        <ele>120</ele>
        <time>2018-09-26T10:30:19.000Z</time>
      </trkpt>
      <trkpt lat="50.54727" lon="3.91703">
        <ele>120</ele>
        <time>2018-09-26T10:30:21.000Z</time>
      </trkpt>
      <trkpt lat="50.54735" lon="3.91685">
        <ele>120</ele>
        <time>2018-09-26T10:30:23.000Z</time>
      </trkpt>
      <trkpt lat="50.54744" lon="3.91667">
        <ele>120</ele>
        <time>2018-09-26T10:30:25.000Z</time>
      </trkpt>
      <trkpt lat="50.54752" lon="3.9165">
        <ele>120</ele>
        <time>2018-09-26T10:30:27.000Z</time>
      </trkpt>
      <trkpt lat="50.5476" lon="3.91632">
        <ele>120</ele>
        <time>2018-09-26T10:30:29.000Z</time>
      </trkpt>
      <trkpt lat="50.54768" lon="3.91615">
        <ele>120</ele>
        <time>2018-09-26T10:30:31.000Z</time>
      </trkpt>
      <trkpt lat="50.54777" lon="3.91598">
        <ele>120</ele>
        <time>2018-09-26T10:30:33.000Z</time>
      </trkpt>
      <trkpt lat="50.54786" lon="3.9158">
        <ele>120</ele>
        <time>2018-09-26T10:30:35.000Z</time>
      </trkpt>
      <trkpt lat="50.54794" lon="3.91562">
        <ele>120</ele>
        <time>2018-09-26T10:30:37.000Z</time>
      </trkpt>
      <trkpt lat="50.54803" lon="3.91544">
        <ele>120</ele>
        <time>2018-09-26T10:30:39.000Z</time>
      </trkpt>
      <trkpt lat="50.54811" lon="3.91526">
        <ele>120</ele>
        <time>2018-09-26T10:30:41.000Z</time>
      </trkpt>
      <trkpt lat="50.54819" lon="3.91507">
        <ele>119</ele>
        <time>2018-09-26T10:30:43.000Z</time>
      </trkpt>
      <trkpt lat="50.54827" lon="3.91488">
        <ele>119</ele>
        <time>2018-09-26T10:30:45.000Z</time>
      </trkpt>
      <trkpt lat="50.54835" lon="3.91469">
        <ele>119</ele>
        <time>2018-09-26T10:30:47.000Z</time>
      </trkpt>
      <trkpt lat="50.54843" lon="3.91451">
        <ele>119</ele>
        <time>2018-09-26T10:30:49.000Z</time>
      </trkpt>
      <trkpt lat="50.54851" lon="3.91433">
        <ele>119</ele>
        <time>2018-09-26T10:30:51.000Z</time>
      </trkpt>
      <trkpt lat="50.54859" lon="3.91414">
        <ele>119</ele>
        <time>2018-09-26T10:30:53.000Z</time>
      </trkpt>
      <trkpt lat="50.54868" lon="3.91395">
        <ele>119</ele>
        <time>2018-09-26T10:30:55.000Z</time>
      </trkpt>
      <trkpt lat="50.54876" lon="3.91376">
        <ele>119</ele>
        <time>2018-09-26T10:30:57.000Z</time>
      </trkpt>
      <trkpt lat="50.54884" lon="3.91356">
        <ele>119</ele>
        <time>2018-09-26T10:30:59.000Z</time>
      </trkpt>
      <trkpt lat="50.54893" lon="3.91336">
        <ele>118</ele>
        <time>2018-09-26T10:31:01.000Z</time>
      </trkpt>
      <trkpt lat="50.54902" lon="3.91317">
        <ele>118</ele>
        <time>2018-09-26T10:31:03.000Z</time>
      </trkpt>
      <trkpt lat="50.5491" lon="3.91298">
        <ele>118</ele>
        <time>2018-09-26T10:31:05.000Z</time>
      </trkpt>
      <trkpt lat="50.54918" lon="3.91278">
        <ele>118</ele>
        <time>2018-09-26T10:31:07.000Z</time>
      </trkpt>
      <trkpt lat="50.54927" lon="3.91259">
        <ele>118</ele>
        <time>2018-09-26T10:31:09.000Z</time>
      </trkpt>
      <trkpt lat="50.54935" lon="3.9124">
        <ele>118</ele>
        <time>2018-09-26T10:31:11.000Z</time>
      </trkpt>
      <trkpt lat="50.54943" lon="3.91221">
        <ele>118</ele>
        <time>2018-09-26T10:31:13.000Z</time>
      </trkpt>
      <trkpt lat="50.5495" lon="3.91203">
        <ele>117</ele>
        <time>2018-09-26T10:31:15.000Z</time>
      </trkpt>
      <trkpt lat="50.54958" lon="3.91185">
        <ele>117</ele>
        <time>2018-09-26T10:31:17.000Z</time>
      </trkpt>
      <trkpt lat="50.54966" lon="3.91167">
        <ele>117</ele>
        <time>2018-09-26T10:31:19.000Z</time>
      </trkpt>
      <trkpt lat="50.54972" lon="3.91148">
        <ele>117</ele>
        <time>2018-09-26T10:31:21.000Z</time>
      </trkpt>
      <trkpt lat="50.54979" lon="3.91128">
        <ele>117</ele>
        <time>2018-09-26T10:31:23.000Z</time>
      </trkpt>
      <trkpt lat="50.54985" lon="3.91107">
        <ele>117</ele>
        <time>2018-09-26T10:31:25.000Z</time>
      </trkpt>
      <trkpt lat="50.54991" lon="3.91085">
        <ele>117</ele>
        <time>2018-09-26T10:31:27.000Z</time>
      </trkpt>
      <trkpt lat="50.54996" lon="3.91063">
        <ele>117</ele>
        <time>2018-09-26T10:31:29.000Z</time>
      </trkpt>
      <trkpt lat="50.55001" lon="3.91041">
        <ele>116</ele>
        <time>2018-09-26T10:31:31.000Z</time>
      </trkpt>
      <trkpt lat="50.55006" lon="3.91019">
        <ele>117</ele>
        <time>2018-09-26T10:31:33.000Z</time>
      </trkpt>
      <trkpt lat="50.5501" lon="3.90998">
        <ele>116</ele>
        <time>2018-09-26T10:31:35.000Z</time>
      </trkpt>
      <trkpt lat="50.55014" lon="3.90978">
        <ele>116</ele>
        <time>2018-09-26T10:31:37.000Z</time>
      </trkpt>
      <trkpt lat="50.55018" lon="3.90959">
        <ele>116</ele>
        <time>2018-09-26T10:31:39.000Z</time>
      </trkpt>
      <trkpt lat="50.55022" lon="3.90941">
        <ele>115</ele>
        <time>2018-09-26T10:31:41.000Z</time>
      </trkpt>
      <trkpt lat="50.55025" lon="3.90921">
        <ele>115</ele>
        <time>2018-09-26T10:31:43.000Z</time>
      </trkpt>
      <trkpt lat="50.55024" lon="3.90903">
        <ele>115</ele>
        <time>2018-09-26T10:31:45.000Z</time>
      </trkpt>
      <trkpt lat="50.5502" lon="3.90887">
        <ele>115</ele>
        <time>2018-09-26T10:31:47.000Z</time>
      </trkpt>
      <trkpt lat="50.55016" lon="3.90872">
        <ele>115</ele>
        <time>2018-09-26T10:31:49.000Z</time>
      </trkpt>
      <trkpt lat="50.55013" lon="3.90858">
        <ele>115</ele>
        <time>2018-09-26T10:31:51.000Z</time>
      </trkpt>
      <trkpt lat="50.55008" lon="3.90843">
        <ele>115</ele>
        <time>2018-09-26T10:31:53.000Z</time>
      </trkpt>
      <trkpt lat="50.55003" lon="3.90826">
        <ele>115</ele>
        <time>2018-09-26T10:31:55.000Z</time>
      </trkpt>
      <trkpt lat="50.55" lon="3.90808">
        <ele>115</ele>
        <time>2018-09-26T10:31:57.000Z</time>
      </trkpt>
      <trkpt lat="50.54996" lon="3.90791">
        <ele>116</ele>
        <time>2018-09-26T10:31:59.000Z</time>
      </trkpt>
      <trkpt lat="50.54993" lon="3.90773">
        <ele>116</ele>
        <time>2018-09-26T10:32:01.000Z</time>
      </trkpt>
      <trkpt lat="50.54989" lon="3.90755">
        <ele>116</ele>
        <time>2018-09-26T10:32:03.000Z</time>
      </trkpt>
      <trkpt lat="50.54986" lon="3.90737">
        <ele>116</ele>
        <time>2018-09-26T10:32:05.000Z</time>
      </trkpt>
      <trkpt lat="50.54984" lon="3.90718">
        <ele>116</ele>
        <time>2018-09-26T10:32:07.000Z</time>
      </trkpt>
      <trkpt lat="50.5498" lon="3.90699">
        <ele>116</ele>
        <time>2018-09-26T10:32:09.000Z</time>
      </trkpt>
      <trkpt lat="50.54978" lon="3.90681">
        <ele>116</ele>
        <time>2018-09-26T10:32:11.000Z</time>
      </trkpt>
      <trkpt lat="50.54975" lon="3.90662">
        <ele>116</ele>
        <time>2018-09-26T10:32:13.000Z</time>
      </trkpt>
      <trkpt lat="50.54972" lon="3.90643">
        <ele>116</ele>
        <time>2018-09-26T10:32:15.000Z</time>
      </trkpt>
      <trkpt lat="50.5497" lon="3.90624">
        <ele>116</ele>
        <time>2018-09-26T10:32:17.000Z</time>
      </trkpt>
      <trkpt lat="50.54967" lon="3.90605">
        <ele>117</ele>
        <time>2018-09-26T10:32:19.000Z</time>
      </trkpt>
      <trkpt lat="50.54964" lon="3.90586">
        <ele>116</ele>
        <time>2018-09-26T10:32:21.000Z</time>
      </trkpt>
      <trkpt lat="50.54961" lon="3.90567">
        <ele>116</ele>
        <time>2018-09-26T10:32:23.000Z</time>
      </trkpt>
      <trkpt lat="50.54958" lon="3.90547">
        <ele>116</ele>
        <time>2018-09-26T10:32:25.000Z</time>
      </trkpt>
      <trkpt lat="50.54956" lon="3.90528">
        <ele>116</ele>
        <time>2018-09-26T10:32:27.000Z</time>
      </trkpt>
      <trkpt lat="50.54954" lon="3.90508">
        <ele>116</ele>
        <time>2018-09-26T10:32:29.000Z</time>
      </trkpt>
      <trkpt lat="50.54952" lon="3.90488">
        <ele>116</ele>
        <time>2018-09-26T10:32:31.000Z</time>
      </trkpt>
      <trkpt lat="50.5495" lon="3.90468">
        <ele>116</ele>
        <time>2018-09-26T10:32:33.000Z</time>
      </trkpt>
      <trkpt lat="50.54947" lon="3.90448">
        <ele>116</ele>
        <time>2018-09-26T10:32:35.000Z</time>
      </trkpt>
      <trkpt lat="50.54944" lon="3.90429">
        <ele>116</ele>
        <time>2018-09-26T10:32:37.000Z</time>
      </trkpt>
      <trkpt lat="50.54942" lon="3.90409">
        <ele>116</ele>
        <time>2018-09-26T10:32:39.000Z</time>
      </trkpt>
      <trkpt lat="50.54939" lon="3.9039">
        <ele>116</ele>
        <time>2018-09-26T10:32:41.000Z</time>
      </trkpt>
      <trkpt lat="50.54936" lon="3.90371">
        <ele>116</ele>
        <time>2018-09-26T10:32:43.000Z</time>
      </trkpt>
      <trkpt lat="50.54934" lon="3.90353">
        <ele>116</ele>
        <time>2018-09-26T10:32:45.000Z</time>
      </trkpt>
      <trkpt lat="50.54933" lon="3.90337">
        <ele>116</ele>
        <time>2018-09-26T10:32:47.000Z</time>
      </trkpt>
      <trkpt lat="50.54932" lon="3.90324">
        <ele>117</ele>
        <time>2018-09-26T10:32:49.000Z</time>
      </trkpt>
      <trkpt lat="50.54932" lon="3.90324">
        <ele>117</ele>
        <time>2018-09-26T10:32:51.000Z</time>
      </trkpt>
      <trkpt lat="50.54932" lon="3.90311">
        <ele>117</ele>
        <time>2018-09-26T10:32:53.000Z</time>
      </trkpt>
      <trkpt lat="50.54932" lon="3.90292">
        <ele>116</ele>
        <time>2018-09-26T10:32:57.000Z</time>
      </trkpt>
      <trkpt lat="50.54928" lon="3.9028">
        <ele>116</ele>
        <time>2018-09-26T10:32:59.000Z</time>
      </trkpt>
      <trkpt lat="50.54925" lon="3.90266">
        <ele>116</ele>
        <time>2018-09-26T10:33:01.000Z</time>
      </trkpt>
      <trkpt lat="50.54921" lon="3.90254">
        <ele>116</ele>
        <time>2018-09-26T10:33:03.000Z</time>
      </trkpt>
      <trkpt lat="50.54916" lon="3.90243">
        <ele>116</ele>
        <time>2018-09-26T10:33:05.000Z</time>
      </trkpt>
      <trkpt lat="50.5491" lon="3.90234">
        <ele>116</ele>
        <time>2018-09-26T10:33:07.000Z</time>
      </trkpt>
      <trkpt lat="50.54902" lon="3.90224">
        <ele>116</ele>
        <time>2018-09-26T10:33:09.000Z</time>
      </trkpt>
      <trkpt lat="50.54893" lon="3.90214">
        <ele>116</ele>
        <time>2018-09-26T10:33:11.000Z</time>
      </trkpt>
      <trkpt lat="50.54883" lon="3.90205">
        <ele>116</ele>
        <time>2018-09-26T10:33:13.000Z</time>
      </trkpt>
      <trkpt lat="50.54873" lon="3.90196">
        <ele>116</ele>
        <time>2018-09-26T10:33:15.000Z</time>
      </trkpt>
      <trkpt lat="50.54863" lon="3.90188">
        <ele>116</ele>
        <time>2018-09-26T10:33:17.000Z</time>
      </trkpt>
      <trkpt lat="50.54852" lon="3.9018">
        <ele>115</ele>
        <time>2018-09-26T10:33:19.000Z</time>
      </trkpt>
      <trkpt lat="50.54841" lon="3.90171">
        <ele>116</ele>
        <time>2018-09-26T10:33:21.000Z</time>
      </trkpt>
      <trkpt lat="50.54831" lon="3.90162">
        <ele>116</ele>
        <time>2018-09-26T10:33:23.000Z</time>
      </trkpt>
      <trkpt lat="50.54819" lon="3.90152">
        <ele>116</ele>
        <time>2018-09-26T10:33:25.000Z</time>
      </trkpt>
      <trkpt lat="50.54808" lon="3.90143">
        <ele>116</ele>
        <time>2018-09-26T10:33:27.000Z</time>
      </trkpt>
      <trkpt lat="50.54797" lon="3.90133">
        <ele>116</ele>
        <time>2018-09-26T10:33:29.000Z</time>
      </trkpt>
      <trkpt lat="50.54786" lon="3.90123">
        <ele>116</ele>
        <time>2018-09-26T10:33:31.000Z</time>
      </trkpt>
      <trkpt lat="50.54775" lon="3.90113">
        <ele>116</ele>
        <time>2018-09-26T10:33:33.000Z</time>
      </trkpt>
      <trkpt lat="50.54764" lon="3.90102">
        <ele>116</ele>
        <time>2018-09-26T10:33:35.000Z</time>
      </trkpt>
      <trkpt lat="50.54753" lon="3.9009">
        <ele>116</ele>
        <time>2018-09-26T10:33:37.000Z</time>
      </trkpt>
      <trkpt lat="50.54742" lon="3.90079">
        <ele>116</ele>
        <time>2018-09-26T10:33:39.000Z</time>
      </trkpt>
      <trkpt lat="50.54732" lon="3.90067">
        <ele>116</ele>
        <time>2018-09-26T10:33:41.000Z</time>
      </trkpt>
      <trkpt lat="50.54721" lon="3.90055">
        <ele>116</ele>
        <time>2018-09-26T10:33:43.000Z</time>
      </trkpt>
      <trkpt lat="50.54711" lon="3.90043">
        <ele>116</ele>
        <time>2018-09-26T10:33:45.000Z</time>
      </trkpt>
      <trkpt lat="50.547" lon="3.90031">
        <ele>116</ele>
        <time>2018-09-26T10:33:47.000Z</time>
      </trkpt>
      <trkpt lat="50.5469" lon="3.90019">
        <ele>117</ele>
        <time>2018-09-26T10:33:49.000Z</time>
      </trkpt>
      <trkpt lat="50.54679" lon="3.90007">
        <ele>117</ele>
        <time>2018-09-26T10:33:51.000Z</time>
      </trkpt>
      <trkpt lat="50.54669" lon="3.89996">
        <ele>117</ele>
        <time>2018-09-26T10:33:53.000Z</time>
      </trkpt>
      <trkpt lat="50.54659" lon="3.89984">
        <ele>117</ele>
        <time>2018-09-26T10:33:55.000Z</time>
      </trkpt>
      <trkpt lat="50.54649" lon="3.89971">
        <ele>117</ele>
        <time>2018-09-26T10:33:57.000Z</time>
      </trkpt>
      <trkpt lat="50.54639" lon="3.89959">
        <ele>117</ele>
        <time>2018-09-26T10:33:59.000Z</time>
      </trkpt>
      <trkpt lat="50.54629" lon="3.89947">
        <ele>117</ele>
        <time>2018-09-26T10:34:01.000Z</time>
      </trkpt>
      <trkpt lat="50.5462" lon="3.89934">
        <ele>116</ele>
        <time>2018-09-26T10:34:03.000Z</time>
      </trkpt>
      <trkpt lat="50.5461" lon="3.89922">
        <ele>117</ele>
        <time>2018-09-26T10:34:05.000Z</time>
      </trkpt>
      <trkpt lat="50.54599" lon="3.89909">
        <ele>116</ele>
        <time>2018-09-26T10:34:07.000Z</time>
      </trkpt>
      <trkpt lat="50.54589" lon="3.89896">
        <ele>116</ele>
        <time>2018-09-26T10:34:09.000Z</time>
      </trkpt>
      <trkpt lat="50.54579" lon="3.89883">
        <ele>116</ele>
        <time>2018-09-26T10:34:11.000Z</time>
      </trkpt>
      <trkpt lat="50.54568" lon="3.8987">
        <ele>116</ele>
        <time>2018-09-26T10:34:13.000Z</time>
      </trkpt>
      <trkpt lat="50.54557" lon="3.89856">
        <ele>116</ele>
        <time>2018-09-26T10:34:15.000Z</time>
      </trkpt>
      <trkpt lat="50.54546" lon="3.89843">
        <ele>116</ele>
        <time>2018-09-26T10:34:17.000Z</time>
      </trkpt>
      <trkpt lat="50.54535" lon="3.89829">
        <ele>116</ele>
        <time>2018-09-26T10:34:19.000Z</time>
      </trkpt>
      <trkpt lat="50.54524" lon="3.89817">
        <ele>115</ele>
        <time>2018-09-26T10:34:21.000Z</time>
      </trkpt>
      <trkpt lat="50.54511" lon="3.89808">
        <ele>115</ele>
        <time>2018-09-26T10:34:23.000Z</time>
      </trkpt>
      <trkpt lat="50.54497" lon="3.89807">
        <ele>115</ele>
        <time>2018-09-26T10:34:25.000Z</time>
      </trkpt>
      <trkpt lat="50.54483" lon="3.89808">
        <ele>114</ele>
        <time>2018-09-26T10:34:27.000Z</time>
      </trkpt>
      <trkpt lat="50.54468" lon="3.8981">
        <ele>114</ele>
        <time>2018-09-26T10:34:29.000Z</time>
      </trkpt>
      <trkpt lat="50.54453" lon="3.89812">
        <ele>114</ele>
        <time>2018-09-26T10:34:31.000Z</time>
      </trkpt>
      <trkpt lat="50.54438" lon="3.89813">
        <ele>114</ele>
        <time>2018-09-26T10:34:33.000Z</time>
      </trkpt>
      <trkpt lat="50.54422" lon="3.8981">
        <ele>114</ele>
        <time>2018-09-26T10:34:35.000Z</time>
      </trkpt>
      <trkpt lat="50.54407" lon="3.89802">
        <ele>113</ele>
        <time>2018-09-26T10:34:37.000Z</time>
      </trkpt>
      <trkpt lat="50.54392" lon="3.89792">
        <ele>113</ele>
        <time>2018-09-26T10:34:39.000Z</time>
      </trkpt>
      <trkpt lat="50.54378" lon="3.89782">
        <ele>113</ele>
        <time>2018-09-26T10:34:41.000Z</time>
      </trkpt>
      <trkpt lat="50.54363" lon="3.89771">
        <ele>113</ele>
        <time>2018-09-26T10:34:43.000Z</time>
      </trkpt>
      <trkpt lat="50.54349" lon="3.8976">
        <ele>112</ele>
        <time>2018-09-26T10:34:45.000Z</time>
      </trkpt>
      <trkpt lat="50.54334" lon="3.89749">
        <ele>112</ele>
        <time>2018-09-26T10:34:47.000Z</time>
      </trkpt>
      <trkpt lat="50.54319" lon="3.89739">
        <ele>112</ele>
        <time>2018-09-26T10:34:49.000Z</time>
      </trkpt>
      <trkpt lat="50.54303" lon="3.8973">
        <ele>111</ele>
        <time>2018-09-26T10:34:51.000Z</time>
      </trkpt>
      <trkpt lat="50.54287" lon="3.89721">
        <ele>111</ele>
        <time>2018-09-26T10:34:53.000Z</time>
      </trkpt>
      <trkpt lat="50.54271" lon="3.89713">
        <ele>111</ele>
        <time>2018-09-26T10:34:55.000Z</time>
      </trkpt>
      <trkpt lat="50.54255" lon="3.89704">
        <ele>110</ele>
        <time>2018-09-26T10:34:57.000Z</time>
      </trkpt>
      <trkpt lat="50.54239" lon="3.89696">
        <ele>110</ele>
        <time>2018-09-26T10:34:59.000Z</time>
      </trkpt>
      <trkpt lat="50.54224" lon="3.89687">
        <ele>110</ele>
        <time>2018-09-26T10:35:01.000Z</time>
      </trkpt>
      <trkpt lat="50.54208" lon="3.8968">
        <ele>109</ele>
        <time>2018-09-26T10:35:03.000Z</time>
      </trkpt>
      <trkpt lat="50.5419" lon="3.89675">
        <ele>108</ele>
        <time>2018-09-26T10:35:05.000Z</time>
      </trkpt>
      <trkpt lat="50.54174" lon="3.8967">
        <ele>109</ele>
        <time>2018-09-26T10:35:07.000Z</time>
      </trkpt>
      <trkpt lat="50.54158" lon="3.89665">
        <ele>108</ele>
        <time>2018-09-26T10:35:09.000Z</time>
      </trkpt>
      <trkpt lat="50.54142" lon="3.89658">
        <ele>109</ele>
        <time>2018-09-26T10:35:11.000Z</time>
      </trkpt>
      <trkpt lat="50.54128" lon="3.89649">
        <ele>109</ele>
        <time>2018-09-26T10:35:13.000Z</time>
      </trkpt>
      <trkpt lat="50.54115" lon="3.89638">
        <ele>109</ele>
        <time>2018-09-26T10:35:15.000Z</time>
      </trkpt>
      <trkpt lat="50.54102" lon="3.89627">
        <ele>109</ele>
        <time>2018-09-26T10:35:17.000Z</time>
      </trkpt>
      <trkpt lat="50.54089" lon="3.89617">
        <ele>109</ele>
        <time>2018-09-26T10:35:19.000Z</time>
      </trkpt>
      <trkpt lat="50.54075" lon="3.89607">
        <ele>109</ele>
        <time>2018-09-26T10:35:21.000Z</time>
      </trkpt>
      <trkpt lat="50.54062" lon="3.89599">
        <ele>109</ele>
        <time>2018-09-26T10:35:23.000Z</time>
      </trkpt>
      <trkpt lat="50.54048" lon="3.89594">
        <ele>109</ele>
        <time>2018-09-26T10:35:25.000Z</time>
      </trkpt>
      <trkpt lat="50.54033" lon="3.89592">
        <ele>109</ele>
        <time>2018-09-26T10:35:27.000Z</time>
      </trkpt>
      <trkpt lat="50.54018" lon="3.89591">
        <ele>110</ele>
        <time>2018-09-26T10:35:29.000Z</time>
      </trkpt>
      <trkpt lat="50.54004" lon="3.89591">
        <ele>110</ele>
        <time>2018-09-26T10:35:31.000Z</time>
      </trkpt>
      <trkpt lat="50.53989" lon="3.89591">
        <ele>110</ele>
        <time>2018-09-26T10:35:33.000Z</time>
      </trkpt>
      <trkpt lat="50.53975" lon="3.8959">
        <ele>110</ele>
        <time>2018-09-26T10:35:35.000Z</time>
      </trkpt>
      <trkpt lat="50.5396" lon="3.89589">
        <ele>110</ele>
        <time>2018-09-26T10:35:37.000Z</time>
      </trkpt>
      <trkpt lat="50.53947" lon="3.89589">
        <ele>110</ele>
        <time>2018-09-26T10:35:39.000Z</time>
      </trkpt>
      <trkpt lat="50.53933" lon="3.89588">
        <ele>110</ele>
        <time>2018-09-26T10:35:41.000Z</time>
      </trkpt>
      <trkpt lat="50.53919" lon="3.89587">
        <ele>110</ele>
        <time>2018-09-26T10:35:43.000Z</time>
      </trkpt>
      <trkpt lat="50.53905" lon="3.89586">
        <ele>110</ele>
        <time>2018-09-26T10:35:45.000Z</time>
      </trkpt>
      <trkpt lat="50.53892" lon="3.89585">
        <ele>110</ele>
        <time>2018-09-26T10:35:47.000Z</time>
      </trkpt>
      <trkpt lat="50.53878" lon="3.89583">
        <ele>110</ele>
        <time>2018-09-26T10:35:49.000Z</time>
      </trkpt>
      <trkpt lat="50.53865" lon="3.89582">
        <ele>110</ele>
        <time>2018-09-26T10:35:51.000Z</time>
      </trkpt>
      <trkpt lat="50.53851" lon="3.89581">
        <ele>110</ele>
        <time>2018-09-26T10:35:53.000Z</time>
      </trkpt>
      <trkpt lat="50.53838" lon="3.8958">
        <ele>111</ele>
        <time>2018-09-26T10:35:55.000Z</time>
      </trkpt>
      <trkpt lat="50.53824" lon="3.89579">
        <ele>111</ele>
        <time>2018-09-26T10:35:57.000Z</time>
      </trkpt>
      <trkpt lat="50.53811" lon="3.89578">
        <ele>111</ele>
        <time>2018-09-26T10:35:59.000Z</time>
      </trkpt>
      <trkpt lat="50.53798" lon="3.89576">
        <ele>111</ele>
        <time>2018-09-26T10:36:01.000Z</time>
      </trkpt>
      <trkpt lat="50.53785" lon="3.89573">
        <ele>111</ele>
        <time>2018-09-26T10:36:03.000Z</time>
      </trkpt>
      <trkpt lat="50.53773" lon="3.89566">
        <ele>112</ele>
        <time>2018-09-26T10:36:05.000Z</time>
      </trkpt>
      <trkpt lat="50.53761" lon="3.89556">
        <ele>112</ele>
        <time>2018-09-26T10:36:07.000Z</time>
      </trkpt>
      <trkpt lat="50.53749" lon="3.89545">
        <ele>112</ele>
        <time>2018-09-26T10:36:09.000Z</time>
      </trkpt>
      <trkpt lat="50.53738" lon="3.89534">
        <ele>113</ele>
        <time>2018-09-26T10:36:11.000Z</time>
      </trkpt>
      <trkpt lat="50.53726" lon="3.89523">
        <ele>113</ele>
        <time>2018-09-26T10:36:13.000Z</time>
      </trkpt>
      <trkpt lat="50.53714" lon="3.89512">
        <ele>113</ele>
        <time>2018-09-26T10:36:15.000Z</time>
      </trkpt>
      <trkpt lat="50.53703" lon="3.89501">
        <ele>113</ele>
        <time>2018-09-26T10:36:17.000Z</time>
      </trkpt>
      <trkpt lat="50.53691" lon="3.8949">
        <ele>113</ele>
        <time>2018-09-26T10:36:19.000Z</time>
      </trkpt>
      <trkpt lat="50.5368" lon="3.89479">
        <ele>113</ele>
        <time>2018-09-26T10:36:21.000Z</time>
      </trkpt>
      <trkpt lat="50.53668" lon="3.89467">
        <ele>113</ele>
        <time>2018-09-26T10:36:23.000Z</time>
      </trkpt>
      <trkpt lat="50.53656" lon="3.89456">
        <ele>113</ele>
        <time>2018-09-26T10:36:25.000Z</time>
      </trkpt>
      <trkpt lat="50.53644" lon="3.89445">
        <ele>113</ele>
        <time>2018-09-26T10:36:27.000Z</time>
      </trkpt>
      <trkpt lat="50.53632" lon="3.89435">
        <ele>113</ele>
        <time>2018-09-26T10:36:29.000Z</time>
      </trkpt>
      <trkpt lat="50.53619" lon="3.89426">
        <ele>113</ele>
        <time>2018-09-26T10:36:31.000Z</time>
      </trkpt>
      <trkpt lat="50.53606" lon="3.89417">
        <ele>113</ele>
        <time>2018-09-26T10:36:33.000Z</time>
      </trkpt>
      <trkpt lat="50.53593" lon="3.89408">
        <ele>113</ele>
        <time>2018-09-26T10:36:35.000Z</time>
      </trkpt>
      <trkpt lat="50.53579" lon="3.89399">
        <ele>113</ele>
        <time>2018-09-26T10:36:37.000Z</time>
      </trkpt>
      <trkpt lat="50.53566" lon="3.89391">
        <ele>113</ele>
        <time>2018-09-26T10:36:39.000Z</time>
      </trkpt>
      <trkpt lat="50.53554" lon="3.89377">
        <ele>113</ele>
        <time>2018-09-26T10:36:41.000Z</time>
      </trkpt>
      <trkpt lat="50.53543" lon="3.8936">
        <ele>113</ele>
        <time>2018-09-26T10:36:43.000Z</time>
      </trkpt>
      <trkpt lat="50.53533" lon="3.89343">
        <ele>113</ele>
        <time>2018-09-26T10:36:45.000Z</time>
      </trkpt>
      <trkpt lat="50.53523" lon="3.89327">
        <ele>113</ele>
        <time>2018-09-26T10:36:47.000Z</time>
      </trkpt>
      <trkpt lat="50.53513" lon="3.89312">
        <ele>112</ele>
        <time>2018-09-26T10:36:49.000Z</time>
      </trkpt>
      <trkpt lat="50.53503" lon="3.89296">
        <ele>112</ele>
        <time>2018-09-26T10:36:51.000Z</time>
      </trkpt>
      <trkpt lat="50.53492" lon="3.89282">
        <ele>112</ele>
        <time>2018-09-26T10:36:53.000Z</time>
      </trkpt>
      <trkpt lat="50.5348" lon="3.89267">
        <ele>111</ele>
        <time>2018-09-26T10:36:55.000Z</time>
      </trkpt>
      <trkpt lat="50.53468" lon="3.89253">
        <ele>111</ele>
        <time>2018-09-26T10:36:57.000Z</time>
      </trkpt>
      <trkpt lat="50.53457" lon="3.89237">
        <ele>110</ele>
        <time>2018-09-26T10:36:59.000Z</time>
      </trkpt>
      <trkpt lat="50.53448" lon="3.89217">
        <ele>110</ele>
        <time>2018-09-26T10:37:01.000Z</time>
      </trkpt>
      <trkpt lat="50.53441" lon="3.89194">
        <ele>110</ele>
        <time>2018-09-26T10:37:03.000Z</time>
      </trkpt>
      <trkpt lat="50.53436" lon="3.89169">
        <ele>110</ele>
        <time>2018-09-26T10:37:05.000Z</time>
      </trkpt>
      <trkpt lat="50.5343" lon="3.89146">
        <ele>110</ele>
        <time>2018-09-26T10:37:07.000Z</time>
      </trkpt>
      <trkpt lat="50.53424" lon="3.89124">
        <ele>110</ele>
        <time>2018-09-26T10:37:09.000Z</time>
      </trkpt>
      <trkpt lat="50.53419" lon="3.89104">
        <ele>110</ele>
        <time>2018-09-26T10:37:11.000Z</time>
      </trkpt>
      <trkpt lat="50.53414" lon="3.89085">
        <ele>110</ele>
        <time>2018-09-26T10:37:13.000Z</time>
      </trkpt>
      <trkpt lat="50.53408" lon="3.89068">
        <ele>110</ele>
        <time>2018-09-26T10:37:15.000Z</time>
      </trkpt>
      <trkpt lat="50.53397" lon="3.89057">
        <ele>109</ele>
        <time>2018-09-26T10:37:17.000Z</time>
      </trkpt>
      <trkpt lat="50.53385" lon="3.89049">
        <ele>110</ele>
        <time>2018-09-26T10:37:19.000Z</time>
      </trkpt>
      <trkpt lat="50.53373" lon="3.89044">
        <ele>110</ele>
        <time>2018-09-26T10:37:21.000Z</time>
      </trkpt>
      <trkpt lat="50.5336" lon="3.89038">
        <ele>110</ele>
        <time>2018-09-26T10:37:23.000Z</time>
      </trkpt>
      <trkpt lat="50.53349" lon="3.89031">
        <ele>110</ele>
        <time>2018-09-26T10:37:25.000Z</time>
      </trkpt>
      <trkpt lat="50.53337" lon="3.89024">
        <ele>111</ele>
        <time>2018-09-26T10:37:27.000Z</time>
      </trkpt>
      <trkpt lat="50.53326" lon="3.89015">
        <ele>111</ele>
        <time>2018-09-26T10:37:29.000Z</time>
      </trkpt>
      <trkpt lat="50.53316" lon="3.89006">
        <ele>111</ele>
        <time>2018-09-26T10:37:31.000Z</time>
      </trkpt>
      <trkpt lat="50.53306" lon="3.88997">
        <ele>111</ele>
        <time>2018-09-26T10:37:33.000Z</time>
      </trkpt>
      <trkpt lat="50.53297" lon="3.8899">
        <ele>112</ele>
        <time>2018-09-26T10:37:35.000Z</time>
      </trkpt>
      <trkpt lat="50.53291" lon="3.88985">
        <ele>112</ele>
        <time>2018-09-26T10:37:37.000Z</time>
      </trkpt>
      <trkpt lat="50.53291" lon="3.88985">
        <ele>112</ele>
        <time>2018-09-26T10:37:39.000Z</time>
      </trkpt>
      <trkpt lat="50.53288" lon="3.88975">
        <ele>113</ele>
        <time>2018-09-26T10:37:41.000Z</time>
      </trkpt>
      <trkpt lat="50.53291" lon="3.88953">
        <ele>113</ele>
        <time>2018-09-26T10:37:45.000Z</time>
      </trkpt>
      <trkpt lat="50.53291" lon="3.88937">
        <ele>113</ele>
        <time>2018-09-26T10:37:47.000Z</time>
      </trkpt>
      <trkpt lat="50.53293" lon="3.88919">
        <ele>113</ele>
        <time>2018-09-26T10:37:49.000Z</time>
      </trkpt>
      <trkpt lat="50.53296" lon="3.88899">
        <ele>112</ele>
        <time>2018-09-26T10:37:51.000Z</time>
      </trkpt>
      <trkpt lat="50.53298" lon="3.88879">
        <ele>112</ele>
        <time>2018-09-26T10:37:53.000Z</time>
      </trkpt>
      <trkpt lat="50.53299" lon="3.88858">
        <ele>112</ele>
        <time>2018-09-26T10:37:55.000Z</time>
      </trkpt>
      <trkpt lat="50.53301" lon="3.88837">
        <ele>112</ele>
        <time>2018-09-26T10:37:57.000Z</time>
      </trkpt>
      <trkpt lat="50.53302" lon="3.88816">
        <ele>112</ele>
        <time>2018-09-26T10:37:59.000Z</time>
      </trkpt>
      <trkpt lat="50.53304" lon="3.88794">
        <ele>112</ele>
        <time>2018-09-26T10:38:01.000Z</time>
      </trkpt>
      <trkpt lat="50.53305" lon="3.88772">
        <ele>112</ele>
        <time>2018-09-26T10:38:03.000Z</time>
      </trkpt>
      <trkpt lat="50.53301" lon="3.88749">
        <ele>112</ele>
        <time>2018-09-26T10:38:05.000Z</time>
      </trkpt>
      <trkpt lat="50.53295" lon="3.88729">
        <ele>112</ele>
        <time>2018-09-26T10:38:07.000Z</time>
      </trkpt>
      <trkpt lat="50.53289" lon="3.88708">
        <ele>112</ele>
        <time>2018-09-26T10:38:08.000Z</time>
      </trkpt>
      <trkpt lat="50.53282" lon="3.88687">
        <ele>112</ele>
        <time>2018-09-26T10:38:10.000Z</time>
      </trkpt>
      <trkpt lat="50.53275" lon="3.88666">
        <ele>112</ele>
        <time>2018-09-26T10:38:12.000Z</time>
      </trkpt>
      <trkpt lat="50.53269" lon="3.88646">
        <ele>112</ele>
        <time>2018-09-26T10:38:14.000Z</time>
      </trkpt>
      <trkpt lat="50.53263" lon="3.88624">
        <ele>111</ele>
        <time>2018-09-26T10:38:16.000Z</time>
      </trkpt>
      <trkpt lat="50.53259" lon="3.88602">
        <ele>110</ele>
        <time>2018-09-26T10:38:18.000Z</time>
      </trkpt>
      <trkpt lat="50.53258" lon="3.88578">
        <ele>110</ele>
        <time>2018-09-26T10:38:20.000Z</time>
      </trkpt>
      <trkpt lat="50.5326" lon="3.88555">
        <ele>110</ele>
        <time>2018-09-26T10:38:22.000Z</time>
      </trkpt>
      <trkpt lat="50.53263" lon="3.88533">
        <ele>110</ele>
        <time>2018-09-26T10:38:24.000Z</time>
      </trkpt>
      <trkpt lat="50.53269" lon="3.88512">
        <ele>110</ele>
        <time>2018-09-26T10:38:26.000Z</time>
      </trkpt>
      <trkpt lat="50.53276" lon="3.88492">
        <ele>110</ele>
        <time>2018-09-26T10:38:28.000Z</time>
      </trkpt>
      <trkpt lat="50.53282" lon="3.88473">
        <ele>110</ele>
        <time>2018-09-26T10:38:30.000Z</time>
      </trkpt>
      <trkpt lat="50.53288" lon="3.88455">
        <ele>111</ele>
        <time>2018-09-26T10:38:32.000Z</time>
      </trkpt>
      <trkpt lat="50.53294" lon="3.88438">
        <ele>111</ele>
        <time>2018-09-26T10:38:34.000Z</time>
      </trkpt>
      <trkpt lat="50.53299" lon="3.8842">
        <ele>111</ele>
        <time>2018-09-26T10:38:36.000Z</time>
      </trkpt>
      <trkpt lat="50.53304" lon="3.88403">
        <ele>111</ele>
        <time>2018-09-26T10:38:38.000Z</time>
      </trkpt>
      <trkpt lat="50.5331" lon="3.88385">
        <ele>112</ele>
        <time>2018-09-26T10:38:40.000Z</time>
      </trkpt>
      <trkpt lat="50.53315" lon="3.88367">
        <ele>112</ele>
        <time>2018-09-26T10:38:42.000Z</time>
      </trkpt>
      <trkpt lat="50.53321" lon="3.88348">
        <ele>112</ele>
        <time>2018-09-26T10:38:44.000Z</time>
      </trkpt>
      <trkpt lat="50.53328" lon="3.8833">
        <ele>112</ele>
        <time>2018-09-26T10:38:46.000Z</time>
      </trkpt>
      <trkpt lat="50.53334" lon="3.88311">
        <ele>112</ele>
        <time>2018-09-26T10:38:48.000Z</time>
      </trkpt>
      <trkpt lat="50.53339" lon="3.8829">
        <ele>111</ele>
        <time>2018-09-26T10:38:50.000Z</time>
      </trkpt>
      <trkpt lat="50.53342" lon="3.88267">
        <ele>110</ele>
        <time>2018-09-26T10:38:52.000Z</time>
      </trkpt>
      <trkpt lat="50.53342" lon="3.88243">
        <ele>111</ele>
        <time>2018-09-26T10:38:54.000Z</time>
      </trkpt>
      <trkpt lat="50.53342" lon="3.8822">
        <ele>110</ele>
        <time>2018-09-26T10:38:56.000Z</time>
      </trkpt>
      <trkpt lat="50.53341" lon="3.88196">
        <ele>110</ele>
        <time>2018-09-26T10:38:58.000Z</time>
      </trkpt>
      <trkpt lat="50.5334" lon="3.88174">
        <ele>110</ele>
        <time>2018-09-26T10:39:00.000Z</time>
      </trkpt>
      <trkpt lat="50.53339" lon="3.88152">
        <ele>110</ele>
        <time>2018-09-26T10:39:02.000Z</time>
      </trkpt>
      <trkpt lat="50.53339" lon="3.88131">
        <ele>110</ele>
        <time>2018-09-26T10:39:04.000Z</time>
      </trkpt>
      <trkpt lat="50.53338" lon="3.88111">
        <ele>110</ele>
        <time>2018-09-26T10:39:06.000Z</time>
      </trkpt>
      <trkpt lat="50.53337" lon="3.88091">
        <ele>110</ele>
        <time>2018-09-26T10:39:08.000Z</time>
      </trkpt>
      <trkpt lat="50.53335" lon="3.88073">
        <ele>110</ele>
        <time>2018-09-26T10:39:10.000Z</time>
      </trkpt>
      <trkpt lat="50.53332" lon="3.88054">
        <ele>110</ele>
        <time>2018-09-26T10:39:12.000Z</time>
      </trkpt>
      <trkpt lat="50.53328" lon="3.88037">
        <ele>110</ele>
        <time>2018-09-26T10:39:14.000Z</time>
      </trkpt>
      <trkpt lat="50.53323" lon="3.8802">
        <ele>111</ele>
        <time>2018-09-26T10:39:16.000Z</time>
      </trkpt>
      <trkpt lat="50.5332" lon="3.88002">
        <ele>111</ele>
        <time>2018-09-26T10:39:18.000Z</time>
      </trkpt>
      <trkpt lat="50.53314" lon="3.87986">
        <ele>111</ele>
        <time>2018-09-26T10:39:20.000Z</time>
      </trkpt>
      <trkpt lat="50.53308" lon="3.87969">
        <ele>111</ele>
        <time>2018-09-26T10:39:22.000Z</time>
      </trkpt>
      <trkpt lat="50.53302" lon="3.87954">
        <ele>111</ele>
        <time>2018-09-26T10:39:24.000Z</time>
      </trkpt>
      <trkpt lat="50.53296" lon="3.87939">
        <ele>111</ele>
        <time>2018-09-26T10:39:26.000Z</time>
      </trkpt>
      <trkpt lat="50.53288" lon="3.87924">
        <ele>111</ele>
        <time>2018-09-26T10:39:28.000Z</time>
      </trkpt>
      <trkpt lat="50.53281" lon="3.87909">
        <ele>111</ele>
        <time>2018-09-26T10:39:30.000Z</time>
      </trkpt>
      <trkpt lat="50.53274" lon="3.87894">
        <ele>112</ele>
        <time>2018-09-26T10:39:32.000Z</time>
      </trkpt>
      <trkpt lat="50.53267" lon="3.87879">
        <ele>111</ele>
        <time>2018-09-26T10:39:34.000Z</time>
      </trkpt>
      <trkpt lat="50.5326" lon="3.87864">
        <ele>111</ele>
        <time>2018-09-26T10:39:36.000Z</time>
      </trkpt>
      <trkpt lat="50.53252" lon="3.87848">
        <ele>111</ele>
        <time>2018-09-26T10:39:38.000Z</time>
      </trkpt>
      <trkpt lat="50.53245" lon="3.87833">
        <ele>111</ele>
        <time>2018-09-26T10:39:40.000Z</time>
      </trkpt>
      <trkpt lat="50.53238" lon="3.87817">
        <ele>111</ele>
        <time>2018-09-26T10:39:42.000Z</time>
      </trkpt>
      <trkpt lat="50.5323" lon="3.87801">
        <ele>111</ele>
        <time>2018-09-26T10:39:44.000Z</time>
      </trkpt>
      <trkpt lat="50.53223" lon="3.87786">
        <ele>111</ele>
        <time>2018-09-26T10:39:46.000Z</time>
      </trkpt>
      <trkpt lat="50.53215" lon="3.8777">
        <ele>111</ele>
        <time>2018-09-26T10:39:48.000Z</time>
      </trkpt>
      <trkpt lat="50.53208" lon="3.87754">
        <ele>111</ele>
        <time>2018-09-26T10:39:50.000Z</time>
      </trkpt>
      <trkpt lat="50.532" lon="3.87738">
        <ele>112</ele>
        <time>2018-09-26T10:39:52.000Z</time>
      </trkpt>
      <trkpt lat="50.53193" lon="3.87722">
        <ele>112</ele>
        <time>2018-09-26T10:39:54.000Z</time>
      </trkpt>
      <trkpt lat="50.53185" lon="3.87705">
        <ele>112</ele>
        <time>2018-09-26T10:39:56.000Z</time>
      </trkpt>
      <trkpt lat="50.53178" lon="3.87688">
        <ele>112</ele>
        <time>2018-09-26T10:39:58.000Z</time>
      </trkpt>
      <trkpt lat="50.53172" lon="3.8767">
        <ele>112</ele>
        <time>2018-09-26T10:40:00.000Z</time>
      </trkpt>
      <trkpt lat="50.53167" lon="3.87653">
        <ele>112</ele>
        <time>2018-09-26T10:40:02.000Z</time>
      </trkpt>
      <trkpt lat="50.53162" lon="3.87634">
        <ele>112</ele>
        <time>2018-09-26T10:40:04.000Z</time>
      </trkpt>
      <trkpt lat="50.53159" lon="3.87616">
        <ele>112</ele>
        <time>2018-09-26T10:40:06.000Z</time>
      </trkpt>
      <trkpt lat="50.53155" lon="3.87598">
        <ele>113</ele>
        <time>2018-09-26T10:40:08.000Z</time>
      </trkpt>
      <trkpt lat="50.53152" lon="3.87579">
        <ele>113</ele>
        <time>2018-09-26T10:40:10.000Z</time>
      </trkpt>
      <trkpt lat="50.53149" lon="3.87561">
        <ele>113</ele>
        <time>2018-09-26T10:40:12.000Z</time>
      </trkpt>
      <trkpt lat="50.53146" lon="3.87544">
        <ele>113</ele>
        <time>2018-09-26T10:40:14.000Z</time>
      </trkpt>
      <trkpt lat="50.53143" lon="3.87525">
        <ele>113</ele>
        <time>2018-09-26T10:40:16.000Z</time>
      </trkpt>
      <trkpt lat="50.5314" lon="3.87507">
        <ele>113</ele>
        <time>2018-09-26T10:40:18.000Z</time>
      </trkpt>
      <trkpt lat="50.53137" lon="3.87489">
        <ele>114</ele>
        <time>2018-09-26T10:40:20.000Z</time>
      </trkpt>
      <trkpt lat="50.53134" lon="3.87471">
        <ele>114</ele>
        <time>2018-09-26T10:40:22.000Z</time>
      </trkpt>
      <trkpt lat="50.5313" lon="3.87452">
        <ele>114</ele>
        <time>2018-09-26T10:40:24.000Z</time>
      </trkpt>
      <trkpt lat="50.53127" lon="3.87432">
        <ele>114</ele>
        <time>2018-09-26T10:40:26.000Z</time>
      </trkpt>
      <trkpt lat="50.53123" lon="3.87413">
        <ele>114</ele>
        <time>2018-09-26T10:40:28.000Z</time>
      </trkpt>
      <trkpt lat="50.5312" lon="3.87393">
        <ele>114</ele>
        <time>2018-09-26T10:40:30.000Z</time>
      </trkpt>
      <trkpt lat="50.53117" lon="3.87374">
        <ele>114</ele>
        <time>2018-09-26T10:40:32.000Z</time>
      </trkpt>
      <trkpt lat="50.53114" lon="3.87354">
        <ele>114</ele>
        <time>2018-09-26T10:40:34.000Z</time>
      </trkpt>
      <trkpt lat="50.5311" lon="3.87333">
        <ele>114</ele>
        <time>2018-09-26T10:40:36.000Z</time>
      </trkpt>
      <trkpt lat="50.53106" lon="3.87312">
        <ele>114</ele>
        <time>2018-09-26T10:40:38.000Z</time>
      </trkpt>
      <trkpt lat="50.53102" lon="3.87292">
        <ele>114</ele>
        <time>2018-09-26T10:40:40.000Z</time>
      </trkpt>
      <trkpt lat="50.53099" lon="3.87272">
        <ele>114</ele>
        <time>2018-09-26T10:40:42.000Z</time>
      </trkpt>
      <trkpt lat="50.53095" lon="3.87251">
        <ele>114</ele>
        <time>2018-09-26T10:40:44.000Z</time>
      </trkpt>
      <trkpt lat="50.53092" lon="3.87231">
        <ele>114</ele>
        <time>2018-09-26T10:40:46.000Z</time>
      </trkpt>
      <trkpt lat="50.53088" lon="3.8721">
        <ele>114</ele>
        <time>2018-09-26T10:40:48.000Z</time>
      </trkpt>
      <trkpt lat="50.53084" lon="3.8719">
        <ele>114</ele>
        <time>2018-09-26T10:40:50.000Z</time>
      </trkpt>
      <trkpt lat="50.5308" lon="3.8717">
        <ele>114</ele>
        <time>2018-09-26T10:40:52.000Z</time>
      </trkpt>
      <trkpt lat="50.53075" lon="3.8715">
        <ele>114</ele>
        <time>2018-09-26T10:40:54.000Z</time>
      </trkpt>
      <trkpt lat="50.53069" lon="3.8713">
        <ele>114</ele>
        <time>2018-09-26T10:40:56.000Z</time>
      </trkpt>
      <trkpt lat="50.53063" lon="3.87111">
        <ele>114</ele>
        <time>2018-09-26T10:40:58.000Z</time>
      </trkpt>
      <trkpt lat="50.53057" lon="3.87092">
        <ele>113</ele>
        <time>2018-09-26T10:41:00.000Z</time>
      </trkpt>
      <trkpt lat="50.53051" lon="3.87072">
        <ele>113</ele>
        <time>2018-09-26T10:41:02.000Z</time>
      </trkpt>
      <trkpt lat="50.53044" lon="3.87052">
        <ele>113</ele>
        <time>2018-09-26T10:41:04.000Z</time>
      </trkpt>
      <trkpt lat="50.53037" lon="3.87032">
        <ele>113</ele>
        <time>2018-09-26T10:41:06.000Z</time>
      </trkpt>
      <trkpt lat="50.53031" lon="3.87012">
        <ele>113</ele>
        <time>2018-09-26T10:41:08.000Z</time>
      </trkpt>
      <trkpt lat="50.53024" lon="3.86992">
        <ele>114</ele>
        <time>2018-09-26T10:41:10.000Z</time>
      </trkpt>
      <trkpt lat="50.53019" lon="3.86971">
        <ele>114</ele>
        <time>2018-09-26T10:41:12.000Z</time>
      </trkpt>
      <trkpt lat="50.53013" lon="3.86951">
        <ele>114</ele>
        <time>2018-09-26T10:41:14.000Z</time>
      </trkpt>
      <trkpt lat="50.53008" lon="3.86931">
        <ele>113</ele>
        <time>2018-09-26T10:41:16.000Z</time>
      </trkpt>
      <trkpt lat="50.53002" lon="3.8691">
        <ele>114</ele>
        <time>2018-09-26T10:41:18.000Z</time>
      </trkpt>
      <trkpt lat="50.52996" lon="3.86889">
        <ele>114</ele>
        <time>2018-09-26T10:41:20.000Z</time>
      </trkpt>
      <trkpt lat="50.52991" lon="3.86869">
        <ele>114</ele>
        <time>2018-09-26T10:41:22.000Z</time>
      </trkpt>
      <trkpt lat="50.52985" lon="3.86848">
        <ele>113</ele>
        <time>2018-09-26T10:41:24.000Z</time>
      </trkpt>
      <trkpt lat="50.5298" lon="3.86827">
        <ele>113</ele>
        <time>2018-09-26T10:41:26.000Z</time>
      </trkpt>
      <trkpt lat="50.52974" lon="3.86806">
        <ele>113</ele>
        <time>2018-09-26T10:41:28.000Z</time>
      </trkpt>
      <trkpt lat="50.52968" lon="3.86786">
        <ele>113</ele>
        <time>2018-09-26T10:41:30.000Z</time>
      </trkpt>
      <trkpt lat="50.52962" lon="3.86766">
        <ele>113</ele>
        <time>2018-09-26T10:41:32.000Z</time>
      </trkpt>
      <trkpt lat="50.52957" lon="3.86746">
        <ele>113</ele>
        <time>2018-09-26T10:41:34.000Z</time>
      </trkpt>
      <trkpt lat="50.52952" lon="3.86726">
        <ele>114</ele>
        <time>2018-09-26T10:41:36.000Z</time>
      </trkpt>
      <trkpt lat="50.52946" lon="3.86706">
        <ele>113</ele>
        <time>2018-09-26T10:41:38.000Z</time>
      </trkpt>
      <trkpt lat="50.52941" lon="3.86687">
        <ele>114</ele>
        <time>2018-09-26T10:41:40.000Z</time>
      </trkpt>
      <trkpt lat="50.52936" lon="3.86668">
        <ele>114</ele>
        <time>2018-09-26T10:41:42.000Z</time>
      </trkpt>
      <trkpt lat="50.52931" lon="3.86649">
        <ele>114</ele>
        <time>2018-09-26T10:41:44.000Z</time>
      </trkpt>
      <trkpt lat="50.52926" lon="3.8663">
        <ele>114</ele>
        <time>2018-09-26T10:41:46.000Z</time>
      </trkpt>
      <trkpt lat="50.52922" lon="3.86611">
        <ele>114</ele>
        <time>2018-09-26T10:41:48.000Z</time>
      </trkpt>
      <trkpt lat="50.52919" lon="3.86592">
        <ele>114</ele>
        <time>2018-09-26T10:41:50.000Z</time>
      </trkpt>
      <trkpt lat="50.52916" lon="3.86572">
        <ele>114</ele>
        <time>2018-09-26T10:41:52.000Z</time>
      </trkpt>
      <trkpt lat="50.52913" lon="3.86552">
        <ele>114</ele>
        <time>2018-09-26T10:41:54.000Z</time>
      </trkpt>
      <trkpt lat="50.5291" lon="3.86531">
        <ele>114</ele>
        <time>2018-09-26T10:41:56.000Z</time>
      </trkpt>
      <trkpt lat="50.52908" lon="3.8651">
        <ele>114</ele>
        <time>2018-09-26T10:41:58.000Z</time>
      </trkpt>
      <trkpt lat="50.52905" lon="3.8649">
        <ele>114</ele>
        <time>2018-09-26T10:42:00.000Z</time>
      </trkpt>
      <trkpt lat="50.52903" lon="3.86469">
        <ele>114</ele>
        <time>2018-09-26T10:42:02.000Z</time>
      </trkpt>
      <trkpt lat="50.52902" lon="3.86447">
        <ele>114</ele>
        <time>2018-09-26T10:42:04.000Z</time>
      </trkpt>
      <trkpt lat="50.52901" lon="3.86426">
        <ele>114</ele>
        <time>2018-09-26T10:42:06.000Z</time>
      </trkpt>
      <trkpt lat="50.52901" lon="3.86404">
        <ele>114</ele>
        <time>2018-09-26T10:42:08.000Z</time>
      </trkpt>
      <trkpt lat="50.52901" lon="3.86383">
        <ele>115</ele>
        <time>2018-09-26T10:42:10.000Z</time>
      </trkpt>
      <trkpt lat="50.52903" lon="3.86361">
        <ele>115</ele>
        <time>2018-09-26T10:42:12.000Z</time>
      </trkpt>
      <trkpt lat="50.52903" lon="3.8634">
        <ele>115</ele>
        <time>2018-09-26T10:42:14.000Z</time>
      </trkpt>
      <trkpt lat="50.52905" lon="3.86319">
        <ele>115</ele>
        <time>2018-09-26T10:42:16.000Z</time>
      </trkpt>
      <trkpt lat="50.52905" lon="3.86298">
        <ele>115</ele>
        <time>2018-09-26T10:42:18.000Z</time>
      </trkpt>
      <trkpt lat="50.52906" lon="3.86277">
        <ele>115</ele>
        <time>2018-09-26T10:42:20.000Z</time>
      </trkpt>
      <trkpt lat="50.52908" lon="3.86257">
        <ele>116</ele>
        <time>2018-09-26T10:42:22.000Z</time>
      </trkpt>
      <trkpt lat="50.52911" lon="3.86237">
        <ele>116</ele>
        <time>2018-09-26T10:42:24.000Z</time>
      </trkpt>
      <trkpt lat="50.52912" lon="3.86216">
        <ele>116</ele>
        <time>2018-09-26T10:42:26.000Z</time>
      </trkpt>
      <trkpt lat="50.52914" lon="3.86194">
        <ele>116</ele>
        <time>2018-09-26T10:42:28.000Z</time>
      </trkpt>
      <trkpt lat="50.52916" lon="3.86173">
        <ele>116</ele>
        <time>2018-09-26T10:42:30.000Z</time>
      </trkpt>
      <trkpt lat="50.52917" lon="3.86152">
        <ele>116</ele>
        <time>2018-09-26T10:42:32.000Z</time>
      </trkpt>
      <trkpt lat="50.52919" lon="3.86131">
        <ele>116</ele>
        <time>2018-09-26T10:42:34.000Z</time>
      </trkpt>
      <trkpt lat="50.5292" lon="3.8611">
        <ele>116</ele>
        <time>2018-09-26T10:42:36.000Z</time>
      </trkpt>
      <trkpt lat="50.5292" lon="3.86091">
        <ele>116</ele>
        <time>2018-09-26T10:42:38.000Z</time>
      </trkpt>
      <trkpt lat="50.52917" lon="3.86073">
        <ele>115</ele>
        <time>2018-09-26T10:42:40.000Z</time>
      </trkpt>
      <trkpt lat="50.52911" lon="3.86055">
        <ele>115</ele>
        <time>2018-09-26T10:42:42.000Z</time>
      </trkpt>
      <trkpt lat="50.52903" lon="3.86037">
        <ele>115</ele>
        <time>2018-09-26T10:42:44.000Z</time>
      </trkpt>
      <trkpt lat="50.52894" lon="3.8602">
        <ele>115</ele>
        <time>2018-09-26T10:42:46.000Z</time>
      </trkpt>
      <trkpt lat="50.52885" lon="3.86003">
        <ele>115</ele>
        <time>2018-09-26T10:42:48.000Z</time>
      </trkpt>
      <trkpt lat="50.52876" lon="3.85987">
        <ele>115</ele>
        <time>2018-09-26T10:42:50.000Z</time>
      </trkpt>
      <trkpt lat="50.52868" lon="3.85969">
        <ele>115</ele>
        <time>2018-09-26T10:42:52.000Z</time>
      </trkpt>
      <trkpt lat="50.52859" lon="3.85952">
        <ele>115</ele>
        <time>2018-09-26T10:42:54.000Z</time>
      </trkpt>
      <trkpt lat="50.52851" lon="3.85935">
        <ele>115</ele>
        <time>2018-09-26T10:42:56.000Z</time>
      </trkpt>
      <trkpt lat="50.52843" lon="3.85919">
        <ele>115</ele>
        <time>2018-09-26T10:42:58.000Z</time>
      </trkpt>
      <trkpt lat="50.52834" lon="3.85903">
        <ele>115</ele>
        <time>2018-09-26T10:43:00.000Z</time>
      </trkpt>
      <trkpt lat="50.52825" lon="3.85887">
        <ele>115</ele>
        <time>2018-09-26T10:43:02.000Z</time>
      </trkpt>
      <trkpt lat="50.52815" lon="3.85872">
        <ele>115</ele>
        <time>2018-09-26T10:43:04.000Z</time>
      </trkpt>
      <trkpt lat="50.52805" lon="3.85856">
        <ele>115</ele>
        <time>2018-09-26T10:43:06.000Z</time>
      </trkpt>
      <trkpt lat="50.52797" lon="3.85839">
        <ele>115</ele>
        <time>2018-09-26T10:43:08.000Z</time>
      </trkpt>
      <trkpt lat="50.52788" lon="3.85821">
        <ele>115</ele>
        <time>2018-09-26T10:43:10.000Z</time>
      </trkpt>
      <trkpt lat="50.5278" lon="3.85805">
        <ele>115</ele>
        <time>2018-09-26T10:43:12.000Z</time>
      </trkpt>
      <trkpt lat="50.52771" lon="3.85789">
        <ele>114</ele>
        <time>2018-09-26T10:43:14.000Z</time>
      </trkpt>
      <trkpt lat="50.5276" lon="3.85776">
        <ele>115</ele>
        <time>2018-09-26T10:43:16.000Z</time>
      </trkpt>
      <trkpt lat="50.52748" lon="3.85768">
        <ele>114</ele>
        <time>2018-09-26T10:43:18.000Z</time>
      </trkpt>
      <trkpt lat="50.52735" lon="3.85767">
        <ele>114</ele>
        <time>2018-09-26T10:43:20.000Z</time>
      </trkpt>
      <trkpt lat="50.52721" lon="3.85768">
        <ele>114</ele>
        <time>2018-09-26T10:43:22.000Z</time>
      </trkpt>
      <trkpt lat="50.52708" lon="3.85771">
        <ele>114</ele>
        <time>2018-09-26T10:43:24.000Z</time>
      </trkpt>
      <trkpt lat="50.52694" lon="3.85773">
        <ele>113</ele>
        <time>2018-09-26T10:43:26.000Z</time>
      </trkpt>
      <trkpt lat="50.52682" lon="3.85773">
        <ele>113</ele>
        <time>2018-09-26T10:43:28.000Z</time>
      </trkpt>
      <trkpt lat="50.5267" lon="3.85773">
        <ele>112</ele>
        <time>2018-09-26T10:43:30.000Z</time>
      </trkpt>
      <trkpt lat="50.52657" lon="3.85772">
        <ele>112</ele>
        <time>2018-09-26T10:43:32.000Z</time>
      </trkpt>
      <trkpt lat="50.52645" lon="3.85769">
        <ele>113</ele>
        <time>2018-09-26T10:43:34.000Z</time>
      </trkpt>
      <trkpt lat="50.52633" lon="3.85762">
        <ele>113</ele>
        <time>2018-09-26T10:43:36.000Z</time>
      </trkpt>
      <trkpt lat="50.52621" lon="3.85752">
        <ele>113</ele>
        <time>2018-09-26T10:43:38.000Z</time>
      </trkpt>
      <trkpt lat="50.52611" lon="3.85738">
        <ele>113</ele>
        <time>2018-09-26T10:43:40.000Z</time>
      </trkpt>
      <trkpt lat="50.52602" lon="3.85725">
        <ele>114</ele>
        <time>2018-09-26T10:43:42.000Z</time>
      </trkpt>
      <trkpt lat="50.52592" lon="3.85711">
        <ele>114</ele>
        <time>2018-09-26T10:43:44.000Z</time>
      </trkpt>
      <trkpt lat="50.52583" lon="3.85698">
        <ele>114</ele>
        <time>2018-09-26T10:43:46.000Z</time>
      </trkpt>
      <trkpt lat="50.52573" lon="3.85686">
        <ele>114</ele>
        <time>2018-09-26T10:43:48.000Z</time>
      </trkpt>
      <trkpt lat="50.52564" lon="3.85673">
        <ele>114</ele>
        <time>2018-09-26T10:43:50.000Z</time>
      </trkpt>
      <trkpt lat="50.52554" lon="3.8566">
        <ele>114</ele>
        <time>2018-09-26T10:43:52.000Z</time>
      </trkpt>
      <trkpt lat="50.52544" lon="3.85647">
        <ele>114</ele>
        <time>2018-09-26T10:43:54.000Z</time>
      </trkpt>
      <trkpt lat="50.52535" lon="3.85635">
        <ele>114</ele>
        <time>2018-09-26T10:43:56.000Z</time>
      </trkpt>
      <trkpt lat="50.52525" lon="3.85622">
        <ele>114</ele>
        <time>2018-09-26T10:43:58.000Z</time>
      </trkpt>
      <trkpt lat="50.52515" lon="3.85609">
        <ele>114</ele>
        <time>2018-09-26T10:44:00.000Z</time>
      </trkpt>
      <trkpt lat="50.52504" lon="3.85596">
        <ele>114</ele>
        <time>2018-09-26T10:44:02.000Z</time>
      </trkpt>
      <trkpt lat="50.52494" lon="3.85583">
        <ele>114</ele>
        <time>2018-09-26T10:44:04.000Z</time>
      </trkpt>
      <trkpt lat="50.52484" lon="3.8557">
        <ele>114</ele>
        <time>2018-09-26T10:44:06.000Z</time>
      </trkpt>
      <trkpt lat="50.52473" lon="3.85558">
        <ele>114</ele>
        <time>2018-09-26T10:44:08.000Z</time>
      </trkpt>
      <trkpt lat="50.52462" lon="3.85545">
        <ele>114</ele>
        <time>2018-09-26T10:44:10.000Z</time>
      </trkpt>
      <trkpt lat="50.52449" lon="3.85535">
        <ele>114</ele>
        <time>2018-09-26T10:44:12.000Z</time>
      </trkpt>
      <trkpt lat="50.52436" lon="3.85528">
        <ele>114</ele>
        <time>2018-09-26T10:44:14.000Z</time>
      </trkpt>
      <trkpt lat="50.52423" lon="3.85524">
        <ele>114</ele>
        <time>2018-09-26T10:44:16.000Z</time>
      </trkpt>
      <trkpt lat="50.5241" lon="3.85523">
        <ele>114</ele>
        <time>2018-09-26T10:44:18.000Z</time>
      </trkpt>
      <trkpt lat="50.52396" lon="3.85522">
        <ele>114</ele>
        <time>2018-09-26T10:44:20.000Z</time>
      </trkpt>
      <trkpt lat="50.52382" lon="3.85522">
        <ele>114</ele>
        <time>2018-09-26T10:44:22.000Z</time>
      </trkpt>
      <trkpt lat="50.52368" lon="3.85519">
        <ele>114</ele>
        <time>2018-09-26T10:44:24.000Z</time>
      </trkpt>
      <trkpt lat="50.52356" lon="3.8551">
        <ele>114</ele>
        <time>2018-09-26T10:44:26.000Z</time>
      </trkpt>
      <trkpt lat="50.52344" lon="3.85498">
        <ele>114</ele>
        <time>2018-09-26T10:44:28.000Z</time>
      </trkpt>
      <trkpt lat="50.52333" lon="3.85487">
        <ele>114</ele>
        <time>2018-09-26T10:44:30.000Z</time>
      </trkpt>
      <trkpt lat="50.52322" lon="3.85475">
        <ele>115</ele>
        <time>2018-09-26T10:44:32.000Z</time>
      </trkpt>
      <trkpt lat="50.52312" lon="3.85463">
        <ele>115</ele>
        <time>2018-09-26T10:44:34.000Z</time>
      </trkpt>
      <trkpt lat="50.52301" lon="3.85451">
        <ele>115</ele>
        <time>2018-09-26T10:44:36.000Z</time>
      </trkpt>
      <trkpt lat="50.52291" lon="3.85437">
        <ele>115</ele>
        <time>2018-09-26T10:44:38.000Z</time>
      </trkpt>
      <trkpt lat="50.52282" lon="3.85423">
        <ele>115</ele>
        <time>2018-09-26T10:44:40.000Z</time>
      </trkpt>
      <trkpt lat="50.52272" lon="3.85409">
        <ele>115</ele>
        <time>2018-09-26T10:44:42.000Z</time>
      </trkpt>
      <trkpt lat="50.52263" lon="3.85395">
        <ele>115</ele>
        <time>2018-09-26T10:44:44.000Z</time>
      </trkpt>
      <trkpt lat="50.52254" lon="3.85381">
        <ele>115</ele>
        <time>2018-09-26T10:44:46.000Z</time>
      </trkpt>
      <trkpt lat="50.52244" lon="3.85369">
        <ele>115</ele>
        <time>2018-09-26T10:44:48.000Z</time>
      </trkpt>
      <trkpt lat="50.52235" lon="3.85355">
        <ele>115</ele>
        <time>2018-09-26T10:44:50.000Z</time>
      </trkpt>
      <trkpt lat="50.52225" lon="3.85341">
        <ele>115</ele>
        <time>2018-09-26T10:44:52.000Z</time>
      </trkpt>
      <trkpt lat="50.52216" lon="3.85328">
        <ele>115</ele>
        <time>2018-09-26T10:44:54.000Z</time>
      </trkpt>
      <trkpt lat="50.52206" lon="3.85314">
        <ele>115</ele>
        <time>2018-09-26T10:44:56.000Z</time>
      </trkpt>
      <trkpt lat="50.52195" lon="3.85299">
        <ele>115</ele>
        <time>2018-09-26T10:44:58.000Z</time>
      </trkpt>
      <trkpt lat="50.52185" lon="3.85285">
        <ele>115</ele>
        <time>2018-09-26T10:45:00.000Z</time>
      </trkpt>
      <trkpt lat="50.52175" lon="3.85271">
        <ele>115</ele>
        <time>2018-09-26T10:45:02.000Z</time>
      </trkpt>
      <trkpt lat="50.52164" lon="3.85258">
        <ele>115</ele>
        <time>2018-09-26T10:45:04.000Z</time>
      </trkpt>
      <trkpt lat="50.52153" lon="3.85244">
        <ele>116</ele>
        <time>2018-09-26T10:45:06.000Z</time>
      </trkpt>
      <trkpt lat="50.52142" lon="3.85231">
        <ele>116</ele>
        <time>2018-09-26T10:45:08.000Z</time>
      </trkpt>
      <trkpt lat="50.52132" lon="3.85218">
        <ele>116</ele>
        <time>2018-09-26T10:45:10.000Z</time>
      </trkpt>
      <trkpt lat="50.52121" lon="3.85205">
        <ele>116</ele>
        <time>2018-09-26T10:45:12.000Z</time>
      </trkpt>
      <trkpt lat="50.5211" lon="3.85193">
        <ele>116</ele>
        <time>2018-09-26T10:45:14.000Z</time>
      </trkpt>
      <trkpt lat="50.52099" lon="3.85181">
        <ele>117</ele>
        <time>2018-09-26T10:45:16.000Z</time>
      </trkpt>
      <trkpt lat="50.52089" lon="3.85169">
        <ele>117</ele>
        <time>2018-09-26T10:45:18.000Z</time>
      </trkpt>
      <trkpt lat="50.52077" lon="3.85158">
        <ele>117</ele>
        <time>2018-09-26T10:45:20.000Z</time>
      </trkpt>
      <trkpt lat="50.52066" lon="3.85147">
        <ele>117</ele>
        <time>2018-09-26T10:45:22.000Z</time>
      </trkpt>
      <trkpt lat="50.52055" lon="3.85135">
        <ele>117</ele>
        <time>2018-09-26T10:45:24.000Z</time>
      </trkpt>
      <trkpt lat="50.52044" lon="3.85124">
        <ele>117</ele>
        <time>2018-09-26T10:45:26.000Z</time>
      </trkpt>
      <trkpt lat="50.52034" lon="3.85112">
        <ele>117</ele>
        <time>2018-09-26T10:45:28.000Z</time>
      </trkpt>
      <trkpt lat="50.52024" lon="3.85099">
        <ele>117</ele>
        <time>2018-09-26T10:45:30.000Z</time>
      </trkpt>
      <trkpt lat="50.52015" lon="3.85084">
        <ele>117</ele>
        <time>2018-09-26T10:45:32.000Z</time>
      </trkpt>
      <trkpt lat="50.52006" lon="3.85069">
        <ele>117</ele>
        <time>2018-09-26T10:45:34.000Z</time>
      </trkpt>
      <trkpt lat="50.51998" lon="3.85053">
        <ele>117</ele>
        <time>2018-09-26T10:45:36.000Z</time>
      </trkpt>
      <trkpt lat="50.51991" lon="3.85038">
        <ele>117</ele>
        <time>2018-09-26T10:45:38.000Z</time>
      </trkpt>
      <trkpt lat="50.51985" lon="3.85023">
        <ele>117</ele>
        <time>2018-09-26T10:45:40.000Z</time>
      </trkpt>
      <trkpt lat="50.51979" lon="3.85008">
        <ele>117</ele>
        <time>2018-09-26T10:45:42.000Z</time>
      </trkpt>
      <trkpt lat="50.51973" lon="3.84992">
        <ele>117</ele>
        <time>2018-09-26T10:45:44.000Z</time>
      </trkpt>
      <trkpt lat="50.51967" lon="3.84977">
        <ele>117</ele>
        <time>2018-09-26T10:45:46.000Z</time>
      </trkpt>
      <trkpt lat="50.5196" lon="3.84962">
        <ele>117</ele>
        <time>2018-09-26T10:45:48.000Z</time>
      </trkpt>
      <trkpt lat="50.51952" lon="3.84948">
        <ele>118</ele>
        <time>2018-09-26T10:45:50.000Z</time>
      </trkpt>
      <trkpt lat="50.51943" lon="3.84935">
        <ele>118</ele>
        <time>2018-09-26T10:45:52.000Z</time>
      </trkpt>
      <trkpt lat="50.51933" lon="3.84925">
        <ele>118</ele>
        <time>2018-09-26T10:45:54.000Z</time>
      </trkpt>
      <trkpt lat="50.51922" lon="3.84914">
        <ele>118</ele>
        <time>2018-09-26T10:45:56.000Z</time>
      </trkpt>
      <trkpt lat="50.51912" lon="3.84903">
        <ele>118</ele>
        <time>2018-09-26T10:45:58.000Z</time>
      </trkpt>
      <trkpt lat="50.51901" lon="3.84893">
        <ele>118</ele>
        <time>2018-09-26T10:46:00.000Z</time>
      </trkpt>
      <trkpt lat="50.51891" lon="3.84882">
        <ele>118</ele>
        <time>2018-09-26T10:46:02.000Z</time>
      </trkpt>
      <trkpt lat="50.5188" lon="3.84872">
        <ele>119</ele>
        <time>2018-09-26T10:46:04.000Z</time>
      </trkpt>
      <trkpt lat="50.5187" lon="3.84861">
        <ele>119</ele>
        <time>2018-09-26T10:46:06.000Z</time>
      </trkpt>
      <trkpt lat="50.5186" lon="3.84851">
        <ele>119</ele>
        <time>2018-09-26T10:46:08.000Z</time>
      </trkpt>
      <trkpt lat="50.51851" lon="3.84841">
        <ele>119</ele>
        <time>2018-09-26T10:46:10.000Z</time>
      </trkpt>
      <trkpt lat="50.51842" lon="3.84828">
        <ele>119</ele>
        <time>2018-09-26T10:46:12.000Z</time>
      </trkpt>
      <trkpt lat="50.51833" lon="3.84815">
        <ele>119</ele>
        <time>2018-09-26T10:46:14.000Z</time>
      </trkpt>
      <trkpt lat="50.51826" lon="3.84799">
        <ele>119</ele>
        <time>2018-09-26T10:46:16.000Z</time>
      </trkpt>
      <trkpt lat="50.51819" lon="3.84783">
        <ele>119</ele>
        <time>2018-09-26T10:46:18.000Z</time>
      </trkpt>
      <trkpt lat="50.51813" lon="3.84767">
        <ele>119</ele>
        <time>2018-09-26T10:46:20.000Z</time>
      </trkpt>
      <trkpt lat="50.51806" lon="3.8475">
        <ele>120</ele>
        <time>2018-09-26T10:46:22.000Z</time>
      </trkpt>
      <trkpt lat="50.51801" lon="3.84734">
        <ele>120</ele>
        <time>2018-09-26T10:46:24.000Z</time>
      </trkpt>
      <trkpt lat="50.51794" lon="3.84718">
        <ele>120</ele>
        <time>2018-09-26T10:46:26.000Z</time>
      </trkpt>
      <trkpt lat="50.51789" lon="3.84701">
        <ele>120</ele>
        <time>2018-09-26T10:46:28.000Z</time>
      </trkpt>
      <trkpt lat="50.51783" lon="3.84685">
        <ele>120</ele>
        <time>2018-09-26T10:46:30.000Z</time>
      </trkpt>
      <trkpt lat="50.51778" lon="3.84668">
        <ele>120</ele>
        <time>2018-09-26T10:46:32.000Z</time>
      </trkpt>
      <trkpt lat="50.51772" lon="3.84652">
        <ele>120</ele>
        <time>2018-09-26T10:46:34.000Z</time>
      </trkpt>
      <trkpt lat="50.51767" lon="3.84637">
        <ele>120</ele>
        <time>2018-09-26T10:46:36.000Z</time>
      </trkpt>
      <trkpt lat="50.51761" lon="3.84622">
        <ele>120</ele>
        <time>2018-09-26T10:46:38.000Z</time>
      </trkpt>
      <trkpt lat="50.51756" lon="3.84607">
        <ele>120</ele>
        <time>2018-09-26T10:46:40.000Z</time>
      </trkpt>
      <trkpt lat="50.51749" lon="3.84592">
        <ele>120</ele>
        <time>2018-09-26T10:46:42.000Z</time>
      </trkpt>
      <trkpt lat="50.51742" lon="3.84577">
        <ele>121</ele>
        <time>2018-09-26T10:46:44.000Z</time>
      </trkpt>
      <trkpt lat="50.51735" lon="3.84564">
        <ele>121</ele>
        <time>2018-09-26T10:46:46.000Z</time>
      </trkpt>
      <trkpt lat="50.51728" lon="3.8455">
        <ele>120</ele>
        <time>2018-09-26T10:46:48.000Z</time>
      </trkpt>
      <trkpt lat="50.51719" lon="3.84538">
        <ele>121</ele>
        <time>2018-09-26T10:46:50.000Z</time>
      </trkpt>
      <trkpt lat="50.5171" lon="3.84527">
        <ele>121</ele>
        <time>2018-09-26T10:46:52.000Z</time>
      </trkpt>
      <trkpt lat="50.51701" lon="3.84517">
        <ele>121</ele>
        <time>2018-09-26T10:46:54.000Z</time>
      </trkpt>
      <trkpt lat="50.51692" lon="3.84508">
        <ele>121</ele>
        <time>2018-09-26T10:46:56.000Z</time>
      </trkpt>
      <trkpt lat="50.51684" lon="3.84498">
        <ele>121</ele>
        <time>2018-09-26T10:46:58.000Z</time>
      </trkpt>
      <trkpt lat="50.51675" lon="3.84488">
        <ele>121</ele>
        <time>2018-09-26T10:47:00.000Z</time>
      </trkpt>
      <trkpt lat="50.51665" lon="3.84478">
        <ele>121</ele>
        <time>2018-09-26T10:47:02.000Z</time>
      </trkpt>
      <trkpt lat="50.51656" lon="3.84468">
        <ele>121</ele>
        <time>2018-09-26T10:47:04.000Z</time>
      </trkpt>
      <trkpt lat="50.51646" lon="3.84459">
        <ele>121</ele>
        <time>2018-09-26T10:47:06.000Z</time>
      </trkpt>
      <trkpt lat="50.51637" lon="3.8445">
        <ele>121</ele>
        <time>2018-09-26T10:47:08.000Z</time>
      </trkpt>
      <trkpt lat="50.51627" lon="3.84442">
        <ele>121</ele>
        <time>2018-09-26T10:47:10.000Z</time>
      </trkpt>
      <trkpt lat="50.51617" lon="3.84434">
        <ele>121</ele>
        <time>2018-09-26T10:47:12.000Z</time>
      </trkpt>
      <trkpt lat="50.51608" lon="3.84425">
        <ele>121</ele>
        <time>2018-09-26T10:47:14.000Z</time>
      </trkpt>
      <trkpt lat="50.51598" lon="3.84415">
        <ele>121</ele>
        <time>2018-09-26T10:47:16.000Z</time>
      </trkpt>
      <trkpt lat="50.51588" lon="3.84404">
        <ele>122</ele>
        <time>2018-09-26T10:47:18.000Z</time>
      </trkpt>
      <trkpt lat="50.51579" lon="3.84393">
        <ele>122</ele>
        <time>2018-09-26T10:47:20.000Z</time>
      </trkpt>
      <trkpt lat="50.51569" lon="3.84383">
        <ele>122</ele>
        <time>2018-09-26T10:47:22.000Z</time>
      </trkpt>
      <trkpt lat="50.51561" lon="3.84372">
        <ele>122</ele>
        <time>2018-09-26T10:47:24.000Z</time>
      </trkpt>
      <trkpt lat="50.51552" lon="3.84362">
        <ele>122</ele>
        <time>2018-09-26T10:47:26.000Z</time>
      </trkpt>
      <trkpt lat="50.51543" lon="3.84352">
        <ele>122</ele>
        <time>2018-09-26T10:47:28.000Z</time>
      </trkpt>
      <trkpt lat="50.51533" lon="3.84342">
        <ele>122</ele>
        <time>2018-09-26T10:47:30.000Z</time>
      </trkpt>
      <trkpt lat="50.51523" lon="3.84332">
        <ele>122</ele>
        <time>2018-09-26T10:47:32.000Z</time>
      </trkpt>
      <trkpt lat="50.51513" lon="3.8432">
        <ele>122</ele>
        <time>2018-09-26T10:47:34.000Z</time>
      </trkpt>
      <trkpt lat="50.51502" lon="3.84309">
        <ele>122</ele>
        <time>2018-09-26T10:47:36.000Z</time>
      </trkpt>
      <trkpt lat="50.51492" lon="3.84298">
        <ele>122</ele>
        <time>2018-09-26T10:47:38.000Z</time>
      </trkpt>
      <trkpt lat="50.51481" lon="3.84287">
        <ele>123</ele>
        <time>2018-09-26T10:47:40.000Z</time>
      </trkpt>
      <trkpt lat="50.51471" lon="3.84275">
        <ele>122</ele>
        <time>2018-09-26T10:47:42.000Z</time>
      </trkpt>
      <trkpt lat="50.51461" lon="3.84264">
        <ele>123</ele>
        <time>2018-09-26T10:47:44.000Z</time>
      </trkpt>
      <trkpt lat="50.51451" lon="3.84252">
        <ele>123</ele>
        <time>2018-09-26T10:47:46.000Z</time>
      </trkpt>
      <trkpt lat="50.51443" lon="3.84239">
        <ele>123</ele>
        <time>2018-09-26T10:47:48.000Z</time>
      </trkpt>
      <trkpt lat="50.51435" lon="3.84224">
        <ele>123</ele>
        <time>2018-09-26T10:47:50.000Z</time>
      </trkpt>
      <trkpt lat="50.51428" lon="3.84208">
        <ele>123</ele>
        <time>2018-09-26T10:47:52.000Z</time>
      </trkpt>
      <trkpt lat="50.51422" lon="3.84192">
        <ele>123</ele>
        <time>2018-09-26T10:47:54.000Z</time>
      </trkpt>
      <trkpt lat="50.51416" lon="3.84175">
        <ele>123</ele>
        <time>2018-09-26T10:47:56.000Z</time>
      </trkpt>
      <trkpt lat="50.51411" lon="3.84159">
        <ele>124</ele>
        <time>2018-09-26T10:47:58.000Z</time>
      </trkpt>
      <trkpt lat="50.51405" lon="3.84143">
        <ele>124</ele>
        <time>2018-09-26T10:48:00.000Z</time>
      </trkpt>
      <trkpt lat="50.51399" lon="3.84126">
        <ele>124</ele>
        <time>2018-09-26T10:48:02.000Z</time>
      </trkpt>
      <trkpt lat="50.51394" lon="3.8411">
        <ele>125</ele>
        <time>2018-09-26T10:48:05.000Z</time>
      </trkpt>
      <trkpt lat="50.51388" lon="3.84095">
        <ele>125</ele>
        <time>2018-09-26T10:48:06.000Z</time>
      </trkpt>
      <trkpt lat="50.51382" lon="3.84078">
        <ele>125</ele>
        <time>2018-09-26T10:48:08.000Z</time>
      </trkpt>
      <trkpt lat="50.51375" lon="3.84062">
        <ele>125</ele>
        <time>2018-09-26T10:48:10.000Z</time>
      </trkpt>
      <trkpt lat="50.51369" lon="3.84045">
        <ele>125</ele>
        <time>2018-09-26T10:48:12.000Z</time>
      </trkpt>
      <trkpt lat="50.51363" lon="3.84028">
        <ele>125</ele>
        <time>2018-09-26T10:48:14.000Z</time>
      </trkpt>
      <trkpt lat="50.51356" lon="3.84011">
        <ele>125</ele>
        <time>2018-09-26T10:48:16.000Z</time>
      </trkpt>
      <trkpt lat="50.51349" lon="3.83994">
        <ele>125</ele>
        <time>2018-09-26T10:48:18.000Z</time>
      </trkpt>
      <trkpt lat="50.51342" lon="3.83977">
        <ele>125</ele>
        <time>2018-09-26T10:48:20.000Z</time>
      </trkpt>
      <trkpt lat="50.51335" lon="3.8396">
        <ele>125</ele>
        <time>2018-09-26T10:48:22.000Z</time>
      </trkpt>
      <trkpt lat="50.51328" lon="3.83943">
        <ele>125</ele>
        <time>2018-09-26T10:48:24.000Z</time>
      </trkpt>
      <trkpt lat="50.51321" lon="3.83926">
        <ele>125</ele>
        <time>2018-09-26T10:48:26.000Z</time>
      </trkpt>
      <trkpt lat="50.51313" lon="3.83909">
        <ele>125</ele>
        <time>2018-09-26T10:48:28.000Z</time>
      </trkpt>
      <trkpt lat="50.51307" lon="3.83892">
        <ele>125</ele>
        <time>2018-09-26T10:48:30.000Z</time>
      </trkpt>
      <trkpt lat="50.51299" lon="3.83874">
        <ele>125</ele>
        <time>2018-09-26T10:48:32.000Z</time>
      </trkpt>
      <trkpt lat="50.51292" lon="3.83857">
        <ele>125</ele>
        <time>2018-09-26T10:48:34.000Z</time>
      </trkpt>
      <trkpt lat="50.51286" lon="3.83841">
        <ele>125</ele>
        <time>2018-09-26T10:48:36.000Z</time>
      </trkpt>
      <trkpt lat="50.51279" lon="3.83826">
        <ele>125</ele>
        <time>2018-09-26T10:48:39.000Z</time>
      </trkpt>
      <trkpt lat="50.51273" lon="3.83811">
        <ele>125</ele>
        <time>2018-09-26T10:48:40.000Z</time>
      </trkpt>
      <trkpt lat="50.51266" lon="3.83795">
        <ele>125</ele>
        <time>2018-09-26T10:48:42.000Z</time>
      </trkpt>
      <trkpt lat="50.51258" lon="3.83779">
        <ele>125</ele>
        <time>2018-09-26T10:48:44.000Z</time>
      </trkpt>
      <trkpt lat="50.5125" lon="3.83763">
        <ele>125</ele>
        <time>2018-09-26T10:48:46.000Z</time>
      </trkpt>
      <trkpt lat="50.51242" lon="3.83748">
        <ele>125</ele>
        <time>2018-09-26T10:48:48.000Z</time>
      </trkpt>
      <trkpt lat="50.51235" lon="3.83732">
        <ele>125</ele>
        <time>2018-09-26T10:48:50.000Z</time>
      </trkpt>
      <trkpt lat="50.51227" lon="3.83716">
        <ele>125</ele>
        <time>2018-09-26T10:48:52.000Z</time>
      </trkpt>
      <trkpt lat="50.51218" lon="3.83701">
        <ele>125</ele>
        <time>2018-09-26T10:48:54.000Z</time>
      </trkpt>
      <trkpt lat="50.5121" lon="3.83686">
        <ele>125</ele>
        <time>2018-09-26T10:48:56.000Z</time>
      </trkpt>
      <trkpt lat="50.512" lon="3.83672">
        <ele>125</ele>
        <time>2018-09-26T10:48:58.000Z</time>
      </trkpt>
      <trkpt lat="50.51191" lon="3.83657">
        <ele>125</ele>
        <time>2018-09-26T10:49:00.000Z</time>
      </trkpt>
      <trkpt lat="50.51181" lon="3.83643">
        <ele>125</ele>
        <time>2018-09-26T10:49:02.000Z</time>
      </trkpt>
      <trkpt lat="50.51172" lon="3.83629">
        <ele>125</ele>
        <time>2018-09-26T10:49:04.000Z</time>
      </trkpt>
      <trkpt lat="50.51162" lon="3.83615">
        <ele>125</ele>
        <time>2018-09-26T10:49:06.000Z</time>
      </trkpt>
      <trkpt lat="50.51152" lon="3.83602">
        <ele>125</ele>
        <time>2018-09-26T10:49:08.000Z</time>
      </trkpt>
      <trkpt lat="50.51142" lon="3.8359">
        <ele>125</ele>
        <time>2018-09-26T10:49:10.000Z</time>
      </trkpt>
      <trkpt lat="50.51131" lon="3.8358">
        <ele>125</ele>
        <time>2018-09-26T10:49:12.000Z</time>
      </trkpt>
      <trkpt lat="50.5112" lon="3.83571">
        <ele>125</ele>
        <time>2018-09-26T10:49:14.000Z</time>
      </trkpt>
      <trkpt lat="50.51109" lon="3.83562">
        <ele>125</ele>
        <time>2018-09-26T10:49:16.000Z</time>
      </trkpt>
      <trkpt lat="50.51098" lon="3.83553">
        <ele>125</ele>
        <time>2018-09-26T10:49:19.000Z</time>
      </trkpt>
      <trkpt lat="50.51087" lon="3.83544">
        <ele>125</ele>
        <time>2018-09-26T10:49:21.000Z</time>
      </trkpt>
      <trkpt lat="50.51076" lon="3.83537">
        <ele>125</ele>
        <time>2018-09-26T10:49:23.000Z</time>
      </trkpt>
      <trkpt lat="50.51065" lon="3.83531">
        <ele>125</ele>
        <time>2018-09-26T10:49:25.000Z</time>
      </trkpt>
      <trkpt lat="50.51054" lon="3.83526">
        <ele>125</ele>
        <time>2018-09-26T10:49:27.000Z</time>
      </trkpt>
      <trkpt lat="50.51042" lon="3.8352">
        <ele>126</ele>
        <time>2018-09-26T10:49:29.000Z</time>
      </trkpt>
      <trkpt lat="50.51031" lon="3.83516">
        <ele>126</ele>
        <time>2018-09-26T10:49:31.000Z</time>
      </trkpt>
      <trkpt lat="50.51019" lon="3.83511">
        <ele>126</ele>
        <time>2018-09-26T10:49:33.000Z</time>
      </trkpt>
      <trkpt lat="50.51008" lon="3.83506">
        <ele>126</ele>
        <time>2018-09-26T10:49:35.000Z</time>
      </trkpt>
      <trkpt lat="50.50997" lon="3.83501">
        <ele>126</ele>
        <time>2018-09-26T10:49:37.000Z</time>
      </trkpt>
      <trkpt lat="50.50986" lon="3.83497">
        <ele>126</ele>
        <time>2018-09-26T10:49:39.000Z</time>
      </trkpt>
      <trkpt lat="50.50974" lon="3.83492">
        <ele>126</ele>
        <time>2018-09-26T10:49:41.000Z</time>
      </trkpt>
      <trkpt lat="50.50963" lon="3.83487">
        <ele>127</ele>
        <time>2018-09-26T10:49:43.000Z</time>
      </trkpt>
      <trkpt lat="50.50952" lon="3.83482">
        <ele>127</ele>
        <time>2018-09-26T10:49:45.000Z</time>
      </trkpt>
      <trkpt lat="50.50941" lon="3.83476">
        <ele>127</ele>
        <time>2018-09-26T10:49:47.000Z</time>
      </trkpt>
      <trkpt lat="50.5093" lon="3.83471">
        <ele>127</ele>
        <time>2018-09-26T10:49:49.000Z</time>
      </trkpt>
      <trkpt lat="50.50918" lon="3.83465">
        <ele>127</ele>
        <time>2018-09-26T10:49:51.000Z</time>
      </trkpt>
      <trkpt lat="50.50908" lon="3.83457">
        <ele>127</ele>
        <time>2018-09-26T10:49:53.000Z</time>
      </trkpt>
      <trkpt lat="50.50898" lon="3.83449">
        <ele>127</ele>
        <time>2018-09-26T10:49:55.000Z</time>
      </trkpt>
      <trkpt lat="50.50888" lon="3.83439">
        <ele>127</ele>
        <time>2018-09-26T10:49:57.000Z</time>
      </trkpt>
      <trkpt lat="50.50878" lon="3.83427">
        <ele>127</ele>
        <time>2018-09-26T10:49:59.000Z</time>
      </trkpt>
      <trkpt lat="50.50869" lon="3.83415">
        <ele>127</ele>
        <time>2018-09-26T10:50:01.000Z</time>
      </trkpt>
      <trkpt lat="50.50861" lon="3.83402">
        <ele>128</ele>
        <time>2018-09-26T10:50:03.000Z</time>
      </trkpt>
      <trkpt lat="50.50853" lon="3.83388">
        <ele>128</ele>
        <time>2018-09-26T10:50:05.000Z</time>
      </trkpt>
      <trkpt lat="50.50844" lon="3.83374">
        <ele>128</ele>
        <time>2018-09-26T10:50:07.000Z</time>
      </trkpt>
      <trkpt lat="50.50837" lon="3.83361">
        <ele>128</ele>
        <time>2018-09-26T10:50:09.000Z</time>
      </trkpt>
      <trkpt lat="50.50829" lon="3.83347">
        <ele>128</ele>
        <time>2018-09-26T10:50:11.000Z</time>
      </trkpt>
      <trkpt lat="50.50822" lon="3.83333">
        <ele>129</ele>
        <time>2018-09-26T10:50:13.000Z</time>
      </trkpt>
      <trkpt lat="50.50815" lon="3.83319">
        <ele>129</ele>
        <time>2018-09-26T10:50:15.000Z</time>
      </trkpt>
      <trkpt lat="50.50807" lon="3.83306">
        <ele>128</ele>
        <time>2018-09-26T10:50:17.000Z</time>
      </trkpt>
      <trkpt lat="50.508" lon="3.83292">
        <ele>129</ele>
        <time>2018-09-26T10:50:19.000Z</time>
      </trkpt>
      <trkpt lat="50.50793" lon="3.83279">
        <ele>129</ele>
        <time>2018-09-26T10:50:21.000Z</time>
      </trkpt>
      <trkpt lat="50.50785" lon="3.83265">
        <ele>129</ele>
        <time>2018-09-26T10:50:23.000Z</time>
      </trkpt>
      <trkpt lat="50.50778" lon="3.83252">
        <ele>129</ele>
        <time>2018-09-26T10:50:25.000Z</time>
      </trkpt>
      <trkpt lat="50.5077" lon="3.83239">
        <ele>129</ele>
        <time>2018-09-26T10:50:27.000Z</time>
      </trkpt>
      <trkpt lat="50.50763" lon="3.83226">
        <ele>130</ele>
        <time>2018-09-26T10:50:29.000Z</time>
      </trkpt>
      <trkpt lat="50.50755" lon="3.83213">
        <ele>130</ele>
        <time>2018-09-26T10:50:31.000Z</time>
      </trkpt>
      <trkpt lat="50.50747" lon="3.83201">
        <ele>130</ele>
        <time>2018-09-26T10:50:33.000Z</time>
      </trkpt>
      <trkpt lat="50.50738" lon="3.83191">
        <ele>130</ele>
        <time>2018-09-26T10:50:35.000Z</time>
      </trkpt>
      <trkpt lat="50.5073" lon="3.83182">
        <ele>130</ele>
        <time>2018-09-26T10:50:37.000Z</time>
      </trkpt>
      <trkpt lat="50.50721" lon="3.83172">
        <ele>130</ele>
        <time>2018-09-26T10:50:39.000Z</time>
      </trkpt>
      <trkpt lat="50.5071" lon="3.83165">
        <ele>130</ele>
        <time>2018-09-26T10:50:41.000Z</time>
      </trkpt>
      <trkpt lat="50.50705" lon="3.83162">
        <ele>130</ele>
        <time>2018-09-26T10:50:42.000Z</time>
      </trkpt>
      <trkpt lat="50.50694" lon="3.83156">
        <ele>130</ele>
        <time>2018-09-26T10:50:44.000Z</time>
      </trkpt>
      <trkpt lat="50.50682" lon="3.83151">
        <ele>130</ele>
        <time>2018-09-26T10:50:46.000Z</time>
      </trkpt>
      <trkpt lat="50.5067" lon="3.83148">
        <ele>130</ele>
        <time>2018-09-26T10:50:48.000Z</time>
      </trkpt>
      <trkpt lat="50.50658" lon="3.83147">
        <ele>130</ele>
        <time>2018-09-26T10:50:50.000Z</time>
      </trkpt>
      <trkpt lat="50.50646" lon="3.83147">
        <ele>130</ele>
        <time>2018-09-26T10:50:52.000Z</time>
      </trkpt>
      <trkpt lat="50.50634" lon="3.83147">
        <ele>131</ele>
        <time>2018-09-26T10:50:54.000Z</time>
      </trkpt>
      <trkpt lat="50.50622" lon="3.83147">
        <ele>131</ele>
        <time>2018-09-26T10:50:56.000Z</time>
      </trkpt>
      <trkpt lat="50.5061" lon="3.83148">
        <ele>131</ele>
        <time>2018-09-26T10:50:58.000Z</time>
      </trkpt>
      <trkpt lat="50.50599" lon="3.83149">
        <ele>132</ele>
        <time>2018-09-26T10:51:00.000Z</time>
      </trkpt>
      <trkpt lat="50.50588" lon="3.8315">
        <ele>132</ele>
        <time>2018-09-26T10:51:02.000Z</time>
      </trkpt>
      <trkpt lat="50.50577" lon="3.83151">
        <ele>131</ele>
        <time>2018-09-26T10:51:04.000Z</time>
      </trkpt>
      <trkpt lat="50.50566" lon="3.83153">
        <ele>131</ele>
        <time>2018-09-26T10:51:06.000Z</time>
      </trkpt>
      <trkpt lat="50.50555" lon="3.83154">
        <ele>132</ele>
        <time>2018-09-26T10:51:08.000Z</time>
      </trkpt>
      <trkpt lat="50.50544" lon="3.83155">
        <ele>132</ele>
        <time>2018-09-26T10:51:10.000Z</time>
      </trkpt>
      <trkpt lat="50.50532" lon="3.83157">
        <ele>132</ele>
        <time>2018-09-26T10:51:12.000Z</time>
      </trkpt>
      <trkpt lat="50.50521" lon="3.83158">
        <ele>132</ele>
        <time>2018-09-26T10:51:14.000Z</time>
      </trkpt>
      <trkpt lat="50.50509" lon="3.8316">
        <ele>132</ele>
        <time>2018-09-26T10:51:16.000Z</time>
      </trkpt>
      <trkpt lat="50.50497" lon="3.83162">
        <ele>133</ele>
        <time>2018-09-26T10:51:18.000Z</time>
      </trkpt>
      <trkpt lat="50.50486" lon="3.83163">
        <ele>133</ele>
        <time>2018-09-26T10:51:20.000Z</time>
      </trkpt>
      <trkpt lat="50.50474" lon="3.83165">
        <ele>133</ele>
        <time>2018-09-26T10:51:22.000Z</time>
      </trkpt>
      <trkpt lat="50.50462" lon="3.83166">
        <ele>133</ele>
        <time>2018-09-26T10:51:24.000Z</time>
      </trkpt>
      <trkpt lat="50.5045" lon="3.83168">
        <ele>133</ele>
        <time>2018-09-26T10:51:26.000Z</time>
      </trkpt>
      <trkpt lat="50.50438" lon="3.8317">
        <ele>134</ele>
        <time>2018-09-26T10:51:28.000Z</time>
      </trkpt>
      <trkpt lat="50.50426" lon="3.83172">
        <ele>134</ele>
        <time>2018-09-26T10:51:30.000Z</time>
      </trkpt>
      <trkpt lat="50.50415" lon="3.83173">
        <ele>134</ele>
        <time>2018-09-26T10:51:32.000Z</time>
      </trkpt>
      <trkpt lat="50.50403" lon="3.83175">
        <ele>135</ele>
        <time>2018-09-26T10:51:34.000Z</time>
      </trkpt>
      <trkpt lat="50.50392" lon="3.83177">
        <ele>135</ele>
        <time>2018-09-26T10:51:36.000Z</time>
      </trkpt>
      <trkpt lat="50.50382" lon="3.83178">
        <ele>135</ele>
        <time>2018-09-26T10:51:38.000Z</time>
      </trkpt>
      <trkpt lat="50.50371" lon="3.8318">
        <ele>136</ele>
        <time>2018-09-26T10:51:40.000Z</time>
      </trkpt>
      <trkpt lat="50.5036" lon="3.83181">
        <ele>136</ele>
        <time>2018-09-26T10:51:42.000Z</time>
      </trkpt>
      <trkpt lat="50.50348" lon="3.83184">
        <ele>137</ele>
        <time>2018-09-26T10:51:44.000Z</time>
      </trkpt>
      <trkpt lat="50.50336" lon="3.83186">
        <ele>137</ele>
        <time>2018-09-26T10:51:46.000Z</time>
      </trkpt>
      <trkpt lat="50.50325" lon="3.83187">
        <ele>137</ele>
        <time>2018-09-26T10:51:48.000Z</time>
      </trkpt>
      <trkpt lat="50.50315" lon="3.83189">
        <ele>137</ele>
        <time>2018-09-26T10:51:50.000Z</time>
      </trkpt>
      <trkpt lat="50.50304" lon="3.8319">
        <ele>137</ele>
        <time>2018-09-26T10:51:52.000Z</time>
      </trkpt>
      <trkpt lat="50.50292" lon="3.83191">
        <ele>138</ele>
        <time>2018-09-26T10:51:54.000Z</time>
      </trkpt>
      <trkpt lat="50.50281" lon="3.83193">
        <ele>138</ele>
        <time>2018-09-26T10:51:56.000Z</time>
      </trkpt>
      <trkpt lat="50.5027" lon="3.83194">
        <ele>138</ele>
        <time>2018-09-26T10:51:58.000Z</time>
      </trkpt>
      <trkpt lat="50.50259" lon="3.83195">
        <ele>138</ele>
        <time>2018-09-26T10:52:00.000Z</time>
      </trkpt>
      <trkpt lat="50.50247" lon="3.83197">
        <ele>138</ele>
        <time>2018-09-26T10:52:02.000Z</time>
      </trkpt>
      <trkpt lat="50.50236" lon="3.83198">
        <ele>139</ele>
        <time>2018-09-26T10:52:04.000Z</time>
      </trkpt>
      <trkpt lat="50.50224" lon="3.832">
        <ele>139</ele>
        <time>2018-09-26T10:52:06.000Z</time>
      </trkpt>
      <trkpt lat="50.50213" lon="3.832">
        <ele>139</ele>
        <time>2018-09-26T10:52:08.000Z</time>
      </trkpt>
      <trkpt lat="50.50201" lon="3.83201">
        <ele>139</ele>
        <time>2018-09-26T10:52:10.000Z</time>
      </trkpt>
      <trkpt lat="50.50189" lon="3.83202">
        <ele>139</ele>
        <time>2018-09-26T10:52:12.000Z</time>
      </trkpt>
      <trkpt lat="50.50177" lon="3.83204">
        <ele>139</ele>
        <time>2018-09-26T10:52:14.000Z</time>
      </trkpt>
      <trkpt lat="50.50164" lon="3.83206">
        <ele>139</ele>
        <time>2018-09-26T10:52:16.000Z</time>
      </trkpt>
      <trkpt lat="50.50153" lon="3.83209">
        <ele>140</ele>
        <time>2018-09-26T10:52:18.000Z</time>
      </trkpt>
      <trkpt lat="50.5014" lon="3.83211">
        <ele>139</ele>
        <time>2018-09-26T10:52:20.000Z</time>
      </trkpt>
      <trkpt lat="50.50126" lon="3.83213">
        <ele>139</ele>
        <time>2018-09-26T10:52:22.000Z</time>
      </trkpt>
      <trkpt lat="50.50113" lon="3.83214">
        <ele>139</ele>
        <time>2018-09-26T10:52:24.000Z</time>
      </trkpt>
      <trkpt lat="50.50099" lon="3.83216">
        <ele>138</ele>
        <time>2018-09-26T10:52:26.000Z</time>
      </trkpt>
      <trkpt lat="50.50085" lon="3.83218">
        <ele>138</ele>
        <time>2018-09-26T10:52:28.000Z</time>
      </trkpt>
      <trkpt lat="50.50071" lon="3.83219">
        <ele>138</ele>
        <time>2018-09-26T10:52:30.000Z</time>
      </trkpt>
      <trkpt lat="50.50055" lon="3.83221">
        <ele>137</ele>
        <time>2018-09-26T10:52:32.000Z</time>
      </trkpt>
      <trkpt lat="50.50039" lon="3.83224">
        <ele>137</ele>
        <time>2018-09-26T10:52:34.000Z</time>
      </trkpt>
      <trkpt lat="50.50023" lon="3.83227">
        <ele>136</ele>
        <time>2018-09-26T10:52:36.000Z</time>
      </trkpt>
      <trkpt lat="50.50005" lon="3.8323">
        <ele>136</ele>
        <time>2018-09-26T10:52:38.000Z</time>
      </trkpt>
      <trkpt lat="50.49987" lon="3.83232">
        <ele>135</ele>
        <time>2018-09-26T10:52:40.000Z</time>
      </trkpt>
      <trkpt lat="50.49969" lon="3.83234">
        <ele>135</ele>
        <time>2018-09-26T10:52:42.000Z</time>
      </trkpt>
      <trkpt lat="50.49952" lon="3.83236">
        <ele>135</ele>
        <time>2018-09-26T10:52:44.000Z</time>
      </trkpt>
      <trkpt lat="50.49935" lon="3.83238">
        <ele>134</ele>
        <time>2018-09-26T10:52:46.000Z</time>
      </trkpt>
      <trkpt lat="50.49918" lon="3.8324">
        <ele>134</ele>
        <time>2018-09-26T10:52:48.000Z</time>
      </trkpt>
      <trkpt lat="50.49902" lon="3.83242">
        <ele>133</ele>
        <time>2018-09-26T10:52:50.000Z</time>
      </trkpt>
      <trkpt lat="50.49885" lon="3.83244">
        <ele>132</ele>
        <time>2018-09-26T10:52:52.000Z</time>
      </trkpt>
      <trkpt lat="50.49869" lon="3.83245">
        <ele>132</ele>
        <time>2018-09-26T10:52:54.000Z</time>
      </trkpt>
      <trkpt lat="50.49853" lon="3.83247">
        <ele>132</ele>
        <time>2018-09-26T10:52:56.000Z</time>
      </trkpt>
      <trkpt lat="50.49836" lon="3.83249">
        <ele>131</ele>
        <time>2018-09-26T10:52:58.000Z</time>
      </trkpt>
      <trkpt lat="50.4982" lon="3.83251">
        <ele>131</ele>
        <time>2018-09-26T10:53:00.000Z</time>
      </trkpt>
      <trkpt lat="50.49804" lon="3.83253">
        <ele>131</ele>
        <time>2018-09-26T10:53:02.000Z</time>
      </trkpt>
      <trkpt lat="50.49787" lon="3.83255">
        <ele>131</ele>
        <time>2018-09-26T10:53:04.000Z</time>
      </trkpt>
      <trkpt lat="50.49771" lon="3.83257">
        <ele>131</ele>
        <time>2018-09-26T10:53:06.000Z</time>
      </trkpt>
      <trkpt lat="50.49754" lon="3.83259">
        <ele>130</ele>
        <time>2018-09-26T10:53:08.000Z</time>
      </trkpt>
      <trkpt lat="50.49738" lon="3.83261">
        <ele>130</ele>
        <time>2018-09-26T10:53:10.000Z</time>
      </trkpt>
      <trkpt lat="50.49722" lon="3.83263">
        <ele>130</ele>
        <time>2018-09-26T10:53:12.000Z</time>
      </trkpt>
      <trkpt lat="50.49707" lon="3.83265">
        <ele>129</ele>
        <time>2018-09-26T10:53:14.000Z</time>
      </trkpt>
      <trkpt lat="50.49691" lon="3.83267">
        <ele>129</ele>
        <time>2018-09-26T10:53:16.000Z</time>
      </trkpt>
      <trkpt lat="50.49675" lon="3.83268">
        <ele>129</ele>
        <time>2018-09-26T10:53:18.000Z</time>
      </trkpt>
      <trkpt lat="50.4966" lon="3.83269">
        <ele>128</ele>
        <time>2018-09-26T10:53:20.000Z</time>
      </trkpt>
      <trkpt lat="50.49644" lon="3.83271">
        <ele>128</ele>
        <time>2018-09-26T10:53:22.000Z</time>
      </trkpt>
      <trkpt lat="50.49629" lon="3.83273">
        <ele>128</ele>
        <time>2018-09-26T10:53:24.000Z</time>
      </trkpt>
      <trkpt lat="50.49614" lon="3.83275">
        <ele>128</ele>
        <time>2018-09-26T10:53:26.000Z</time>
      </trkpt>
      <trkpt lat="50.49599" lon="3.83276">
        <ele>128</ele>
        <time>2018-09-26T10:53:28.000Z</time>
      </trkpt>
      <trkpt lat="50.49583" lon="3.83278">
        <ele>128</ele>
        <time>2018-09-26T10:53:30.000Z</time>
      </trkpt>
      <trkpt lat="50.49569" lon="3.8328">
        <ele>127</ele>
        <time>2018-09-26T10:53:32.000Z</time>
      </trkpt>
      <trkpt lat="50.49553" lon="3.83283">
        <ele>127</ele>
        <time>2018-09-26T10:53:34.000Z</time>
      </trkpt>
      <trkpt lat="50.49538" lon="3.83285">
        <ele>128</ele>
        <time>2018-09-26T10:53:36.000Z</time>
      </trkpt>
      <trkpt lat="50.49524" lon="3.83288">
        <ele>128</ele>
        <time>2018-09-26T10:53:38.000Z</time>
      </trkpt>
      <trkpt lat="50.49509" lon="3.83291">
        <ele>127</ele>
        <time>2018-09-26T10:53:40.000Z</time>
      </trkpt>
      <trkpt lat="50.49493" lon="3.83292">
        <ele>127</ele>
        <time>2018-09-26T10:53:42.000Z</time>
      </trkpt>
      <trkpt lat="50.49477" lon="3.83293">
        <ele>127</ele>
        <time>2018-09-26T10:53:44.000Z</time>
      </trkpt>
      <trkpt lat="50.49462" lon="3.83291">
        <ele>127</ele>
        <time>2018-09-26T10:53:46.000Z</time>
      </trkpt>
      <trkpt lat="50.49446" lon="3.83289">
        <ele>127</ele>
        <time>2018-09-26T10:53:48.000Z</time>
      </trkpt>
      <trkpt lat="50.49431" lon="3.83287">
        <ele>127</ele>
        <time>2018-09-26T10:53:50.000Z</time>
      </trkpt>
      <trkpt lat="50.49416" lon="3.83285">
        <ele>127</ele>
        <time>2018-09-26T10:53:52.000Z</time>
      </trkpt>
      <trkpt lat="50.494" lon="3.83282">
        <ele>126</ele>
        <time>2018-09-26T10:53:54.000Z</time>
      </trkpt>
      <trkpt lat="50.49385" lon="3.8328">
        <ele>126</ele>
        <time>2018-09-26T10:53:56.000Z</time>
      </trkpt>
      <trkpt lat="50.49369" lon="3.83277">
        <ele>126</ele>
        <time>2018-09-26T10:53:58.000Z</time>
      </trkpt>
      <trkpt lat="50.49354" lon="3.83275">
        <ele>126</ele>
        <time>2018-09-26T10:54:00.000Z</time>
      </trkpt>
      <trkpt lat="50.49339" lon="3.83273">
        <ele>126</ele>
        <time>2018-09-26T10:54:02.000Z</time>
      </trkpt>
      <trkpt lat="50.49323" lon="3.83271">
        <ele>125</ele>
        <time>2018-09-26T10:54:04.000Z</time>
      </trkpt>
      <trkpt lat="50.49307" lon="3.83269">
        <ele>125</ele>
        <time>2018-09-26T10:54:06.000Z</time>
      </trkpt>
      <trkpt lat="50.49292" lon="3.83267">
        <ele>125</ele>
        <time>2018-09-26T10:54:08.000Z</time>
      </trkpt>
      <trkpt lat="50.49276" lon="3.83266">
        <ele>125</ele>
        <time>2018-09-26T10:54:10.000Z</time>
      </trkpt>
      <trkpt lat="50.49261" lon="3.83264">
        <ele>124</ele>
        <time>2018-09-26T10:54:12.000Z</time>
      </trkpt>
      <trkpt lat="50.49246" lon="3.83262">
        <ele>124</ele>
        <time>2018-09-26T10:54:14.000Z</time>
      </trkpt>
      <trkpt lat="50.4923" lon="3.8326">
        <ele>124</ele>
        <time>2018-09-26T10:54:16.000Z</time>
      </trkpt>
      <trkpt lat="50.49215" lon="3.83258">
        <ele>124</ele>
        <time>2018-09-26T10:54:18.000Z</time>
      </trkpt>
      <trkpt lat="50.49201" lon="3.83256">
        <ele>124</ele>
        <time>2018-09-26T10:54:20.000Z</time>
      </trkpt>
      <trkpt lat="50.49186" lon="3.83254">
        <ele>124</ele>
        <time>2018-09-26T10:54:22.000Z</time>
      </trkpt>
      <trkpt lat="50.49172" lon="3.83251">
        <ele>124</ele>
        <time>2018-09-26T10:54:24.000Z</time>
      </trkpt>
      <trkpt lat="50.49158" lon="3.83249">
        <ele>124</ele>
        <time>2018-09-26T10:54:26.000Z</time>
      </trkpt>
      <trkpt lat="50.49144" lon="3.83246">
        <ele>124</ele>
        <time>2018-09-26T10:54:28.000Z</time>
      </trkpt>
      <trkpt lat="50.4913" lon="3.83245">
        <ele>123</ele>
        <time>2018-09-26T10:54:30.000Z</time>
      </trkpt>
      <trkpt lat="50.49116" lon="3.83243">
        <ele>123</ele>
        <time>2018-09-26T10:54:32.000Z</time>
      </trkpt>
      <trkpt lat="50.49101" lon="3.83242">
        <ele>123</ele>
        <time>2018-09-26T10:54:34.000Z</time>
      </trkpt>
      <trkpt lat="50.49087" lon="3.8324">
        <ele>123</ele>
        <time>2018-09-26T10:54:36.000Z</time>
      </trkpt>
      <trkpt lat="50.49073" lon="3.83237">
        <ele>123</ele>
        <time>2018-09-26T10:54:38.000Z</time>
      </trkpt>
      <trkpt lat="50.49059" lon="3.83235">
        <ele>122</ele>
        <time>2018-09-26T10:54:40.000Z</time>
      </trkpt>
      <trkpt lat="50.49044" lon="3.83232">
        <ele>122</ele>
        <time>2018-09-26T10:54:42.000Z</time>
      </trkpt>
      <trkpt lat="50.49031" lon="3.8323">
        <ele>121</ele>
        <time>2018-09-26T10:54:44.000Z</time>
      </trkpt>
      <trkpt lat="50.49017" lon="3.83228">
        <ele>121</ele>
        <time>2018-09-26T10:54:46.000Z</time>
      </trkpt>
      <trkpt lat="50.49002" lon="3.83226">
        <ele>121</ele>
        <time>2018-09-26T10:54:48.000Z</time>
      </trkpt>
      <trkpt lat="50.48988" lon="3.83223">
        <ele>121</ele>
        <time>2018-09-26T10:54:50.000Z</time>
      </trkpt>
      <trkpt lat="50.48974" lon="3.83222">
        <ele>120</ele>
        <time>2018-09-26T10:54:52.000Z</time>
      </trkpt>
      <trkpt lat="50.48959" lon="3.8322">
        <ele>120</ele>
        <time>2018-09-26T10:54:54.000Z</time>
      </trkpt>
      <trkpt lat="50.48944" lon="3.83218">
        <ele>120</ele>
        <time>2018-09-26T10:54:56.000Z</time>
      </trkpt>
      <trkpt lat="50.48929" lon="3.83217">
        <ele>120</ele>
        <time>2018-09-26T10:54:58.000Z</time>
      </trkpt>
      <trkpt lat="50.48914" lon="3.83215">
        <ele>119</ele>
        <time>2018-09-26T10:55:00.000Z</time>
      </trkpt>
      <trkpt lat="50.48899" lon="3.83213">
        <ele>119</ele>
        <time>2018-09-26T10:55:02.000Z</time>
      </trkpt>
      <trkpt lat="50.48885" lon="3.83212">
        <ele>119</ele>
        <time>2018-09-26T10:55:04.000Z</time>
      </trkpt>
      <trkpt lat="50.4887" lon="3.8321">
        <ele>118</ele>
        <time>2018-09-26T10:55:06.000Z</time>
      </trkpt>
      <trkpt lat="50.48856" lon="3.83208">
        <ele>118</ele>
        <time>2018-09-26T10:55:08.000Z</time>
      </trkpt>
      <trkpt lat="50.48841" lon="3.83206">
        <ele>118</ele>
        <time>2018-09-26T10:55:10.000Z</time>
      </trkpt>
      <trkpt lat="50.48828" lon="3.83204">
        <ele>118</ele>
        <time>2018-09-26T10:55:12.000Z</time>
      </trkpt>
      <trkpt lat="50.48814" lon="3.83203">
        <ele>117</ele>
        <time>2018-09-26T10:55:14.000Z</time>
      </trkpt>
      <trkpt lat="50.488" lon="3.83201">
        <ele>117</ele>
        <time>2018-09-26T10:55:16.000Z</time>
      </trkpt>
      <trkpt lat="50.48785" lon="3.83199">
        <ele>116</ele>
        <time>2018-09-26T10:55:18.000Z</time>
      </trkpt>
      <trkpt lat="50.48771" lon="3.83197">
        <ele>116</ele>
        <time>2018-09-26T10:55:20.000Z</time>
      </trkpt>
      <trkpt lat="50.48756" lon="3.83195">
        <ele>115</ele>
        <time>2018-09-26T10:55:22.000Z</time>
      </trkpt>
      <trkpt lat="50.48742" lon="3.83193">
        <ele>115</ele>
        <time>2018-09-26T10:55:24.000Z</time>
      </trkpt>
      <trkpt lat="50.48727" lon="3.83191">
        <ele>115</ele>
        <time>2018-09-26T10:55:26.000Z</time>
      </trkpt>
      <trkpt lat="50.48712" lon="3.83189">
        <ele>114</ele>
        <time>2018-09-26T10:55:28.000Z</time>
      </trkpt>
      <trkpt lat="50.48697" lon="3.83186">
        <ele>113</ele>
        <time>2018-09-26T10:55:30.000Z</time>
      </trkpt>
      <trkpt lat="50.48682" lon="3.83185">
        <ele>113</ele>
        <time>2018-09-26T10:55:32.000Z</time>
      </trkpt>
      <trkpt lat="50.48667" lon="3.83182">
        <ele>112</ele>
        <time>2018-09-26T10:55:34.000Z</time>
      </trkpt>
      <trkpt lat="50.48652" lon="3.8318">
        <ele>111</ele>
        <time>2018-09-26T10:55:36.000Z</time>
      </trkpt>
      <trkpt lat="50.48636" lon="3.83178">
        <ele>111</ele>
        <time>2018-09-26T10:55:38.000Z</time>
      </trkpt>
      <trkpt lat="50.48621" lon="3.83175">
        <ele>110</ele>
        <time>2018-09-26T10:55:40.000Z</time>
      </trkpt>
      <trkpt lat="50.48605" lon="3.83173">
        <ele>110</ele>
        <time>2018-09-26T10:55:42.000Z</time>
      </trkpt>
      <trkpt lat="50.4859" lon="3.83171">
        <ele>109</ele>
        <time>2018-09-26T10:55:44.000Z</time>
      </trkpt>
      <trkpt lat="50.48576" lon="3.8317">
        <ele>109</ele>
        <time>2018-09-26T10:55:46.000Z</time>
      </trkpt>
      <trkpt lat="50.48561" lon="3.83168">
        <ele>108</ele>
        <time>2018-09-26T10:55:48.000Z</time>
      </trkpt>
      <trkpt lat="50.48548" lon="3.83166">
        <ele>108</ele>
        <time>2018-09-26T10:55:50.000Z</time>
      </trkpt>
      <trkpt lat="50.48533" lon="3.83164">
        <ele>107</ele>
        <time>2018-09-26T10:55:52.000Z</time>
      </trkpt>
      <trkpt lat="50.4852" lon="3.83162">
        <ele>107</ele>
        <time>2018-09-26T10:55:54.000Z</time>
      </trkpt>
      <trkpt lat="50.48505" lon="3.8316">
        <ele>107</ele>
        <time>2018-09-26T10:55:56.000Z</time>
      </trkpt>
      <trkpt lat="50.48491" lon="3.83158">
        <ele>107</ele>
        <time>2018-09-26T10:55:58.000Z</time>
      </trkpt>
      <trkpt lat="50.48476" lon="3.83156">
        <ele>106</ele>
        <time>2018-09-26T10:56:00.000Z</time>
      </trkpt>
      <trkpt lat="50.48462" lon="3.83154">
        <ele>106</ele>
        <time>2018-09-26T10:56:02.000Z</time>
      </trkpt>
      <trkpt lat="50.4845" lon="3.83154">
        <ele>105</ele>
        <time>2018-09-26T10:56:04.000Z</time>
      </trkpt>
      <trkpt lat="50.48441" lon="3.83154">
        <ele>104</ele>
        <time>2018-09-26T10:56:06.000Z</time>
      </trkpt>
      <trkpt lat="50.48441" lon="3.83154">
        <ele>104</ele>
        <time>2018-09-26T10:56:10.000Z</time>
      </trkpt>
      <trkpt lat="50.48433" lon="3.83152">
        <ele>103</ele>
        <time>2018-09-26T10:56:12.000Z</time>
      </trkpt>
      <trkpt lat="50.48429" lon="3.8316">
        <ele>102</ele>
        <time>2018-09-26T10:56:14.000Z</time>
      </trkpt>
      <trkpt lat="50.48425" lon="3.83176">
        <ele>102</ele>
        <time>2018-09-26T10:56:16.000Z</time>
      </trkpt>
      <trkpt lat="50.48421" lon="3.83193">
        <ele>102</ele>
        <time>2018-09-26T10:56:18.000Z</time>
      </trkpt>
      <trkpt lat="50.48417" lon="3.83212">
        <ele>101</ele>
        <time>2018-09-26T10:56:20.000Z</time>
      </trkpt>
      <trkpt lat="50.48414" lon="3.83231">
        <ele>101</ele>
        <time>2018-09-26T10:56:22.000Z</time>
      </trkpt>
      <trkpt lat="50.48411" lon="3.83251">
        <ele>101</ele>
        <time>2018-09-26T10:56:24.000Z</time>
      </trkpt>
      <trkpt lat="50.48409" lon="3.83272">
        <ele>101</ele>
        <time>2018-09-26T10:56:26.000Z</time>
      </trkpt>
      <trkpt lat="50.48406" lon="3.83294">
        <ele>100</ele>
        <time>2018-09-26T10:56:28.000Z</time>
      </trkpt>
      <trkpt lat="50.48404" lon="3.83316">
        <ele>100</ele>
        <time>2018-09-26T10:56:30.000Z</time>
      </trkpt>
      <trkpt lat="50.48401" lon="3.8334">
        <ele>100</ele>
        <time>2018-09-26T10:56:32.000Z</time>
      </trkpt>
      <trkpt lat="50.48398" lon="3.83363">
        <ele>100</ele>
        <time>2018-09-26T10:56:34.000Z</time>
      </trkpt>
      <trkpt lat="50.48394" lon="3.83387">
        <ele>100</ele>
        <time>2018-09-26T10:56:36.000Z</time>
      </trkpt>
      <trkpt lat="50.48391" lon="3.83412">
        <ele>100</ele>
        <time>2018-09-26T10:56:38.000Z</time>
      </trkpt>
      <trkpt lat="50.48388" lon="3.83436">
        <ele>100</ele>
        <time>2018-09-26T10:56:40.000Z</time>
      </trkpt>
      <trkpt lat="50.48385" lon="3.83461">
        <ele>99</ele>
        <time>2018-09-26T10:56:42.000Z</time>
      </trkpt>
      <trkpt lat="50.48382" lon="3.83486">
        <ele>98</ele>
        <time>2018-09-26T10:56:44.000Z</time>
      </trkpt>
      <trkpt lat="50.4838" lon="3.83513">
        <ele>98</ele>
        <time>2018-09-26T10:56:46.000Z</time>
      </trkpt>
      <trkpt lat="50.48381" lon="3.83541">
        <ele>97</ele>
        <time>2018-09-26T10:56:48.000Z</time>
      </trkpt>
      <trkpt lat="50.48382" lon="3.8357">
        <ele>97</ele>
        <time>2018-09-26T10:56:50.000Z</time>
      </trkpt>
      <trkpt lat="50.48381" lon="3.83598">
        <ele>97</ele>
        <time>2018-09-26T10:56:52.000Z</time>
      </trkpt>
      <trkpt lat="50.48378" lon="3.83626">
        <ele>97</ele>
        <time>2018-09-26T10:56:54.000Z</time>
      </trkpt>
      <trkpt lat="50.48375" lon="3.83653">
        <ele>97</ele>
        <time>2018-09-26T10:56:56.000Z</time>
      </trkpt>
      <trkpt lat="50.48369" lon="3.83676">
        <ele>98</ele>
        <time>2018-09-26T10:56:58.000Z</time>
      </trkpt>
      <trkpt lat="50.48363" lon="3.83697">
        <ele>98</ele>
        <time>2018-09-26T10:57:00.000Z</time>
      </trkpt>
      <trkpt lat="50.48355" lon="3.83716">
        <ele>98</ele>
        <time>2018-09-26T10:57:02.000Z</time>
      </trkpt>
      <trkpt lat="50.48347" lon="3.83733">
        <ele>98</ele>
        <time>2018-09-26T10:57:04.000Z</time>
      </trkpt>
      <trkpt lat="50.48339" lon="3.83749">
        <ele>99</ele>
        <time>2018-09-26T10:57:06.000Z</time>
      </trkpt>
      <trkpt lat="50.4833" lon="3.83763">
        <ele>99</ele>
        <time>2018-09-26T10:57:08.000Z</time>
      </trkpt>
      <trkpt lat="50.48317" lon="3.83774">
        <ele>98</ele>
        <time>2018-09-26T10:57:10.000Z</time>
      </trkpt>
      <trkpt lat="50.48305" lon="3.83785">
        <ele>98</ele>
        <time>2018-09-26T10:57:12.000Z</time>
      </trkpt>
      <trkpt lat="50.48293" lon="3.83794">
        <ele>98</ele>
        <time>2018-09-26T10:57:14.000Z</time>
      </trkpt>
      <trkpt lat="50.48278" lon="3.83802">
        <ele>98</ele>
        <time>2018-09-26T10:57:16.000Z</time>
      </trkpt>
      <trkpt lat="50.48264" lon="3.83808">
        <ele>98</ele>
        <time>2018-09-26T10:57:18.000Z</time>
      </trkpt>
      <trkpt lat="50.4825" lon="3.83813">
        <ele>98</ele>
        <time>2018-09-26T10:57:20.000Z</time>
      </trkpt>
      <trkpt lat="50.48236" lon="3.83817">
        <ele>97</ele>
        <time>2018-09-26T10:57:22.000Z</time>
      </trkpt>
      <trkpt lat="50.48222" lon="3.83821">
        <ele>97</ele>
        <time>2018-09-26T10:57:24.000Z</time>
      </trkpt>
      <trkpt lat="50.48208" lon="3.83825">
        <ele>97</ele>
        <time>2018-09-26T10:57:26.000Z</time>
      </trkpt>
      <trkpt lat="50.48196" lon="3.8383">
        <ele>97</ele>
        <time>2018-09-26T10:57:28.000Z</time>
      </trkpt>
      <trkpt lat="50.48185" lon="3.83833">
        <ele>98</ele>
        <time>2018-09-26T10:57:30.000Z</time>
      </trkpt>
      <trkpt lat="50.48173" lon="3.83835">
        <ele>97</ele>
        <time>2018-09-26T10:57:32.000Z</time>
      </trkpt>
      <trkpt lat="50.48162" lon="3.83838">
        <ele>97</ele>
        <time>2018-09-26T10:57:34.000Z</time>
      </trkpt>
      <trkpt lat="50.4815" lon="3.83843">
        <ele>98</ele>
        <time>2018-09-26T10:57:36.000Z</time>
      </trkpt>
      <trkpt lat="50.4814" lon="3.83848">
        <ele>98</ele>
        <time>2018-09-26T10:57:38.000Z</time>
      </trkpt>
      <trkpt lat="50.48129" lon="3.83853">
        <ele>100</ele>
        <time>2018-09-26T10:57:40.000Z</time>
      </trkpt>
      <trkpt lat="50.48116" lon="3.83859">
        <ele>100</ele>
        <time>2018-09-26T10:57:42.000Z</time>
      </trkpt>
      <trkpt lat="50.48103" lon="3.83866">
        <ele>100</ele>
        <time>2018-09-26T10:57:44.000Z</time>
      </trkpt>
      <trkpt lat="50.4809" lon="3.83871">
        <ele>100</ele>
        <time>2018-09-26T10:57:46.000Z</time>
      </trkpt>
      <trkpt lat="50.48077" lon="3.83875">
        <ele>100</ele>
        <time>2018-09-26T10:57:48.000Z</time>
      </trkpt>
      <trkpt lat="50.48063" lon="3.83879">
        <ele>100</ele>
        <time>2018-09-26T10:57:50.000Z</time>
      </trkpt>
      <trkpt lat="50.48048" lon="3.83883">
        <ele>100</ele>
        <time>2018-09-26T10:57:52.000Z</time>
      </trkpt>
      <trkpt lat="50.48035" lon="3.83887">
        <ele>100</ele>
        <time>2018-09-26T10:57:54.000Z</time>
      </trkpt>
      <trkpt lat="50.48021" lon="3.8389">
        <ele>99</ele>
        <time>2018-09-26T10:57:56.000Z</time>
      </trkpt>
      <trkpt lat="50.48008" lon="3.83894">
        <ele>99</ele>
        <time>2018-09-26T10:57:58.000Z</time>
      </trkpt>
      <trkpt lat="50.47994" lon="3.83897">
        <ele>99</ele>
        <time>2018-09-26T10:58:00.000Z</time>
      </trkpt>
      <trkpt lat="50.47982" lon="3.83902">
        <ele>98</ele>
        <time>2018-09-26T10:58:02.000Z</time>
      </trkpt>
      <trkpt lat="50.47969" lon="3.83905">
        <ele>98</ele>
        <time>2018-09-26T10:58:04.000Z</time>
      </trkpt>
      <trkpt lat="50.47957" lon="3.83908">
        <ele>98</ele>
        <time>2018-09-26T10:58:06.000Z</time>
      </trkpt>
      <trkpt lat="50.47945" lon="3.83903">
        <ele>97</ele>
        <time>2018-09-26T10:58:08.000Z</time>
      </trkpt>
      <trkpt lat="50.47932" lon="3.83894">
        <ele>96</ele>
        <time>2018-09-26T10:58:10.000Z</time>
      </trkpt>
      <trkpt lat="50.47918" lon="3.83884">
        <ele>96</ele>
        <time>2018-09-26T10:58:12.000Z</time>
      </trkpt>
      <trkpt lat="50.47905" lon="3.83873">
        <ele>94</ele>
        <time>2018-09-26T10:58:14.000Z</time>
      </trkpt>
      <trkpt lat="50.47893" lon="3.83861">
        <ele>94</ele>
        <time>2018-09-26T10:58:16.000Z</time>
      </trkpt>
      <trkpt lat="50.4788" lon="3.83849">
        <ele>94</ele>
        <time>2018-09-26T10:58:18.000Z</time>
      </trkpt>
      <trkpt lat="50.47867" lon="3.83837">
        <ele>95</ele>
        <time>2018-09-26T10:58:20.000Z</time>
      </trkpt>
      <trkpt lat="50.47854" lon="3.83824">
        <ele>94</ele>
        <time>2018-09-26T10:58:22.000Z</time>
      </trkpt>
      <trkpt lat="50.47844" lon="3.83805">
        <ele>94</ele>
        <time>2018-09-26T10:58:24.000Z</time>
      </trkpt>
      <trkpt lat="50.47839" lon="3.83786">
        <ele>93</ele>
        <time>2018-09-26T10:58:26.000Z</time>
      </trkpt>
      <trkpt lat="50.47832" lon="3.83775">
        <ele>93</ele>
        <time>2018-09-26T10:58:28.000Z</time>
      </trkpt>
      <trkpt lat="50.47822" lon="3.83779">
        <ele>92</ele>
        <time>2018-09-26T10:58:30.000Z</time>
      </trkpt>
      <trkpt lat="50.47814" lon="3.83793">
        <ele>91</ele>
        <time>2018-09-26T10:58:32.000Z</time>
      </trkpt>
      <trkpt lat="50.4781" lon="3.8381">
        <ele>91</ele>
        <time>2018-09-26T10:58:34.000Z</time>
      </trkpt>
      <trkpt lat="50.47806" lon="3.83828">
        <ele>90</ele>
        <time>2018-09-26T10:58:36.000Z</time>
      </trkpt>
      <trkpt lat="50.47802" lon="3.83846">
        <ele>90</ele>
        <time>2018-09-26T10:58:38.000Z</time>
      </trkpt>
      <trkpt lat="50.47798" lon="3.83864">
        <ele>90</ele>
        <time>2018-09-26T10:58:40.000Z</time>
      </trkpt>
      <trkpt lat="50.47794" lon="3.83883">
        <ele>90</ele>
        <time>2018-09-26T10:58:42.000Z</time>
      </trkpt>
      <trkpt lat="50.47789" lon="3.83902">
        <ele>89</ele>
        <time>2018-09-26T10:58:44.000Z</time>
      </trkpt>
      <trkpt lat="50.47785" lon="3.83923">
        <ele>89</ele>
        <time>2018-09-26T10:58:46.000Z</time>
      </trkpt>
      <trkpt lat="50.47781" lon="3.83944">
        <ele>89</ele>
        <time>2018-09-26T10:58:48.000Z</time>
      </trkpt>
      <trkpt lat="50.47776" lon="3.83964">
        <ele>89</ele>
        <time>2018-09-26T10:58:50.000Z</time>
      </trkpt>
      <trkpt lat="50.47772" lon="3.83983">
        <ele>89</ele>
        <time>2018-09-26T10:58:52.000Z</time>
      </trkpt>
      <trkpt lat="50.47766" lon="3.84002">
        <ele>89</ele>
        <time>2018-09-26T10:58:54.000Z</time>
      </trkpt>
      <trkpt lat="50.47754" lon="3.84012">
        <ele>89</ele>
        <time>2018-09-26T10:58:56.000Z</time>
      </trkpt>
      <trkpt lat="50.47739" lon="3.8401">
        <ele>89</ele>
        <time>2018-09-26T10:58:58.000Z</time>
      </trkpt>
      <trkpt lat="50.47725" lon="3.84002">
        <ele>89</ele>
        <time>2018-09-26T10:59:00.000Z</time>
      </trkpt>
      <trkpt lat="50.4771" lon="3.83998">
        <ele>89</ele>
        <time>2018-09-26T10:59:02.000Z</time>
      </trkpt>
      <trkpt lat="50.47694" lon="3.84003">
        <ele>88</ele>
        <time>2018-09-26T10:59:04.000Z</time>
      </trkpt>
      <trkpt lat="50.47681" lon="3.84013">
        <ele>88</ele>
        <time>2018-09-26T10:59:06.000Z</time>
      </trkpt>
      <trkpt lat="50.47667" lon="3.84022">
        <ele>88</ele>
        <time>2018-09-26T10:59:08.000Z</time>
      </trkpt>
      <trkpt lat="50.47652" lon="3.84032">
        <ele>88</ele>
        <time>2018-09-26T10:59:10.000Z</time>
      </trkpt>
      <trkpt lat="50.47639" lon="3.84043">
        <ele>88</ele>
        <time>2018-09-26T10:59:12.000Z</time>
      </trkpt>
      <trkpt lat="50.47625" lon="3.84053">
        <ele>88</ele>
        <time>2018-09-26T10:59:14.000Z</time>
      </trkpt>
      <trkpt lat="50.47611" lon="3.84062">
        <ele>88</ele>
        <time>2018-09-26T10:59:16.000Z</time>
      </trkpt>
      <trkpt lat="50.47598" lon="3.84071">
        <ele>88</ele>
        <time>2018-09-26T10:59:18.000Z</time>
      </trkpt>
      <trkpt lat="50.47584" lon="3.8408">
        <ele>88</ele>
        <time>2018-09-26T10:59:20.000Z</time>
      </trkpt>
      <trkpt lat="50.47571" lon="3.8409">
        <ele>88</ele>
        <time>2018-09-26T10:59:22.000Z</time>
      </trkpt>
      <trkpt lat="50.47557" lon="3.84098">
        <ele>88</ele>
        <time>2018-09-26T10:59:24.000Z</time>
      </trkpt>
      <trkpt lat="50.47544" lon="3.84107">
        <ele>88</ele>
        <time>2018-09-26T10:59:26.000Z</time>
      </trkpt>
      <trkpt lat="50.4753" lon="3.84115">
        <ele>88</ele>
        <time>2018-09-26T10:59:28.000Z</time>
      </trkpt>
      <trkpt lat="50.47516" lon="3.84124">
        <ele>87</ele>
        <time>2018-09-26T10:59:30.000Z</time>
      </trkpt>
      <trkpt lat="50.47502" lon="3.84134">
        <ele>87</ele>
        <time>2018-09-26T10:59:32.000Z</time>
      </trkpt>
      <trkpt lat="50.47487" lon="3.84143">
        <ele>86</ele>
        <time>2018-09-26T10:59:34.000Z</time>
      </trkpt>
      <trkpt lat="50.47472" lon="3.84152">
        <ele>86</ele>
        <time>2018-09-26T10:59:36.000Z</time>
      </trkpt>
      <trkpt lat="50.47455" lon="3.84159">
        <ele>85</ele>
        <time>2018-09-26T10:59:38.000Z</time>
      </trkpt>
      <trkpt lat="50.47437" lon="3.84164">
        <ele>85</ele>
        <time>2018-09-26T10:59:40.000Z</time>
      </trkpt>
      <trkpt lat="50.47419" lon="3.84166">
        <ele>85</ele>
        <time>2018-09-26T10:59:42.000Z</time>
      </trkpt>
      <trkpt lat="50.47401" lon="3.84168">
        <ele>84</ele>
        <time>2018-09-26T10:59:44.000Z</time>
      </trkpt>
      <trkpt lat="50.47382" lon="3.84168">
        <ele>84</ele>
        <time>2018-09-26T10:59:46.000Z</time>
      </trkpt>
      <trkpt lat="50.47364" lon="3.84167">
        <ele>84</ele>
        <time>2018-09-26T10:59:48.000Z</time>
      </trkpt>
      <trkpt lat="50.47346" lon="3.84165">
        <ele>83</ele>
        <time>2018-09-26T10:59:50.000Z</time>
      </trkpt>
      <trkpt lat="50.47328" lon="3.84164">
        <ele>83</ele>
        <time>2018-09-26T10:59:52.000Z</time>
      </trkpt>
      <trkpt lat="50.4731" lon="3.84164">
        <ele>82</ele>
        <time>2018-09-26T10:59:54.000Z</time>
      </trkpt>
      <trkpt lat="50.47292" lon="3.84166">
        <ele>82</ele>
        <time>2018-09-26T10:59:56.000Z</time>
      </trkpt>
      <trkpt lat="50.47274" lon="3.8417">
        <ele>82</ele>
        <time>2018-09-26T10:59:58.000Z</time>
      </trkpt>
      <trkpt lat="50.47256" lon="3.84173">
        <ele>81</ele>
        <time>2018-09-26T11:00:00.000Z</time>
      </trkpt>
      <trkpt lat="50.47239" lon="3.84176">
        <ele>81</ele>
        <time>2018-09-26T11:00:02.000Z</time>
      </trkpt>
      <trkpt lat="50.47221" lon="3.84178">
        <ele>80</ele>
        <time>2018-09-26T11:00:04.000Z</time>
      </trkpt>
      <trkpt lat="50.47203" lon="3.8418">
        <ele>80</ele>
        <time>2018-09-26T11:00:06.000Z</time>
      </trkpt>
      <trkpt lat="50.47186" lon="3.84182">
        <ele>80</ele>
        <time>2018-09-26T11:00:08.000Z</time>
      </trkpt>
      <trkpt lat="50.47169" lon="3.84186">
        <ele>80</ele>
        <time>2018-09-26T11:00:10.000Z</time>
      </trkpt>
      <trkpt lat="50.47153" lon="3.84189">
        <ele>80</ele>
        <time>2018-09-26T11:00:12.000Z</time>
      </trkpt>
      <trkpt lat="50.47136" lon="3.84195">
        <ele>79</ele>
        <time>2018-09-26T11:00:14.000Z</time>
      </trkpt>
      <trkpt lat="50.47121" lon="3.84201">
        <ele>79</ele>
        <time>2018-09-26T11:00:16.000Z</time>
      </trkpt>
      <trkpt lat="50.47105" lon="3.84205">
        <ele>79</ele>
        <time>2018-09-26T11:00:18.000Z</time>
      </trkpt>
      <trkpt lat="50.4709" lon="3.84211">
        <ele>78</ele>
        <time>2018-09-26T11:00:20.000Z</time>
      </trkpt>
      <trkpt lat="50.47075" lon="3.84217">
        <ele>79</ele>
        <time>2018-09-26T11:00:22.000Z</time>
      </trkpt>
      <trkpt lat="50.47061" lon="3.84223">
        <ele>78</ele>
        <time>2018-09-26T11:00:24.000Z</time>
      </trkpt>
      <trkpt lat="50.47046" lon="3.84229">
        <ele>78</ele>
        <time>2018-09-26T11:00:26.000Z</time>
      </trkpt>
      <trkpt lat="50.47032" lon="3.84235">
        <ele>78</ele>
        <time>2018-09-26T11:00:28.000Z</time>
      </trkpt>
      <trkpt lat="50.47017" lon="3.84242">
        <ele>78</ele>
        <time>2018-09-26T11:00:30.000Z</time>
      </trkpt>
      <trkpt lat="50.47002" lon="3.84248">
        <ele>78</ele>
        <time>2018-09-26T11:00:32.000Z</time>
      </trkpt>
      <trkpt lat="50.46988" lon="3.84254">
        <ele>78</ele>
        <time>2018-09-26T11:00:34.000Z</time>
      </trkpt>
      <trkpt lat="50.46973" lon="3.8426">
        <ele>77</ele>
        <time>2018-09-26T11:00:36.000Z</time>
      </trkpt>
      <trkpt lat="50.46958" lon="3.84266">
        <ele>77</ele>
        <time>2018-09-26T11:00:38.000Z</time>
      </trkpt>
      <trkpt lat="50.46943" lon="3.84269">
        <ele>77</ele>
        <time>2018-09-26T11:00:40.000Z</time>
      </trkpt>
      <trkpt lat="50.46928" lon="3.84271">
        <ele>77</ele>
        <time>2018-09-26T11:00:42.000Z</time>
      </trkpt>
      <trkpt lat="50.46913" lon="3.8427">
        <ele>77</ele>
        <time>2018-09-26T11:00:44.000Z</time>
      </trkpt>
      <trkpt lat="50.46897" lon="3.84268">
        <ele>77</ele>
        <time>2018-09-26T11:00:46.000Z</time>
      </trkpt>
      <trkpt lat="50.46882" lon="3.84263">
        <ele>77</ele>
        <time>2018-09-26T11:00:48.000Z</time>
      </trkpt>
      <trkpt lat="50.46868" lon="3.84259">
        <ele>77</ele>
        <time>2018-09-26T11:00:50.000Z</time>
      </trkpt>
      <trkpt lat="50.46853" lon="3.84255">
        <ele>77</ele>
        <time>2018-09-26T11:00:52.000Z</time>
      </trkpt>
      <trkpt lat="50.46838" lon="3.84252">
        <ele>77</ele>
        <time>2018-09-26T11:00:54.000Z</time>
      </trkpt>
      <trkpt lat="50.46824" lon="3.84248">
        <ele>77</ele>
        <time>2018-09-26T11:00:56.000Z</time>
      </trkpt>
      <trkpt lat="50.46809" lon="3.84243">
        <ele>77</ele>
        <time>2018-09-26T11:00:58.000Z</time>
      </trkpt>
      <trkpt lat="50.46795" lon="3.8424">
        <ele>77</ele>
        <time>2018-09-26T11:01:00.000Z</time>
      </trkpt>
      <trkpt lat="50.4678" lon="3.84236">
        <ele>76</ele>
        <time>2018-09-26T11:01:02.000Z</time>
      </trkpt>
      <trkpt lat="50.46766" lon="3.84233">
        <ele>76</ele>
        <time>2018-09-26T11:01:04.000Z</time>
      </trkpt>
      <trkpt lat="50.46751" lon="3.84229">
        <ele>76</ele>
        <time>2018-09-26T11:01:06.000Z</time>
      </trkpt>
      <trkpt lat="50.46737" lon="3.84226">
        <ele>76</ele>
        <time>2018-09-26T11:01:08.000Z</time>
      </trkpt>
      <trkpt lat="50.46722" lon="3.84222">
        <ele>76</ele>
        <time>2018-09-26T11:01:10.000Z</time>
      </trkpt>
      <trkpt lat="50.46706" lon="3.84219">
        <ele>76</ele>
        <time>2018-09-26T11:01:12.000Z</time>
      </trkpt>
      <trkpt lat="50.46692" lon="3.84215">
        <ele>76</ele>
        <time>2018-09-26T11:01:14.000Z</time>
      </trkpt>
      <trkpt lat="50.46677" lon="3.84212">
        <ele>76</ele>
        <time>2018-09-26T11:01:16.000Z</time>
      </trkpt>
      <trkpt lat="50.46663" lon="3.84209">
        <ele>75</ele>
        <time>2018-09-26T11:01:18.000Z</time>
      </trkpt>
      <trkpt lat="50.4665" lon="3.84207">
        <ele>75</ele>
        <time>2018-09-26T11:01:20.000Z</time>
      </trkpt>
      <trkpt lat="50.46637" lon="3.84205">
        <ele>75</ele>
        <time>2018-09-26T11:01:22.000Z</time>
      </trkpt>
      <trkpt lat="50.46623" lon="3.84202">
        <ele>75</ele>
        <time>2018-09-26T11:01:24.000Z</time>
      </trkpt>
      <trkpt lat="50.46609" lon="3.84197">
        <ele>75</ele>
        <time>2018-09-26T11:01:26.000Z</time>
      </trkpt>
      <trkpt lat="50.46595" lon="3.84189">
        <ele>75</ele>
        <time>2018-09-26T11:01:28.000Z</time>
      </trkpt>
      <trkpt lat="50.46582" lon="3.84181">
        <ele>75</ele>
        <time>2018-09-26T11:01:30.000Z</time>
      </trkpt>
      <trkpt lat="50.46569" lon="3.84171">
        <ele>75</ele>
        <time>2018-09-26T11:01:32.000Z</time>
      </trkpt>
      <trkpt lat="50.46556" lon="3.8416">
        <ele>74</ele>
        <time>2018-09-26T11:01:34.000Z</time>
      </trkpt>
      <trkpt lat="50.46544" lon="3.84149">
        <ele>74</ele>
        <time>2018-09-26T11:01:36.000Z</time>
      </trkpt>
      <trkpt lat="50.46532" lon="3.84137">
        <ele>74</ele>
        <time>2018-09-26T11:01:38.000Z</time>
      </trkpt>
      <trkpt lat="50.46519" lon="3.84126">
        <ele>74</ele>
        <time>2018-09-26T11:01:40.000Z</time>
      </trkpt>
      <trkpt lat="50.46507" lon="3.84114">
        <ele>74</ele>
        <time>2018-09-26T11:01:42.000Z</time>
      </trkpt>
      <trkpt lat="50.46495" lon="3.84103">
        <ele>74</ele>
        <time>2018-09-26T11:01:44.000Z</time>
      </trkpt>
      <trkpt lat="50.46484" lon="3.84092">
        <ele>74</ele>
        <time>2018-09-26T11:01:46.000Z</time>
      </trkpt>
      <trkpt lat="50.46472" lon="3.8408">
        <ele>74</ele>
        <time>2018-09-26T11:01:48.000Z</time>
      </trkpt>
      <trkpt lat="50.4646" lon="3.84069">
        <ele>73</ele>
        <time>2018-09-26T11:01:50.000Z</time>
      </trkpt>
      <trkpt lat="50.46447" lon="3.84057">
        <ele>73</ele>
        <time>2018-09-26T11:01:52.000Z</time>
      </trkpt>
      <trkpt lat="50.46435" lon="3.84046">
        <ele>73</ele>
        <time>2018-09-26T11:01:54.000Z</time>
      </trkpt>
      <trkpt lat="50.46423" lon="3.84036">
        <ele>73</ele>
        <time>2018-09-26T11:01:56.000Z</time>
      </trkpt>
      <trkpt lat="50.4641" lon="3.84025">
        <ele>73</ele>
        <time>2018-09-26T11:01:58.000Z</time>
      </trkpt>
      <trkpt lat="50.46398" lon="3.84015">
        <ele>73</ele>
        <time>2018-09-26T11:02:00.000Z</time>
      </trkpt>
      <trkpt lat="50.46386" lon="3.84004">
        <ele>73</ele>
        <time>2018-09-26T11:02:02.000Z</time>
      </trkpt>
      <trkpt lat="50.46373" lon="3.83994">
        <ele>73</ele>
        <time>2018-09-26T11:02:04.000Z</time>
      </trkpt>
      <trkpt lat="50.46361" lon="3.83983">
        <ele>73</ele>
        <time>2018-09-26T11:02:06.000Z</time>
      </trkpt>
      <trkpt lat="50.46348" lon="3.83976">
        <ele>73</ele>
        <time>2018-09-26T11:02:08.000Z</time>
      </trkpt>
      <trkpt lat="50.46334" lon="3.83975">
        <ele>72</ele>
        <time>2018-09-26T11:02:10.000Z</time>
      </trkpt>
      <trkpt lat="50.46321" lon="3.83981">
        <ele>72</ele>
        <time>2018-09-26T11:02:12.000Z</time>
      </trkpt>
      <trkpt lat="50.46308" lon="3.83991">
        <ele>72</ele>
        <time>2018-09-26T11:02:14.000Z</time>
      </trkpt>
      <trkpt lat="50.46295" lon="3.84001">
        <ele>72</ele>
        <time>2018-09-26T11:02:16.000Z</time>
      </trkpt>
      <trkpt lat="50.46282" lon="3.84012">
        <ele>72</ele>
        <time>2018-09-26T11:02:18.000Z</time>
      </trkpt>
      <trkpt lat="50.4627" lon="3.84023">
        <ele>72</ele>
        <time>2018-09-26T11:02:20.000Z</time>
      </trkpt>
      <trkpt lat="50.46257" lon="3.84036">
        <ele>71</ele>
        <time>2018-09-26T11:02:22.000Z</time>
      </trkpt>
      <trkpt lat="50.46244" lon="3.84048">
        <ele>72</ele>
        <time>2018-09-26T11:02:24.000Z</time>
      </trkpt>
      <trkpt lat="50.46231" lon="3.8406">
        <ele>72</ele>
        <time>2018-09-26T11:02:26.000Z</time>
      </trkpt>
      <trkpt lat="50.46218" lon="3.84072">
        <ele>72</ele>
        <time>2018-09-26T11:02:28.000Z</time>
      </trkpt>
      <trkpt lat="50.46206" lon="3.84085">
        <ele>72</ele>
        <time>2018-09-26T11:02:30.000Z</time>
      </trkpt>
      <trkpt lat="50.46193" lon="3.84097">
        <ele>72</ele>
        <time>2018-09-26T11:02:32.000Z</time>
      </trkpt>
      <trkpt lat="50.46179" lon="3.84109">
        <ele>72</ele>
        <time>2018-09-26T11:02:34.000Z</time>
      </trkpt>
      <trkpt lat="50.46166" lon="3.84122">
        <ele>72</ele>
        <time>2018-09-26T11:02:36.000Z</time>
      </trkpt>
      <trkpt lat="50.46153" lon="3.84135">
        <ele>72</ele>
        <time>2018-09-26T11:02:38.000Z</time>
      </trkpt>
      <trkpt lat="50.4614" lon="3.84143">
        <ele>72</ele>
        <time>2018-09-26T11:02:40.000Z</time>
      </trkpt>
      <trkpt lat="50.46125" lon="3.8415">
        <ele>72</ele>
        <time>2018-09-26T11:02:42.000Z</time>
      </trkpt>
      <trkpt lat="50.46111" lon="3.84156">
        <ele>72</ele>
        <time>2018-09-26T11:02:44.000Z</time>
      </trkpt>
      <trkpt lat="50.46096" lon="3.84162">
        <ele>72</ele>
        <time>2018-09-26T11:02:46.000Z</time>
      </trkpt>
      <trkpt lat="50.46082" lon="3.84168">
        <ele>71</ele>
        <time>2018-09-26T11:02:48.000Z</time>
      </trkpt>
      <trkpt lat="50.46067" lon="3.84173">
        <ele>72</ele>
        <time>2018-09-26T11:02:50.000Z</time>
      </trkpt>
      <trkpt lat="50.46053" lon="3.84179">
        <ele>71</ele>
        <time>2018-09-26T11:02:52.000Z</time>
      </trkpt>
      <trkpt lat="50.46038" lon="3.84186">
        <ele>71</ele>
        <time>2018-09-26T11:02:54.000Z</time>
      </trkpt>
      <trkpt lat="50.46025" lon="3.84194">
        <ele>71</ele>
        <time>2018-09-26T11:02:56.000Z</time>
      </trkpt>
      <trkpt lat="50.46012" lon="3.84206">
        <ele>71</ele>
        <time>2018-09-26T11:02:58.000Z</time>
      </trkpt>
      <trkpt lat="50.46001" lon="3.84221">
        <ele>71</ele>
        <time>2018-09-26T11:03:00.000Z</time>
      </trkpt>
      <trkpt lat="50.45991" lon="3.84238">
        <ele>70</ele>
        <time>2018-09-26T11:03:02.000Z</time>
      </trkpt>
      <trkpt lat="50.45983" lon="3.84258">
        <ele>71</ele>
        <time>2018-09-26T11:03:04.000Z</time>
      </trkpt>
      <trkpt lat="50.45976" lon="3.84278">
        <ele>71</ele>
        <time>2018-09-26T11:03:06.000Z</time>
      </trkpt>
      <trkpt lat="50.45971" lon="3.84298">
        <ele>72</ele>
        <time>2018-09-26T11:03:08.000Z</time>
      </trkpt>
      <trkpt lat="50.45964" lon="3.84319">
        <ele>72</ele>
        <time>2018-09-26T11:03:10.000Z</time>
      </trkpt>
      <trkpt lat="50.45958" lon="3.84339">
        <ele>71</ele>
        <time>2018-09-26T11:03:12.000Z</time>
      </trkpt>
      <trkpt lat="50.45952" lon="3.84359">
        <ele>71</ele>
        <time>2018-09-26T11:03:14.000Z</time>
      </trkpt>
      <trkpt lat="50.45947" lon="3.8438">
        <ele>71</ele>
        <time>2018-09-26T11:03:16.000Z</time>
      </trkpt>
      <trkpt lat="50.45941" lon="3.844">
        <ele>71</ele>
        <time>2018-09-26T11:03:18.000Z</time>
      </trkpt>
      <trkpt lat="50.45935" lon="3.8442">
        <ele>71</ele>
        <time>2018-09-26T11:03:20.000Z</time>
      </trkpt>
      <trkpt lat="50.45929" lon="3.84441">
        <ele>71</ele>
        <time>2018-09-26T11:03:22.000Z</time>
      </trkpt>
      <trkpt lat="50.45922" lon="3.8446">
        <ele>71</ele>
        <time>2018-09-26T11:03:24.000Z</time>
      </trkpt>
      <trkpt lat="50.45916" lon="3.8448">
        <ele>71</ele>
        <time>2018-09-26T11:03:26.000Z</time>
      </trkpt>
      <trkpt lat="50.45911" lon="3.845">
        <ele>71</ele>
        <time>2018-09-26T11:03:28.000Z</time>
      </trkpt>
      <trkpt lat="50.45905" lon="3.84521">
        <ele>71</ele>
        <time>2018-09-26T11:03:30.000Z</time>
      </trkpt>
      <trkpt lat="50.45898" lon="3.84541">
        <ele>71</ele>
        <time>2018-09-26T11:03:32.000Z</time>
      </trkpt>
      <trkpt lat="50.45892" lon="3.84561">
        <ele>71</ele>
        <time>2018-09-26T11:03:34.000Z</time>
      </trkpt>
      <trkpt lat="50.45885" lon="3.84581">
        <ele>72</ele>
        <time>2018-09-26T11:03:36.000Z</time>
      </trkpt>
      <trkpt lat="50.45879" lon="3.84601">
        <ele>72</ele>
        <time>2018-09-26T11:03:38.000Z</time>
      </trkpt>
      <trkpt lat="50.45872" lon="3.84621">
        <ele>72</ele>
        <time>2018-09-26T11:03:40.000Z</time>
      </trkpt>
      <trkpt lat="50.45866" lon="3.84642">
        <ele>72</ele>
        <time>2018-09-26T11:03:42.000Z</time>
      </trkpt>
      <trkpt lat="50.4586" lon="3.84662">
        <ele>72</ele>
        <time>2018-09-26T11:03:44.000Z</time>
      </trkpt>
      <trkpt lat="50.45853" lon="3.84682">
        <ele>72</ele>
        <time>2018-09-26T11:03:46.000Z</time>
      </trkpt>
      <trkpt lat="50.45847" lon="3.84702">
        <ele>72</ele>
        <time>2018-09-26T11:03:48.000Z</time>
      </trkpt>
      <trkpt lat="50.45842" lon="3.84721">
        <ele>72</ele>
        <time>2018-09-26T11:03:50.000Z</time>
      </trkpt>
      <trkpt lat="50.45836" lon="3.8474">
        <ele>72</ele>
        <time>2018-09-26T11:03:52.000Z</time>
      </trkpt>
      <trkpt lat="50.4583" lon="3.84759">
        <ele>71</ele>
        <time>2018-09-26T11:03:54.000Z</time>
      </trkpt>
      <trkpt lat="50.45824" lon="3.84779">
        <ele>71</ele>
        <time>2018-09-26T11:03:56.000Z</time>
      </trkpt>
      <trkpt lat="50.45818" lon="3.848">
        <ele>71</ele>
        <time>2018-09-26T11:03:58.000Z</time>
      </trkpt>
      <trkpt lat="50.45811" lon="3.8482">
        <ele>71</ele>
        <time>2018-09-26T11:04:00.000Z</time>
      </trkpt>
      <trkpt lat="50.45805" lon="3.8484">
        <ele>71</ele>
        <time>2018-09-26T11:04:02.000Z</time>
      </trkpt>
      <trkpt lat="50.45798" lon="3.84861">
        <ele>71</ele>
        <time>2018-09-26T11:04:04.000Z</time>
      </trkpt>
      <trkpt lat="50.45792" lon="3.84881">
        <ele>71</ele>
        <time>2018-09-26T11:04:06.000Z</time>
      </trkpt>
      <trkpt lat="50.45786" lon="3.84902">
        <ele>71</ele>
        <time>2018-09-26T11:04:08.000Z</time>
      </trkpt>
      <trkpt lat="50.4578" lon="3.84923">
        <ele>72</ele>
        <time>2018-09-26T11:04:10.000Z</time>
      </trkpt>
      <trkpt lat="50.45774" lon="3.84944">
        <ele>72</ele>
        <time>2018-09-26T11:04:12.000Z</time>
      </trkpt>
      <trkpt lat="50.45768" lon="3.84965">
        <ele>72</ele>
        <time>2018-09-26T11:04:14.000Z</time>
      </trkpt>
      <trkpt lat="50.45761" lon="3.84987">
        <ele>72</ele>
        <time>2018-09-26T11:04:16.000Z</time>
      </trkpt>
      <trkpt lat="50.45755" lon="3.85008">
        <ele>72</ele>
        <time>2018-09-26T11:04:18.000Z</time>
      </trkpt>
      <trkpt lat="50.45749" lon="3.85028">
        <ele>72</ele>
        <time>2018-09-26T11:04:20.000Z</time>
      </trkpt>
      <trkpt lat="50.45743" lon="3.85049">
        <ele>73</ele>
        <time>2018-09-26T11:04:22.000Z</time>
      </trkpt>
      <trkpt lat="50.45736" lon="3.85069">
        <ele>73</ele>
        <time>2018-09-26T11:04:24.000Z</time>
      </trkpt>
      <trkpt lat="50.4573" lon="3.85088">
        <ele>73</ele>
        <time>2018-09-26T11:04:26.000Z</time>
      </trkpt>
      <trkpt lat="50.45724" lon="3.85107">
        <ele>73</ele>
        <time>2018-09-26T11:04:28.000Z</time>
      </trkpt>
      <trkpt lat="50.45718" lon="3.85127">
        <ele>73</ele>
        <time>2018-09-26T11:04:30.000Z</time>
      </trkpt>
      <trkpt lat="50.45712" lon="3.85147">
        <ele>73</ele>
        <time>2018-09-26T11:04:32.000Z</time>
      </trkpt>
      <trkpt lat="50.45705" lon="3.85167">
        <ele>73</ele>
        <time>2018-09-26T11:04:34.000Z</time>
      </trkpt>
      <trkpt lat="50.45699" lon="3.85187">
        <ele>73</ele>
        <time>2018-09-26T11:04:36.000Z</time>
      </trkpt>
      <trkpt lat="50.45692" lon="3.85207">
        <ele>74</ele>
        <time>2018-09-26T11:04:38.000Z</time>
      </trkpt>
      <trkpt lat="50.45686" lon="3.85226">
        <ele>74</ele>
        <time>2018-09-26T11:04:40.000Z</time>
      </trkpt>
      <trkpt lat="50.45679" lon="3.85246">
        <ele>74</ele>
        <time>2018-09-26T11:04:42.000Z</time>
      </trkpt>
      <trkpt lat="50.45673" lon="3.85266">
        <ele>74</ele>
        <time>2018-09-26T11:04:44.000Z</time>
      </trkpt>
      <trkpt lat="50.45667" lon="3.85285">
        <ele>74</ele>
        <time>2018-09-26T11:04:46.000Z</time>
      </trkpt>
      <trkpt lat="50.4566" lon="3.85306">
        <ele>74</ele>
        <time>2018-09-26T11:04:48.000Z</time>
      </trkpt>
      <trkpt lat="50.45654" lon="3.85326">
        <ele>73</ele>
        <time>2018-09-26T11:04:50.000Z</time>
      </trkpt>
      <trkpt lat="50.45648" lon="3.85346">
        <ele>73</ele>
        <time>2018-09-26T11:04:52.000Z</time>
      </trkpt>
      <trkpt lat="50.45642" lon="3.85367">
        <ele>73</ele>
        <time>2018-09-26T11:04:54.000Z</time>
      </trkpt>
      <trkpt lat="50.45636" lon="3.85388">
        <ele>72</ele>
        <time>2018-09-26T11:04:56.000Z</time>
      </trkpt>
      <trkpt lat="50.45632" lon="3.85407">
        <ele>73</ele>
        <time>2018-09-26T11:04:58.000Z</time>
      </trkpt>
      <trkpt lat="50.45627" lon="3.85428">
        <ele>73</ele>
        <time>2018-09-26T11:05:00.000Z</time>
      </trkpt>
      <trkpt lat="50.45622" lon="3.85447">
        <ele>74</ele>
        <time>2018-09-26T11:05:02.000Z</time>
      </trkpt>
      <trkpt lat="50.45615" lon="3.85467">
        <ele>73</ele>
        <time>2018-09-26T11:05:04.000Z</time>
      </trkpt>
      <trkpt lat="50.45608" lon="3.85486">
        <ele>74</ele>
        <time>2018-09-26T11:05:06.000Z</time>
      </trkpt>
      <trkpt lat="50.45601" lon="3.85506">
        <ele>74</ele>
        <time>2018-09-26T11:05:08.000Z</time>
      </trkpt>
      <trkpt lat="50.45594" lon="3.85526">
        <ele>74</ele>
        <time>2018-09-26T11:05:10.000Z</time>
      </trkpt>
      <trkpt lat="50.45586" lon="3.85545">
        <ele>74</ele>
        <time>2018-09-26T11:05:12.000Z</time>
      </trkpt>
      <trkpt lat="50.45578" lon="3.85562">
        <ele>74</ele>
        <time>2018-09-26T11:05:14.000Z</time>
      </trkpt>
      <trkpt lat="50.45571" lon="3.85579">
        <ele>74</ele>
        <time>2018-09-26T11:05:16.000Z</time>
      </trkpt>
      <trkpt lat="50.45562" lon="3.85594">
        <ele>74</ele>
        <time>2018-09-26T11:05:18.000Z</time>
      </trkpt>
      <trkpt lat="50.45555" lon="3.8561">
        <ele>75</ele>
        <time>2018-09-26T11:05:20.000Z</time>
      </trkpt>
      <trkpt lat="50.45547" lon="3.85625">
        <ele>76</ele>
        <time>2018-09-26T11:05:22.000Z</time>
      </trkpt>
      <trkpt lat="50.45538" lon="3.85639">
        <ele>76</ele>
        <time>2018-09-26T11:05:24.000Z</time>
      </trkpt>
      <trkpt lat="50.45528" lon="3.85652">
        <ele>76</ele>
        <time>2018-09-26T11:05:26.000Z</time>
      </trkpt>
      <trkpt lat="50.45518" lon="3.85665">
        <ele>76</ele>
        <time>2018-09-26T11:05:28.000Z</time>
      </trkpt>
      <trkpt lat="50.45509" lon="3.85677">
        <ele>77</ele>
        <time>2018-09-26T11:05:30.000Z</time>
      </trkpt>
      <trkpt lat="50.455" lon="3.85689">
        <ele>77</ele>
        <time>2018-09-26T11:05:32.000Z</time>
      </trkpt>
      <trkpt lat="50.45491" lon="3.85699">
        <ele>79</ele>
        <time>2018-09-26T11:05:34.000Z</time>
      </trkpt>
      <trkpt lat="50.45482" lon="3.85709">
        <ele>78</ele>
        <time>2018-09-26T11:05:36.000Z</time>
      </trkpt>
      <trkpt lat="50.45473" lon="3.85719">
        <ele>79</ele>
        <time>2018-09-26T11:05:38.000Z</time>
      </trkpt>
      <trkpt lat="50.45463" lon="3.85728">
        <ele>79</ele>
        <time>2018-09-26T11:05:40.000Z</time>
      </trkpt>
      <trkpt lat="50.45452" lon="3.85736">
        <ele>79</ele>
        <time>2018-09-26T11:05:42.000Z</time>
      </trkpt>
      <trkpt lat="50.45442" lon="3.85745">
        <ele>80</ele>
        <time>2018-09-26T11:05:44.000Z</time>
      </trkpt>
      <trkpt lat="50.45432" lon="3.85753">
        <ele>81</ele>
        <time>2018-09-26T11:05:46.000Z</time>
      </trkpt>
      <trkpt lat="50.45422" lon="3.85762">
        <ele>80</ele>
        <time>2018-09-26T11:05:48.000Z</time>
      </trkpt>
      <trkpt lat="50.45411" lon="3.85768">
        <ele>80</ele>
        <time>2018-09-26T11:05:50.000Z</time>
      </trkpt>
      <trkpt lat="50.45402" lon="3.85774">
        <ele>80</ele>
        <time>2018-09-26T11:05:52.000Z</time>
      </trkpt>
      <trkpt lat="50.45392" lon="3.85779">
        <ele>80</ele>
        <time>2018-09-26T11:05:54.000Z</time>
      </trkpt>
      <trkpt lat="50.45382" lon="3.85785">
        <ele>80</ele>
        <time>2018-09-26T11:05:56.000Z</time>
      </trkpt>
      <trkpt lat="50.45371" lon="3.8579">
        <ele>80</ele>
        <time>2018-09-26T11:05:58.000Z</time>
      </trkpt>
      <trkpt lat="50.4536" lon="3.85792">
        <ele>81</ele>
        <time>2018-09-26T11:06:00.000Z</time>
      </trkpt>
      <trkpt lat="50.45348" lon="3.85795">
        <ele>81</ele>
        <time>2018-09-26T11:06:02.000Z</time>
      </trkpt>
      <trkpt lat="50.45337" lon="3.858">
        <ele>82</ele>
        <time>2018-09-26T11:06:04.000Z</time>
      </trkpt>
      <trkpt lat="50.45325" lon="3.85804">
        <ele>82</ele>
        <time>2018-09-26T11:06:06.000Z</time>
      </trkpt>
      <trkpt lat="50.45314" lon="3.85809">
        <ele>82</ele>
        <time>2018-09-26T11:06:08.000Z</time>
      </trkpt>
      <trkpt lat="50.45302" lon="3.85813">
        <ele>82</ele>
        <time>2018-09-26T11:06:10.000Z</time>
      </trkpt>
      <trkpt lat="50.4529" lon="3.85818">
        <ele>82</ele>
        <time>2018-09-26T11:06:12.000Z</time>
      </trkpt>
      <trkpt lat="50.45279" lon="3.85823">
        <ele>82</ele>
        <time>2018-09-26T11:06:14.000Z</time>
      </trkpt>
      <trkpt lat="50.45266" lon="3.85827">
        <ele>82</ele>
        <time>2018-09-26T11:06:16.000Z</time>
      </trkpt>
      <trkpt lat="50.45254" lon="3.85832">
        <ele>82</ele>
        <time>2018-09-26T11:06:18.000Z</time>
      </trkpt>
      <trkpt lat="50.45242" lon="3.85837">
        <ele>82</ele>
        <time>2018-09-26T11:06:20.000Z</time>
      </trkpt>
      <trkpt lat="50.45229" lon="3.85842">
        <ele>82</ele>
        <time>2018-09-26T11:06:22.000Z</time>
      </trkpt>
      <trkpt lat="50.45217" lon="3.85845">
        <ele>82</ele>
        <time>2018-09-26T11:06:24.000Z</time>
      </trkpt>
      <trkpt lat="50.45206" lon="3.85849">
        <ele>83</ele>
        <time>2018-09-26T11:06:26.000Z</time>
      </trkpt>
      <trkpt lat="50.45198" lon="3.85853">
        <ele>83</ele>
        <time>2018-09-26T11:06:28.000Z</time>
      </trkpt>
      <trkpt lat="50.45187" lon="3.85858">
        <ele>83</ele>
        <time>2018-09-26T11:06:30.000Z</time>
      </trkpt>
      <trkpt lat="50.45177" lon="3.85862">
        <ele>83</ele>
        <time>2018-09-26T11:06:32.000Z</time>
      </trkpt>
      <trkpt lat="50.45166" lon="3.85868">
        <ele>84</ele>
        <time>2018-09-26T11:06:34.000Z</time>
      </trkpt>
      <trkpt lat="50.45153" lon="3.85873">
        <ele>84</ele>
        <time>2018-09-26T11:06:36.000Z</time>
      </trkpt>
      <trkpt lat="50.4514" lon="3.85879">
        <ele>83</ele>
        <time>2018-09-26T11:06:38.000Z</time>
      </trkpt>
      <trkpt lat="50.45126" lon="3.85884">
        <ele>82</ele>
        <time>2018-09-26T11:06:40.000Z</time>
      </trkpt>
      <trkpt lat="50.45114" lon="3.85891">
        <ele>82</ele>
        <time>2018-09-26T11:06:42.000Z</time>
      </trkpt>
      <trkpt lat="50.45101" lon="3.85896">
        <ele>82</ele>
        <time>2018-09-26T11:06:44.000Z</time>
      </trkpt>
      <trkpt lat="50.45087" lon="3.85902">
        <ele>81</ele>
        <time>2018-09-26T11:06:46.000Z</time>
      </trkpt>
      <trkpt lat="50.45073" lon="3.85908">
        <ele>81</ele>
        <time>2018-09-26T11:06:48.000Z</time>
      </trkpt>
      <trkpt lat="50.45059" lon="3.85913">
        <ele>82</ele>
        <time>2018-09-26T11:06:50.000Z</time>
      </trkpt>
      <trkpt lat="50.45045" lon="3.85917">
        <ele>81</ele>
        <time>2018-09-26T11:06:52.000Z</time>
      </trkpt>
      <trkpt lat="50.45031" lon="3.85921">
        <ele>81</ele>
        <time>2018-09-26T11:06:54.000Z</time>
      </trkpt>
      <trkpt lat="50.45018" lon="3.85926">
        <ele>82</ele>
        <time>2018-09-26T11:06:56.000Z</time>
      </trkpt>
      <trkpt lat="50.45004" lon="3.85931">
        <ele>82</ele>
        <time>2018-09-26T11:06:58.000Z</time>
      </trkpt>
      <trkpt lat="50.44989" lon="3.85937">
        <ele>82</ele>
        <time>2018-09-26T11:07:00.000Z</time>
      </trkpt>
      <trkpt lat="50.44974" lon="3.85944">
        <ele>81</ele>
        <time>2018-09-26T11:07:02.000Z</time>
      </trkpt>
      <trkpt lat="50.44958" lon="3.8595">
        <ele>80</ele>
        <time>2018-09-26T11:07:04.000Z</time>
      </trkpt>
      <trkpt lat="50.44943" lon="3.85957">
        <ele>80</ele>
        <time>2018-09-26T11:07:06.000Z</time>
      </trkpt>
      <trkpt lat="50.44928" lon="3.85963">
        <ele>80</ele>
        <time>2018-09-26T11:07:08.000Z</time>
      </trkpt>
      <trkpt lat="50.44913" lon="3.85968">
        <ele>80</ele>
        <time>2018-09-26T11:07:10.000Z</time>
      </trkpt>
      <trkpt lat="50.44899" lon="3.85973">
        <ele>80</ele>
        <time>2018-09-26T11:07:12.000Z</time>
      </trkpt>
      <trkpt lat="50.44884" lon="3.85979">
        <ele>80</ele>
        <time>2018-09-26T11:07:14.000Z</time>
      </trkpt>
      <trkpt lat="50.44869" lon="3.85983">
        <ele>80</ele>
        <time>2018-09-26T11:07:16.000Z</time>
      </trkpt>
      <trkpt lat="50.44854" lon="3.85989">
        <ele>79</ele>
        <time>2018-09-26T11:07:18.000Z</time>
      </trkpt>
      <trkpt lat="50.44839" lon="3.85994">
        <ele>79</ele>
        <time>2018-09-26T11:07:20.000Z</time>
      </trkpt>
      <trkpt lat="50.44824" lon="3.85999">
        <ele>78</ele>
        <time>2018-09-26T11:07:22.000Z</time>
      </trkpt>
      <trkpt lat="50.44809" lon="3.86005">
        <ele>78</ele>
        <time>2018-09-26T11:07:24.000Z</time>
      </trkpt>
      <trkpt lat="50.44794" lon="3.86011">
        <ele>77</ele>
        <time>2018-09-26T11:07:26.000Z</time>
      </trkpt>
      <trkpt lat="50.44779" lon="3.86018">
        <ele>77</ele>
        <time>2018-09-26T11:07:28.000Z</time>
      </trkpt>
      <trkpt lat="50.44764" lon="3.86025">
        <ele>77</ele>
        <time>2018-09-26T11:07:30.000Z</time>
      </trkpt>
      <trkpt lat="50.44749" lon="3.86031">
        <ele>76</ele>
        <time>2018-09-26T11:07:32.000Z</time>
      </trkpt>
      <trkpt lat="50.44734" lon="3.86038">
        <ele>76</ele>
        <time>2018-09-26T11:07:34.000Z</time>
      </trkpt>
      <trkpt lat="50.4472" lon="3.86045">
        <ele>76</ele>
        <time>2018-09-26T11:07:36.000Z</time>
      </trkpt>
      <trkpt lat="50.44707" lon="3.86051">
        <ele>75</ele>
        <time>2018-09-26T11:07:38.000Z</time>
      </trkpt>
      <trkpt lat="50.44694" lon="3.86058">
        <ele>75</ele>
        <time>2018-09-26T11:07:40.000Z</time>
      </trkpt>
      <trkpt lat="50.4468" lon="3.86066">
        <ele>75</ele>
        <time>2018-09-26T11:07:42.000Z</time>
      </trkpt>
      <trkpt lat="50.44667" lon="3.86074">
        <ele>75</ele>
        <time>2018-09-26T11:07:44.000Z</time>
      </trkpt>
      <trkpt lat="50.44653" lon="3.86081">
        <ele>75</ele>
        <time>2018-09-26T11:07:46.000Z</time>
      </trkpt>
      <trkpt lat="50.4464" lon="3.86089">
        <ele>75</ele>
        <time>2018-09-26T11:07:48.000Z</time>
      </trkpt>
      <trkpt lat="50.44627" lon="3.86096">
        <ele>76</ele>
        <time>2018-09-26T11:07:50.000Z</time>
      </trkpt>
      <trkpt lat="50.44615" lon="3.86102">
        <ele>76</ele>
        <time>2018-09-26T11:07:52.000Z</time>
      </trkpt>
      <trkpt lat="50.44601" lon="3.86108">
        <ele>76</ele>
        <time>2018-09-26T11:07:54.000Z</time>
      </trkpt>
      <trkpt lat="50.44589" lon="3.86113">
        <ele>76</ele>
        <time>2018-09-26T11:07:56.000Z</time>
      </trkpt>
      <trkpt lat="50.44576" lon="3.86118">
        <ele>75</ele>
        <time>2018-09-26T11:07:58.000Z</time>
      </trkpt>
      <trkpt lat="50.44564" lon="3.86125">
        <ele>74</ele>
        <time>2018-09-26T11:08:00.000Z</time>
      </trkpt>
      <trkpt lat="50.44555" lon="3.86138">
        <ele>74</ele>
        <time>2018-09-26T11:08:02.000Z</time>
      </trkpt>
      <trkpt lat="50.44551" lon="3.86157">
        <ele>75</ele>
        <time>2018-09-26T11:08:04.000Z</time>
      </trkpt>
      <trkpt lat="50.44551" lon="3.86177">
        <ele>75</ele>
        <time>2018-09-26T11:08:06.000Z</time>
      </trkpt>
      <trkpt lat="50.4455" lon="3.86199">
        <ele>74</ele>
        <time>2018-09-26T11:08:08.000Z</time>
      </trkpt>
      <trkpt lat="50.4455" lon="3.86222">
        <ele>74</ele>
        <time>2018-09-26T11:08:10.000Z</time>
      </trkpt>
      <trkpt lat="50.4455" lon="3.86243">
        <ele>74</ele>
        <time>2018-09-26T11:08:12.000Z</time>
      </trkpt>
      <trkpt lat="50.44549" lon="3.86265">
        <ele>74</ele>
        <time>2018-09-26T11:08:14.000Z</time>
      </trkpt>
      <trkpt lat="50.44548" lon="3.86288">
        <ele>74</ele>
        <time>2018-09-26T11:08:16.000Z</time>
      </trkpt>
      <trkpt lat="50.44546" lon="3.86311">
        <ele>74</ele>
        <time>2018-09-26T11:08:18.000Z</time>
      </trkpt>
      <trkpt lat="50.44544" lon="3.86333">
        <ele>74</ele>
        <time>2018-09-26T11:08:20.000Z</time>
      </trkpt>
      <trkpt lat="50.44542" lon="3.86355">
        <ele>74</ele>
        <time>2018-09-26T11:08:22.000Z</time>
      </trkpt>
      <trkpt lat="50.44539" lon="3.86374">
        <ele>74</ele>
        <time>2018-09-26T11:08:24.000Z</time>
      </trkpt>
      <trkpt lat="50.44535" lon="3.86392">
        <ele>74</ele>
        <time>2018-09-26T11:08:26.000Z</time>
      </trkpt>
      <trkpt lat="50.44529" lon="3.86408">
        <ele>74</ele>
        <time>2018-09-26T11:08:28.000Z</time>
      </trkpt>
      <trkpt lat="50.44523" lon="3.86422">
        <ele>74</ele>
        <time>2018-09-26T11:08:30.000Z</time>
      </trkpt>
      <trkpt lat="50.44515" lon="3.86433">
        <ele>74</ele>
        <time>2018-09-26T11:08:32.000Z</time>
      </trkpt>
      <trkpt lat="50.44506" lon="3.86441">
        <ele>75</ele>
        <time>2018-09-26T11:08:34.000Z</time>
      </trkpt>
      <trkpt lat="50.44497" lon="3.86446">
        <ele>74</ele>
        <time>2018-09-26T11:08:36.000Z</time>
      </trkpt>
      <trkpt lat="50.44488" lon="3.86449">
        <ele>75</ele>
        <time>2018-09-26T11:08:38.000Z</time>
      </trkpt>
      <trkpt lat="50.44478" lon="3.86451">
        <ele>75</ele>
        <time>2018-09-26T11:08:40.000Z</time>
      </trkpt>
      <trkpt lat="50.44469" lon="3.86454">
        <ele>76</ele>
        <time>2018-09-26T11:08:42.000Z</time>
      </trkpt>
      <trkpt lat="50.44462" lon="3.86455">
        <ele>77</ele>
        <time>2018-09-26T11:08:44.000Z</time>
      </trkpt>
      <trkpt lat="50.44462" lon="3.86455">
        <ele>77</ele>
        <time>2018-09-26T11:08:46.000Z</time>
      </trkpt>
      <trkpt lat="50.44455" lon="3.86455">
        <ele>77</ele>
        <time>2018-09-26T11:08:48.000Z</time>
      </trkpt>
      <trkpt lat="50.44424" lon="3.8647">
        <ele>78</ele>
        <time>2018-09-26T11:09:15.000Z</time>
      </trkpt>
      <trkpt lat="50.44395" lon="3.86485">
        <ele>77</ele>
        <time>2018-09-26T11:09:20.000Z</time>
      </trkpt>
      <trkpt lat="50.44383" lon="3.8649">
        <ele>77</ele>
        <time>2018-09-26T11:09:22.000Z</time>
      </trkpt>
      <trkpt lat="50.44371" lon="3.86497">
        <ele>77</ele>
        <time>2018-09-26T11:09:24.000Z</time>
      </trkpt>
      <trkpt lat="50.4436" lon="3.86503">
        <ele>77</ele>
        <time>2018-09-26T11:09:26.000Z</time>
      </trkpt>
      <trkpt lat="50.44349" lon="3.86509">
        <ele>78</ele>
        <time>2018-09-26T11:09:28.000Z</time>
      </trkpt>
      <trkpt lat="50.44336" lon="3.86513">
        <ele>78</ele>
        <time>2018-09-26T11:09:30.000Z</time>
      </trkpt>
      <trkpt lat="50.44324" lon="3.86516">
        <ele>78</ele>
        <time>2018-09-26T11:09:32.000Z</time>
      </trkpt>
      <trkpt lat="50.44313" lon="3.86518">
        <ele>78</ele>
        <time>2018-09-26T11:09:34.000Z</time>
      </trkpt>
      <trkpt lat="50.44302" lon="3.86516">
        <ele>78</ele>
        <time>2018-09-26T11:09:36.000Z</time>
      </trkpt>
      <trkpt lat="50.44294" lon="3.86507">
        <ele>78</ele>
        <time>2018-09-26T11:09:38.000Z</time>
      </trkpt>
      <trkpt lat="50.44291" lon="3.86492">
        <ele>79</ele>
        <time>2018-09-26T11:09:40.000Z</time>
      </trkpt>
      <trkpt lat="50.44284" lon="3.86484">
        <ele>78</ele>
        <time>2018-09-26T11:09:42.000Z</time>
      </trkpt>
      <trkpt lat="50.44275" lon="3.8649">
        <ele>78</ele>
        <time>2018-09-26T11:09:44.000Z</time>
      </trkpt>
      <trkpt lat="50.44263" lon="3.86494">
        <ele>78</ele>
        <time>2018-09-26T11:09:46.000Z</time>
      </trkpt>
      <trkpt lat="50.44252" lon="3.86492">
        <ele>78</ele>
        <time>2018-09-26T11:09:48.000Z</time>
      </trkpt>
      <trkpt lat="50.4424" lon="3.86492">
        <ele>79</ele>
        <time>2018-09-26T11:09:50.000Z</time>
      </trkpt>
      <trkpt lat="50.44231" lon="3.86492">
        <ele>79</ele>
        <time>2018-09-26T11:09:52.000Z</time>
      </trkpt>
      <trkpt lat="50.44224" lon="3.86491">
        <ele>79</ele>
        <time>2018-09-26T11:09:54.000Z</time>
      </trkpt>
      <trkpt lat="50.44224" lon="3.86491">
        <ele>79</ele>
        <time>2018-09-26T11:09:56.000Z</time>
      </trkpt>
      <trkpt lat="50.44224" lon="3.86491">
        <ele>79</ele>
        <time>2018-09-26T11:09:57.000Z</time>
      </trkpt>
      <trkpt lat="50.44215" lon="3.8649">
        <ele>80</ele>
        <time>2018-09-26T11:09:59.000Z</time>
      </trkpt>
      <trkpt lat="50.44209" lon="3.8649">
        <ele>80</ele>
        <time>2018-09-26T11:10:01.000Z</time>
      </trkpt>
      <trkpt lat="50.44202" lon="3.86491">
        <ele>81</ele>
        <time>2018-09-26T11:10:03.000Z</time>
      </trkpt>
      <trkpt lat="50.44195" lon="3.86493">
        <ele>82</ele>
        <time>2018-09-26T11:10:05.000Z</time>
      </trkpt>
      <trkpt lat="50.44186" lon="3.86493">
        <ele>82</ele>
        <time>2018-09-26T11:10:07.000Z</time>
      </trkpt>
      <trkpt lat="50.44177" lon="3.86495">
        <ele>81</ele>
        <time>2018-09-26T11:10:09.000Z</time>
      </trkpt>
      <trkpt lat="50.44167" lon="3.86496">
        <ele>81</ele>
        <time>2018-09-26T11:10:11.000Z</time>
      </trkpt>
      <trkpt lat="50.44156" lon="3.86496">
        <ele>81</ele>
        <time>2018-09-26T11:10:13.000Z</time>
      </trkpt>
      <trkpt lat="50.44147" lon="3.86495">
        <ele>81</ele>
        <time>2018-09-26T11:10:15.000Z</time>
      </trkpt>
      <trkpt lat="50.44141" lon="3.86504">
        <ele>81</ele>
        <time>2018-09-26T11:10:17.000Z</time>
      </trkpt>
      <trkpt lat="50.44138" lon="3.8652">
        <ele>81</ele>
        <time>2018-09-26T11:10:19.000Z</time>
      </trkpt>
      <trkpt lat="50.44132" lon="3.86533">
        <ele>81</ele>
        <time>2018-09-26T11:10:21.000Z</time>
      </trkpt>
      <trkpt lat="50.44127" lon="3.86546">
        <ele>81</ele>
        <time>2018-09-26T11:10:23.000Z</time>
      </trkpt>
      <trkpt lat="50.44121" lon="3.86559">
        <ele>81</ele>
        <time>2018-09-26T11:10:25.000Z</time>
      </trkpt>
      <trkpt lat="50.44114" lon="3.86571">
        <ele>81</ele>
        <time>2018-09-26T11:10:27.000Z</time>
      </trkpt>
      <trkpt lat="50.44107" lon="3.86583">
        <ele>81</ele>
        <time>2018-09-26T11:10:29.000Z</time>
      </trkpt>
      <trkpt lat="50.44099" lon="3.86597">
        <ele>81</ele>
        <time>2018-09-26T11:10:31.000Z</time>
      </trkpt>
      <trkpt lat="50.44093" lon="3.86611">
        <ele>81</ele>
        <time>2018-09-26T11:10:33.000Z</time>
      </trkpt>
      <trkpt lat="50.4409" lon="3.86626">
        <ele>81</ele>
        <time>2018-09-26T11:10:35.000Z</time>
      </trkpt>
      <trkpt lat="50.4409" lon="3.86641">
        <ele>81</ele>
        <time>2018-09-26T11:10:37.000Z</time>
      </trkpt>
      <trkpt lat="50.4409" lon="3.86656">
        <ele>81</ele>
        <time>2018-09-26T11:10:39.000Z</time>
      </trkpt>
      <trkpt lat="50.44088" lon="3.86671">
        <ele>81</ele>
        <time>2018-09-26T11:10:41.000Z</time>
      </trkpt>
      <trkpt lat="50.44087" lon="3.86687">
        <ele>81</ele>
        <time>2018-09-26T11:10:43.000Z</time>
      </trkpt>
      <trkpt lat="50.44085" lon="3.86703">
        <ele>81</ele>
        <time>2018-09-26T11:10:45.000Z</time>
      </trkpt>
      <trkpt lat="50.44084" lon="3.8672">
        <ele>80</ele>
        <time>2018-09-26T11:10:47.000Z</time>
      </trkpt>
      <trkpt lat="50.44083" lon="3.86736">
        <ele>81</ele>
        <time>2018-09-26T11:10:49.000Z</time>
      </trkpt>
      <trkpt lat="50.44082" lon="3.86752">
        <ele>81</ele>
        <time>2018-09-26T11:10:51.000Z</time>
      </trkpt>
      <trkpt lat="50.44081" lon="3.86767">
        <ele>81</ele>
        <time>2018-09-26T11:10:53.000Z</time>
      </trkpt>
      <trkpt lat="50.44081" lon="3.86784">
        <ele>81</ele>
        <time>2018-09-26T11:10:55.000Z</time>
      </trkpt>
      <trkpt lat="50.44082" lon="3.86801">
        <ele>81</ele>
        <time>2018-09-26T11:10:57.000Z</time>
      </trkpt>
      <trkpt lat="50.44083" lon="3.86819">
        <ele>81</ele>
        <time>2018-09-26T11:10:59.000Z</time>
      </trkpt>
      <trkpt lat="50.44084" lon="3.86835">
        <ele>82</ele>
        <time>2018-09-26T11:11:01.000Z</time>
      </trkpt>
      <trkpt lat="50.44086" lon="3.86852">
        <ele>81</ele>
        <time>2018-09-26T11:11:03.000Z</time>
      </trkpt>
      <trkpt lat="50.44088" lon="3.86867">
        <ele>82</ele>
        <time>2018-09-26T11:11:05.000Z</time>
      </trkpt>
      <trkpt lat="50.4409" lon="3.86883">
        <ele>82</ele>
        <time>2018-09-26T11:11:07.000Z</time>
      </trkpt>
      <trkpt lat="50.44091" lon="3.86901">
        <ele>82</ele>
        <time>2018-09-26T11:11:09.000Z</time>
      </trkpt>
      <trkpt lat="50.44092" lon="3.86919">
        <ele>82</ele>
        <time>2018-09-26T11:11:11.000Z</time>
      </trkpt>
      <trkpt lat="50.44093" lon="3.86935">
        <ele>82</ele>
        <time>2018-09-26T11:11:13.000Z</time>
      </trkpt>
      <trkpt lat="50.44094" lon="3.86953">
        <ele>82</ele>
        <time>2018-09-26T11:11:15.000Z</time>
      </trkpt>
      <trkpt lat="50.44096" lon="3.86971">
        <ele>82</ele>
        <time>2018-09-26T11:11:17.000Z</time>
      </trkpt>
      <trkpt lat="50.44097" lon="3.86988">
        <ele>82</ele>
        <time>2018-09-26T11:11:19.000Z</time>
      </trkpt>
      <trkpt lat="50.44099" lon="3.87006">
        <ele>83</ele>
        <time>2018-09-26T11:11:21.000Z</time>
      </trkpt>
      <trkpt lat="50.441" lon="3.87024">
        <ele>83</ele>
        <time>2018-09-26T11:11:23.000Z</time>
      </trkpt>
      <trkpt lat="50.44102" lon="3.87042">
        <ele>83</ele>
        <time>2018-09-26T11:11:25.000Z</time>
      </trkpt>
      <trkpt lat="50.44103" lon="3.87059">
        <ele>83</ele>
        <time>2018-09-26T11:11:27.000Z</time>
      </trkpt>
      <trkpt lat="50.44104" lon="3.87076">
        <ele>83</ele>
        <time>2018-09-26T11:11:29.000Z</time>
      </trkpt>
      <trkpt lat="50.44106" lon="3.87093">
        <ele>83</ele>
        <time>2018-09-26T11:11:31.000Z</time>
      </trkpt>
      <trkpt lat="50.44108" lon="3.87111">
        <ele>83</ele>
        <time>2018-09-26T11:11:33.000Z</time>
      </trkpt>
      <trkpt lat="50.44109" lon="3.87128">
        <ele>84</ele>
        <time>2018-09-26T11:11:35.000Z</time>
      </trkpt>
      <trkpt lat="50.4411" lon="3.87145">
        <ele>84</ele>
        <time>2018-09-26T11:11:37.000Z</time>
      </trkpt>
      <trkpt lat="50.44111" lon="3.87162">
        <ele>84</ele>
        <time>2018-09-26T11:11:39.000Z</time>
      </trkpt>
      <trkpt lat="50.44112" lon="3.8718">
        <ele>84</ele>
        <time>2018-09-26T11:11:41.000Z</time>
      </trkpt>
      <trkpt lat="50.44113" lon="3.87198">
        <ele>84</ele>
        <time>2018-09-26T11:11:43.000Z</time>
      </trkpt>
      <trkpt lat="50.44114" lon="3.87217">
        <ele>84</ele>
        <time>2018-09-26T11:11:45.000Z</time>
      </trkpt>
      <trkpt lat="50.44114" lon="3.87238">
        <ele>84</ele>
        <time>2018-09-26T11:11:47.000Z</time>
      </trkpt>
      <trkpt lat="50.44114" lon="3.87257">
        <ele>84</ele>
        <time>2018-09-26T11:11:49.000Z</time>
      </trkpt>
      <trkpt lat="50.44114" lon="3.87276">
        <ele>85</ele>
        <time>2018-09-26T11:11:51.000Z</time>
      </trkpt>
      <trkpt lat="50.44116" lon="3.87295">
        <ele>86</ele>
        <time>2018-09-26T11:11:53.000Z</time>
      </trkpt>
      <trkpt lat="50.44117" lon="3.87313">
        <ele>86</ele>
        <time>2018-09-26T11:11:55.000Z</time>
      </trkpt>
      <trkpt lat="50.44117" lon="3.87331">
        <ele>87</ele>
        <time>2018-09-26T11:11:57.000Z</time>
      </trkpt>
      <trkpt lat="50.44118" lon="3.87348">
        <ele>87</ele>
        <time>2018-09-26T11:11:59.000Z</time>
      </trkpt>
      <trkpt lat="50.44118" lon="3.87363">
        <ele>88</ele>
        <time>2018-09-26T11:12:01.000Z</time>
      </trkpt>
      <trkpt lat="50.44118" lon="3.87378">
        <ele>88</ele>
        <time>2018-09-26T11:12:03.000Z</time>
      </trkpt>
      <trkpt lat="50.44118" lon="3.87394">
        <ele>88</ele>
        <time>2018-09-26T11:12:05.000Z</time>
      </trkpt>
      <trkpt lat="50.44118" lon="3.87409">
        <ele>88</ele>
        <time>2018-09-26T11:12:07.000Z</time>
      </trkpt>
      <trkpt lat="50.44119" lon="3.87424">
        <ele>88</ele>
        <time>2018-09-26T11:12:09.000Z</time>
      </trkpt>
      <trkpt lat="50.4412" lon="3.8744">
        <ele>88</ele>
        <time>2018-09-26T11:12:11.000Z</time>
      </trkpt>
      <trkpt lat="50.44121" lon="3.87455">
        <ele>89</ele>
        <time>2018-09-26T11:12:13.000Z</time>
      </trkpt>
      <trkpt lat="50.44121" lon="3.8747">
        <ele>89</ele>
        <time>2018-09-26T11:12:15.000Z</time>
      </trkpt>
      <trkpt lat="50.44122" lon="3.87485">
        <ele>90</ele>
        <time>2018-09-26T11:12:17.000Z</time>
      </trkpt>
      <trkpt lat="50.44123" lon="3.87501">
        <ele>91</ele>
        <time>2018-09-26T11:12:19.000Z</time>
      </trkpt>
      <trkpt lat="50.44123" lon="3.87516">
        <ele>91</ele>
        <time>2018-09-26T11:12:21.000Z</time>
      </trkpt>
      <trkpt lat="50.44124" lon="3.87531">
        <ele>91</ele>
        <time>2018-09-26T11:12:23.000Z</time>
      </trkpt>
      <trkpt lat="50.44124" lon="3.87547">
        <ele>92</ele>
        <time>2018-09-26T11:12:25.000Z</time>
      </trkpt>
      <trkpt lat="50.44125" lon="3.87561">
        <ele>92</ele>
        <time>2018-09-26T11:12:27.000Z</time>
      </trkpt>
      <trkpt lat="50.44125" lon="3.87576">
        <ele>93</ele>
        <time>2018-09-26T11:12:29.000Z</time>
      </trkpt>
      <trkpt lat="50.44126" lon="3.87591">
        <ele>93</ele>
        <time>2018-09-26T11:12:31.000Z</time>
      </trkpt>
      <trkpt lat="50.44126" lon="3.87605">
        <ele>94</ele>
        <time>2018-09-26T11:12:33.000Z</time>
      </trkpt>
      <trkpt lat="50.44127" lon="3.8762">
        <ele>94</ele>
        <time>2018-09-26T11:12:35.000Z</time>
      </trkpt>
      <trkpt lat="50.44127" lon="3.87634">
        <ele>95</ele>
        <time>2018-09-26T11:12:37.000Z</time>
      </trkpt>
      <trkpt lat="50.44127" lon="3.87648">
        <ele>95</ele>
        <time>2018-09-26T11:12:39.000Z</time>
      </trkpt>
      <trkpt lat="50.44128" lon="3.87662">
        <ele>95</ele>
        <time>2018-09-26T11:12:41.000Z</time>
      </trkpt>
      <trkpt lat="50.44127" lon="3.87676">
        <ele>95</ele>
        <time>2018-09-26T11:12:43.000Z</time>
      </trkpt>
      <trkpt lat="50.44127" lon="3.87689">
        <ele>96</ele>
        <time>2018-09-26T11:12:45.000Z</time>
      </trkpt>
      <trkpt lat="50.44127" lon="3.87701">
        <ele>96</ele>
        <time>2018-09-26T11:12:47.000Z</time>
      </trkpt>
      <trkpt lat="50.44126" lon="3.87714">
        <ele>97</ele>
        <time>2018-09-26T11:12:49.000Z</time>
      </trkpt>
      <trkpt lat="50.44125" lon="3.87726">
        <ele>97</ele>
        <time>2018-09-26T11:12:51.000Z</time>
      </trkpt>
      <trkpt lat="50.44124" lon="3.87739">
        <ele>98</ele>
        <time>2018-09-26T11:12:53.000Z</time>
      </trkpt>
      <trkpt lat="50.44123" lon="3.87751">
        <ele>98</ele>
        <time>2018-09-26T11:12:55.000Z</time>
      </trkpt>
      <trkpt lat="50.44122" lon="3.87763">
        <ele>99</ele>
        <time>2018-09-26T11:12:57.000Z</time>
      </trkpt>
      <trkpt lat="50.44121" lon="3.87774">
        <ele>99</ele>
        <time>2018-09-26T11:12:59.000Z</time>
      </trkpt>
      <trkpt lat="50.44119" lon="3.87786">
        <ele>99</ele>
        <time>2018-09-26T11:13:01.000Z</time>
      </trkpt>
      <trkpt lat="50.44117" lon="3.87797">
        <ele>100</ele>
        <time>2018-09-26T11:13:03.000Z</time>
      </trkpt>
      <trkpt lat="50.44114" lon="3.87808">
        <ele>100</ele>
        <time>2018-09-26T11:13:05.000Z</time>
      </trkpt>
      <trkpt lat="50.44112" lon="3.8782">
        <ele>101</ele>
        <time>2018-09-26T11:13:07.000Z</time>
      </trkpt>
      <trkpt lat="50.4411" lon="3.87833">
        <ele>101</ele>
        <time>2018-09-26T11:13:09.000Z</time>
      </trkpt>
      <trkpt lat="50.44108" lon="3.87846">
        <ele>101</ele>
        <time>2018-09-26T11:13:11.000Z</time>
      </trkpt>
      <trkpt lat="50.44106" lon="3.87858">
        <ele>101</ele>
        <time>2018-09-26T11:13:13.000Z</time>
      </trkpt>
      <trkpt lat="50.44104" lon="3.87869">
        <ele>102</ele>
        <time>2018-09-26T11:13:15.000Z</time>
      </trkpt>
      <trkpt lat="50.44102" lon="3.87879">
        <ele>103</ele>
        <time>2018-09-26T11:13:17.000Z</time>
      </trkpt>
      <trkpt lat="50.441" lon="3.87889">
        <ele>103</ele>
        <time>2018-09-26T11:13:19.000Z</time>
      </trkpt>
      <trkpt lat="50.44098" lon="3.87899">
        <ele>104</ele>
        <time>2018-09-26T11:13:21.000Z</time>
      </trkpt>
      <trkpt lat="50.44097" lon="3.87909">
        <ele>104</ele>
        <time>2018-09-26T11:13:23.000Z</time>
      </trkpt>
      <trkpt lat="50.44094" lon="3.87918">
        <ele>105</ele>
        <time>2018-09-26T11:13:25.000Z</time>
      </trkpt>
      <trkpt lat="50.44093" lon="3.87927">
        <ele>105</ele>
        <time>2018-09-26T11:13:27.000Z</time>
      </trkpt>
      <trkpt lat="50.44091" lon="3.87936">
        <ele>106</ele>
        <time>2018-09-26T11:13:29.000Z</time>
      </trkpt>
      <trkpt lat="50.44089" lon="3.87946">
        <ele>106</ele>
        <time>2018-09-26T11:13:31.000Z</time>
      </trkpt>
      <trkpt lat="50.44087" lon="3.87957">
        <ele>107</ele>
        <time>2018-09-26T11:13:33.000Z</time>
      </trkpt>
      <trkpt lat="50.44085" lon="3.87968">
        <ele>107</ele>
        <time>2018-09-26T11:13:35.000Z</time>
      </trkpt>
      <trkpt lat="50.44083" lon="3.87979">
        <ele>107</ele>
        <time>2018-09-26T11:13:37.000Z</time>
      </trkpt>
      <trkpt lat="50.44081" lon="3.87989">
        <ele>108</ele>
        <time>2018-09-26T11:13:39.000Z</time>
      </trkpt>
      <trkpt lat="50.44079" lon="3.88">
        <ele>108</ele>
        <time>2018-09-26T11:13:41.000Z</time>
      </trkpt>
      <trkpt lat="50.44077" lon="3.88011">
        <ele>109</ele>
        <time>2018-09-26T11:13:43.000Z</time>
      </trkpt>
      <trkpt lat="50.44075" lon="3.88021">
        <ele>109</ele>
        <time>2018-09-26T11:13:45.000Z</time>
      </trkpt>
      <trkpt lat="50.44073" lon="3.88032">
        <ele>110</ele>
        <time>2018-09-26T11:13:47.000Z</time>
      </trkpt>
      <trkpt lat="50.44071" lon="3.88044">
        <ele>110</ele>
        <time>2018-09-26T11:13:49.000Z</time>
      </trkpt>
      <trkpt lat="50.44069" lon="3.88055">
        <ele>110</ele>
        <time>2018-09-26T11:13:51.000Z</time>
      </trkpt>
      <trkpt lat="50.44067" lon="3.88067">
        <ele>111</ele>
        <time>2018-09-26T11:13:53.000Z</time>
      </trkpt>
      <trkpt lat="50.44064" lon="3.88078">
        <ele>111</ele>
        <time>2018-09-26T11:13:55.000Z</time>
      </trkpt>
      <trkpt lat="50.44061" lon="3.88089">
        <ele>111</ele>
        <time>2018-09-26T11:13:57.000Z</time>
      </trkpt>
      <trkpt lat="50.44058" lon="3.881">
        <ele>112</ele>
        <time>2018-09-26T11:13:59.000Z</time>
      </trkpt>
      <trkpt lat="50.44055" lon="3.88112">
        <ele>112</ele>
        <time>2018-09-26T11:14:01.000Z</time>
      </trkpt>
      <trkpt lat="50.44052" lon="3.88125">
        <ele>112</ele>
        <time>2018-09-26T11:14:03.000Z</time>
      </trkpt>
      <trkpt lat="50.44049" lon="3.88137">
        <ele>113</ele>
        <time>2018-09-26T11:14:05.000Z</time>
      </trkpt>
      <trkpt lat="50.44045" lon="3.8815">
        <ele>113</ele>
        <time>2018-09-26T11:14:07.000Z</time>
      </trkpt>
      <trkpt lat="50.44042" lon="3.88163">
        <ele>114</ele>
        <time>2018-09-26T11:14:09.000Z</time>
      </trkpt>
      <trkpt lat="50.44038" lon="3.88176">
        <ele>114</ele>
        <time>2018-09-26T11:14:11.000Z</time>
      </trkpt>
      <trkpt lat="50.44035" lon="3.88189">
        <ele>114</ele>
        <time>2018-09-26T11:14:13.000Z</time>
      </trkpt>
      <trkpt lat="50.44031" lon="3.88202">
        <ele>114</ele>
        <time>2018-09-26T11:14:15.000Z</time>
      </trkpt>
      <trkpt lat="50.44027" lon="3.88215">
        <ele>114</ele>
        <time>2018-09-26T11:14:17.000Z</time>
      </trkpt>
      <trkpt lat="50.44024" lon="3.88228">
        <ele>115</ele>
        <time>2018-09-26T11:14:19.000Z</time>
      </trkpt>
      <trkpt lat="50.4402" lon="3.88242">
        <ele>115</ele>
        <time>2018-09-26T11:14:21.000Z</time>
      </trkpt>
      <trkpt lat="50.44017" lon="3.88255">
        <ele>115</ele>
        <time>2018-09-26T11:14:23.000Z</time>
      </trkpt>
      <trkpt lat="50.44013" lon="3.88268">
        <ele>115</ele>
        <time>2018-09-26T11:14:25.000Z</time>
      </trkpt>
      <trkpt lat="50.4401" lon="3.88281">
        <ele>116</ele>
        <time>2018-09-26T11:14:27.000Z</time>
      </trkpt>
      <trkpt lat="50.44006" lon="3.88295">
        <ele>116</ele>
        <time>2018-09-26T11:14:29.000Z</time>
      </trkpt>
      <trkpt lat="50.44003" lon="3.88308">
        <ele>116</ele>
        <time>2018-09-26T11:14:31.000Z</time>
      </trkpt>
      <trkpt lat="50.43999" lon="3.88321">
        <ele>116</ele>
        <time>2018-09-26T11:14:33.000Z</time>
      </trkpt>
      <trkpt lat="50.43996" lon="3.88336">
        <ele>116</ele>
        <time>2018-09-26T11:14:35.000Z</time>
      </trkpt>
      <trkpt lat="50.43992" lon="3.8835">
        <ele>116</ele>
        <time>2018-09-26T11:14:37.000Z</time>
      </trkpt>
      <trkpt lat="50.43988" lon="3.88364">
        <ele>117</ele>
        <time>2018-09-26T11:14:39.000Z</time>
      </trkpt>
      <trkpt lat="50.43985" lon="3.88379">
        <ele>117</ele>
        <time>2018-09-26T11:14:41.000Z</time>
      </trkpt>
      <trkpt lat="50.43981" lon="3.88394">
        <ele>117</ele>
        <time>2018-09-26T11:14:43.000Z</time>
      </trkpt>
      <trkpt lat="50.43978" lon="3.88409">
        <ele>117</ele>
        <time>2018-09-26T11:14:45.000Z</time>
      </trkpt>
      <trkpt lat="50.43974" lon="3.88424">
        <ele>118</ele>
        <time>2018-09-26T11:14:47.000Z</time>
      </trkpt>
      <trkpt lat="50.4397" lon="3.88439">
        <ele>118</ele>
        <time>2018-09-26T11:14:49.000Z</time>
      </trkpt>
      <trkpt lat="50.43967" lon="3.88455">
        <ele>118</ele>
        <time>2018-09-26T11:14:51.000Z</time>
      </trkpt>
      <trkpt lat="50.43964" lon="3.8847">
        <ele>118</ele>
        <time>2018-09-26T11:14:53.000Z</time>
      </trkpt>
      <trkpt lat="50.43961" lon="3.88487">
        <ele>118</ele>
        <time>2018-09-26T11:14:55.000Z</time>
      </trkpt>
      <trkpt lat="50.43958" lon="3.88504">
        <ele>118</ele>
        <time>2018-09-26T11:14:57.000Z</time>
      </trkpt>
      <trkpt lat="50.43956" lon="3.88518">
        <ele>118</ele>
        <time>2018-09-26T11:14:59.000Z</time>
      </trkpt>
      <trkpt lat="50.43954" lon="3.88526">
        <ele>118</ele>
        <time>2018-09-26T11:15:01.000Z</time>
      </trkpt>
      <trkpt lat="50.43954" lon="3.88526">
        <ele>118</ele>
        <time>2018-09-26T11:15:03.000Z</time>
      </trkpt>
      <trkpt lat="50.43951" lon="3.88544">
        <ele>118</ele>
        <time>2018-09-26T11:15:05.000Z</time>
      </trkpt>
      <trkpt lat="50.43949" lon="3.88556">
        <ele>118</ele>
        <time>2018-09-26T11:15:07.000Z</time>
      </trkpt>
      <trkpt lat="50.43946" lon="3.88569">
        <ele>118</ele>
        <time>2018-09-26T11:15:09.000Z</time>
      </trkpt>
      <trkpt lat="50.43944" lon="3.88584">
        <ele>118</ele>
        <time>2018-09-26T11:15:11.000Z</time>
      </trkpt>
      <trkpt lat="50.43941" lon="3.88601">
        <ele>118</ele>
        <time>2018-09-26T11:15:13.000Z</time>
      </trkpt>
      <trkpt lat="50.43938" lon="3.88619">
        <ele>118</ele>
        <time>2018-09-26T11:15:15.000Z</time>
      </trkpt>
      <trkpt lat="50.43935" lon="3.88637">
        <ele>118</ele>
        <time>2018-09-26T11:15:17.000Z</time>
      </trkpt>
      <trkpt lat="50.4393" lon="3.88656">
        <ele>118</ele>
        <time>2018-09-26T11:15:19.000Z</time>
      </trkpt>
      <trkpt lat="50.43927" lon="3.88675">
        <ele>117</ele>
        <time>2018-09-26T11:15:21.000Z</time>
      </trkpt>
      <trkpt lat="50.43926" lon="3.88695">
        <ele>117</ele>
        <time>2018-09-26T11:15:23.000Z</time>
      </trkpt>
      <trkpt lat="50.43924" lon="3.8871">
        <ele>117</ele>
        <time>2018-09-26T11:15:26.000Z</time>
      </trkpt>
      <trkpt lat="50.43924" lon="3.8871">
        <ele>117</ele>
        <time>2018-09-26T11:15:29.000Z</time>
      </trkpt>
      <trkpt lat="50.43917" lon="3.88739">
        <ele>116</ele>
        <time>2018-09-26T11:15:48.000Z</time>
      </trkpt>
      <trkpt lat="50.43914" lon="3.88774">
        <ele>115</ele>
        <time>2018-09-26T11:15:52.000Z</time>
      </trkpt>
      <trkpt lat="50.43913" lon="3.88793">
        <ele>115</ele>
        <time>2018-09-26T11:15:54.000Z</time>
      </trkpt>
      <trkpt lat="50.43911" lon="3.88813">
        <ele>115</ele>
        <time>2018-09-26T11:15:56.000Z</time>
      </trkpt>
      <trkpt lat="50.4391" lon="3.88834">
        <ele>115</ele>
        <time>2018-09-26T11:15:58.000Z</time>
      </trkpt>
      <trkpt lat="50.43909" lon="3.88854">
        <ele>115</ele>
        <time>2018-09-26T11:16:00.000Z</time>
      </trkpt>
      <trkpt lat="50.43906" lon="3.88875">
        <ele>115</ele>
        <time>2018-09-26T11:16:02.000Z</time>
      </trkpt>
      <trkpt lat="50.43904" lon="3.88895">
        <ele>115</ele>
        <time>2018-09-26T11:16:04.000Z</time>
      </trkpt>
      <trkpt lat="50.43903" lon="3.88917">
        <ele>115</ele>
        <time>2018-09-26T11:16:06.000Z</time>
      </trkpt>
      <trkpt lat="50.439" lon="3.88938">
        <ele>115</ele>
        <time>2018-09-26T11:16:08.000Z</time>
      </trkpt>
      <trkpt lat="50.43898" lon="3.88958">
        <ele>116</ele>
        <time>2018-09-26T11:16:10.000Z</time>
      </trkpt>
      <trkpt lat="50.43894" lon="3.88978">
        <ele>116</ele>
        <time>2018-09-26T11:16:12.000Z</time>
      </trkpt>
      <trkpt lat="50.43891" lon="3.88999">
        <ele>116</ele>
        <time>2018-09-26T11:16:14.000Z</time>
      </trkpt>
      <trkpt lat="50.43887" lon="3.89019">
        <ele>116</ele>
        <time>2018-09-26T11:16:16.000Z</time>
      </trkpt>
      <trkpt lat="50.43884" lon="3.8904">
        <ele>116</ele>
        <time>2018-09-26T11:16:18.000Z</time>
      </trkpt>
      <trkpt lat="50.43881" lon="3.8906">
        <ele>116</ele>
        <time>2018-09-26T11:16:20.000Z</time>
      </trkpt>
      <trkpt lat="50.43878" lon="3.89079">
        <ele>116</ele>
        <time>2018-09-26T11:16:22.000Z</time>
      </trkpt>
      <trkpt lat="50.43875" lon="3.89099">
        <ele>116</ele>
        <time>2018-09-26T11:16:24.000Z</time>
      </trkpt>
      <trkpt lat="50.43872" lon="3.89119">
        <ele>115</ele>
        <time>2018-09-26T11:16:26.000Z</time>
      </trkpt>
      <trkpt lat="50.43868" lon="3.89139">
        <ele>116</ele>
        <time>2018-09-26T11:16:28.000Z</time>
      </trkpt>
      <trkpt lat="50.43864" lon="3.8916">
        <ele>116</ele>
        <time>2018-09-26T11:16:30.000Z</time>
      </trkpt>
      <trkpt lat="50.4386" lon="3.8918">
        <ele>116</ele>
        <time>2018-09-26T11:16:32.000Z</time>
      </trkpt>
      <trkpt lat="50.43856" lon="3.89202">
        <ele>116</ele>
        <time>2018-09-26T11:16:34.000Z</time>
      </trkpt>
      <trkpt lat="50.43852" lon="3.89224">
        <ele>115</ele>
        <time>2018-09-26T11:16:36.000Z</time>
      </trkpt>
      <trkpt lat="50.43849" lon="3.89247">
        <ele>115</ele>
        <time>2018-09-26T11:16:38.000Z</time>
      </trkpt>
      <trkpt lat="50.43844" lon="3.89269">
        <ele>115</ele>
        <time>2018-09-26T11:16:40.000Z</time>
      </trkpt>
      <trkpt lat="50.4384" lon="3.8929">
        <ele>115</ele>
        <time>2018-09-26T11:16:42.000Z</time>
      </trkpt>
      <trkpt lat="50.43837" lon="3.89313">
        <ele>115</ele>
        <time>2018-09-26T11:16:44.000Z</time>
      </trkpt>
      <trkpt lat="50.43833" lon="3.89336">
        <ele>115</ele>
        <time>2018-09-26T11:16:46.000Z</time>
      </trkpt>
      <trkpt lat="50.43829" lon="3.89359">
        <ele>115</ele>
        <time>2018-09-26T11:16:48.000Z</time>
      </trkpt>
      <trkpt lat="50.43825" lon="3.89383">
        <ele>115</ele>
        <time>2018-09-26T11:16:50.000Z</time>
      </trkpt>
      <trkpt lat="50.43822" lon="3.89408">
        <ele>115</ele>
        <time>2018-09-26T11:16:52.000Z</time>
      </trkpt>
      <trkpt lat="50.4382" lon="3.89431">
        <ele>115</ele>
        <time>2018-09-26T11:16:54.000Z</time>
      </trkpt>
      <trkpt lat="50.43818" lon="3.89455">
        <ele>114</ele>
        <time>2018-09-26T11:16:56.000Z</time>
      </trkpt>
      <trkpt lat="50.43816" lon="3.89476">
        <ele>113</ele>
        <time>2018-09-26T11:16:58.000Z</time>
      </trkpt>
      <trkpt lat="50.43815" lon="3.89492">
        <ele>113</ele>
        <time>2018-09-26T11:17:00.000Z</time>
      </trkpt>
      <trkpt lat="50.43816" lon="3.89507">
        <ele>112</ele>
        <time>2018-09-26T11:17:02.000Z</time>
      </trkpt>
      <trkpt lat="50.43825" lon="3.89513">
        <ele>112</ele>
        <time>2018-09-26T11:17:04.000Z</time>
      </trkpt>
      <trkpt lat="50.43835" lon="3.89517">
        <ele>112</ele>
        <time>2018-09-26T11:17:06.000Z</time>
      </trkpt>
      <trkpt lat="50.43846" lon="3.89523">
        <ele>112</ele>
        <time>2018-09-26T11:17:08.000Z</time>
      </trkpt>
      <trkpt lat="50.43857" lon="3.89528">
        <ele>112</ele>
        <time>2018-09-26T11:17:10.000Z</time>
      </trkpt>
      <trkpt lat="50.43868" lon="3.89534">
        <ele>112</ele>
        <time>2018-09-26T11:17:12.000Z</time>
      </trkpt>
      <trkpt lat="50.43879" lon="3.89539">
        <ele>112</ele>
        <time>2018-09-26T11:17:14.000Z</time>
      </trkpt>
      <trkpt lat="50.4389" lon="3.89544">
        <ele>112</ele>
        <time>2018-09-26T11:17:16.000Z</time>
      </trkpt>
      <trkpt lat="50.43901" lon="3.89551">
        <ele>112</ele>
        <time>2018-09-26T11:17:18.000Z</time>
      </trkpt>
      <trkpt lat="50.43911" lon="3.89557">
        <ele>112</ele>
        <time>2018-09-26T11:17:20.000Z</time>
      </trkpt>
      <trkpt lat="50.43922" lon="3.89562">
        <ele>111</ele>
        <time>2018-09-26T11:17:22.000Z</time>
      </trkpt>
      <trkpt lat="50.43933" lon="3.8957">
        <ele>111</ele>
        <time>2018-09-26T11:17:24.000Z</time>
      </trkpt>
      <trkpt lat="50.43945" lon="3.89577">
        <ele>111</ele>
        <time>2018-09-26T11:17:26.000Z</time>
      </trkpt>
      <trkpt lat="50.43958" lon="3.89584">
        <ele>111</ele>
        <time>2018-09-26T11:17:28.000Z</time>
      </trkpt>
      <trkpt lat="50.43971" lon="3.89591">
        <ele>110</ele>
        <time>2018-09-26T11:17:30.000Z</time>
      </trkpt>
      <trkpt lat="50.43985" lon="3.89597">
        <ele>110</ele>
        <time>2018-09-26T11:17:32.000Z</time>
      </trkpt>
      <trkpt lat="50.43998" lon="3.89604">
        <ele>111</ele>
        <time>2018-09-26T11:17:34.000Z</time>
      </trkpt>
      <trkpt lat="50.44011" lon="3.89612">
        <ele>111</ele>
        <time>2018-09-26T11:17:36.000Z</time>
      </trkpt>
      <trkpt lat="50.44023" lon="3.89621">
        <ele>110</ele>
        <time>2018-09-26T11:17:38.000Z</time>
      </trkpt>
      <trkpt lat="50.44035" lon="3.89629">
        <ele>111</ele>
        <time>2018-09-26T11:17:40.000Z</time>
      </trkpt>
      <trkpt lat="50.44047" lon="3.89635">
        <ele>110</ele>
        <time>2018-09-26T11:17:42.000Z</time>
      </trkpt>
      <trkpt lat="50.4406" lon="3.8964">
        <ele>109</ele>
        <time>2018-09-26T11:17:44.000Z</time>
      </trkpt>
      <trkpt lat="50.44073" lon="3.89648">
        <ele>109</ele>
        <time>2018-09-26T11:17:46.000Z</time>
      </trkpt>
      <trkpt lat="50.44087" lon="3.89656">
        <ele>109</ele>
        <time>2018-09-26T11:17:48.000Z</time>
      </trkpt>
      <trkpt lat="50.44102" lon="3.89664">
        <ele>109</ele>
        <time>2018-09-26T11:17:50.000Z</time>
      </trkpt>
      <trkpt lat="50.44117" lon="3.89674">
        <ele>108</ele>
        <time>2018-09-26T11:17:52.000Z</time>
      </trkpt>
      <trkpt lat="50.44133" lon="3.89682">
        <ele>108</ele>
        <time>2018-09-26T11:17:54.000Z</time>
      </trkpt>
      <trkpt lat="50.44149" lon="3.89689">
        <ele>107</ele>
        <time>2018-09-26T11:17:56.000Z</time>
      </trkpt>
      <trkpt lat="50.44165" lon="3.89694">
        <ele>106</ele>
        <time>2018-09-26T11:17:58.000Z</time>
      </trkpt>
      <trkpt lat="50.44182" lon="3.89698">
        <ele>105</ele>
        <time>2018-09-26T11:18:00.000Z</time>
      </trkpt>
      <trkpt lat="50.442" lon="3.89702">
        <ele>104</ele>
        <time>2018-09-26T11:18:02.000Z</time>
      </trkpt>
      <trkpt lat="50.44218" lon="3.89706">
        <ele>103</ele>
        <time>2018-09-26T11:18:04.000Z</time>
      </trkpt>
      <trkpt lat="50.44238" lon="3.89709">
        <ele>102</ele>
        <time>2018-09-26T11:18:06.000Z</time>
      </trkpt>
      <trkpt lat="50.44256" lon="3.89713">
        <ele>101</ele>
        <time>2018-09-26T11:18:08.000Z</time>
      </trkpt>
      <trkpt lat="50.44275" lon="3.89718">
        <ele>100</ele>
        <time>2018-09-26T11:18:10.000Z</time>
      </trkpt>
      <trkpt lat="50.44293" lon="3.89722">
        <ele>99</ele>
        <time>2018-09-26T11:18:12.000Z</time>
      </trkpt>
      <trkpt lat="50.44312" lon="3.89726">
        <ele>98</ele>
        <time>2018-09-26T11:18:14.000Z</time>
      </trkpt>
      <trkpt lat="50.44326" lon="3.8973">
        <ele>97</ele>
        <time>2018-09-26T11:18:16.000Z</time>
      </trkpt>
      <trkpt lat="50.44339" lon="3.89735">
        <ele>95</ele>
        <time>2018-09-26T11:18:18.000Z</time>
      </trkpt>
      <trkpt lat="50.44352" lon="3.89738">
        <ele>93</ele>
        <time>2018-09-26T11:18:20.000Z</time>
      </trkpt>
      <trkpt lat="50.44367" lon="3.89742">
        <ele>92</ele>
        <time>2018-09-26T11:18:22.000Z</time>
      </trkpt>
      <trkpt lat="50.44382" lon="3.89747">
        <ele>93</ele>
        <time>2018-09-26T11:18:24.000Z</time>
      </trkpt>
      <trkpt lat="50.444" lon="3.8975">
        <ele>91</ele>
        <time>2018-09-26T11:18:26.000Z</time>
      </trkpt>
      <trkpt lat="50.44417" lon="3.8975">
        <ele>92</ele>
        <time>2018-09-26T11:18:28.000Z</time>
      </trkpt>
      <trkpt lat="50.44433" lon="3.89749">
        <ele>92</ele>
        <time>2018-09-26T11:18:30.000Z</time>
      </trkpt>
      <trkpt lat="50.44444" lon="3.89749">
        <ele>90</ele>
        <time>2018-09-26T11:18:35.000Z</time>
      </trkpt>
      <trkpt lat="50.4445" lon="3.8975">
        <ele>89</ele>
        <time>2018-09-26T11:18:37.000Z</time>
      </trkpt>
      <trkpt lat="50.44459" lon="3.89752">
        <ele>88</ele>
        <time>2018-09-26T11:18:39.000Z</time>
      </trkpt>
      <trkpt lat="50.44472" lon="3.89753">
        <ele>89</ele>
        <time>2018-09-26T11:18:41.000Z</time>
      </trkpt>
      <trkpt lat="50.44485" lon="3.89754">
        <ele>88</ele>
        <time>2018-09-26T11:18:43.000Z</time>
      </trkpt>
      <trkpt lat="50.445" lon="3.89757">
        <ele>88</ele>
        <time>2018-09-26T11:18:45.000Z</time>
      </trkpt>
      <trkpt lat="50.44514" lon="3.8976">
        <ele>87</ele>
        <time>2018-09-26T11:18:47.000Z</time>
      </trkpt>
      <trkpt lat="50.44528" lon="3.89761">
        <ele>87</ele>
        <time>2018-09-26T11:18:49.000Z</time>
      </trkpt>
      <trkpt lat="50.44541" lon="3.89761">
        <ele>87</ele>
        <time>2018-09-26T11:18:51.000Z</time>
      </trkpt>
      <trkpt lat="50.44551" lon="3.89753">
        <ele>86</ele>
        <time>2018-09-26T11:18:53.000Z</time>
      </trkpt>
      <trkpt lat="50.44556" lon="3.89732">
        <ele>86</ele>
        <time>2018-09-26T11:18:55.000Z</time>
      </trkpt>
      <trkpt lat="50.44561" lon="3.89713">
        <ele>86</ele>
        <time>2018-09-26T11:18:57.000Z</time>
      </trkpt>
      <trkpt lat="50.44565" lon="3.89694">
        <ele>86</ele>
        <time>2018-09-26T11:18:59.000Z</time>
      </trkpt>
      <trkpt lat="50.44566" lon="3.89674">
        <ele>85</ele>
        <time>2018-09-26T11:19:01.000Z</time>
      </trkpt>
      <trkpt lat="50.44569" lon="3.89656">
        <ele>86</ele>
        <time>2018-09-26T11:19:03.000Z</time>
      </trkpt>
      <trkpt lat="50.44573" lon="3.89639">
        <ele>87</ele>
        <time>2018-09-26T11:19:05.000Z</time>
      </trkpt>
      <trkpt lat="50.44579" lon="3.89625">
        <ele>87</ele>
        <time>2018-09-26T11:19:07.000Z</time>
      </trkpt>
      <trkpt lat="50.44583" lon="3.8961">
        <ele>88</ele>
        <time>2018-09-26T11:19:09.000Z</time>
      </trkpt>
      <trkpt lat="50.44587" lon="3.89595">
        <ele>88</ele>
        <time>2018-09-26T11:19:11.000Z</time>
      </trkpt>
      <trkpt lat="50.44591" lon="3.89579">
        <ele>89</ele>
        <time>2018-09-26T11:19:13.000Z</time>
      </trkpt>
      <trkpt lat="50.44596" lon="3.89562">
        <ele>88</ele>
        <time>2018-09-26T11:19:15.000Z</time>
      </trkpt>
      <trkpt lat="50.44601" lon="3.89546">
        <ele>89</ele>
        <time>2018-09-26T11:19:17.000Z</time>
      </trkpt>
      <trkpt lat="50.44605" lon="3.89531">
        <ele>89</ele>
        <time>2018-09-26T11:19:19.000Z</time>
      </trkpt>
      <trkpt lat="50.44609" lon="3.89516">
        <ele>89</ele>
        <time>2018-09-26T11:19:21.000Z</time>
      </trkpt>
      <trkpt lat="50.44614" lon="3.89502">
        <ele>90</ele>
        <time>2018-09-26T11:19:23.000Z</time>
      </trkpt>
      <trkpt lat="50.44618" lon="3.89488">
        <ele>90</ele>
        <time>2018-09-26T11:19:25.000Z</time>
      </trkpt>
      <trkpt lat="50.44622" lon="3.89473">
        <ele>90</ele>
        <time>2018-09-26T11:19:27.000Z</time>
      </trkpt>
      <trkpt lat="50.44627" lon="3.89458">
        <ele>90</ele>
        <time>2018-09-26T11:19:29.000Z</time>
      </trkpt>
      <trkpt lat="50.44632" lon="3.89445">
        <ele>90</ele>
        <time>2018-09-26T11:19:31.000Z</time>
      </trkpt>
      <trkpt lat="50.44636" lon="3.89434">
        <ele>91</ele>
        <time>2018-09-26T11:19:33.000Z</time>
      </trkpt>
      <trkpt lat="50.44636" lon="3.89434">
        <ele>91</ele>
        <time>2018-09-26T11:19:35.000Z</time>
      </trkpt>
      <trkpt lat="50.44639" lon="3.89425">
        <ele>92</ele>
        <time>2018-09-26T11:19:37.000Z</time>
      </trkpt>
      <trkpt lat="50.44639" lon="3.89425">
        <ele>92</ele>
        <time>2018-09-26T11:19:39.000Z</time>
      </trkpt>
      <trkpt lat="50.44639" lon="3.89425">
        <ele>92</ele>
        <time>2018-09-26T11:19:41.000Z</time>
      </trkpt>
      <trkpt lat="50.44636" lon="3.89414">
        <ele>89</ele>
        <time>2018-09-26T11:20:10.000Z</time>
      </trkpt>
      <trkpt lat="50.44636" lon="3.89414">
        <ele>89</ele>
        <time>2018-09-26T11:20:12.000Z</time>
      </trkpt>
      <trkpt lat="50.44636" lon="3.89414">
        <ele>89</ele>
        <time>2018-09-26T11:20:14.000Z</time>
      </trkpt>
    </trkseg>
  </trk>
</gpx>